<?xml version="1.0" encoding="UTF-8" standalone="no" ?>
<gpx xmlns="http://www.topografix.com/GPX/1/1" xmlns:xsi="http://www.w3.org/2001/XMLSchema-instance" xsi:schemaLocation="http://www.topografix.com/GPX/1/1 http://www.topografix.com/GPX/1/1/gpx.xsd" version="1.1" creator="VisuGPX - https://www.visugpx.com">
  <metadata>
    <name>Rando Dordogne - Etape 5 Villars/Brantome</name>
    <desc><![CDATA[Départ des Vergnes, Mme Vachaumard
Arrivée à l\'hotel Alienor de Brantôme]]></desc>
  </metadata>
  <trk>
    <name><![CDATA[Rando Dordogne - Etape 5 Villars/Brantome_1]]></name>
    <trkseg>
      <trkpt lat="45.42058" lon="0.79081">
        <ele>211</ele>
        <time>2015-08-07T09:15:39Z</time>
      </trkpt>
      <trkpt lat="45.42054" lon="0.79076">
        <ele>211</ele>
        <time>2015-08-07T09:15:44Z</time>
      </trkpt>
      <trkpt lat="45.4205" lon="0.79073">
        <ele>211.34005708473</ele>
        <time>2015-08-07T09:15:49Z</time>
      </trkpt>
      <trkpt lat="45.4205" lon="0.79067">
        <ele>211.34005708473</ele>
        <time>2015-08-07T09:15:54Z</time>
      </trkpt>
      <trkpt lat="45.42051" lon="0.7906">
        <ele>212.59856476285</ele>
        <time>2015-08-07T09:15:59Z</time>
      </trkpt>
      <trkpt lat="45.42051" lon="0.79055">
        <ele>212.59856476285</ele>
        <time>2015-08-07T09:16:04Z</time>
      </trkpt>
      <trkpt lat="45.42051" lon="0.79048">
        <ele>212.59856476285</ele>
        <time>2015-08-07T09:16:09Z</time>
      </trkpt>
      <trkpt lat="45.4205" lon="0.79041">
        <ele>214.53668337915</ele>
        <time>2015-08-07T09:16:14Z</time>
      </trkpt>
      <trkpt lat="45.42052" lon="0.79035">
        <ele>214.53668337915</ele>
        <time>2015-08-07T09:16:19Z</time>
      </trkpt>
      <trkpt lat="45.42058" lon="0.79033">
        <ele>216.29616304299</ele>
        <time>2015-08-07T09:16:24Z</time>
      </trkpt>
      <trkpt lat="45.42063" lon="0.7903">
        <ele>216.29616304299</ele>
        <time>2015-08-07T09:16:29Z</time>
      </trkpt>
      <trkpt lat="45.42068" lon="0.79027">
        <ele>217.27517010215</ele>
        <time>2015-08-07T09:16:34Z</time>
      </trkpt>
      <trkpt lat="45.42073" lon="0.79027">
        <ele>217.27517010215</ele>
        <time>2015-08-07T09:16:39Z</time>
      </trkpt>
      <trkpt lat="45.42079" lon="0.79028">
        <ele>217.96829807737</ele>
        <time>2015-08-07T09:16:44Z</time>
      </trkpt>
      <trkpt lat="45.42084" lon="0.7903">
        <ele>217.96829807737</ele>
        <time>2015-08-07T09:16:49Z</time>
      </trkpt>
      <trkpt lat="45.42087" lon="0.7903">
        <ele>217.96829807737</ele>
        <time>2015-08-07T09:16:54Z</time>
      </trkpt>
      <trkpt lat="45.4209" lon="0.7903">
        <ele>218.93372191485</ele>
        <time>2015-08-07T09:16:59Z</time>
      </trkpt>
      <trkpt lat="45.4209" lon="0.79029">
        <ele>218.93372191485</ele>
        <time>2015-08-07T09:17:04Z</time>
      </trkpt>
      <trkpt lat="45.42091" lon="0.79029">
        <ele>218.93372191485</ele>
        <time>2015-08-07T09:17:09Z</time>
      </trkpt>
      <trkpt lat="45.42092" lon="0.7903">
        <ele>218.93372191485</ele>
        <time>2015-08-07T09:17:14Z</time>
      </trkpt>
      <trkpt lat="45.42092" lon="0.79031">
        <ele>218.93372191485</ele>
        <time>2015-08-07T09:17:19Z</time>
      </trkpt>
      <trkpt lat="45.42092" lon="0.7903">
        <ele>218.93372191485</ele>
        <time>2015-08-07T09:17:24Z</time>
      </trkpt>
      <trkpt lat="45.42092" lon="0.7903">
        <ele>218.93372191485</ele>
        <time>2015-08-07T09:17:29Z</time>
      </trkpt>
      <trkpt lat="45.42094" lon="0.79031">
        <ele>218.93372191485</ele>
        <time>2015-08-07T09:17:34Z</time>
      </trkpt>
      <trkpt lat="45.42095" lon="0.79032">
        <ele>218.93372191485</ele>
        <time>2015-08-07T09:17:39Z</time>
      </trkpt>
      <trkpt lat="45.42093" lon="0.79032">
        <ele>218.93372191485</ele>
        <time>2015-08-07T09:17:44Z</time>
      </trkpt>
      <trkpt lat="45.42094" lon="0.7903">
        <ele>219.05049554984</ele>
        <time>2015-08-07T09:17:55Z</time>
      </trkpt>
      <trkpt lat="45.42103" lon="0.79032">
        <ele>219.28003847077</ele>
        <time>2015-08-07T09:18:00Z</time>
      </trkpt>
      <trkpt lat="45.42112" lon="0.79036">
        <ele>219.28003847077</ele>
        <time>2015-08-07T09:18:09Z</time>
      </trkpt>
      <trkpt lat="45.42116" lon="0.79038">
        <ele>218.74796832773</ele>
        <time>2015-08-07T09:18:15Z</time>
      </trkpt>
      <trkpt lat="45.42126" lon="0.79045">
        <ele>217.88220076519</ele>
        <time>2015-08-07T09:18:24Z</time>
      </trkpt>
      <trkpt lat="45.42133" lon="0.79048">
        <ele>217.88220076519</ele>
        <time>2015-08-07T09:18:30Z</time>
      </trkpt>
      <trkpt lat="45.42143" lon="0.79054">
        <ele>216.95060123533</ele>
        <time>2015-08-07T09:18:40Z</time>
      </trkpt>
      <trkpt lat="45.42149" lon="0.79058">
        <ele>216.95060123533</ele>
        <time>2015-08-07T09:18:45Z</time>
      </trkpt>
      <trkpt lat="45.4216" lon="0.79064">
        <ele>215.8087381753</ele>
        <time>2015-08-07T09:18:54Z</time>
      </trkpt>
      <trkpt lat="45.42166" lon="0.79066">
        <ele>215.8087381753</ele>
        <time>2015-08-07T09:19:00Z</time>
      </trkpt>
      <trkpt lat="45.42177" lon="0.79071">
        <ele>214.76346516219</ele>
        <time>2015-08-07T09:19:10Z</time>
      </trkpt>
      <trkpt lat="45.42184" lon="0.79072">
        <ele>214.76346516219</ele>
        <time>2015-08-07T09:19:15Z</time>
      </trkpt>
      <trkpt lat="45.42194" lon="0.79077">
        <ele>213.16323272363</ele>
        <time>2015-08-07T09:19:25Z</time>
      </trkpt>
      <trkpt lat="45.42199" lon="0.79079">
        <ele>213.16323272363</ele>
        <time>2015-08-07T09:19:30Z</time>
      </trkpt>
      <trkpt lat="45.4221" lon="0.79083">
        <ele>211.84364549162</ele>
        <time>2015-08-07T09:19:40Z</time>
      </trkpt>
      <trkpt lat="45.42214" lon="0.79087">
        <ele>211.84364549162</ele>
        <time>2015-08-07T09:19:45Z</time>
      </trkpt>
      <trkpt lat="45.42228" lon="0.791">
        <ele>210.38585848918</ele>
        <time>2015-08-07T09:20:00Z</time>
      </trkpt>
      <trkpt lat="45.42235" lon="0.79102">
        <ele>210.38585848918</ele>
        <time>2015-08-07T09:20:04Z</time>
      </trkpt>
      <trkpt lat="45.42246" lon="0.79108">
        <ele>208.94921501446</ele>
        <time>2015-08-07T09:20:15Z</time>
      </trkpt>
      <trkpt lat="45.42251" lon="0.79111">
        <ele>208.94921501446</ele>
        <time>2015-08-07T09:20:20Z</time>
      </trkpt>
      <trkpt lat="45.42262" lon="0.79117">
        <ele>207.75037766945</ele>
        <time>2015-08-07T09:20:30Z</time>
      </trkpt>
      <trkpt lat="45.42268" lon="0.79121">
        <ele>207.75037766945</ele>
        <time>2015-08-07T09:20:34Z</time>
      </trkpt>
      <trkpt lat="45.42281" lon="0.79124">
        <ele>206.88007653133</ele>
        <time>2015-08-07T09:20:44Z</time>
      </trkpt>
      <trkpt lat="45.42287" lon="0.79125">
        <ele>206.88007653133</ele>
        <time>2015-08-07T09:20:49Z</time>
      </trkpt>
      <trkpt lat="45.4229" lon="0.79126">
        <ele>206.33588709799</ele>
        <time>2015-08-07T09:20:54Z</time>
      </trkpt>
      <trkpt lat="45.42296" lon="0.79125">
        <ele>206.33588709799</ele>
        <time>2015-08-07T09:20:59Z</time>
      </trkpt>
      <trkpt lat="45.42301" lon="0.79124">
        <ele>205.91497756192</ele>
        <time>2015-08-07T09:21:04Z</time>
      </trkpt>
      <trkpt lat="45.42306" lon="0.7912">
        <ele>205.91497756192</ele>
        <time>2015-08-07T09:21:09Z</time>
      </trkpt>
      <trkpt lat="45.42313" lon="0.79123">
        <ele>205.69417869134</ele>
        <time>2015-08-07T09:21:14Z</time>
      </trkpt>
      <trkpt lat="45.42318" lon="0.79125">
        <ele>205.69417869134</ele>
        <time>2015-08-07T09:21:19Z</time>
      </trkpt>
      <trkpt lat="45.42323" lon="0.79129">
        <ele>205.87283710313</ele>
        <time>2015-08-07T09:21:24Z</time>
      </trkpt>
      <trkpt lat="45.4233" lon="0.7913">
        <ele>205.87283710313</ele>
        <time>2015-08-07T09:21:29Z</time>
      </trkpt>
      <trkpt lat="45.42336" lon="0.79133">
        <ele>206.18833949319</ele>
        <time>2015-08-07T09:21:34Z</time>
      </trkpt>
      <trkpt lat="45.42339" lon="0.7914">
        <ele>206.18833949319</ele>
        <time>2015-08-07T09:21:39Z</time>
      </trkpt>
      <trkpt lat="45.4234" lon="0.79145">
        <ele>206.06422313591</ele>
        <time>2015-08-07T09:21:44Z</time>
      </trkpt>
      <trkpt lat="45.42339" lon="0.79156">
        <ele>206.06422313591</ele>
        <time>2015-08-07T09:21:49Z</time>
      </trkpt>
      <trkpt lat="45.42337" lon="0.79165">
        <ele>205.6443418147</ele>
        <time>2015-08-07T09:21:54Z</time>
      </trkpt>
      <trkpt lat="45.42338" lon="0.79174">
        <ele>205.6443418147</ele>
        <time>2015-08-07T09:21:59Z</time>
      </trkpt>
      <trkpt lat="45.42337" lon="0.79179">
        <ele>204.97104732936</ele>
        <time>2015-08-07T09:22:04Z</time>
      </trkpt>
      <trkpt lat="45.4234" lon="0.79184">
        <ele>204.97104732936</ele>
        <time>2015-08-07T09:22:09Z</time>
      </trkpt>
      <trkpt lat="45.42338" lon="0.79182">
        <ele>204.97104732936</ele>
        <time>2015-08-07T09:22:14Z</time>
      </trkpt>
      <trkpt lat="45.42338" lon="0.79182">
        <ele>204.97104732936</ele>
        <time>2015-08-07T09:22:19Z</time>
      </trkpt>
      <trkpt lat="45.42338" lon="0.79182">
        <ele>204.97104732936</ele>
        <time>2015-08-07T09:22:24Z</time>
      </trkpt>
      <trkpt lat="45.42338" lon="0.79182">
        <ele>204.97104732936</ele>
        <time>2015-08-07T09:22:29Z</time>
      </trkpt>
      <trkpt lat="45.42336" lon="0.79181">
        <ele>204.97104732936</ele>
        <time>2015-08-07T09:22:34Z</time>
      </trkpt>
      <trkpt lat="45.42338" lon="0.79181">
        <ele>204.79600483383</ele>
        <time>2015-08-07T09:22:39Z</time>
      </trkpt>
      <trkpt lat="45.42338" lon="0.79181">
        <ele>204.79600483383</ele>
        <time>2015-08-07T09:22:44Z</time>
      </trkpt>
      <trkpt lat="45.42337" lon="0.79182">
        <ele>204.79600483383</ele>
        <time>2015-08-07T09:22:59Z</time>
      </trkpt>
      <trkpt lat="45.42337" lon="0.79182">
        <ele>204.79600483383</ele>
        <time>2015-08-07T09:23:04Z</time>
      </trkpt>
      <trkpt lat="45.42336" lon="0.79182">
        <ele>204.79600483383</ele>
        <time>2015-08-07T09:23:14Z</time>
      </trkpt>
      <trkpt lat="45.42337" lon="0.7918">
        <ele>204.79600483383</ele>
        <time>2015-08-07T09:23:19Z</time>
      </trkpt>
      <trkpt lat="45.42336" lon="0.79182">
        <ele>204.79600483383</ele>
        <time>2015-08-07T09:23:29Z</time>
      </trkpt>
      <trkpt lat="45.42337" lon="0.79181">
        <ele>204.79600483383</ele>
        <time>2015-08-07T09:23:34Z</time>
      </trkpt>
      <trkpt lat="45.42338" lon="0.79182">
        <ele>204.79600483383</ele>
        <time>2015-08-07T09:23:44Z</time>
      </trkpt>
      <trkpt lat="45.42337" lon="0.79184">
        <ele>204.79600483383</ele>
        <time>2015-08-07T09:23:49Z</time>
      </trkpt>
      <trkpt lat="45.42338" lon="0.79185">
        <ele>205.00567451736</ele>
        <time>2015-08-07T09:23:59Z</time>
      </trkpt>
      <trkpt lat="45.42339" lon="0.7919">
        <ele>205.00567451736</ele>
        <time>2015-08-07T09:24:04Z</time>
      </trkpt>
      <trkpt lat="45.42335" lon="0.79184">
        <ele>205.00567451736</ele>
        <time>2015-08-07T09:24:14Z</time>
      </trkpt>
      <trkpt lat="45.42335" lon="0.79185">
        <ele>205.20675611584</ele>
        <time>2015-08-07T09:24:19Z</time>
      </trkpt>
      <trkpt lat="45.42335" lon="0.79185">
        <ele>205.20675611584</ele>
        <time>2015-08-07T09:24:29Z</time>
      </trkpt>
      <trkpt lat="45.42335" lon="0.79183">
        <ele>205.20675611584</ele>
        <time>2015-08-07T09:24:34Z</time>
      </trkpt>
      <trkpt lat="45.42336" lon="0.79182">
        <ele>205.20675611584</ele>
        <time>2015-08-07T09:24:44Z</time>
      </trkpt>
      <trkpt lat="45.42336" lon="0.79182">
        <ele>205.20675611584</ele>
        <time>2015-08-07T09:24:49Z</time>
      </trkpt>
      <trkpt lat="45.42336" lon="0.79182">
        <ele>205.20675611584</ele>
        <time>2015-08-07T09:24:59Z</time>
      </trkpt>
      <trkpt lat="45.42337" lon="0.79182">
        <ele>205.20675611584</ele>
        <time>2015-08-07T09:25:04Z</time>
      </trkpt>
      <trkpt lat="45.42337" lon="0.79186">
        <ele>205.20675611584</ele>
        <time>2015-08-07T09:25:14Z</time>
      </trkpt>
      <trkpt lat="45.42336" lon="0.79185">
        <ele>205.39947497087</ele>
        <time>2015-08-07T09:25:19Z</time>
      </trkpt>
      <trkpt lat="45.42335" lon="0.79187">
        <ele>205.39947497087</ele>
        <time>2015-08-07T09:25:29Z</time>
      </trkpt>
      <trkpt lat="45.42337" lon="0.79187">
        <ele>205.39947497087</ele>
        <time>2015-08-07T09:25:35Z</time>
      </trkpt>
      <trkpt lat="45.42344" lon="0.79195">
        <ele>205.7504510757</ele>
        <time>2015-08-07T09:25:49Z</time>
      </trkpt>
      <trkpt lat="45.42346" lon="0.79201">
        <ele>205.7504510757</ele>
        <time>2015-08-07T09:25:54Z</time>
      </trkpt>
      <trkpt lat="45.42349" lon="0.7921">
        <ele>206.23413624577</ele>
        <time>2015-08-07T09:25:59Z</time>
      </trkpt>
      <trkpt lat="45.42351" lon="0.79217">
        <ele>206.23413624577</ele>
        <time>2015-08-07T09:26:04Z</time>
      </trkpt>
      <trkpt lat="45.42356" lon="0.79225">
        <ele>206.56176970334</ele>
        <time>2015-08-07T09:26:09Z</time>
      </trkpt>
      <trkpt lat="45.42361" lon="0.79232">
        <ele>206.56176970334</ele>
        <time>2015-08-07T09:26:14Z</time>
      </trkpt>
      <trkpt lat="45.42368" lon="0.79236">
        <ele>206.74193380309</ele>
        <time>2015-08-07T09:26:19Z</time>
      </trkpt>
      <trkpt lat="45.42373" lon="0.79241">
        <ele>206.74193380309</ele>
        <time>2015-08-07T09:26:24Z</time>
      </trkpt>
      <trkpt lat="45.42379" lon="0.79247">
        <ele>206.90927848591</ele>
        <time>2015-08-07T09:26:29Z</time>
      </trkpt>
      <trkpt lat="45.42385" lon="0.79251">
        <ele>206.90927848591</ele>
        <time>2015-08-07T09:26:34Z</time>
      </trkpt>
      <trkpt lat="45.42389" lon="0.79257">
        <ele>207.0493947353</ele>
        <time>2015-08-07T09:26:39Z</time>
      </trkpt>
      <trkpt lat="45.42395" lon="0.79262">
        <ele>207.0493947353</ele>
        <time>2015-08-07T09:26:44Z</time>
      </trkpt>
      <trkpt lat="45.424" lon="0.79267">
        <ele>207.13438487833</ele>
        <time>2015-08-07T09:26:49Z</time>
      </trkpt>
      <trkpt lat="45.424" lon="0.79268">
        <ele>207.13438487833</ele>
        <time>2015-08-07T09:26:54Z</time>
      </trkpt>
      <trkpt lat="45.42401" lon="0.79268">
        <ele>207.13438487833</ele>
        <time>2015-08-07T09:26:59Z</time>
      </trkpt>
      <trkpt lat="45.42401" lon="0.79268">
        <ele>207.13438487833</ele>
        <time>2015-08-07T09:27:04Z</time>
      </trkpt>
      <trkpt lat="45.42401" lon="0.79268">
        <ele>207.13438487833</ele>
        <time>2015-08-07T09:27:09Z</time>
      </trkpt>
      <trkpt lat="45.42405" lon="0.79271">
        <ele>207.13438487833</ele>
        <time>2015-08-07T09:27:14Z</time>
      </trkpt>
      <trkpt lat="45.42408" lon="0.79273">
        <ele>207.13438487833</ele>
        <time>2015-08-07T09:27:19Z</time>
      </trkpt>
      <trkpt lat="45.4241" lon="0.79275">
        <ele>207.13792053458</ele>
        <time>2015-08-07T09:27:24Z</time>
      </trkpt>
      <trkpt lat="45.42414" lon="0.79281">
        <ele>207.13792053458</ele>
        <time>2015-08-07T09:27:29Z</time>
      </trkpt>
      <trkpt lat="45.42419" lon="0.79287">
        <ele>207.25241566951</ele>
        <time>2015-08-07T09:27:34Z</time>
      </trkpt>
      <trkpt lat="45.42424" lon="0.79292">
        <ele>207.25241566951</ele>
        <time>2015-08-07T09:27:39Z</time>
      </trkpt>
      <trkpt lat="45.42429" lon="0.79296">
        <ele>207.12120549544</ele>
        <time>2015-08-07T09:27:44Z</time>
      </trkpt>
      <trkpt lat="45.42433" lon="0.793">
        <ele>207.12120549544</ele>
        <time>2015-08-07T09:27:49Z</time>
      </trkpt>
      <trkpt lat="45.42438" lon="0.79304">
        <ele>206.78829285507</ele>
        <time>2015-08-07T09:27:54Z</time>
      </trkpt>
      <trkpt lat="45.42443" lon="0.79308">
        <ele>206.78829285507</ele>
        <time>2015-08-07T09:27:59Z</time>
      </trkpt>
      <trkpt lat="45.42448" lon="0.79312">
        <ele>206.51784479122</ele>
        <time>2015-08-07T09:28:04Z</time>
      </trkpt>
      <trkpt lat="45.42453" lon="0.79316">
        <ele>206.51784479122</ele>
        <time>2015-08-07T09:28:09Z</time>
      </trkpt>
      <trkpt lat="45.42458" lon="0.79321">
        <ele>206.57418923603</ele>
        <time>2015-08-07T09:28:14Z</time>
      </trkpt>
      <trkpt lat="45.42462" lon="0.79326">
        <ele>206.57418923603</ele>
        <time>2015-08-07T09:28:19Z</time>
      </trkpt>
      <trkpt lat="45.42467" lon="0.79331">
        <ele>206.8023810458</ele>
        <time>2015-08-07T09:28:24Z</time>
      </trkpt>
      <trkpt lat="45.42471" lon="0.79335">
        <ele>206.8023810458</ele>
        <time>2015-08-07T09:28:29Z</time>
      </trkpt>
      <trkpt lat="45.42476" lon="0.79339">
        <ele>207.17523005109</ele>
        <time>2015-08-07T09:28:34Z</time>
      </trkpt>
      <trkpt lat="45.42481" lon="0.79342">
        <ele>207.17523005109</ele>
        <time>2015-08-07T09:28:39Z</time>
      </trkpt>
      <trkpt lat="45.42486" lon="0.79346">
        <ele>207.5312904311</ele>
        <time>2015-08-07T09:28:44Z</time>
      </trkpt>
      <trkpt lat="45.42491" lon="0.79351">
        <ele>207.5312904311</ele>
        <time>2015-08-07T09:28:49Z</time>
      </trkpt>
      <trkpt lat="45.42497" lon="0.79357">
        <ele>208.03567416259</ele>
        <time>2015-08-07T09:28:54Z</time>
      </trkpt>
      <trkpt lat="45.42501" lon="0.79364">
        <ele>208.03567416259</ele>
        <time>2015-08-07T09:28:59Z</time>
      </trkpt>
      <trkpt lat="45.42501" lon="0.79372">
        <ele>208.49488936975</ele>
        <time>2015-08-07T09:29:04Z</time>
      </trkpt>
      <trkpt lat="45.425" lon="0.79379">
        <ele>208.49488936975</ele>
        <time>2015-08-07T09:29:09Z</time>
      </trkpt>
      <trkpt lat="45.42497" lon="0.79386">
        <ele>208.85008328592</ele>
        <time>2015-08-07T09:29:14Z</time>
      </trkpt>
      <trkpt lat="45.42496" lon="0.79395">
        <ele>208.85008328592</ele>
        <time>2015-08-07T09:29:19Z</time>
      </trkpt>
      <trkpt lat="45.42496" lon="0.79405">
        <ele>209.06248321366</ele>
        <time>2015-08-07T09:29:24Z</time>
      </trkpt>
      <trkpt lat="45.42497" lon="0.79414">
        <ele>209.06248321366</ele>
        <time>2015-08-07T09:29:29Z</time>
      </trkpt>
      <trkpt lat="45.425" lon="0.79421">
        <ele>208.88574108896</ele>
        <time>2015-08-07T09:29:34Z</time>
      </trkpt>
      <trkpt lat="45.42501" lon="0.79429">
        <ele>208.88574108896</ele>
        <time>2015-08-07T09:29:39Z</time>
      </trkpt>
      <trkpt lat="45.42503" lon="0.79438">
        <ele>208.45659174224</ele>
        <time>2015-08-07T09:29:44Z</time>
      </trkpt>
      <trkpt lat="45.42505" lon="0.79446">
        <ele>208.45659174224</ele>
        <time>2015-08-07T09:29:49Z</time>
      </trkpt>
      <trkpt lat="45.42508" lon="0.79454">
        <ele>207.75154441375</ele>
        <time>2015-08-07T09:29:54Z</time>
      </trkpt>
      <trkpt lat="45.4251" lon="0.79464">
        <ele>207.75154441375</ele>
        <time>2015-08-07T09:29:59Z</time>
      </trkpt>
      <trkpt lat="45.42513" lon="0.79475">
        <ele>206.85554178122</ele>
        <time>2015-08-07T09:30:04Z</time>
      </trkpt>
      <trkpt lat="45.42516" lon="0.79483">
        <ele>206.85554178122</ele>
        <time>2015-08-07T09:30:09Z</time>
      </trkpt>
      <trkpt lat="45.42521" lon="0.7949">
        <ele>206.16289052713</ele>
        <time>2015-08-07T09:30:14Z</time>
      </trkpt>
      <trkpt lat="45.42526" lon="0.79497">
        <ele>206.16289052713</ele>
        <time>2015-08-07T09:30:19Z</time>
      </trkpt>
      <trkpt lat="45.4253" lon="0.79505">
        <ele>205.34461888353</ele>
        <time>2015-08-07T09:30:24Z</time>
      </trkpt>
      <trkpt lat="45.42534" lon="0.79512">
        <ele>205.34461888353</ele>
        <time>2015-08-07T09:30:29Z</time>
      </trkpt>
      <trkpt lat="45.42538" lon="0.7952">
        <ele>204.24903969217</ele>
        <time>2015-08-07T09:30:34Z</time>
      </trkpt>
      <trkpt lat="45.42543" lon="0.79527">
        <ele>204.24903969217</ele>
        <time>2015-08-07T09:30:39Z</time>
      </trkpt>
      <trkpt lat="45.42548" lon="0.79534">
        <ele>203.3053391123</ele>
        <time>2015-08-07T09:30:44Z</time>
      </trkpt>
      <trkpt lat="45.42551" lon="0.79539">
        <ele>203.3053391123</ele>
        <time>2015-08-07T09:30:49Z</time>
      </trkpt>
      <trkpt lat="45.42551" lon="0.79539">
        <ele>203.3053391123</ele>
        <time>2015-08-07T09:30:54Z</time>
      </trkpt>
      <trkpt lat="45.42555" lon="0.7954">
        <ele>203.3053391123</ele>
        <time>2015-08-07T09:30:59Z</time>
      </trkpt>
      <trkpt lat="45.4256" lon="0.79546">
        <ele>202.14644130822</ele>
        <time>2015-08-07T09:31:04Z</time>
      </trkpt>
      <trkpt lat="45.42572" lon="0.79555">
        <ele>200.51099419733</ele>
        <time>2015-08-07T09:31:15Z</time>
      </trkpt>
      <trkpt lat="45.42578" lon="0.79558">
        <ele>200.51099419733</ele>
        <time>2015-08-07T09:31:20Z</time>
      </trkpt>
      <trkpt lat="45.42587" lon="0.79572">
        <ele>198.84261701523</ele>
        <time>2015-08-07T09:31:30Z</time>
      </trkpt>
      <trkpt lat="45.42592" lon="0.79579">
        <ele>198.84261701523</ele>
        <time>2015-08-07T09:31:35Z</time>
      </trkpt>
      <trkpt lat="45.42602" lon="0.79594">
        <ele>197.57712797736</ele>
        <time>2015-08-07T09:31:44Z</time>
      </trkpt>
      <trkpt lat="45.42603" lon="0.79603">
        <ele>197.57712797736</ele>
        <time>2015-08-07T09:31:49Z</time>
      </trkpt>
      <trkpt lat="45.42603" lon="0.79608">
        <ele>196.640718648</ele>
        <time>2015-08-07T09:31:54Z</time>
      </trkpt>
      <trkpt lat="45.4261" lon="0.79616">
        <ele>195.77359309325</ele>
        <time>2015-08-07T09:31:59Z</time>
      </trkpt>
      <trkpt lat="45.42613" lon="0.79616">
        <ele>195.77359309325</ele>
        <time>2015-08-07T09:32:04Z</time>
      </trkpt>
      <trkpt lat="45.42615" lon="0.79617">
        <ele>195.77359309325</ele>
        <time>2015-08-07T09:32:09Z</time>
      </trkpt>
      <trkpt lat="45.42617" lon="0.79618">
        <ele>195.77359309325</ele>
        <time>2015-08-07T09:32:14Z</time>
      </trkpt>
      <trkpt lat="45.42622" lon="0.79622">
        <ele>194.45843494982</ele>
        <time>2015-08-07T09:32:19Z</time>
      </trkpt>
      <trkpt lat="45.42627" lon="0.79625">
        <ele>194.45843494982</ele>
        <time>2015-08-07T09:32:24Z</time>
      </trkpt>
      <trkpt lat="45.42633" lon="0.79629">
        <ele>192.77823650461</ele>
        <time>2015-08-07T09:32:29Z</time>
      </trkpt>
      <trkpt lat="45.42638" lon="0.79637">
        <ele>192.77823650461</ele>
        <time>2015-08-07T09:32:34Z</time>
      </trkpt>
      <trkpt lat="45.42642" lon="0.79642">
        <ele>191.35076605983</ele>
        <time>2015-08-07T09:32:39Z</time>
      </trkpt>
      <trkpt lat="45.42644" lon="0.79643">
        <ele>191.35076605983</ele>
        <time>2015-08-07T09:32:44Z</time>
      </trkpt>
      <trkpt lat="45.4265" lon="0.79644">
        <ele>191.35076605983</ele>
        <time>2015-08-07T09:32:49Z</time>
      </trkpt>
      <trkpt lat="45.42657" lon="0.79644">
        <ele>190.3488802623</ele>
        <time>2015-08-07T09:32:54Z</time>
      </trkpt>
      <trkpt lat="45.42664" lon="0.79642">
        <ele>190.3488802623</ele>
        <time>2015-08-07T09:32:59Z</time>
      </trkpt>
      <trkpt lat="45.4267" lon="0.79643">
        <ele>189.42070584812</ele>
        <time>2015-08-07T09:33:04Z</time>
      </trkpt>
      <trkpt lat="45.42677" lon="0.79647">
        <ele>189.42070584812</ele>
        <time>2015-08-07T09:33:09Z</time>
      </trkpt>
      <trkpt lat="45.42684" lon="0.79652">
        <ele>188.80955759575</ele>
        <time>2015-08-07T09:33:14Z</time>
      </trkpt>
      <trkpt lat="45.42691" lon="0.79658">
        <ele>188.80955759575</ele>
        <time>2015-08-07T09:33:19Z</time>
      </trkpt>
      <trkpt lat="45.42696" lon="0.79659">
        <ele>188.11420292237</ele>
        <time>2015-08-07T09:33:24Z</time>
      </trkpt>
      <trkpt lat="45.42707" lon="0.79661">
        <ele>187.87894830122</ele>
        <time>2015-08-07T09:33:29Z</time>
      </trkpt>
      <trkpt lat="45.42711" lon="0.7966">
        <ele>187.87894830122</ele>
        <time>2015-08-07T09:33:34Z</time>
      </trkpt>
      <trkpt lat="45.42721" lon="0.79662">
        <ele>187.6482107673</ele>
        <time>2015-08-07T09:33:39Z</time>
      </trkpt>
      <trkpt lat="45.42726" lon="0.7966">
        <ele>187.6482107673</ele>
        <time>2015-08-07T09:33:45Z</time>
      </trkpt>
      <trkpt lat="45.42745" lon="0.79664">
        <ele>186.95834565632</ele>
        <time>2015-08-07T09:33:55Z</time>
      </trkpt>
      <trkpt lat="45.42751" lon="0.79666">
        <ele>186.95834565632</ele>
        <time>2015-08-07T09:33:59Z</time>
      </trkpt>
      <trkpt lat="45.42758" lon="0.79677">
        <ele>185.8307463695</ele>
        <time>2015-08-07T09:34:09Z</time>
      </trkpt>
      <trkpt lat="45.42762" lon="0.79676">
        <ele>185.8307463695</ele>
        <time>2015-08-07T09:34:14Z</time>
      </trkpt>
      <trkpt lat="45.42771" lon="0.79682">
        <ele>184.97973237685</ele>
        <time>2015-08-07T09:34:19Z</time>
      </trkpt>
      <trkpt lat="45.42773" lon="0.7969">
        <ele>184.97973237685</ele>
        <time>2015-08-07T09:34:24Z</time>
      </trkpt>
      <trkpt lat="45.42777" lon="0.79699">
        <ele>184.27016274184</ele>
        <time>2015-08-07T09:34:29Z</time>
      </trkpt>
      <trkpt lat="45.42781" lon="0.79704">
        <ele>184.27016274184</ele>
        <time>2015-08-07T09:34:34Z</time>
      </trkpt>
      <trkpt lat="45.42787" lon="0.79713">
        <ele>183.20142359626</ele>
        <time>2015-08-07T09:34:39Z</time>
      </trkpt>
      <trkpt lat="45.42789" lon="0.79718">
        <ele>183.20142359626</ele>
        <time>2015-08-07T09:34:44Z</time>
      </trkpt>
      <trkpt lat="45.4279" lon="0.79721">
        <ele>183.20142359626</ele>
        <time>2015-08-07T09:34:49Z</time>
      </trkpt>
      <trkpt lat="45.42797" lon="0.79726">
        <ele>182.42252824575</ele>
        <time>2015-08-07T09:34:54Z</time>
      </trkpt>
      <trkpt lat="45.42803" lon="0.79731">
        <ele>182.42252824575</ele>
        <time>2015-08-07T09:34:59Z</time>
      </trkpt>
      <trkpt lat="45.42805" lon="0.79736">
        <ele>181.47999463834</ele>
        <time>2015-08-07T09:35:04Z</time>
      </trkpt>
      <trkpt lat="45.42816" lon="0.79736">
        <ele>180.27183319315</ele>
        <time>2015-08-07T09:35:09Z</time>
      </trkpt>
      <trkpt lat="45.42833" lon="0.79751">
        <ele>179.3675812337</ele>
        <time>2015-08-07T09:35:14Z</time>
      </trkpt>
      <trkpt lat="45.42834" lon="0.79759">
        <ele>179.3675812337</ele>
        <time>2015-08-07T09:35:19Z</time>
      </trkpt>
      <trkpt lat="45.4284" lon="0.79763">
        <ele>178.32767876819</ele>
        <time>2015-08-07T09:35:24Z</time>
      </trkpt>
      <trkpt lat="45.42839" lon="0.79769">
        <ele>178.32767876819</ele>
        <time>2015-08-07T09:35:29Z</time>
      </trkpt>
      <trkpt lat="45.42845" lon="0.79776">
        <ele>177.56717083083</ele>
        <time>2015-08-07T09:35:34Z</time>
      </trkpt>
      <trkpt lat="45.42844" lon="0.79785">
        <ele>177.56717083083</ele>
        <time>2015-08-07T09:35:39Z</time>
      </trkpt>
      <trkpt lat="45.42847" lon="0.79793">
        <ele>176.99392324633</ele>
        <time>2015-08-07T09:35:44Z</time>
      </trkpt>
      <trkpt lat="45.42847" lon="0.79802">
        <ele>176.99392324633</ele>
        <time>2015-08-07T09:35:49Z</time>
      </trkpt>
      <trkpt lat="45.42849" lon="0.79813">
        <ele>176.89688445035</ele>
        <time>2015-08-07T09:35:54Z</time>
      </trkpt>
      <trkpt lat="45.42848" lon="0.7982">
        <ele>176.89688445035</ele>
        <time>2015-08-07T09:35:59Z</time>
      </trkpt>
      <trkpt lat="45.42846" lon="0.79829">
        <ele>177.5568377153</ele>
        <time>2015-08-07T09:36:04Z</time>
      </trkpt>
      <trkpt lat="45.42845" lon="0.79839">
        <ele>177.5568377153</ele>
        <time>2015-08-07T09:36:09Z</time>
      </trkpt>
      <trkpt lat="45.42838" lon="0.79846">
        <ele>177.47274761989</ele>
        <time>2015-08-07T09:36:14Z</time>
      </trkpt>
      <trkpt lat="45.4283" lon="0.7985">
        <ele>177.47274761989</ele>
        <time>2015-08-07T09:36:19Z</time>
      </trkpt>
      <trkpt lat="45.4282" lon="0.7986">
        <ele>178.42798964555</ele>
        <time>2015-08-07T09:36:24Z</time>
      </trkpt>
      <trkpt lat="45.42821" lon="0.79874">
        <ele>179.11608460348</ele>
        <time>2015-08-07T09:36:29Z</time>
      </trkpt>
      <trkpt lat="45.42819" lon="0.79882">
        <ele>179.11608460348</ele>
        <time>2015-08-07T09:36:34Z</time>
      </trkpt>
      <trkpt lat="45.42815" lon="0.79888">
        <ele>180.40370752813</ele>
        <time>2015-08-07T09:36:39Z</time>
      </trkpt>
      <trkpt lat="45.42812" lon="0.79897">
        <ele>180.40370752813</ele>
        <time>2015-08-07T09:36:44Z</time>
      </trkpt>
      <trkpt lat="45.42815" lon="0.7991">
        <ele>181.44820880487</ele>
        <time>2015-08-07T09:36:49Z</time>
      </trkpt>
      <trkpt lat="45.42816" lon="0.79916">
        <ele>181.44820880487</ele>
        <time>2015-08-07T09:36:54Z</time>
      </trkpt>
      <trkpt lat="45.42817" lon="0.79919">
        <ele>181.44820880487</ele>
        <time>2015-08-07T09:36:59Z</time>
      </trkpt>
      <trkpt lat="45.42824" lon="0.79924">
        <ele>182.81073137381</ele>
        <time>2015-08-07T09:37:04Z</time>
      </trkpt>
      <trkpt lat="45.42831" lon="0.79927">
        <ele>182.81073137381</ele>
        <time>2015-08-07T09:37:09Z</time>
      </trkpt>
      <trkpt lat="45.42836" lon="0.79931">
        <ele>184.11615194103</ele>
        <time>2015-08-07T09:37:14Z</time>
      </trkpt>
      <trkpt lat="45.42843" lon="0.79937">
        <ele>184.11615194103</ele>
        <time>2015-08-07T09:37:19Z</time>
      </trkpt>
      <trkpt lat="45.42846" lon="0.79943">
        <ele>185.85365684202</ele>
        <time>2015-08-07T09:37:24Z</time>
      </trkpt>
      <trkpt lat="45.42848" lon="0.79945">
        <ele>185.85365684202</ele>
        <time>2015-08-07T09:37:29Z</time>
      </trkpt>
      <trkpt lat="45.42849" lon="0.79947">
        <ele>185.85365684202</ele>
        <time>2015-08-07T09:37:34Z</time>
      </trkpt>
      <trkpt lat="45.42851" lon="0.79951">
        <ele>185.85365684202</ele>
        <time>2015-08-07T09:37:39Z</time>
      </trkpt>
      <trkpt lat="45.42852" lon="0.79961">
        <ele>186.71561952015</ele>
        <time>2015-08-07T09:37:44Z</time>
      </trkpt>
      <trkpt lat="45.42857" lon="0.79974">
        <ele>187.78647422162</ele>
        <time>2015-08-07T09:37:49Z</time>
      </trkpt>
      <trkpt lat="45.42861" lon="0.79983">
        <ele>187.78647422162</ele>
        <time>2015-08-07T09:37:54Z</time>
      </trkpt>
      <trkpt lat="45.42867" lon="0.79991">
        <ele>189.16174040553</ele>
        <time>2015-08-07T09:37:59Z</time>
      </trkpt>
      <trkpt lat="45.4287" lon="0.80003">
        <ele>189.16174040553</ele>
        <time>2015-08-07T09:38:04Z</time>
      </trkpt>
      <trkpt lat="45.42871" lon="0.80013">
        <ele>190.10695602977</ele>
        <time>2015-08-07T09:38:09Z</time>
      </trkpt>
      <trkpt lat="45.42873" lon="0.80022">
        <ele>190.10695602977</ele>
        <time>2015-08-07T09:38:14Z</time>
      </trkpt>
      <trkpt lat="45.42874" lon="0.80034">
        <ele>191.89025429038</ele>
        <time>2015-08-07T09:38:19Z</time>
      </trkpt>
      <trkpt lat="45.42875" lon="0.80046">
        <ele>191.89025429038</ele>
        <time>2015-08-07T09:38:24Z</time>
      </trkpt>
      <trkpt lat="45.42871" lon="0.80055">
        <ele>193.47735837468</ele>
        <time>2015-08-07T09:38:29Z</time>
      </trkpt>
      <trkpt lat="45.42871" lon="0.80064">
        <ele>193.47735837468</ele>
        <time>2015-08-07T09:38:34Z</time>
      </trkpt>
      <trkpt lat="45.42872" lon="0.80073">
        <ele>194.70406870195</ele>
        <time>2015-08-07T09:38:39Z</time>
      </trkpt>
      <trkpt lat="45.42876" lon="0.80088">
        <ele>196.35691109948</ele>
        <time>2015-08-07T09:38:44Z</time>
      </trkpt>
      <trkpt lat="45.42873" lon="0.80096">
        <ele>196.35691109948</ele>
        <time>2015-08-07T09:38:49Z</time>
      </trkpt>
      <trkpt lat="45.42874" lon="0.80105">
        <ele>197.50484961108</ele>
        <time>2015-08-07T09:38:54Z</time>
      </trkpt>
      <trkpt lat="45.42878" lon="0.80115">
        <ele>197.50484961108</ele>
        <time>2015-08-07T09:38:59Z</time>
      </trkpt>
      <trkpt lat="45.42883" lon="0.80125">
        <ele>198.88779040404</ele>
        <time>2015-08-07T09:39:04Z</time>
      </trkpt>
      <trkpt lat="45.42885" lon="0.80135">
        <ele>198.88779040404</ele>
        <time>2015-08-07T09:39:09Z</time>
      </trkpt>
      <trkpt lat="45.42887" lon="0.80142">
        <ele>200.1811388949</ele>
        <time>2015-08-07T09:39:14Z</time>
      </trkpt>
      <trkpt lat="45.4289" lon="0.80149">
        <ele>200.1811388949</ele>
        <time>2015-08-07T09:39:19Z</time>
      </trkpt>
      <trkpt lat="45.42892" lon="0.80157">
        <ele>201.67583776668</ele>
        <time>2015-08-07T09:39:24Z</time>
      </trkpt>
      <trkpt lat="45.42897" lon="0.80165">
        <ele>201.67583776668</ele>
        <time>2015-08-07T09:39:29Z</time>
      </trkpt>
      <trkpt lat="45.429" lon="0.80172">
        <ele>203.58329204334</ele>
        <time>2015-08-07T09:39:34Z</time>
      </trkpt>
      <trkpt lat="45.42907" lon="0.80178">
        <ele>203.58329204334</ele>
        <time>2015-08-07T09:39:39Z</time>
      </trkpt>
      <trkpt lat="45.42912" lon="0.80182">
        <ele>205.44947144274</ele>
        <time>2015-08-07T09:39:44Z</time>
      </trkpt>
      <trkpt lat="45.42918" lon="0.80188">
        <ele>205.44947144274</ele>
        <time>2015-08-07T09:39:49Z</time>
      </trkpt>
      <trkpt lat="45.42922" lon="0.80197">
        <ele>207.50287537968</ele>
        <time>2015-08-07T09:39:54Z</time>
      </trkpt>
      <trkpt lat="45.42927" lon="0.80205">
        <ele>207.50287537968</ele>
        <time>2015-08-07T09:39:59Z</time>
      </trkpt>
      <trkpt lat="45.42933" lon="0.80206">
        <ele>209.47902664364</ele>
        <time>2015-08-07T09:40:04Z</time>
      </trkpt>
      <trkpt lat="45.42939" lon="0.80207">
        <ele>209.47902664364</ele>
        <time>2015-08-07T09:40:09Z</time>
      </trkpt>
      <trkpt lat="45.42944" lon="0.80208">
        <ele>210.91705395489</ele>
        <time>2015-08-07T09:40:14Z</time>
      </trkpt>
      <trkpt lat="45.42945" lon="0.80208">
        <ele>210.91705395489</ele>
        <time>2015-08-07T09:40:19Z</time>
      </trkpt>
      <trkpt lat="45.42947" lon="0.80208">
        <ele>210.91705395489</ele>
        <time>2015-08-07T09:40:24Z</time>
      </trkpt>
      <trkpt lat="45.42956" lon="0.80211">
        <ele>212.51614169636</ele>
        <time>2015-08-07T09:40:29Z</time>
      </trkpt>
      <trkpt lat="45.42963" lon="0.80217">
        <ele>212.51614169636</ele>
        <time>2015-08-07T09:40:34Z</time>
      </trkpt>
      <trkpt lat="45.42969" lon="0.8022">
        <ele>214.24617129517</ele>
        <time>2015-08-07T09:40:39Z</time>
      </trkpt>
      <trkpt lat="45.42974" lon="0.80224">
        <ele>214.24617129517</ele>
        <time>2015-08-07T09:40:44Z</time>
      </trkpt>
      <trkpt lat="45.42981" lon="0.8023">
        <ele>215.84839949956</ele>
        <time>2015-08-07T09:40:49Z</time>
      </trkpt>
      <trkpt lat="45.42986" lon="0.80234">
        <ele>215.84839949956</ele>
        <time>2015-08-07T09:40:54Z</time>
      </trkpt>
      <trkpt lat="45.42989" lon="0.80239">
        <ele>217.3863458826</ele>
        <time>2015-08-07T09:40:59Z</time>
      </trkpt>
      <trkpt lat="45.42993" lon="0.80242">
        <ele>217.3863458826</ele>
        <time>2015-08-07T09:41:04Z</time>
      </trkpt>
      <trkpt lat="45.43002" lon="0.80247">
        <ele>219.03450135589</ele>
        <time>2015-08-07T09:41:09Z</time>
      </trkpt>
      <trkpt lat="45.4301" lon="0.80254">
        <ele>220.73816427208</ele>
        <time>2015-08-07T09:41:14Z</time>
      </trkpt>
      <trkpt lat="45.43015" lon="0.80254">
        <ele>220.73816427208</ele>
        <time>2015-08-07T09:41:19Z</time>
      </trkpt>
      <trkpt lat="45.43023" lon="0.80251">
        <ele>221.82689961691</ele>
        <time>2015-08-07T09:41:24Z</time>
      </trkpt>
      <trkpt lat="45.43026" lon="0.80244">
        <ele>221.82689961691</ele>
        <time>2015-08-07T09:41:29Z</time>
      </trkpt>
      <trkpt lat="45.43031" lon="0.80236">
        <ele>222.18589687172</ele>
        <time>2015-08-07T09:41:34Z</time>
      </trkpt>
      <trkpt lat="45.43033" lon="0.80229">
        <ele>222.18589687172</ele>
        <time>2015-08-07T09:41:39Z</time>
      </trkpt>
      <trkpt lat="45.43037" lon="0.80223">
        <ele>221.06241134428</ele>
        <time>2015-08-07T09:41:44Z</time>
      </trkpt>
      <trkpt lat="45.43046" lon="0.802">
        <ele>219.55041151897</ele>
        <time>2015-08-07T09:42:00Z</time>
      </trkpt>
      <trkpt lat="45.43049" lon="0.80192">
        <ele>219.55041151897</ele>
        <time>2015-08-07T09:42:05Z</time>
      </trkpt>
      <trkpt lat="45.43052" lon="0.80176">
        <ele>218.43403234501</ele>
        <time>2015-08-07T09:42:15Z</time>
      </trkpt>
      <trkpt lat="45.43056" lon="0.8017">
        <ele>218.43403234501</ele>
        <time>2015-08-07T09:42:19Z</time>
      </trkpt>
      <trkpt lat="45.43059" lon="0.80149">
        <ele>216.2914012918</ele>
        <time>2015-08-07T09:42:30Z</time>
      </trkpt>
      <trkpt lat="45.43059" lon="0.80141">
        <ele>216.2914012918</ele>
        <time>2015-08-07T09:42:35Z</time>
      </trkpt>
      <trkpt lat="45.43062" lon="0.80115">
        <ele>215.02186125873</ele>
        <time>2015-08-07T09:42:45Z</time>
      </trkpt>
      <trkpt lat="45.43064" lon="0.80109">
        <ele>215.02186125873</ele>
        <time>2015-08-07T09:42:50Z</time>
      </trkpt>
      <trkpt lat="45.43066" lon="0.80091">
        <ele>213.11135905775</ele>
        <time>2015-08-07T09:43:00Z</time>
      </trkpt>
      <trkpt lat="45.43068" lon="0.80082">
        <ele>213.11135905775</ele>
        <time>2015-08-07T09:43:04Z</time>
      </trkpt>
      <trkpt lat="45.43073" lon="0.8007">
        <ele>209.69212792737</ele>
        <time>2015-08-07T09:43:14Z</time>
      </trkpt>
      <trkpt lat="45.43074" lon="0.80059">
        <ele>209.69212792737</ele>
        <time>2015-08-07T09:43:20Z</time>
      </trkpt>
      <trkpt lat="45.43088" lon="0.8004">
        <ele>207.45190653109</ele>
        <time>2015-08-07T09:43:30Z</time>
      </trkpt>
      <trkpt lat="45.43091" lon="0.8003">
        <ele>207.45190653109</ele>
        <time>2015-08-07T09:43:35Z</time>
      </trkpt>
      <trkpt lat="45.43097" lon="0.80008">
        <ele>205.79360169136</ele>
        <time>2015-08-07T09:43:45Z</time>
      </trkpt>
      <trkpt lat="45.43101" lon="0.80002">
        <ele>205.79360169136</ele>
        <time>2015-08-07T09:43:50Z</time>
      </trkpt>
      <trkpt lat="45.43108" lon="0.79977">
        <ele>205.67548163903</ele>
        <time>2015-08-07T09:44:01Z</time>
      </trkpt>
      <trkpt lat="45.43112" lon="0.79968">
        <ele>205.67548163903</ele>
        <time>2015-08-07T09:44:04Z</time>
      </trkpt>
      <trkpt lat="45.43122" lon="0.79952">
        <ele>205.34376754542</ele>
        <time>2015-08-07T09:44:15Z</time>
      </trkpt>
      <trkpt lat="45.43125" lon="0.79946">
        <ele>205.34376754542</ele>
        <time>2015-08-07T09:44:19Z</time>
      </trkpt>
      <trkpt lat="45.43128" lon="0.79928">
        <ele>204.18281862789</ele>
        <time>2015-08-07T09:44:30Z</time>
      </trkpt>
      <trkpt lat="45.43132" lon="0.79915">
        <ele>204.00231450108</ele>
        <time>2015-08-07T09:44:34Z</time>
      </trkpt>
      <trkpt lat="45.43134" lon="0.79899">
        <ele>204.17035478529</ele>
        <time>2015-08-07T09:44:39Z</time>
      </trkpt>
      <trkpt lat="45.43134" lon="0.79898">
        <ele>204.17035478529</ele>
        <time>2015-08-07T09:44:44Z</time>
      </trkpt>
      <trkpt lat="45.43136" lon="0.79893">
        <ele>204.17035478529</ele>
        <time>2015-08-07T09:44:49Z</time>
      </trkpt>
      <trkpt lat="45.43139" lon="0.79884">
        <ele>203.52393306409</ele>
        <time>2015-08-07T09:44:54Z</time>
      </trkpt>
      <trkpt lat="45.43143" lon="0.79875">
        <ele>203.52393306409</ele>
        <time>2015-08-07T09:44:59Z</time>
      </trkpt>
      <trkpt lat="45.43144" lon="0.79864">
        <ele>202.24144806556</ele>
        <time>2015-08-07T09:45:04Z</time>
      </trkpt>
      <trkpt lat="45.43151" lon="0.79854">
        <ele>201.44103292098</ele>
        <time>2015-08-07T09:45:09Z</time>
      </trkpt>
      <trkpt lat="45.43159" lon="0.79843">
        <ele>201.16285139284</ele>
        <time>2015-08-07T09:45:14Z</time>
      </trkpt>
      <trkpt lat="45.43162" lon="0.79837">
        <ele>201.16285139284</ele>
        <time>2015-08-07T09:45:19Z</time>
      </trkpt>
      <trkpt lat="45.43166" lon="0.7983">
        <ele>200.44816199596</ele>
        <time>2015-08-07T09:45:24Z</time>
      </trkpt>
      <trkpt lat="45.43173" lon="0.79819">
        <ele>200.49942970347</ele>
        <time>2015-08-07T09:45:29Z</time>
      </trkpt>
      <trkpt lat="45.43168" lon="0.79808">
        <ele>200.49942970347</ele>
        <time>2015-08-07T09:45:34Z</time>
      </trkpt>
      <trkpt lat="45.43171" lon="0.79813">
        <ele>202.01061108669</ele>
        <time>2015-08-07T09:45:39Z</time>
      </trkpt>
      <trkpt lat="45.43175" lon="0.79811">
        <ele>202.01061108669</ele>
        <time>2015-08-07T09:45:44Z</time>
      </trkpt>
      <trkpt lat="45.43178" lon="0.79803">
        <ele>203.41554366486</ele>
        <time>2015-08-07T09:45:49Z</time>
      </trkpt>
      <trkpt lat="45.43187" lon="0.79797">
        <ele>204.48830556769</ele>
        <time>2015-08-07T09:45:54Z</time>
      </trkpt>
      <trkpt lat="45.43188" lon="0.79789">
        <ele>204.48830556769</ele>
        <time>2015-08-07T09:45:59Z</time>
      </trkpt>
      <trkpt lat="45.4319" lon="0.79777">
        <ele>204.31427100869</ele>
        <time>2015-08-07T09:46:04Z</time>
      </trkpt>
      <trkpt lat="45.43194" lon="0.79767">
        <ele>204.31427100869</ele>
        <time>2015-08-07T09:46:09Z</time>
      </trkpt>
      <trkpt lat="45.43199" lon="0.79761">
        <ele>203.73558489329</ele>
        <time>2015-08-07T09:46:14Z</time>
      </trkpt>
      <trkpt lat="45.432" lon="0.79756">
        <ele>203.73558489329</ele>
        <time>2015-08-07T09:46:19Z</time>
      </trkpt>
      <trkpt lat="45.43208" lon="0.79749">
        <ele>203.20214293337</ele>
        <time>2015-08-07T09:46:24Z</time>
      </trkpt>
      <trkpt lat="45.43214" lon="0.79742">
        <ele>203.20214293337</ele>
        <time>2015-08-07T09:46:29Z</time>
      </trkpt>
      <trkpt lat="45.43218" lon="0.79733">
        <ele>202.81355609268</ele>
        <time>2015-08-07T09:46:34Z</time>
      </trkpt>
      <trkpt lat="45.43221" lon="0.79726">
        <ele>202.81355609268</ele>
        <time>2015-08-07T09:46:39Z</time>
      </trkpt>
      <trkpt lat="45.43224" lon="0.79717">
        <ele>202.28695646891</ele>
        <time>2015-08-07T09:46:44Z</time>
      </trkpt>
      <trkpt lat="45.43228" lon="0.79703">
        <ele>202.72967539941</ele>
        <time>2015-08-07T09:46:49Z</time>
      </trkpt>
      <trkpt lat="45.43232" lon="0.79693">
        <ele>202.72967539941</ele>
        <time>2015-08-07T09:46:54Z</time>
      </trkpt>
      <trkpt lat="45.43233" lon="0.79685">
        <ele>204.04083010795</ele>
        <time>2015-08-07T09:46:59Z</time>
      </trkpt>
      <trkpt lat="45.43234" lon="0.79673">
        <ele>204.04083010795</ele>
        <time>2015-08-07T09:47:04Z</time>
      </trkpt>
      <trkpt lat="45.43231" lon="0.79663">
        <ele>205.15890007025</ele>
        <time>2015-08-07T09:47:09Z</time>
      </trkpt>
      <trkpt lat="45.4323" lon="0.79657">
        <ele>205.15890007025</ele>
        <time>2015-08-07T09:47:14Z</time>
      </trkpt>
      <trkpt lat="45.43236" lon="0.79652">
        <ele>205.24496498564</ele>
        <time>2015-08-07T09:47:19Z</time>
      </trkpt>
      <trkpt lat="45.43235" lon="0.79641">
        <ele>205.24496498564</ele>
        <time>2015-08-07T09:47:24Z</time>
      </trkpt>
      <trkpt lat="45.43235" lon="0.79633">
        <ele>205.28278779938</ele>
        <time>2015-08-07T09:47:29Z</time>
      </trkpt>
      <trkpt lat="45.43235" lon="0.79622">
        <ele>205.28278779938</ele>
        <time>2015-08-07T09:47:34Z</time>
      </trkpt>
      <trkpt lat="45.43237" lon="0.7961">
        <ele>205.43457738771</ele>
        <time>2015-08-07T09:47:39Z</time>
      </trkpt>
      <trkpt lat="45.43235" lon="0.796">
        <ele>205.43457738771</ele>
        <time>2015-08-07T09:47:44Z</time>
      </trkpt>
      <trkpt lat="45.43236" lon="0.79587">
        <ele>205.72058166298</ele>
        <time>2015-08-07T09:47:49Z</time>
      </trkpt>
      <trkpt lat="45.43231" lon="0.79577">
        <ele>205.72058166298</ele>
        <time>2015-08-07T09:47:54Z</time>
      </trkpt>
      <trkpt lat="45.43234" lon="0.79568">
        <ele>206.11593072975</ele>
        <time>2015-08-07T09:47:59Z</time>
      </trkpt>
      <trkpt lat="45.43233" lon="0.79559">
        <ele>206.11593072975</ele>
        <time>2015-08-07T09:48:04Z</time>
      </trkpt>
      <trkpt lat="45.43233" lon="0.7955">
        <ele>206.81342831082</ele>
        <time>2015-08-07T09:48:09Z</time>
      </trkpt>
      <trkpt lat="45.43231" lon="0.79541">
        <ele>206.81342831082</ele>
        <time>2015-08-07T09:48:14Z</time>
      </trkpt>
      <trkpt lat="45.43228" lon="0.7953">
        <ele>207.77468563704</ele>
        <time>2015-08-07T09:48:19Z</time>
      </trkpt>
      <trkpt lat="45.43226" lon="0.79518">
        <ele>207.77468563704</ele>
        <time>2015-08-07T09:48:24Z</time>
      </trkpt>
      <trkpt lat="45.43224" lon="0.79509">
        <ele>208.44458292375</ele>
        <time>2015-08-07T09:48:29Z</time>
      </trkpt>
      <trkpt lat="45.43223" lon="0.79501">
        <ele>208.44458292375</ele>
        <time>2015-08-07T09:48:34Z</time>
      </trkpt>
      <trkpt lat="45.43221" lon="0.79493">
        <ele>209.40485435326</ele>
        <time>2015-08-07T09:48:39Z</time>
      </trkpt>
      <trkpt lat="45.43221" lon="0.79483">
        <ele>209.40485435326</ele>
        <time>2015-08-07T09:48:44Z</time>
      </trkpt>
      <trkpt lat="45.43217" lon="0.7947">
        <ele>210.01196872016</ele>
        <time>2015-08-07T09:48:49Z</time>
      </trkpt>
      <trkpt lat="45.43219" lon="0.79459">
        <ele>210.01196872016</ele>
        <time>2015-08-07T09:48:54Z</time>
      </trkpt>
      <trkpt lat="45.4322" lon="0.79451">
        <ele>210.08859794061</ele>
        <time>2015-08-07T09:48:59Z</time>
      </trkpt>
      <trkpt lat="45.43221" lon="0.79441">
        <ele>210.08859794061</ele>
        <time>2015-08-07T09:49:04Z</time>
      </trkpt>
      <trkpt lat="45.43221" lon="0.79435">
        <ele>209.70252131295</ele>
        <time>2015-08-07T09:49:09Z</time>
      </trkpt>
      <trkpt lat="45.4322" lon="0.79425">
        <ele>209.70252131295</ele>
        <time>2015-08-07T09:49:14Z</time>
      </trkpt>
      <trkpt lat="45.43219" lon="0.79413">
        <ele>209.07637226825</ele>
        <time>2015-08-07T09:49:19Z</time>
      </trkpt>
      <trkpt lat="45.43221" lon="0.79404">
        <ele>209.07637226825</ele>
        <time>2015-08-07T09:49:24Z</time>
      </trkpt>
      <trkpt lat="45.43222" lon="0.79399">
        <ele>207.73978513514</ele>
        <time>2015-08-07T09:49:29Z</time>
      </trkpt>
      <trkpt lat="45.43226" lon="0.79386">
        <ele>206.36860133573</ele>
        <time>2015-08-07T09:49:34Z</time>
      </trkpt>
      <trkpt lat="45.43227" lon="0.79376">
        <ele>206.36860133573</ele>
        <time>2015-08-07T09:49:39Z</time>
      </trkpt>
      <trkpt lat="45.43227" lon="0.79368">
        <ele>204.52267543351</ele>
        <time>2015-08-07T09:49:44Z</time>
      </trkpt>
      <trkpt lat="45.43226" lon="0.79358">
        <ele>204.52267543351</ele>
        <time>2015-08-07T09:49:49Z</time>
      </trkpt>
      <trkpt lat="45.43227" lon="0.79346">
        <ele>202.01167190451</ele>
        <time>2015-08-07T09:49:54Z</time>
      </trkpt>
      <trkpt lat="45.43228" lon="0.79333">
        <ele>202.01167190451</ele>
        <time>2015-08-07T09:49:59Z</time>
      </trkpt>
      <trkpt lat="45.43228" lon="0.79322">
        <ele>200.50569310091</ele>
        <time>2015-08-07T09:50:04Z</time>
      </trkpt>
      <trkpt lat="45.43228" lon="0.79311">
        <ele>200.50569310091</ele>
        <time>2015-08-07T09:50:09Z</time>
      </trkpt>
      <trkpt lat="45.43228" lon="0.79298">
        <ele>199.71907280027</ele>
        <time>2015-08-07T09:50:14Z</time>
      </trkpt>
      <trkpt lat="45.43229" lon="0.79285">
        <ele>199.71907280027</ele>
        <time>2015-08-07T09:50:19Z</time>
      </trkpt>
      <trkpt lat="45.4323" lon="0.79275">
        <ele>199.29858866536</ele>
        <time>2015-08-07T09:50:24Z</time>
      </trkpt>
      <trkpt lat="45.43229" lon="0.79264">
        <ele>199.29858866536</ele>
        <time>2015-08-07T09:50:29Z</time>
      </trkpt>
      <trkpt lat="45.43231" lon="0.79253">
        <ele>199.21851154415</ele>
        <time>2015-08-07T09:50:34Z</time>
      </trkpt>
      <trkpt lat="45.4323" lon="0.79243">
        <ele>199.21851154415</ele>
        <time>2015-08-07T09:50:39Z</time>
      </trkpt>
      <trkpt lat="45.4323" lon="0.79231">
        <ele>199.41075318882</ele>
        <time>2015-08-07T09:50:44Z</time>
      </trkpt>
      <trkpt lat="45.43229" lon="0.79219">
        <ele>199.41075318882</ele>
        <time>2015-08-07T09:50:49Z</time>
      </trkpt>
      <trkpt lat="45.4323" lon="0.79209">
        <ele>199.63847227913</ele>
        <time>2015-08-07T09:50:54Z</time>
      </trkpt>
      <trkpt lat="45.43231" lon="0.79198">
        <ele>199.63847227913</ele>
        <time>2015-08-07T09:50:59Z</time>
      </trkpt>
      <trkpt lat="45.43232" lon="0.79188">
        <ele>199.69648479972</ele>
        <time>2015-08-07T09:51:05Z</time>
      </trkpt>
      <trkpt lat="45.43236" lon="0.7917">
        <ele>199.40951892099</ele>
        <time>2015-08-07T09:51:15Z</time>
      </trkpt>
      <trkpt lat="45.43239" lon="0.79162">
        <ele>199.40951892099</ele>
        <time>2015-08-07T09:51:19Z</time>
      </trkpt>
      <trkpt lat="45.43243" lon="0.79142">
        <ele>203.04032327164</ele>
        <time>2015-08-07T09:51:30Z</time>
      </trkpt>
      <trkpt lat="45.43242" lon="0.79131">
        <ele>203.04032327164</ele>
        <time>2015-08-07T09:51:35Z</time>
      </trkpt>
      <trkpt lat="45.43247" lon="0.79111">
        <ele>203.70473816504</ele>
        <time>2015-08-07T09:51:44Z</time>
      </trkpt>
      <trkpt lat="45.43249" lon="0.791">
        <ele>203.70473816504</ele>
        <time>2015-08-07T09:51:49Z</time>
      </trkpt>
      <trkpt lat="45.43249" lon="0.79093">
        <ele>203.83781051465</ele>
        <time>2015-08-07T09:51:54Z</time>
      </trkpt>
      <trkpt lat="45.43253" lon="0.79085">
        <ele>203.83781051465</ele>
        <time>2015-08-07T09:51:59Z</time>
      </trkpt>
      <trkpt lat="45.43253" lon="0.79077">
        <ele>203.30494810643</ele>
        <time>2015-08-07T09:52:04Z</time>
      </trkpt>
      <trkpt lat="45.43254" lon="0.79069">
        <ele>203.30494810643</ele>
        <time>2015-08-07T09:52:09Z</time>
      </trkpt>
      <trkpt lat="45.43255" lon="0.79059">
        <ele>202.79033660945</ele>
        <time>2015-08-07T09:52:14Z</time>
      </trkpt>
      <trkpt lat="45.43256" lon="0.79053">
        <ele>202.79033660945</ele>
        <time>2015-08-07T09:52:19Z</time>
      </trkpt>
      <trkpt lat="45.43254" lon="0.79046">
        <ele>201.9190708554</ele>
        <time>2015-08-07T09:52:24Z</time>
      </trkpt>
      <trkpt lat="45.43254" lon="0.79038">
        <ele>201.9190708554</ele>
        <time>2015-08-07T09:52:29Z</time>
      </trkpt>
      <trkpt lat="45.43251" lon="0.79029">
        <ele>201.13739355773</ele>
        <time>2015-08-07T09:52:34Z</time>
      </trkpt>
      <trkpt lat="45.43254" lon="0.79019">
        <ele>201.13739355773</ele>
        <time>2015-08-07T09:52:39Z</time>
      </trkpt>
      <trkpt lat="45.43263" lon="0.79012">
        <ele>201.18996344677</ele>
        <time>2015-08-07T09:52:44Z</time>
      </trkpt>
      <trkpt lat="45.43266" lon="0.7901">
        <ele>201.18996344677</ele>
        <time>2015-08-07T09:52:49Z</time>
      </trkpt>
      <trkpt lat="45.43268" lon="0.79012">
        <ele>201.18996344677</ele>
        <time>2015-08-07T09:52:54Z</time>
      </trkpt>
      <trkpt lat="45.43277" lon="0.7901">
        <ele>201.6979643017</ele>
        <time>2015-08-07T09:52:59Z</time>
      </trkpt>
      <trkpt lat="45.43282" lon="0.79012">
        <ele>201.6979643017</ele>
        <time>2015-08-07T09:53:04Z</time>
      </trkpt>
      <trkpt lat="45.43288" lon="0.79012">
        <ele>202.07854297123</ele>
        <time>2015-08-07T09:53:09Z</time>
      </trkpt>
      <trkpt lat="45.43294" lon="0.79014">
        <ele>202.07854297123</ele>
        <time>2015-08-07T09:53:14Z</time>
      </trkpt>
      <trkpt lat="45.43306" lon="0.79016">
        <ele>202.41169218731</ele>
        <time>2015-08-07T09:53:19Z</time>
      </trkpt>
      <trkpt lat="45.43312" lon="0.79017">
        <ele>202.41169218731</ele>
        <time>2015-08-07T09:53:24Z</time>
      </trkpt>
      <trkpt lat="45.43319" lon="0.7902">
        <ele>202.9445938428</ele>
        <time>2015-08-07T09:53:29Z</time>
      </trkpt>
      <trkpt lat="45.43322" lon="0.79024">
        <ele>202.9445938428</ele>
        <time>2015-08-07T09:53:34Z</time>
      </trkpt>
      <trkpt lat="45.43326" lon="0.79029">
        <ele>202.98340245997</ele>
        <time>2015-08-07T09:53:39Z</time>
      </trkpt>
      <trkpt lat="45.43334" lon="0.79029">
        <ele>202.98340245997</ele>
        <time>2015-08-07T09:53:44Z</time>
      </trkpt>
      <trkpt lat="45.43344" lon="0.7903">
        <ele>203.09716900141</ele>
        <time>2015-08-07T09:53:49Z</time>
      </trkpt>
      <trkpt lat="45.43356" lon="0.79024">
        <ele>203.04915081216</ele>
        <time>2015-08-07T09:53:54Z</time>
      </trkpt>
      <trkpt lat="45.43363" lon="0.79023">
        <ele>203.04915081216</ele>
        <time>2015-08-07T09:53:59Z</time>
      </trkpt>
      <trkpt lat="45.4337" lon="0.79021">
        <ele>203.00956028095</ele>
        <time>2015-08-07T09:54:04Z</time>
      </trkpt>
      <trkpt lat="45.43378" lon="0.7902">
        <ele>203.00956028095</ele>
        <time>2015-08-07T09:54:09Z</time>
      </trkpt>
      <trkpt lat="45.43384" lon="0.7902">
        <ele>202.60288023335</ele>
        <time>2015-08-07T09:54:14Z</time>
      </trkpt>
      <trkpt lat="45.43392" lon="0.79019">
        <ele>202.60288023335</ele>
        <time>2015-08-07T09:54:19Z</time>
      </trkpt>
      <trkpt lat="45.43399" lon="0.79019">
        <ele>202.89450859558</ele>
        <time>2015-08-07T09:54:24Z</time>
      </trkpt>
      <trkpt lat="45.43406" lon="0.79019">
        <ele>202.89450859558</ele>
        <time>2015-08-07T09:54:29Z</time>
      </trkpt>
      <trkpt lat="45.43415" lon="0.79021">
        <ele>202.78001653681</ele>
        <time>2015-08-07T09:54:34Z</time>
      </trkpt>
      <trkpt lat="45.43422" lon="0.7902">
        <ele>202.78001653681</ele>
        <time>2015-08-07T09:54:39Z</time>
      </trkpt>
      <trkpt lat="45.43429" lon="0.79024">
        <ele>202.36132125362</ele>
        <time>2015-08-07T09:54:44Z</time>
      </trkpt>
      <trkpt lat="45.43432" lon="0.79027">
        <ele>202.36132125362</ele>
        <time>2015-08-07T09:54:49Z</time>
      </trkpt>
      <trkpt lat="45.43438" lon="0.79031">
        <ele>200.16289772697</ele>
        <time>2015-08-07T09:54:54Z</time>
      </trkpt>
      <trkpt lat="45.43444" lon="0.79038">
        <ele>200.16289772697</ele>
        <time>2015-08-07T09:54:59Z</time>
      </trkpt>
      <trkpt lat="45.43453" lon="0.7904">
        <ele>197.66159296292</ele>
        <time>2015-08-07T09:55:04Z</time>
      </trkpt>
      <trkpt lat="45.43462" lon="0.79042">
        <ele>195.03047593489</ele>
        <time>2015-08-07T09:55:09Z</time>
      </trkpt>
      <trkpt lat="45.43471" lon="0.79044">
        <ele>192.37258972608</ele>
        <time>2015-08-07T09:55:14Z</time>
      </trkpt>
      <trkpt lat="45.43478" lon="0.79042">
        <ele>192.37258972608</ele>
        <time>2015-08-07T09:55:19Z</time>
      </trkpt>
      <trkpt lat="45.43486" lon="0.79038">
        <ele>190.07165600462</ele>
        <time>2015-08-07T09:55:24Z</time>
      </trkpt>
      <trkpt lat="45.43492" lon="0.79033">
        <ele>190.07165600462</ele>
        <time>2015-08-07T09:55:29Z</time>
      </trkpt>
      <trkpt lat="45.43496" lon="0.79027">
        <ele>188.22274192073</ele>
        <time>2015-08-07T09:55:34Z</time>
      </trkpt>
      <trkpt lat="45.435" lon="0.7902">
        <ele>188.22274192073</ele>
        <time>2015-08-07T09:55:39Z</time>
      </trkpt>
      <trkpt lat="45.43505" lon="0.79012">
        <ele>186.86935258085</ele>
        <time>2015-08-07T09:55:44Z</time>
      </trkpt>
      <trkpt lat="45.43509" lon="0.79004">
        <ele>186.86935258085</ele>
        <time>2015-08-07T09:55:49Z</time>
      </trkpt>
      <trkpt lat="45.43514" lon="0.78998">
        <ele>186.28090068266</ele>
        <time>2015-08-07T09:55:54Z</time>
      </trkpt>
      <trkpt lat="45.4352" lon="0.78989">
        <ele>186.28090068266</ele>
        <time>2015-08-07T09:55:59Z</time>
      </trkpt>
      <trkpt lat="45.43525" lon="0.7898">
        <ele>186.79124325047</ele>
        <time>2015-08-07T09:56:04Z</time>
      </trkpt>
      <trkpt lat="45.43529" lon="0.7897">
        <ele>186.79124325047</ele>
        <time>2015-08-07T09:56:09Z</time>
      </trkpt>
      <trkpt lat="45.43534" lon="0.78968">
        <ele>187.64012578552</ele>
        <time>2015-08-07T09:56:14Z</time>
      </trkpt>
      <trkpt lat="45.43539" lon="0.78964">
        <ele>187.64012578552</ele>
        <time>2015-08-07T09:56:19Z</time>
      </trkpt>
      <trkpt lat="45.43542" lon="0.78956">
        <ele>188.58327605897</ele>
        <time>2015-08-07T09:56:24Z</time>
      </trkpt>
      <trkpt lat="45.43547" lon="0.78948">
        <ele>188.58327605897</ele>
        <time>2015-08-07T09:56:29Z</time>
      </trkpt>
      <trkpt lat="45.43552" lon="0.78939">
        <ele>189.94166589663</ele>
        <time>2015-08-07T09:56:34Z</time>
      </trkpt>
      <trkpt lat="45.43555" lon="0.78927">
        <ele>189.94166589663</ele>
        <time>2015-08-07T09:56:39Z</time>
      </trkpt>
      <trkpt lat="45.43558" lon="0.78917">
        <ele>192.61675065507</ele>
        <time>2015-08-07T09:56:44Z</time>
      </trkpt>
      <trkpt lat="45.43564" lon="0.78908">
        <ele>192.61675065507</ele>
        <time>2015-08-07T09:56:49Z</time>
      </trkpt>
      <trkpt lat="45.43566" lon="0.78898">
        <ele>195.53778412434</ele>
        <time>2015-08-07T09:56:54Z</time>
      </trkpt>
      <trkpt lat="45.43566" lon="0.78889">
        <ele>195.53778412434</ele>
        <time>2015-08-07T09:56:59Z</time>
      </trkpt>
      <trkpt lat="45.43563" lon="0.78881">
        <ele>198.73517973162</ele>
        <time>2015-08-07T09:57:04Z</time>
      </trkpt>
      <trkpt lat="45.43555" lon="0.78877">
        <ele>198.73517973162</ele>
        <time>2015-08-07T09:57:09Z</time>
      </trkpt>
      <trkpt lat="45.43548" lon="0.78873">
        <ele>201.78962595155</ele>
        <time>2015-08-07T09:57:14Z</time>
      </trkpt>
      <trkpt lat="45.43542" lon="0.7887">
        <ele>201.78962595155</ele>
        <time>2015-08-07T09:57:19Z</time>
      </trkpt>
      <trkpt lat="45.43537" lon="0.78868">
        <ele>203.96720153455</ele>
        <time>2015-08-07T09:57:24Z</time>
      </trkpt>
      <trkpt lat="45.43531" lon="0.7886">
        <ele>203.96720153455</ele>
        <time>2015-08-07T09:57:29Z</time>
      </trkpt>
      <trkpt lat="45.43526" lon="0.78853">
        <ele>206.01713459507</ele>
        <time>2015-08-07T09:57:34Z</time>
      </trkpt>
      <trkpt lat="45.4352" lon="0.78848">
        <ele>206.01713459507</ele>
        <time>2015-08-07T09:57:39Z</time>
      </trkpt>
      <trkpt lat="45.43515" lon="0.78846">
        <ele>207.74057688643</ele>
        <time>2015-08-07T09:57:44Z</time>
      </trkpt>
      <trkpt lat="45.4351" lon="0.78839">
        <ele>207.74057688643</ele>
        <time>2015-08-07T09:57:49Z</time>
      </trkpt>
      <trkpt lat="45.43506" lon="0.7883">
        <ele>210.13602199076</ele>
        <time>2015-08-07T09:57:54Z</time>
      </trkpt>
      <trkpt lat="45.43506" lon="0.78831">
        <ele>210.13602199076</ele>
        <time>2015-08-07T09:57:59Z</time>
      </trkpt>
      <trkpt lat="45.43507" lon="0.78831">
        <ele>210.13602199076</ele>
        <time>2015-08-07T09:58:04Z</time>
      </trkpt>
      <trkpt lat="45.43503" lon="0.78839">
        <ele>210.13602199076</ele>
        <time>2015-08-07T09:58:09Z</time>
      </trkpt>
      <trkpt lat="45.43508" lon="0.7885">
        <ele>212.03723538649</ele>
        <time>2015-08-07T09:58:14Z</time>
      </trkpt>
      <trkpt lat="45.43514" lon="0.78859">
        <ele>212.03723538649</ele>
        <time>2015-08-07T09:58:19Z</time>
      </trkpt>
      <trkpt lat="45.43524" lon="0.78867">
        <ele>213.69098963255</ele>
        <time>2015-08-07T09:58:24Z</time>
      </trkpt>
      <trkpt lat="45.43533" lon="0.78865">
        <ele>214.3468004892</ele>
        <time>2015-08-07T09:58:29Z</time>
      </trkpt>
      <trkpt lat="45.43542" lon="0.78872">
        <ele>214.85423841252</ele>
        <time>2015-08-07T09:58:34Z</time>
      </trkpt>
      <trkpt lat="45.43551" lon="0.78875">
        <ele>214.99223659016</ele>
        <time>2015-08-07T09:58:39Z</time>
      </trkpt>
      <trkpt lat="45.43559" lon="0.78879">
        <ele>214.99223659016</ele>
        <time>2015-08-07T09:58:44Z</time>
      </trkpt>
      <trkpt lat="45.43566" lon="0.78884">
        <ele>214.71565396533</ele>
        <time>2015-08-07T09:58:49Z</time>
      </trkpt>
      <trkpt lat="45.43573" lon="0.78889">
        <ele>214.71565396533</ele>
        <time>2015-08-07T09:58:54Z</time>
      </trkpt>
      <trkpt lat="45.4358" lon="0.78895">
        <ele>213.96953535675</ele>
        <time>2015-08-07T09:58:59Z</time>
      </trkpt>
      <trkpt lat="45.43586" lon="0.78902">
        <ele>213.96953535675</ele>
        <time>2015-08-07T09:59:04Z</time>
      </trkpt>
      <trkpt lat="45.43592" lon="0.78909">
        <ele>212.51704018935</ele>
        <time>2015-08-07T09:59:09Z</time>
      </trkpt>
      <trkpt lat="45.43597" lon="0.78914">
        <ele>212.51704018935</ele>
        <time>2015-08-07T09:59:14Z</time>
      </trkpt>
      <trkpt lat="45.43602" lon="0.7892">
        <ele>210.47225172546</ele>
        <time>2015-08-07T09:59:19Z</time>
      </trkpt>
      <trkpt lat="45.43609" lon="0.78927">
        <ele>210.47225172546</ele>
        <time>2015-08-07T09:59:24Z</time>
      </trkpt>
      <trkpt lat="45.43615" lon="0.78931">
        <ele>207.94260251617</ele>
        <time>2015-08-07T09:59:29Z</time>
      </trkpt>
      <trkpt lat="45.43622" lon="0.78939">
        <ele>207.94260251617</ele>
        <time>2015-08-07T09:59:34Z</time>
      </trkpt>
      <trkpt lat="45.43628" lon="0.78946">
        <ele>205.47578355768</ele>
        <time>2015-08-07T09:59:39Z</time>
      </trkpt>
      <trkpt lat="45.43635" lon="0.7895">
        <ele>205.47578355768</ele>
        <time>2015-08-07T09:59:44Z</time>
      </trkpt>
      <trkpt lat="45.43641" lon="0.78949">
        <ele>202.94500875497</ele>
        <time>2015-08-07T09:59:49Z</time>
      </trkpt>
      <trkpt lat="45.43649" lon="0.78944">
        <ele>202.94500875497</ele>
        <time>2015-08-07T09:59:54Z</time>
      </trkpt>
      <trkpt lat="45.43656" lon="0.78939">
        <ele>200.27621536902</ele>
        <time>2015-08-07T09:59:59Z</time>
      </trkpt>
      <trkpt lat="45.43661" lon="0.78932">
        <ele>200.27621536902</ele>
        <time>2015-08-07T10:00:04Z</time>
      </trkpt>
      <trkpt lat="45.43666" lon="0.78923">
        <ele>197.44437509107</ele>
        <time>2015-08-07T10:00:09Z</time>
      </trkpt>
      <trkpt lat="45.43671" lon="0.78913">
        <ele>197.44437509107</ele>
        <time>2015-08-07T10:00:14Z</time>
      </trkpt>
      <trkpt lat="45.43676" lon="0.78904">
        <ele>194.45552849819</ele>
        <time>2015-08-07T10:00:19Z</time>
      </trkpt>
      <trkpt lat="45.43683" lon="0.78889">
        <ele>190.89771855884</ele>
        <time>2015-08-07T10:00:29Z</time>
      </trkpt>
      <trkpt lat="45.43689" lon="0.78883">
        <ele>190.89771855884</ele>
        <time>2015-08-07T10:00:34Z</time>
      </trkpt>
      <trkpt lat="45.43696" lon="0.78874">
        <ele>188.03362079076</ele>
        <time>2015-08-07T10:00:39Z</time>
      </trkpt>
      <trkpt lat="45.43701" lon="0.78866">
        <ele>188.03362079076</ele>
        <time>2015-08-07T10:00:44Z</time>
      </trkpt>
      <trkpt lat="45.43708" lon="0.78858">
        <ele>186.3105424199</ele>
        <time>2015-08-07T10:00:49Z</time>
      </trkpt>
      <trkpt lat="45.4371" lon="0.7886">
        <ele>186.3105424199</ele>
        <time>2015-08-07T10:00:54Z</time>
      </trkpt>
      <trkpt lat="45.4371" lon="0.78853">
        <ele>186.3105424199</ele>
        <time>2015-08-07T10:00:59Z</time>
      </trkpt>
      <trkpt lat="45.43714" lon="0.78845">
        <ele>183.60324692442</ele>
        <time>2015-08-07T10:01:04Z</time>
      </trkpt>
      <trkpt lat="45.43717" lon="0.78838">
        <ele>183.60324692442</ele>
        <time>2015-08-07T10:01:09Z</time>
      </trkpt>
      <trkpt lat="45.43722" lon="0.78826">
        <ele>181.34626134796</ele>
        <time>2015-08-07T10:01:15Z</time>
      </trkpt>
      <trkpt lat="45.43736" lon="0.78805">
        <ele>179.10916491419</ele>
        <time>2015-08-07T10:01:24Z</time>
      </trkpt>
      <trkpt lat="45.43741" lon="0.78794">
        <ele>176.78116546077</ele>
        <time>2015-08-07T10:01:30Z</time>
      </trkpt>
      <trkpt lat="45.4375" lon="0.78779">
        <ele>174.9370244492</ele>
        <time>2015-08-07T10:01:39Z</time>
      </trkpt>
      <trkpt lat="45.4375" lon="0.78772">
        <ele>174.9370244492</ele>
        <time>2015-08-07T10:01:44Z</time>
      </trkpt>
      <trkpt lat="45.43759" lon="0.78742">
        <ele>172.09019947521</ele>
        <time>2015-08-07T10:01:59Z</time>
      </trkpt>
      <trkpt lat="45.4376" lon="0.78733">
        <ele>172.09019947521</ele>
        <time>2015-08-07T10:02:04Z</time>
      </trkpt>
      <trkpt lat="45.43762" lon="0.78719">
        <ele>169.43116670537</ele>
        <time>2015-08-07T10:02:09Z</time>
      </trkpt>
      <trkpt lat="45.43765" lon="0.78707">
        <ele>169.43116670537</ele>
        <time>2015-08-07T10:02:14Z</time>
      </trkpt>
      <trkpt lat="45.43767" lon="0.78699">
        <ele>167.5722684723</ele>
        <time>2015-08-07T10:02:19Z</time>
      </trkpt>
      <trkpt lat="45.43764" lon="0.78683">
        <ele>165.53645018137</ele>
        <time>2015-08-07T10:02:24Z</time>
      </trkpt>
      <trkpt lat="45.43765" lon="0.78663">
        <ele>163.54281217537</ele>
        <time>2015-08-07T10:02:34Z</time>
      </trkpt>
      <trkpt lat="45.43766" lon="0.78655">
        <ele>163.54281217537</ele>
        <time>2015-08-07T10:02:39Z</time>
      </trkpt>
      <trkpt lat="45.43764" lon="0.78646">
        <ele>161.44819253691</ele>
        <time>2015-08-07T10:02:44Z</time>
      </trkpt>
      <trkpt lat="45.43761" lon="0.78636">
        <ele>161.44819253691</ele>
        <time>2015-08-07T10:02:49Z</time>
      </trkpt>
      <trkpt lat="45.4376" lon="0.78627">
        <ele>158.91829211368</ele>
        <time>2015-08-07T10:02:54Z</time>
      </trkpt>
      <trkpt lat="45.43759" lon="0.78621">
        <ele>158.91829211368</ele>
        <time>2015-08-07T10:02:59Z</time>
      </trkpt>
      <trkpt lat="45.43761" lon="0.78614">
        <ele>156.00468626619</ele>
        <time>2015-08-07T10:03:04Z</time>
      </trkpt>
      <trkpt lat="45.43763" lon="0.78601">
        <ele>153.41896667402</ele>
        <time>2015-08-07T10:03:09Z</time>
      </trkpt>
      <trkpt lat="45.43768" lon="0.78587">
        <ele>151.15643693075</ele>
        <time>2015-08-07T10:03:14Z</time>
      </trkpt>
      <trkpt lat="45.43768" lon="0.78577">
        <ele>151.15643693075</ele>
        <time>2015-08-07T10:03:19Z</time>
      </trkpt>
      <trkpt lat="45.4377" lon="0.78568">
        <ele>147.79936321368</ele>
        <time>2015-08-07T10:03:24Z</time>
      </trkpt>
      <trkpt lat="45.43772" lon="0.78556">
        <ele>147.79936321368</ele>
        <time>2015-08-07T10:03:29Z</time>
      </trkpt>
      <trkpt lat="45.43773" lon="0.78544">
        <ele>144.8472078166</ele>
        <time>2015-08-07T10:03:34Z</time>
      </trkpt>
      <trkpt lat="45.43776" lon="0.78524">
        <ele>142.41978039576</ele>
        <time>2015-08-07T10:03:39Z</time>
      </trkpt>
      <trkpt lat="45.43782" lon="0.78486">
        <ele>140.65525167757</ele>
        <time>2015-08-07T10:03:44Z</time>
      </trkpt>
      <trkpt lat="45.43784" lon="0.78446">
        <ele>139.36255369344</ele>
        <time>2015-08-07T10:03:49Z</time>
      </trkpt>
      <trkpt lat="45.43785" lon="0.78427">
        <ele>138.62255442239</ele>
        <time>2015-08-07T10:03:54Z</time>
      </trkpt>
      <trkpt lat="45.43788" lon="0.78421">
        <ele>138.62255442239</ele>
        <time>2015-08-07T10:03:59Z</time>
      </trkpt>
      <trkpt lat="45.43785" lon="0.78414">
        <ele>138.03289992294</ele>
        <time>2015-08-07T10:04:04Z</time>
      </trkpt>
      <trkpt lat="45.43782" lon="0.78403">
        <ele>138.03289992294</ele>
        <time>2015-08-07T10:04:09Z</time>
      </trkpt>
      <trkpt lat="45.4378" lon="0.78393">
        <ele>138.32987957781</ele>
        <time>2015-08-07T10:04:14Z</time>
      </trkpt>
      <trkpt lat="45.43777" lon="0.78382">
        <ele>138.32987957781</ele>
        <time>2015-08-07T10:04:19Z</time>
      </trkpt>
      <trkpt lat="45.43774" lon="0.78372">
        <ele>139.0257796856</ele>
        <time>2015-08-07T10:04:24Z</time>
      </trkpt>
      <trkpt lat="45.43772" lon="0.78361">
        <ele>139.0257796856</ele>
        <time>2015-08-07T10:04:29Z</time>
      </trkpt>
      <trkpt lat="45.43769" lon="0.78351">
        <ele>140.12864499753</ele>
        <time>2015-08-07T10:04:34Z</time>
      </trkpt>
      <trkpt lat="45.43766" lon="0.78342">
        <ele>140.12864499753</ele>
        <time>2015-08-07T10:04:39Z</time>
      </trkpt>
      <trkpt lat="45.43758" lon="0.78321">
        <ele>141.22678445033</ele>
        <time>2015-08-07T10:04:50Z</time>
      </trkpt>
      <trkpt lat="45.43755" lon="0.78311">
        <ele>141.22678445033</ele>
        <time>2015-08-07T10:04:55Z</time>
      </trkpt>
      <trkpt lat="45.43749" lon="0.78293">
        <ele>142.38545248117</ele>
        <time>2015-08-07T10:05:04Z</time>
      </trkpt>
      <trkpt lat="45.43748" lon="0.78283">
        <ele>142.38545248117</ele>
        <time>2015-08-07T10:05:10Z</time>
      </trkpt>
      <trkpt lat="45.43749" lon="0.78263">
        <ele>143.01640952071</ele>
        <time>2015-08-07T10:05:20Z</time>
      </trkpt>
      <trkpt lat="45.43751" lon="0.78253">
        <ele>143.01640952071</ele>
        <time>2015-08-07T10:05:25Z</time>
      </trkpt>
      <trkpt lat="45.43754" lon="0.78235">
        <ele>143.67134535748</ele>
        <time>2015-08-07T10:05:34Z</time>
      </trkpt>
      <trkpt lat="45.43756" lon="0.78228">
        <ele>143.67134535748</ele>
        <time>2015-08-07T10:05:39Z</time>
      </trkpt>
      <trkpt lat="45.43763" lon="0.78219">
        <ele>144.05434519432</ele>
        <time>2015-08-07T10:05:44Z</time>
      </trkpt>
      <trkpt lat="45.43768" lon="0.78213">
        <ele>144.05434519432</ele>
        <time>2015-08-07T10:05:49Z</time>
      </trkpt>
      <trkpt lat="45.43772" lon="0.78206">
        <ele>143.90643386897</ele>
        <time>2015-08-07T10:05:54Z</time>
      </trkpt>
      <trkpt lat="45.43777" lon="0.78198">
        <ele>143.90643386897</ele>
        <time>2015-08-07T10:05:59Z</time>
      </trkpt>
      <trkpt lat="45.43778" lon="0.78188">
        <ele>144.08443577673</ele>
        <time>2015-08-07T10:06:04Z</time>
      </trkpt>
      <trkpt lat="45.43781" lon="0.78174">
        <ele>144.14201507479</ele>
        <time>2015-08-07T10:06:09Z</time>
      </trkpt>
      <trkpt lat="45.43781" lon="0.78162">
        <ele>144.14201507479</ele>
        <time>2015-08-07T10:06:14Z</time>
      </trkpt>
      <trkpt lat="45.43781" lon="0.78151">
        <ele>143.96865508622</ele>
        <time>2015-08-07T10:06:19Z</time>
      </trkpt>
      <trkpt lat="45.43781" lon="0.78139">
        <ele>143.96865508622</ele>
        <time>2015-08-07T10:06:24Z</time>
      </trkpt>
      <trkpt lat="45.43781" lon="0.78128">
        <ele>143.86618417082</ele>
        <time>2015-08-07T10:06:29Z</time>
      </trkpt>
      <trkpt lat="45.43782" lon="0.78116">
        <ele>143.86618417082</ele>
        <time>2015-08-07T10:06:34Z</time>
      </trkpt>
      <trkpt lat="45.43783" lon="0.78106">
        <ele>143.85473335399</ele>
        <time>2015-08-07T10:06:39Z</time>
      </trkpt>
      <trkpt lat="45.43784" lon="0.78095">
        <ele>143.85473335399</ele>
        <time>2015-08-07T10:06:44Z</time>
      </trkpt>
      <trkpt lat="45.43783" lon="0.78085">
        <ele>144.12571243864</ele>
        <time>2015-08-07T10:06:49Z</time>
      </trkpt>
      <trkpt lat="45.43782" lon="0.78076">
        <ele>144.12571243864</ele>
        <time>2015-08-07T10:06:54Z</time>
      </trkpt>
      <trkpt lat="45.43781" lon="0.78068">
        <ele>144.59636333217</ele>
        <time>2015-08-07T10:06:59Z</time>
      </trkpt>
      <trkpt lat="45.43778" lon="0.7806">
        <ele>144.59636333217</ele>
        <time>2015-08-07T10:07:04Z</time>
      </trkpt>
      <trkpt lat="45.43772" lon="0.78056">
        <ele>146.64506429533</ele>
        <time>2015-08-07T10:07:09Z</time>
      </trkpt>
      <trkpt lat="45.43767" lon="0.78046">
        <ele>146.64506429533</ele>
        <time>2015-08-07T10:07:14Z</time>
      </trkpt>
      <trkpt lat="45.43767" lon="0.78035">
        <ele>149.12355057115</ele>
        <time>2015-08-07T10:07:19Z</time>
      </trkpt>
      <trkpt lat="45.43766" lon="0.78025">
        <ele>149.12355057115</ele>
        <time>2015-08-07T10:07:24Z</time>
      </trkpt>
      <trkpt lat="45.43766" lon="0.78014">
        <ele>151.87472509159</ele>
        <time>2015-08-07T10:07:29Z</time>
      </trkpt>
      <trkpt lat="45.43765" lon="0.78004">
        <ele>151.87472509159</ele>
        <time>2015-08-07T10:07:34Z</time>
      </trkpt>
      <trkpt lat="45.43764" lon="0.77993">
        <ele>155.12709705839</ele>
        <time>2015-08-07T10:07:39Z</time>
      </trkpt>
      <trkpt lat="45.43763" lon="0.77982">
        <ele>155.12709705839</ele>
        <time>2015-08-07T10:07:44Z</time>
      </trkpt>
      <trkpt lat="45.43761" lon="0.77971">
        <ele>159.11997106964</ele>
        <time>2015-08-07T10:07:49Z</time>
      </trkpt>
      <trkpt lat="45.43759" lon="0.7796">
        <ele>159.11997106964</ele>
        <time>2015-08-07T10:07:54Z</time>
      </trkpt>
      <trkpt lat="45.43758" lon="0.77949">
        <ele>163.87143047004</ele>
        <time>2015-08-07T10:07:59Z</time>
      </trkpt>
      <trkpt lat="45.43755" lon="0.77938">
        <ele>163.87143047004</ele>
        <time>2015-08-07T10:08:04Z</time>
      </trkpt>
      <trkpt lat="45.43753" lon="0.77928">
        <ele>169.16574305973</ele>
        <time>2015-08-07T10:08:09Z</time>
      </trkpt>
      <trkpt lat="45.4375" lon="0.77919">
        <ele>169.16574305973</ele>
        <time>2015-08-07T10:08:14Z</time>
      </trkpt>
      <trkpt lat="45.43749" lon="0.77914">
        <ele>174.45588284396</ele>
        <time>2015-08-07T10:08:19Z</time>
      </trkpt>
      <trkpt lat="45.43747" lon="0.77907">
        <ele>174.45588284396</ele>
        <time>2015-08-07T10:08:24Z</time>
      </trkpt>
      <trkpt lat="45.43745" lon="0.77901">
        <ele>179.19206389982</ele>
        <time>2015-08-07T10:08:29Z</time>
      </trkpt>
      <trkpt lat="45.43743" lon="0.77897">
        <ele>179.19206389982</ele>
        <time>2015-08-07T10:08:34Z</time>
      </trkpt>
      <trkpt lat="45.43741" lon="0.77889">
        <ele>182.75145529604</ele>
        <time>2015-08-07T10:08:39Z</time>
      </trkpt>
      <trkpt lat="45.43742" lon="0.77881">
        <ele>182.75145529604</ele>
        <time>2015-08-07T10:08:44Z</time>
      </trkpt>
      <trkpt lat="45.43741" lon="0.7787">
        <ele>185.0217571877</ele>
        <time>2015-08-07T10:08:49Z</time>
      </trkpt>
      <trkpt lat="45.43742" lon="0.77862">
        <ele>185.0217571877</ele>
        <time>2015-08-07T10:08:54Z</time>
      </trkpt>
      <trkpt lat="45.43741" lon="0.77853">
        <ele>187.89160267299</ele>
        <time>2015-08-07T10:08:59Z</time>
      </trkpt>
      <trkpt lat="45.43739" lon="0.77842">
        <ele>187.89160267299</ele>
        <time>2015-08-07T10:09:04Z</time>
      </trkpt>
      <trkpt lat="45.43737" lon="0.77832">
        <ele>191.0631650415</ele>
        <time>2015-08-07T10:09:09Z</time>
      </trkpt>
      <trkpt lat="45.43738" lon="0.77821">
        <ele>191.0631650415</ele>
        <time>2015-08-07T10:09:14Z</time>
      </trkpt>
      <trkpt lat="45.43736" lon="0.77811">
        <ele>194.70673479467</ele>
        <time>2015-08-07T10:09:19Z</time>
      </trkpt>
      <trkpt lat="45.43732" lon="0.77799">
        <ele>198.51795604364</ele>
        <time>2015-08-07T10:09:24Z</time>
      </trkpt>
      <trkpt lat="45.43727" lon="0.77789">
        <ele>198.51795604364</ele>
        <time>2015-08-07T10:09:29Z</time>
      </trkpt>
      <trkpt lat="45.43724" lon="0.77789">
        <ele>202.01295060551</ele>
        <time>2015-08-07T10:09:34Z</time>
      </trkpt>
      <trkpt lat="45.43721" lon="0.77791">
        <ele>202.01295060551</ele>
        <time>2015-08-07T10:09:39Z</time>
      </trkpt>
      <trkpt lat="45.43715" lon="0.77791">
        <ele>203.64937350624</ele>
        <time>2015-08-07T10:09:44Z</time>
      </trkpt>
      <trkpt lat="45.43708" lon="0.77789">
        <ele>203.64937350624</ele>
        <time>2015-08-07T10:09:49Z</time>
      </trkpt>
      <trkpt lat="45.43703" lon="0.77782">
        <ele>204.62655753294</ele>
        <time>2015-08-07T10:09:54Z</time>
      </trkpt>
      <trkpt lat="45.43702" lon="0.77772">
        <ele>204.62655753294</ele>
        <time>2015-08-07T10:09:59Z</time>
      </trkpt>
      <trkpt lat="45.43697" lon="0.77763">
        <ele>205.19324535412</ele>
        <time>2015-08-07T10:10:04Z</time>
      </trkpt>
      <trkpt lat="45.43699" lon="0.77752">
        <ele>205.19324535412</ele>
        <time>2015-08-07T10:10:09Z</time>
      </trkpt>
      <trkpt lat="45.43697" lon="0.77743">
        <ele>204.55817982144</ele>
        <time>2015-08-07T10:10:14Z</time>
      </trkpt>
      <trkpt lat="45.43694" lon="0.77736">
        <ele>204.55817982144</ele>
        <time>2015-08-07T10:10:19Z</time>
      </trkpt>
      <trkpt lat="45.43692" lon="0.77728">
        <ele>204.42736516438</ele>
        <time>2015-08-07T10:10:24Z</time>
      </trkpt>
      <trkpt lat="45.43694" lon="0.77717">
        <ele>204.42736516438</ele>
        <time>2015-08-07T10:10:29Z</time>
      </trkpt>
      <trkpt lat="45.43693" lon="0.77707">
        <ele>202.33080106782</ele>
        <time>2015-08-07T10:10:34Z</time>
      </trkpt>
      <trkpt lat="45.43689" lon="0.77699">
        <ele>202.33080106782</ele>
        <time>2015-08-07T10:10:39Z</time>
      </trkpt>
      <trkpt lat="45.43686" lon="0.77694">
        <ele>200.71251621436</ele>
        <time>2015-08-07T10:10:44Z</time>
      </trkpt>
      <trkpt lat="45.43681" lon="0.77683">
        <ele>198.86715903865</ele>
        <time>2015-08-07T10:10:50Z</time>
      </trkpt>
      <trkpt lat="45.43671" lon="0.77664">
        <ele>197.03547185568</ele>
        <time>2015-08-07T10:11:00Z</time>
      </trkpt>
      <trkpt lat="45.43667" lon="0.77658">
        <ele>197.03547185568</ele>
        <time>2015-08-07T10:11:04Z</time>
      </trkpt>
      <trkpt lat="45.43663" lon="0.77649">
        <ele>195.67117005397</ele>
        <time>2015-08-07T10:11:09Z</time>
      </trkpt>
      <trkpt lat="45.43658" lon="0.77639">
        <ele>195.67117005397</ele>
        <time>2015-08-07T10:11:14Z</time>
      </trkpt>
      <trkpt lat="45.43656" lon="0.77629">
        <ele>194.97724950703</ele>
        <time>2015-08-07T10:11:19Z</time>
      </trkpt>
      <trkpt lat="45.43651" lon="0.77618">
        <ele>194.6499975723</ele>
        <time>2015-08-07T10:11:24Z</time>
      </trkpt>
      <trkpt lat="45.43645" lon="0.77607">
        <ele>195.47344879276</ele>
        <time>2015-08-07T10:11:29Z</time>
      </trkpt>
      <trkpt lat="45.4364" lon="0.77599">
        <ele>195.47344879276</ele>
        <time>2015-08-07T10:11:34Z</time>
      </trkpt>
      <trkpt lat="45.43635" lon="0.7759">
        <ele>197.43587878875</ele>
        <time>2015-08-07T10:11:39Z</time>
      </trkpt>
      <trkpt lat="45.43631" lon="0.77581">
        <ele>197.43587878875</ele>
        <time>2015-08-07T10:11:44Z</time>
      </trkpt>
      <trkpt lat="45.4363" lon="0.77573">
        <ele>197.98689563012</ele>
        <time>2015-08-07T10:11:49Z</time>
      </trkpt>
      <trkpt lat="45.43624" lon="0.77566">
        <ele>197.98689563012</ele>
        <time>2015-08-07T10:11:54Z</time>
      </trkpt>
      <trkpt lat="45.43618" lon="0.77558">
        <ele>199.16282751726</ele>
        <time>2015-08-07T10:11:59Z</time>
      </trkpt>
      <trkpt lat="45.43617" lon="0.77551">
        <ele>199.16282751726</ele>
        <time>2015-08-07T10:12:04Z</time>
      </trkpt>
      <trkpt lat="45.43611" lon="0.77541">
        <ele>199.99527912643</ele>
        <time>2015-08-07T10:12:09Z</time>
      </trkpt>
      <trkpt lat="45.43607" lon="0.77532">
        <ele>199.99527912643</ele>
        <time>2015-08-07T10:12:14Z</time>
      </trkpt>
      <trkpt lat="45.43604" lon="0.77521">
        <ele>201.51906332046</ele>
        <time>2015-08-07T10:12:19Z</time>
      </trkpt>
      <trkpt lat="45.436" lon="0.77511">
        <ele>201.51906332046</ele>
        <time>2015-08-07T10:12:24Z</time>
      </trkpt>
      <trkpt lat="45.43597" lon="0.77502">
        <ele>203.45169743268</ele>
        <time>2015-08-07T10:12:29Z</time>
      </trkpt>
      <trkpt lat="45.43595" lon="0.77494">
        <ele>203.45169743268</ele>
        <time>2015-08-07T10:12:34Z</time>
      </trkpt>
      <trkpt lat="45.43591" lon="0.77485">
        <ele>205.21327616678</ele>
        <time>2015-08-07T10:12:39Z</time>
      </trkpt>
      <trkpt lat="45.43591" lon="0.77483">
        <ele>205.21327616678</ele>
        <time>2015-08-07T10:12:44Z</time>
      </trkpt>
      <trkpt lat="45.43596" lon="0.77491">
        <ele>205.97877000197</ele>
        <time>2015-08-07T10:12:49Z</time>
      </trkpt>
      <trkpt lat="45.43599" lon="0.77501">
        <ele>205.97877000197</ele>
        <time>2015-08-07T10:12:54Z</time>
      </trkpt>
      <trkpt lat="45.43599" lon="0.77502">
        <ele>205.97877000197</ele>
        <time>2015-08-07T10:12:59Z</time>
      </trkpt>
      <trkpt lat="45.43599" lon="0.77503">
        <ele>204.8568661444</ele>
        <time>2015-08-07T10:13:05Z</time>
      </trkpt>
      <trkpt lat="45.43599" lon="0.77504">
        <ele>204.8568661444</ele>
        <time>2015-08-07T10:13:15Z</time>
      </trkpt>
      <trkpt lat="45.43601" lon="0.77505">
        <ele>204.8568661444</ele>
        <time>2015-08-07T10:13:20Z</time>
      </trkpt>
      <trkpt lat="45.43602" lon="0.77504">
        <ele>204.8568661444</ele>
        <time>2015-08-07T10:13:34Z</time>
      </trkpt>
      <trkpt lat="45.43602" lon="0.775">
        <ele>204.8568661444</ele>
        <time>2015-08-07T10:13:50Z</time>
      </trkpt>
      <trkpt lat="45.43602" lon="0.77502">
        <ele>204.8568661444</ele>
        <time>2015-08-07T10:13:55Z</time>
      </trkpt>
      <trkpt lat="45.43603" lon="0.77504">
        <ele>201.04143784346</ele>
        <time>2015-08-07T10:14:05Z</time>
      </trkpt>
      <trkpt lat="45.43603" lon="0.77505">
        <ele>201.04143784346</ele>
        <time>2015-08-07T10:14:10Z</time>
      </trkpt>
      <trkpt lat="45.43603" lon="0.77506">
        <ele>201.04143784346</ele>
        <time>2015-08-07T10:14:19Z</time>
      </trkpt>
      <trkpt lat="45.43603" lon="0.77506">
        <ele>201.04143784346</ele>
        <time>2015-08-07T10:14:25Z</time>
      </trkpt>
      <trkpt lat="45.43603" lon="0.77506">
        <ele>201.04143784346</ele>
        <time>2015-08-07T10:14:35Z</time>
      </trkpt>
      <trkpt lat="45.43604" lon="0.77507">
        <ele>201.04143784346</ele>
        <time>2015-08-07T10:14:40Z</time>
      </trkpt>
      <trkpt lat="45.43602" lon="0.77508">
        <ele>201.04143784346</ele>
        <time>2015-08-07T10:14:50Z</time>
      </trkpt>
      <trkpt lat="45.43602" lon="0.77508">
        <ele>201.04143784346</ele>
        <time>2015-08-07T10:14:55Z</time>
      </trkpt>
      <trkpt lat="45.43602" lon="0.77508">
        <ele>201.04143784346</ele>
        <time>2015-08-07T10:15:04Z</time>
      </trkpt>
      <trkpt lat="45.43602" lon="0.77508">
        <ele>201.04143784346</ele>
        <time>2015-08-07T10:15:10Z</time>
      </trkpt>
      <trkpt lat="45.43604" lon="0.77507">
        <ele>201.04143784346</ele>
        <time>2015-08-07T10:15:20Z</time>
      </trkpt>
      <trkpt lat="45.43604" lon="0.77507">
        <ele>201.04143784346</ele>
        <time>2015-08-07T10:15:25Z</time>
      </trkpt>
      <trkpt lat="45.43604" lon="0.77507">
        <ele>201.04143784346</ele>
        <time>2015-08-07T10:15:35Z</time>
      </trkpt>
      <trkpt lat="45.43604" lon="0.77507">
        <ele>201.04143784346</ele>
        <time>2015-08-07T10:15:40Z</time>
      </trkpt>
      <trkpt lat="45.43604" lon="0.77507">
        <ele>201.04143784346</ele>
        <time>2015-08-07T10:15:50Z</time>
      </trkpt>
      <trkpt lat="45.43604" lon="0.77508">
        <ele>201.04143784346</ele>
        <time>2015-08-07T10:15:55Z</time>
      </trkpt>
      <trkpt lat="45.436" lon="0.77492">
        <ele>197.74176360332</ele>
        <time>2015-08-07T10:16:09Z</time>
      </trkpt>
      <trkpt lat="45.43595" lon="0.77483">
        <ele>197.74176360332</ele>
        <time>2015-08-07T10:16:14Z</time>
      </trkpt>
      <trkpt lat="45.43584" lon="0.77467">
        <ele>195.89791623411</ele>
        <time>2015-08-07T10:16:24Z</time>
      </trkpt>
      <trkpt lat="45.4358" lon="0.77458">
        <ele>195.89791623411</ele>
        <time>2015-08-07T10:16:29Z</time>
      </trkpt>
      <trkpt lat="45.43574" lon="0.77451">
        <ele>195.1806387825</ele>
        <time>2015-08-07T10:16:34Z</time>
      </trkpt>
      <trkpt lat="45.43569" lon="0.77443">
        <ele>195.1806387825</ele>
        <time>2015-08-07T10:16:39Z</time>
      </trkpt>
      <trkpt lat="45.43561" lon="0.77436">
        <ele>194.96456930033</ele>
        <time>2015-08-07T10:16:44Z</time>
      </trkpt>
      <trkpt lat="45.43553" lon="0.77434">
        <ele>194.96456930033</ele>
        <time>2015-08-07T10:16:49Z</time>
      </trkpt>
      <trkpt lat="45.43547" lon="0.77433">
        <ele>195.05787936897</ele>
        <time>2015-08-07T10:16:54Z</time>
      </trkpt>
      <trkpt lat="45.4354" lon="0.77434">
        <ele>195.05787936897</ele>
        <time>2015-08-07T10:16:59Z</time>
      </trkpt>
      <trkpt lat="45.43538" lon="0.77439">
        <ele>193.3363557496</ele>
        <time>2015-08-07T10:17:04Z</time>
      </trkpt>
      <trkpt lat="45.43533" lon="0.77444">
        <ele>193.3363557496</ele>
        <time>2015-08-07T10:17:09Z</time>
      </trkpt>
      <trkpt lat="45.43527" lon="0.7745">
        <ele>190.9063718776</ele>
        <time>2015-08-07T10:17:14Z</time>
      </trkpt>
      <trkpt lat="45.4352" lon="0.77452">
        <ele>190.9063718776</ele>
        <time>2015-08-07T10:17:19Z</time>
      </trkpt>
      <trkpt lat="45.43514" lon="0.77457">
        <ele>188.56431117617</ele>
        <time>2015-08-07T10:17:24Z</time>
      </trkpt>
      <trkpt lat="45.43509" lon="0.77461">
        <ele>188.56431117617</ele>
        <time>2015-08-07T10:17:29Z</time>
      </trkpt>
      <trkpt lat="45.43505" lon="0.77466">
        <ele>185.66420070394</ele>
        <time>2015-08-07T10:17:34Z</time>
      </trkpt>
      <trkpt lat="45.43499" lon="0.7747">
        <ele>185.66420070394</ele>
        <time>2015-08-07T10:17:39Z</time>
      </trkpt>
      <trkpt lat="45.43494" lon="0.77473">
        <ele>182.22860471455</ele>
        <time>2015-08-07T10:17:44Z</time>
      </trkpt>
      <trkpt lat="45.43488" lon="0.77478">
        <ele>182.22860471455</ele>
        <time>2015-08-07T10:17:49Z</time>
      </trkpt>
      <trkpt lat="45.43481" lon="0.77479">
        <ele>179.33176622871</ele>
        <time>2015-08-07T10:17:54Z</time>
      </trkpt>
      <trkpt lat="45.43474" lon="0.77479">
        <ele>179.33176622871</ele>
        <time>2015-08-07T10:17:59Z</time>
      </trkpt>
      <trkpt lat="45.43467" lon="0.77475">
        <ele>176.65589729521</ele>
        <time>2015-08-07T10:18:04Z</time>
      </trkpt>
      <trkpt lat="45.43462" lon="0.77469">
        <ele>176.65589729521</ele>
        <time>2015-08-07T10:18:09Z</time>
      </trkpt>
      <trkpt lat="45.43459" lon="0.77466">
        <ele>175.7791723196</ele>
        <time>2015-08-07T10:18:14Z</time>
      </trkpt>
      <trkpt lat="45.43457" lon="0.77464">
        <ele>175.7791723196</ele>
        <time>2015-08-07T10:18:19Z</time>
      </trkpt>
      <trkpt lat="45.43457" lon="0.77458">
        <ele>175.7791723196</ele>
        <time>2015-08-07T10:18:25Z</time>
      </trkpt>
      <trkpt lat="45.43452" lon="0.77442">
        <ele>173.12908867533</ele>
        <time>2015-08-07T10:18:35Z</time>
      </trkpt>
      <trkpt lat="45.4345" lon="0.77433">
        <ele>173.12908867533</ele>
        <time>2015-08-07T10:18:39Z</time>
      </trkpt>
      <trkpt lat="45.43446" lon="0.77422">
        <ele>170.40098439342</ele>
        <time>2015-08-07T10:18:44Z</time>
      </trkpt>
      <trkpt lat="45.43443" lon="0.77415">
        <ele>170.40098439342</ele>
        <time>2015-08-07T10:18:49Z</time>
      </trkpt>
      <trkpt lat="45.43437" lon="0.77409">
        <ele>167.3498452531</ele>
        <time>2015-08-07T10:18:54Z</time>
      </trkpt>
      <trkpt lat="45.43433" lon="0.77401">
        <ele>167.3498452531</ele>
        <time>2015-08-07T10:18:59Z</time>
      </trkpt>
      <trkpt lat="45.43431" lon="0.77394">
        <ele>164.44105696718</ele>
        <time>2015-08-07T10:19:04Z</time>
      </trkpt>
      <trkpt lat="45.43423" lon="0.77376">
        <ele>161.67283882281</ele>
        <time>2015-08-07T10:19:15Z</time>
      </trkpt>
      <trkpt lat="45.43418" lon="0.77369">
        <ele>161.67283882281</ele>
        <time>2015-08-07T10:19:20Z</time>
      </trkpt>
      <trkpt lat="45.43408" lon="0.77357">
        <ele>159.11494884138</ele>
        <time>2015-08-07T10:19:34Z</time>
      </trkpt>
      <trkpt lat="45.43388" lon="0.77332">
        <ele>156.98969534912</ele>
        <time>2015-08-07T10:19:49Z</time>
      </trkpt>
      <trkpt lat="45.43386" lon="0.77331">
        <ele>156.98969534912</ele>
        <time>2015-08-07T10:19:55Z</time>
      </trkpt>
      <trkpt lat="45.43384" lon="0.77328">
        <ele>156.98969534912</ele>
        <time>2015-08-07T10:20:05Z</time>
      </trkpt>
      <trkpt lat="45.43381" lon="0.77321">
        <ele>155.27100598391</ele>
        <time>2015-08-07T10:20:10Z</time>
      </trkpt>
      <trkpt lat="45.4337" lon="0.77307">
        <ele>153.7892157999</ele>
        <time>2015-08-07T10:20:20Z</time>
      </trkpt>
      <trkpt lat="45.43367" lon="0.77299">
        <ele>153.7892157999</ele>
        <time>2015-08-07T10:20:25Z</time>
      </trkpt>
      <trkpt lat="45.43356" lon="0.77278">
        <ele>152.60237514553</ele>
        <time>2015-08-07T10:20:35Z</time>
      </trkpt>
      <trkpt lat="45.43333" lon="0.77255">
        <ele>151.59026751096</ele>
        <time>2015-08-07T10:20:40Z</time>
      </trkpt>
      <trkpt lat="45.43286" lon="0.77203">
        <ele>151.02988709678</ele>
        <time>2015-08-07T10:20:50Z</time>
      </trkpt>
      <trkpt lat="45.43266" lon="0.77175">
        <ele>150.77288511091</ele>
        <time>2015-08-07T10:20:54Z</time>
      </trkpt>
      <trkpt lat="45.43233" lon="0.77133">
        <ele>150.36371314247</ele>
        <time>2015-08-07T10:21:05Z</time>
      </trkpt>
      <trkpt lat="45.43228" lon="0.77124">
        <ele>150.36371314247</ele>
        <time>2015-08-07T10:21:09Z</time>
      </trkpt>
      <trkpt lat="45.43216" lon="0.77107">
        <ele>150.02902884272</ele>
        <time>2015-08-07T10:21:20Z</time>
      </trkpt>
      <trkpt lat="45.43214" lon="0.77103">
        <ele>150.02902884272</ele>
        <time>2015-08-07T10:21:24Z</time>
      </trkpt>
      <trkpt lat="45.43169" lon="0.77049">
        <ele>149.43083903106</ele>
        <time>2015-08-07T10:21:34Z</time>
      </trkpt>
      <trkpt lat="45.43139" lon="0.77027">
        <ele>148.97712058048</ele>
        <time>2015-08-07T10:21:39Z</time>
      </trkpt>
      <trkpt lat="45.43087" lon="0.7697">
        <ele>148.81475861387</ele>
        <time>2015-08-07T10:21:50Z</time>
      </trkpt>
      <trkpt lat="45.43061" lon="0.76933">
        <ele>149.02126259516</ele>
        <time>2015-08-07T10:21:55Z</time>
      </trkpt>
      <trkpt lat="45.42988" lon="0.76847">
        <ele>149.32143836553</ele>
        <time>2015-08-07T10:22:10Z</time>
      </trkpt>
      <trkpt lat="45.42959" lon="0.76819">
        <ele>149.93552005735</ele>
        <time>2015-08-07T10:22:15Z</time>
      </trkpt>
      <trkpt lat="45.42922" lon="0.7676">
        <ele>150.50457552305</ele>
        <time>2015-08-07T10:22:25Z</time>
      </trkpt>
      <trkpt lat="45.42915" lon="0.76748">
        <ele>151.28696584434</ele>
        <time>2015-08-07T10:22:30Z</time>
      </trkpt>
      <trkpt lat="45.42903" lon="0.76733">
        <ele>151.90175825635</ele>
        <time>2015-08-07T10:22:40Z</time>
      </trkpt>
      <trkpt lat="45.42897" lon="0.76727">
        <ele>151.90175825635</ele>
        <time>2015-08-07T10:22:45Z</time>
      </trkpt>
      <trkpt lat="45.42885" lon="0.76714">
        <ele>152.84670823082</ele>
        <time>2015-08-07T10:22:55Z</time>
      </trkpt>
      <trkpt lat="45.42878" lon="0.7671">
        <ele>152.84670823082</ele>
        <time>2015-08-07T10:23:00Z</time>
      </trkpt>
      <trkpt lat="45.42863" lon="0.76696">
        <ele>154.10650962354</ele>
        <time>2015-08-07T10:23:10Z</time>
      </trkpt>
      <trkpt lat="45.42857" lon="0.7669">
        <ele>154.10650962354</ele>
        <time>2015-08-07T10:23:15Z</time>
      </trkpt>
      <trkpt lat="45.42841" lon="0.76668">
        <ele>155.8966893677</ele>
        <time>2015-08-07T10:23:30Z</time>
      </trkpt>
      <trkpt lat="45.42838" lon="0.76662">
        <ele>155.8966893677</ele>
        <time>2015-08-07T10:23:35Z</time>
      </trkpt>
      <trkpt lat="45.4283" lon="0.76648">
        <ele>157.06084029672</ele>
        <time>2015-08-07T10:23:45Z</time>
      </trkpt>
      <trkpt lat="45.42824" lon="0.76642">
        <ele>157.06084029672</ele>
        <time>2015-08-07T10:23:50Z</time>
      </trkpt>
      <trkpt lat="45.4281" lon="0.76629">
        <ele>158.41716532028</ele>
        <time>2015-08-07T10:23:59Z</time>
      </trkpt>
      <trkpt lat="45.42807" lon="0.76623">
        <ele>158.41716532028</ele>
        <time>2015-08-07T10:24:05Z</time>
      </trkpt>
      <trkpt lat="45.42796" lon="0.76609">
        <ele>159.95949966319</ele>
        <time>2015-08-07T10:24:15Z</time>
      </trkpt>
      <trkpt lat="45.4279" lon="0.76602">
        <ele>159.95949966319</ele>
        <time>2015-08-07T10:24:19Z</time>
      </trkpt>
      <trkpt lat="45.42779" lon="0.76587">
        <ele>161.09083375525</ele>
        <time>2015-08-07T10:24:30Z</time>
      </trkpt>
      <trkpt lat="45.42776" lon="0.76582">
        <ele>161.09083375525</ele>
        <time>2015-08-07T10:24:35Z</time>
      </trkpt>
      <trkpt lat="45.42766" lon="0.76568">
        <ele>162.05187066984</ele>
        <time>2015-08-07T10:24:45Z</time>
      </trkpt>
      <trkpt lat="45.42764" lon="0.76565">
        <ele>162.05187066984</ele>
        <time>2015-08-07T10:24:50Z</time>
      </trkpt>
      <trkpt lat="45.42764" lon="0.76569">
        <ele>162.05187066984</ele>
        <time>2015-08-07T10:25:00Z</time>
      </trkpt>
      <trkpt lat="45.42764" lon="0.7657">
        <ele>162.05187066984</ele>
        <time>2015-08-07T10:25:05Z</time>
      </trkpt>
      <trkpt lat="45.42764" lon="0.76571">
        <ele>162.05187066984</ele>
        <time>2015-08-07T10:25:15Z</time>
      </trkpt>
      <trkpt lat="45.42764" lon="0.76571">
        <ele>162.05187066984</ele>
        <time>2015-08-07T10:25:20Z</time>
      </trkpt>
      <trkpt lat="45.42763" lon="0.76573">
        <ele>162.05187066984</ele>
        <time>2015-08-07T10:25:29Z</time>
      </trkpt>
      <trkpt lat="45.42763" lon="0.76573">
        <ele>162.05187066984</ele>
        <time>2015-08-07T10:25:35Z</time>
      </trkpt>
      <trkpt lat="45.42762" lon="0.76574">
        <ele>163.84441400996</ele>
        <time>2015-08-07T10:25:45Z</time>
      </trkpt>
      <trkpt lat="45.42762" lon="0.76574">
        <ele>163.84441400996</ele>
        <time>2015-08-07T10:25:50Z</time>
      </trkpt>
      <trkpt lat="45.42762" lon="0.76574">
        <ele>163.84441400996</ele>
        <time>2015-08-07T10:26:00Z</time>
      </trkpt>
      <trkpt lat="45.42762" lon="0.76574">
        <ele>163.84441400996</ele>
        <time>2015-08-07T10:26:04Z</time>
      </trkpt>
      <trkpt lat="45.42763" lon="0.7657">
        <ele>163.84441400996</ele>
        <time>2015-08-07T10:26:20Z</time>
      </trkpt>
      <trkpt lat="45.42763" lon="0.7657">
        <ele>163.84441400996</ele>
        <time>2015-08-07T10:26:25Z</time>
      </trkpt>
      <trkpt lat="45.4276" lon="0.76562">
        <ele>164.69957789554</ele>
        <time>2015-08-07T10:26:34Z</time>
      </trkpt>
      <trkpt lat="45.42755" lon="0.76552">
        <ele>164.69957789554</ele>
        <time>2015-08-07T10:26:39Z</time>
      </trkpt>
      <trkpt lat="45.42749" lon="0.76546">
        <ele>165.12842482681</ele>
        <time>2015-08-07T10:26:44Z</time>
      </trkpt>
      <trkpt lat="45.42746" lon="0.76537">
        <ele>165.12842482681</ele>
        <time>2015-08-07T10:26:49Z</time>
      </trkpt>
      <trkpt lat="45.4274" lon="0.76531">
        <ele>165.04376272369</ele>
        <time>2015-08-07T10:26:54Z</time>
      </trkpt>
      <trkpt lat="45.4273" lon="0.76519">
        <ele>164.6978270381</ele>
        <time>2015-08-07T10:27:04Z</time>
      </trkpt>
      <trkpt lat="45.42725" lon="0.76514">
        <ele>164.6978270381</ele>
        <time>2015-08-07T10:27:09Z</time>
      </trkpt>
      <trkpt lat="45.42717" lon="0.7651">
        <ele>164.28194673128</ele>
        <time>2015-08-07T10:27:14Z</time>
      </trkpt>
      <trkpt lat="45.4271" lon="0.76503">
        <ele>164.28194673128</ele>
        <time>2015-08-07T10:27:19Z</time>
      </trkpt>
      <trkpt lat="45.42703" lon="0.76495">
        <ele>164.13223218408</ele>
        <time>2015-08-07T10:27:24Z</time>
      </trkpt>
      <trkpt lat="45.42698" lon="0.76488">
        <ele>164.13223218408</ele>
        <time>2015-08-07T10:27:29Z</time>
      </trkpt>
      <trkpt lat="45.42693" lon="0.7648">
        <ele>164.09831282226</ele>
        <time>2015-08-07T10:27:34Z</time>
      </trkpt>
      <trkpt lat="45.42688" lon="0.7647">
        <ele>164.09831282226</ele>
        <time>2015-08-07T10:27:39Z</time>
      </trkpt>
      <trkpt lat="45.42684" lon="0.76461">
        <ele>164.01182337225</ele>
        <time>2015-08-07T10:27:44Z</time>
      </trkpt>
      <trkpt lat="45.4268" lon="0.76451">
        <ele>164.01182337225</ele>
        <time>2015-08-07T10:27:49Z</time>
      </trkpt>
      <trkpt lat="45.42676" lon="0.76442">
        <ele>164.01964893488</ele>
        <time>2015-08-07T10:27:54Z</time>
      </trkpt>
      <trkpt lat="45.42673" lon="0.76434">
        <ele>164.01964893488</ele>
        <time>2015-08-07T10:27:59Z</time>
      </trkpt>
      <trkpt lat="45.42669" lon="0.76423">
        <ele>163.73891653782</ele>
        <time>2015-08-07T10:28:04Z</time>
      </trkpt>
      <trkpt lat="45.42665" lon="0.76416">
        <ele>163.73891653782</ele>
        <time>2015-08-07T10:28:09Z</time>
      </trkpt>
      <trkpt lat="45.42661" lon="0.76407">
        <ele>162.93106842478</ele>
        <time>2015-08-07T10:28:14Z</time>
      </trkpt>
      <trkpt lat="45.42657" lon="0.76396">
        <ele>162.01072331086</ele>
        <time>2015-08-07T10:28:19Z</time>
      </trkpt>
      <trkpt lat="45.42655" lon="0.76384">
        <ele>162.01072331086</ele>
        <time>2015-08-07T10:28:24Z</time>
      </trkpt>
      <trkpt lat="45.42653" lon="0.76362">
        <ele>161.17508952063</ele>
        <time>2015-08-07T10:28:35Z</time>
      </trkpt>
      <trkpt lat="45.42649" lon="0.76352">
        <ele>161.17508952063</ele>
        <time>2015-08-07T10:28:40Z</time>
      </trkpt>
      <trkpt lat="45.42638" lon="0.76342">
        <ele>160.07350604123</ele>
        <time>2015-08-07T10:28:50Z</time>
      </trkpt>
      <trkpt lat="45.42631" lon="0.76337">
        <ele>160.07350604123</ele>
        <time>2015-08-07T10:28:55Z</time>
      </trkpt>
      <trkpt lat="45.42617" lon="0.76329">
        <ele>159.11684056781</ele>
        <time>2015-08-07T10:29:05Z</time>
      </trkpt>
      <trkpt lat="45.4261" lon="0.76324">
        <ele>159.11684056781</ele>
        <time>2015-08-07T10:29:10Z</time>
      </trkpt>
      <trkpt lat="45.42604" lon="0.76321">
        <ele>158.29631876019</ele>
        <time>2015-08-07T10:29:14Z</time>
      </trkpt>
      <trkpt lat="45.42597" lon="0.76319">
        <ele>158.29631876019</ele>
        <time>2015-08-07T10:29:19Z</time>
      </trkpt>
      <trkpt lat="45.4259" lon="0.76316">
        <ele>157.70434494542</ele>
        <time>2015-08-07T10:29:24Z</time>
      </trkpt>
      <trkpt lat="45.42584" lon="0.76312">
        <ele>157.70434494542</ele>
        <time>2015-08-07T10:29:29Z</time>
      </trkpt>
      <trkpt lat="45.42568" lon="0.76304">
        <ele>157.62768159759</ele>
        <time>2015-08-07T10:29:40Z</time>
      </trkpt>
      <trkpt lat="45.42561" lon="0.76301">
        <ele>157.62768159759</ele>
        <time>2015-08-07T10:29:44Z</time>
      </trkpt>
      <trkpt lat="45.42547" lon="0.76297">
        <ele>157.50917354084</ele>
        <time>2015-08-07T10:29:55Z</time>
      </trkpt>
      <trkpt lat="45.4254" lon="0.76293">
        <ele>157.50917354084</ele>
        <time>2015-08-07T10:29:59Z</time>
      </trkpt>
      <trkpt lat="45.42519" lon="0.76284">
        <ele>156.77509003016</ele>
        <time>2015-08-07T10:30:15Z</time>
      </trkpt>
      <trkpt lat="45.42498" lon="0.76275">
        <ele>156.23582738366</ele>
        <time>2015-08-07T10:30:29Z</time>
      </trkpt>
      <trkpt lat="45.42492" lon="0.7627">
        <ele>156.23582738366</ele>
        <time>2015-08-07T10:30:35Z</time>
      </trkpt>
      <trkpt lat="45.42482" lon="0.7626">
        <ele>155.60412097815</ele>
        <time>2015-08-07T10:30:45Z</time>
      </trkpt>
      <trkpt lat="45.42482" lon="0.76259">
        <ele>155.60412097815</ele>
        <time>2015-08-07T10:30:50Z</time>
      </trkpt>
      <trkpt lat="45.42473" lon="0.76252">
        <ele>155.17611492944</ele>
        <time>2015-08-07T10:31:00Z</time>
      </trkpt>
      <trkpt lat="45.42467" lon="0.76246">
        <ele>155.17611492944</ele>
        <time>2015-08-07T10:31:05Z</time>
      </trkpt>
      <trkpt lat="45.42455" lon="0.76233">
        <ele>154.33214716856</ele>
        <time>2015-08-07T10:31:15Z</time>
      </trkpt>
      <trkpt lat="45.42453" lon="0.7623">
        <ele>154.33214716856</ele>
        <time>2015-08-07T10:31:20Z</time>
      </trkpt>
      <trkpt lat="45.42443" lon="0.76218">
        <ele>153.09010243372</ele>
        <time>2015-08-07T10:31:30Z</time>
      </trkpt>
      <trkpt lat="45.42436" lon="0.76213">
        <ele>153.09010243372</ele>
        <time>2015-08-07T10:31:35Z</time>
      </trkpt>
      <trkpt lat="45.42423" lon="0.76201">
        <ele>151.68383327928</ele>
        <time>2015-08-07T10:31:45Z</time>
      </trkpt>
      <trkpt lat="45.42416" lon="0.76195">
        <ele>151.68383327928</ele>
        <time>2015-08-07T10:31:50Z</time>
      </trkpt>
      <trkpt lat="45.42404" lon="0.76186">
        <ele>150.22958742872</ele>
        <time>2015-08-07T10:32:00Z</time>
      </trkpt>
      <trkpt lat="45.42398" lon="0.76182">
        <ele>150.22958742872</ele>
        <time>2015-08-07T10:32:05Z</time>
      </trkpt>
      <trkpt lat="45.42376" lon="0.7617">
        <ele>148.67666783701</ele>
        <time>2015-08-07T10:32:20Z</time>
      </trkpt>
      <trkpt lat="45.42357" lon="0.76155">
        <ele>147.1656965099</ele>
        <time>2015-08-07T10:32:35Z</time>
      </trkpt>
      <trkpt lat="45.42351" lon="0.76149">
        <ele>147.1656965099</ele>
        <time>2015-08-07T10:32:40Z</time>
      </trkpt>
      <trkpt lat="45.4234" lon="0.76136">
        <ele>145.66829048216</ele>
        <time>2015-08-07T10:32:50Z</time>
      </trkpt>
      <trkpt lat="45.42334" lon="0.76129">
        <ele>145.66829048216</ele>
        <time>2015-08-07T10:32:55Z</time>
      </trkpt>
      <trkpt lat="45.42324" lon="0.76115">
        <ele>144.10042618971</ele>
        <time>2015-08-07T10:33:05Z</time>
      </trkpt>
      <trkpt lat="45.42321" lon="0.76108">
        <ele>144.10042618971</ele>
        <time>2015-08-07T10:33:09Z</time>
      </trkpt>
      <trkpt lat="45.4231" lon="0.7609">
        <ele>142.97525608123</ele>
        <time>2015-08-07T10:33:19Z</time>
      </trkpt>
      <trkpt lat="45.42305" lon="0.76083">
        <ele>142.97525608123</ele>
        <time>2015-08-07T10:33:25Z</time>
      </trkpt>
      <trkpt lat="45.42293" lon="0.76075">
        <ele>141.75816128554</ele>
        <time>2015-08-07T10:33:35Z</time>
      </trkpt>
      <trkpt lat="45.42286" lon="0.76075">
        <ele>141.75816128554</ele>
        <time>2015-08-07T10:33:39Z</time>
      </trkpt>
      <trkpt lat="45.42266" lon="0.76068">
        <ele>140.40073819975</ele>
        <time>2015-08-07T10:33:55Z</time>
      </trkpt>
      <trkpt lat="45.42258" lon="0.76066">
        <ele>140.40073819975</ele>
        <time>2015-08-07T10:34:00Z</time>
      </trkpt>
      <trkpt lat="45.42246" lon="0.76058">
        <ele>139.13228026388</ele>
        <time>2015-08-07T10:34:10Z</time>
      </trkpt>
      <trkpt lat="45.42241" lon="0.76057">
        <ele>139.13228026388</ele>
        <time>2015-08-07T10:34:14Z</time>
      </trkpt>
      <trkpt lat="45.42237" lon="0.76048">
        <ele>137.83346549699</ele>
        <time>2015-08-07T10:34:25Z</time>
      </trkpt>
      <trkpt lat="45.42223" lon="0.76016">
        <ele>136.95578756907</ele>
        <time>2015-08-07T10:34:40Z</time>
      </trkpt>
      <trkpt lat="45.42219" lon="0.76006">
        <ele>136.95578756907</ele>
        <time>2015-08-07T10:34:45Z</time>
      </trkpt>
      <trkpt lat="45.42211" lon="0.75988">
        <ele>136.10930028759</ele>
        <time>2015-08-07T10:34:55Z</time>
      </trkpt>
      <trkpt lat="45.42207" lon="0.75979">
        <ele>136.10930028759</ele>
        <time>2015-08-07T10:35:00Z</time>
      </trkpt>
      <trkpt lat="45.42192" lon="0.75942">
        <ele>135.50899100018</ele>
        <time>2015-08-07T10:35:19Z</time>
      </trkpt>
      <trkpt lat="45.42188" lon="0.75934">
        <ele>135.50899100018</ele>
        <time>2015-08-07T10:35:25Z</time>
      </trkpt>
      <trkpt lat="45.42182" lon="0.75916">
        <ele>135.06507466902</ele>
        <time>2015-08-07T10:35:34Z</time>
      </trkpt>
      <trkpt lat="45.42178" lon="0.75907">
        <ele>135.06507466902</ele>
        <time>2015-08-07T10:35:40Z</time>
      </trkpt>
      <trkpt lat="45.42171" lon="0.7589">
        <ele>134.50651538189</ele>
        <time>2015-08-07T10:35:50Z</time>
      </trkpt>
      <trkpt lat="45.42167" lon="0.75881">
        <ele>134.50651538189</ele>
        <time>2015-08-07T10:35:55Z</time>
      </trkpt>
      <trkpt lat="45.42156" lon="0.75854">
        <ele>134.21653943873</ele>
        <time>2015-08-07T10:36:10Z</time>
      </trkpt>
      <trkpt lat="45.42152" lon="0.75847">
        <ele>134.21653943873</ele>
        <time>2015-08-07T10:36:15Z</time>
      </trkpt>
      <trkpt lat="45.42145" lon="0.75827">
        <ele>133.97296997596</ele>
        <time>2015-08-07T10:36:25Z</time>
      </trkpt>
      <trkpt lat="45.42143" lon="0.7582">
        <ele>133.97296997596</ele>
        <time>2015-08-07T10:36:29Z</time>
      </trkpt>
      <trkpt lat="45.42134" lon="0.75803">
        <ele>133.75711759641</ele>
        <time>2015-08-07T10:36:40Z</time>
      </trkpt>
      <trkpt lat="45.4213" lon="0.75794">
        <ele>133.75711759641</ele>
        <time>2015-08-07T10:36:45Z</time>
      </trkpt>
      <trkpt lat="45.42122" lon="0.75776">
        <ele>133.69565749167</ele>
        <time>2015-08-07T10:36:55Z</time>
      </trkpt>
      <trkpt lat="45.42117" lon="0.75767">
        <ele>133.69565749167</ele>
        <time>2015-08-07T10:37:00Z</time>
      </trkpt>
      <trkpt lat="45.42108" lon="0.7575">
        <ele>133.60285750714</ele>
        <time>2015-08-07T10:37:10Z</time>
      </trkpt>
      <trkpt lat="45.42103" lon="0.75742">
        <ele>133.60285750714</ele>
        <time>2015-08-07T10:37:15Z</time>
      </trkpt>
      <trkpt lat="45.42092" lon="0.75726">
        <ele>133.17698770575</ele>
        <time>2015-08-07T10:37:25Z</time>
      </trkpt>
      <trkpt lat="45.42086" lon="0.75718">
        <ele>133.17698770575</ele>
        <time>2015-08-07T10:37:30Z</time>
      </trkpt>
      <trkpt lat="45.42072" lon="0.75695">
        <ele>132.81671593069</ele>
        <time>2015-08-07T10:37:45Z</time>
      </trkpt>
      <trkpt lat="45.42069" lon="0.75689">
        <ele>132.81671593069</ele>
        <time>2015-08-07T10:37:49Z</time>
      </trkpt>
      <trkpt lat="45.4206" lon="0.75673">
        <ele>132.74711013774</ele>
        <time>2015-08-07T10:38:00Z</time>
      </trkpt>
      <trkpt lat="45.42056" lon="0.75665">
        <ele>132.74711013774</ele>
        <time>2015-08-07T10:38:05Z</time>
      </trkpt>
      <trkpt lat="45.42046" lon="0.75653">
        <ele>132.41208573385</ele>
        <time>2015-08-07T10:38:15Z</time>
      </trkpt>
      <trkpt lat="45.42038" lon="0.75641">
        <ele>132.40679813929</ele>
        <time>2015-08-07T10:38:20Z</time>
      </trkpt>
      <trkpt lat="45.42025" lon="0.7562">
        <ele>132.43149664271</ele>
        <time>2015-08-07T10:38:30Z</time>
      </trkpt>
      <trkpt lat="45.4202" lon="0.75624">
        <ele>132.43149664271</ele>
        <time>2015-08-07T10:38:35Z</time>
      </trkpt>
      <trkpt lat="45.42013" lon="0.75642">
        <ele>132.49658781595</ele>
        <time>2015-08-07T10:38:45Z</time>
      </trkpt>
      <trkpt lat="45.42011" lon="0.75653">
        <ele>132.49658781595</ele>
        <time>2015-08-07T10:38:50Z</time>
      </trkpt>
      <trkpt lat="45.42008" lon="0.75663">
        <ele>132.33779347235</ele>
        <time>2015-08-07T10:39:00Z</time>
      </trkpt>
      <trkpt lat="45.42008" lon="0.75662">
        <ele>132.33779347235</ele>
        <time>2015-08-07T10:39:05Z</time>
      </trkpt>
      <trkpt lat="45.42007" lon="0.75663">
        <ele>132.33779347235</ele>
        <time>2015-08-07T10:39:14Z</time>
      </trkpt>
      <trkpt lat="45.4208" lon="0.75529">
        <ele>131.6964740809</ele>
        <time>2015-08-07T11:13:18Z</time>
      </trkpt>
      <trkpt lat="45.4209" lon="0.75532">
        <ele>131.93398916497</ele>
        <time>2015-08-07T11:13:23Z</time>
      </trkpt>
      <trkpt lat="45.42095" lon="0.75526">
        <ele>131.93398916497</ele>
        <time>2015-08-07T11:13:28Z</time>
      </trkpt>
      <trkpt lat="45.421" lon="0.75521">
        <ele>132.76725515575</ele>
        <time>2015-08-07T11:13:33Z</time>
      </trkpt>
      <trkpt lat="45.42105" lon="0.75515">
        <ele>132.76725515575</ele>
        <time>2015-08-07T11:13:38Z</time>
      </trkpt>
      <trkpt lat="45.42109" lon="0.75509">
        <ele>134.26379109266</ele>
        <time>2015-08-07T11:13:43Z</time>
      </trkpt>
      <trkpt lat="45.42109" lon="0.75501">
        <ele>134.26379109266</ele>
        <time>2015-08-07T11:13:48Z</time>
      </trkpt>
      <trkpt lat="45.42111" lon="0.75493">
        <ele>135.41790446085</ele>
        <time>2015-08-07T11:13:53Z</time>
      </trkpt>
      <trkpt lat="45.42112" lon="0.75484">
        <ele>135.41790446085</ele>
        <time>2015-08-07T11:13:58Z</time>
      </trkpt>
      <trkpt lat="45.42113" lon="0.75475">
        <ele>136.61019541713</ele>
        <time>2015-08-07T11:14:03Z</time>
      </trkpt>
      <trkpt lat="45.4211" lon="0.75468">
        <ele>136.61019541713</ele>
        <time>2015-08-07T11:14:08Z</time>
      </trkpt>
      <trkpt lat="45.42107" lon="0.75458">
        <ele>137.57357453722</ele>
        <time>2015-08-07T11:14:13Z</time>
      </trkpt>
      <trkpt lat="45.42104" lon="0.75449">
        <ele>137.57357453722</ele>
        <time>2015-08-07T11:14:18Z</time>
      </trkpt>
      <trkpt lat="45.42101" lon="0.75442">
        <ele>138.14774529706</ele>
        <time>2015-08-07T11:14:23Z</time>
      </trkpt>
      <trkpt lat="45.42097" lon="0.75433">
        <ele>138.14774529706</ele>
        <time>2015-08-07T11:14:28Z</time>
      </trkpt>
      <trkpt lat="45.42091" lon="0.75427">
        <ele>139.16530610878</ele>
        <time>2015-08-07T11:14:33Z</time>
      </trkpt>
      <trkpt lat="45.42086" lon="0.7542">
        <ele>139.16530610878</ele>
        <time>2015-08-07T11:14:38Z</time>
      </trkpt>
      <trkpt lat="45.42082" lon="0.75414">
        <ele>140.40216118346</ele>
        <time>2015-08-07T11:14:43Z</time>
      </trkpt>
      <trkpt lat="45.42079" lon="0.75407">
        <ele>140.40216118346</ele>
        <time>2015-08-07T11:14:48Z</time>
      </trkpt>
      <trkpt lat="45.42073" lon="0.75404">
        <ele>141.62132445869</ele>
        <time>2015-08-07T11:14:53Z</time>
      </trkpt>
      <trkpt lat="45.42068" lon="0.75398">
        <ele>141.62132445869</ele>
        <time>2015-08-07T11:14:58Z</time>
      </trkpt>
      <trkpt lat="45.42064" lon="0.75392">
        <ele>143.05010490522</ele>
        <time>2015-08-07T11:15:03Z</time>
      </trkpt>
      <trkpt lat="45.4206" lon="0.75384">
        <ele>143.05010490522</ele>
        <time>2015-08-07T11:15:08Z</time>
      </trkpt>
      <trkpt lat="45.42057" lon="0.75377">
        <ele>144.75451393691</ele>
        <time>2015-08-07T11:15:13Z</time>
      </trkpt>
      <trkpt lat="45.42055" lon="0.75371">
        <ele>144.75451393691</ele>
        <time>2015-08-07T11:15:18Z</time>
      </trkpt>
      <trkpt lat="45.42054" lon="0.75362">
        <ele>146.26183643712</ele>
        <time>2015-08-07T11:15:23Z</time>
      </trkpt>
      <trkpt lat="45.42054" lon="0.75351">
        <ele>146.26183643712</ele>
        <time>2015-08-07T11:15:28Z</time>
      </trkpt>
      <trkpt lat="45.42053" lon="0.75342">
        <ele>147.98500630356</ele>
        <time>2015-08-07T11:15:33Z</time>
      </trkpt>
      <trkpt lat="45.42052" lon="0.75335">
        <ele>147.98500630356</ele>
        <time>2015-08-07T11:15:38Z</time>
      </trkpt>
      <trkpt lat="45.42049" lon="0.75326">
        <ele>149.00913868425</ele>
        <time>2015-08-07T11:15:43Z</time>
      </trkpt>
      <trkpt lat="45.42047" lon="0.75319">
        <ele>149.00913868425</ele>
        <time>2015-08-07T11:15:48Z</time>
      </trkpt>
      <trkpt lat="45.42044" lon="0.75313">
        <ele>149.16596367439</ele>
        <time>2015-08-07T11:15:53Z</time>
      </trkpt>
      <trkpt lat="45.42039" lon="0.7531">
        <ele>149.16596367439</ele>
        <time>2015-08-07T11:15:58Z</time>
      </trkpt>
      <trkpt lat="45.42033" lon="0.75309">
        <ele>148.84975192877</ele>
        <time>2015-08-07T11:16:03Z</time>
      </trkpt>
      <trkpt lat="45.42028" lon="0.7531">
        <ele>148.84975192877</ele>
        <time>2015-08-07T11:16:08Z</time>
      </trkpt>
      <trkpt lat="45.42023" lon="0.75314">
        <ele>148.80194743756</ele>
        <time>2015-08-07T11:16:13Z</time>
      </trkpt>
      <trkpt lat="45.42017" lon="0.7532">
        <ele>148.80194743756</ele>
        <time>2015-08-07T11:16:18Z</time>
      </trkpt>
      <trkpt lat="45.42014" lon="0.75329">
        <ele>149.49272267019</ele>
        <time>2015-08-07T11:16:23Z</time>
      </trkpt>
      <trkpt lat="45.42013" lon="0.75338">
        <ele>149.49272267019</ele>
        <time>2015-08-07T11:16:28Z</time>
      </trkpt>
      <trkpt lat="45.42011" lon="0.75341">
        <ele>149.43906756532</ele>
        <time>2015-08-07T11:16:33Z</time>
      </trkpt>
      <trkpt lat="45.42011" lon="0.75342">
        <ele>149.43906756532</ele>
        <time>2015-08-07T11:16:38Z</time>
      </trkpt>
      <trkpt lat="45.4201" lon="0.75343">
        <ele>149.43906756532</ele>
        <time>2015-08-07T11:16:43Z</time>
      </trkpt>
      <trkpt lat="45.4201" lon="0.75343">
        <ele>149.43906756532</ele>
        <time>2015-08-07T11:16:48Z</time>
      </trkpt>
      <trkpt lat="45.42009" lon="0.75344">
        <ele>149.43906756532</ele>
        <time>2015-08-07T11:16:53Z</time>
      </trkpt>
      <trkpt lat="45.42009" lon="0.75344">
        <ele>149.43906756532</ele>
        <time>2015-08-07T11:16:58Z</time>
      </trkpt>
      <trkpt lat="45.42009" lon="0.75344">
        <ele>149.43906756532</ele>
        <time>2015-08-07T11:17:03Z</time>
      </trkpt>
      <trkpt lat="45.42009" lon="0.75344">
        <ele>149.43906756532</ele>
        <time>2015-08-07T11:17:08Z</time>
      </trkpt>
      <trkpt lat="45.42009" lon="0.75344">
        <ele>149.43906756532</ele>
        <time>2015-08-07T11:17:13Z</time>
      </trkpt>
      <trkpt lat="45.42009" lon="0.75344">
        <ele>149.43906756532</ele>
        <time>2015-08-07T11:17:18Z</time>
      </trkpt>
      <trkpt lat="45.42009" lon="0.75344">
        <ele>149.43906756532</ele>
        <time>2015-08-07T11:17:23Z</time>
      </trkpt>
      <trkpt lat="45.42009" lon="0.75344">
        <ele>149.43906756532</ele>
        <time>2015-08-07T11:17:28Z</time>
      </trkpt>
      <trkpt lat="45.42009" lon="0.75344">
        <ele>149.43906756532</ele>
        <time>2015-08-07T11:17:38Z</time>
      </trkpt>
      <trkpt lat="45.42009" lon="0.75344">
        <ele>149.43906756532</ele>
        <time>2015-08-07T11:17:43Z</time>
      </trkpt>
      <trkpt lat="45.42014" lon="0.7533">
        <ele>148.23464374178</ele>
        <time>2015-08-07T11:17:58Z</time>
      </trkpt>
      <trkpt lat="45.42018" lon="0.75324">
        <ele>148.23464374178</ele>
        <time>2015-08-07T11:18:03Z</time>
      </trkpt>
      <trkpt lat="45.42028" lon="0.75314">
        <ele>147.63912435178</ele>
        <time>2015-08-07T11:18:13Z</time>
      </trkpt>
      <trkpt lat="45.42033" lon="0.75306">
        <ele>147.63912435178</ele>
        <time>2015-08-07T11:18:18Z</time>
      </trkpt>
      <trkpt lat="45.42044" lon="0.75296">
        <ele>147.96987802327</ele>
        <time>2015-08-07T11:18:28Z</time>
      </trkpt>
      <trkpt lat="45.42047" lon="0.75295">
        <ele>147.96987802327</ele>
        <time>2015-08-07T11:18:33Z</time>
      </trkpt>
      <trkpt lat="45.42045" lon="0.75283">
        <ele>148.39436485032</ele>
        <time>2015-08-07T11:18:43Z</time>
      </trkpt>
      <trkpt lat="45.4204" lon="0.75279">
        <ele>148.39436485032</ele>
        <time>2015-08-07T11:18:48Z</time>
      </trkpt>
      <trkpt lat="45.42034" lon="0.7526">
        <ele>148.4724588001</ele>
        <time>2015-08-07T11:18:58Z</time>
      </trkpt>
      <trkpt lat="45.42031" lon="0.75253">
        <ele>148.4724588001</ele>
        <time>2015-08-07T11:19:03Z</time>
      </trkpt>
      <trkpt lat="45.42029" lon="0.75237">
        <ele>148.20090616144</ele>
        <time>2015-08-07T11:19:13Z</time>
      </trkpt>
      <trkpt lat="45.42028" lon="0.75229">
        <ele>148.20090616144</ele>
        <time>2015-08-07T11:19:18Z</time>
      </trkpt>
      <trkpt lat="45.42028" lon="0.75223">
        <ele>146.81393506907</ele>
        <time>2015-08-07T11:19:23Z</time>
      </trkpt>
      <trkpt lat="45.42028" lon="0.75213">
        <ele>146.81393506907</ele>
        <time>2015-08-07T11:19:28Z</time>
      </trkpt>
      <trkpt lat="45.42023" lon="0.75208">
        <ele>144.91660857715</ele>
        <time>2015-08-07T11:19:33Z</time>
      </trkpt>
      <trkpt lat="45.4202" lon="0.75198">
        <ele>144.91660857715</ele>
        <time>2015-08-07T11:19:38Z</time>
      </trkpt>
      <trkpt lat="45.42017" lon="0.75187">
        <ele>144.03654794227</ele>
        <time>2015-08-07T11:19:43Z</time>
      </trkpt>
      <trkpt lat="45.42015" lon="0.75177">
        <ele>144.03654794227</ele>
        <time>2015-08-07T11:19:48Z</time>
      </trkpt>
      <trkpt lat="45.42012" lon="0.7517">
        <ele>143.33818453325</ele>
        <time>2015-08-07T11:19:53Z</time>
      </trkpt>
      <trkpt lat="45.4201" lon="0.75161">
        <ele>143.33818453325</ele>
        <time>2015-08-07T11:19:58Z</time>
      </trkpt>
      <trkpt lat="45.42006" lon="0.75155">
        <ele>142.21975694056</ele>
        <time>2015-08-07T11:20:03Z</time>
      </trkpt>
      <trkpt lat="45.42003" lon="0.75149">
        <ele>142.21975694056</ele>
        <time>2015-08-07T11:20:08Z</time>
      </trkpt>
      <trkpt lat="45.41998" lon="0.75143">
        <ele>140.60044541764</ele>
        <time>2015-08-07T11:20:13Z</time>
      </trkpt>
      <trkpt lat="45.41995" lon="0.75137">
        <ele>140.60044541764</ele>
        <time>2015-08-07T11:20:18Z</time>
      </trkpt>
      <trkpt lat="45.41989" lon="0.75135">
        <ele>138.92555313642</ele>
        <time>2015-08-07T11:20:23Z</time>
      </trkpt>
      <trkpt lat="45.41982" lon="0.75134">
        <ele>138.92555313642</ele>
        <time>2015-08-07T11:20:28Z</time>
      </trkpt>
      <trkpt lat="45.41981" lon="0.75133">
        <ele>138.92555313642</ele>
        <time>2015-08-07T11:20:33Z</time>
      </trkpt>
      <trkpt lat="45.41978" lon="0.75133">
        <ele>137.55015258822</ele>
        <time>2015-08-07T11:20:38Z</time>
      </trkpt>
      <trkpt lat="45.41971" lon="0.7513">
        <ele>137.55015258822</ele>
        <time>2015-08-07T11:20:43Z</time>
      </trkpt>
      <trkpt lat="45.41966" lon="0.75124">
        <ele>136.61500711588</ele>
        <time>2015-08-07T11:20:48Z</time>
      </trkpt>
      <trkpt lat="45.41962" lon="0.75118">
        <ele>136.61500711588</ele>
        <time>2015-08-07T11:20:53Z</time>
      </trkpt>
      <trkpt lat="45.41958" lon="0.7511">
        <ele>136.1916107173</ele>
        <time>2015-08-07T11:20:58Z</time>
      </trkpt>
      <trkpt lat="45.41953" lon="0.75104">
        <ele>136.1916107173</ele>
        <time>2015-08-07T11:21:03Z</time>
      </trkpt>
      <trkpt lat="45.4195" lon="0.75098">
        <ele>135.95561512712</ele>
        <time>2015-08-07T11:21:08Z</time>
      </trkpt>
      <trkpt lat="45.41945" lon="0.75093">
        <ele>135.95561512712</ele>
        <time>2015-08-07T11:21:13Z</time>
      </trkpt>
      <trkpt lat="45.41942" lon="0.75088">
        <ele>135.57709370615</ele>
        <time>2015-08-07T11:21:18Z</time>
      </trkpt>
      <trkpt lat="45.41936" lon="0.75082">
        <ele>135.57709370615</ele>
        <time>2015-08-07T11:21:23Z</time>
      </trkpt>
      <trkpt lat="45.41933" lon="0.75077">
        <ele>135.65860004656</ele>
        <time>2015-08-07T11:21:28Z</time>
      </trkpt>
      <trkpt lat="45.4193" lon="0.7507">
        <ele>135.65860004656</ele>
        <time>2015-08-07T11:21:33Z</time>
      </trkpt>
      <trkpt lat="45.41931" lon="0.75058">
        <ele>136.52650354022</ele>
        <time>2015-08-07T11:21:38Z</time>
      </trkpt>
      <trkpt lat="45.41931" lon="0.7505">
        <ele>136.52650354022</ele>
        <time>2015-08-07T11:21:43Z</time>
      </trkpt>
      <trkpt lat="45.41932" lon="0.75044">
        <ele>137.41452284701</ele>
        <time>2015-08-07T11:21:48Z</time>
      </trkpt>
      <trkpt lat="45.41933" lon="0.75035">
        <ele>137.41452284701</ele>
        <time>2015-08-07T11:21:53Z</time>
      </trkpt>
      <trkpt lat="45.41936" lon="0.75025">
        <ele>138.43400509176</ele>
        <time>2015-08-07T11:21:58Z</time>
      </trkpt>
      <trkpt lat="45.41937" lon="0.75016">
        <ele>138.43400509176</ele>
        <time>2015-08-07T11:22:03Z</time>
      </trkpt>
      <trkpt lat="45.41939" lon="0.75007">
        <ele>139.32744137222</ele>
        <time>2015-08-07T11:22:08Z</time>
      </trkpt>
      <trkpt lat="45.41941" lon="0.74999">
        <ele>139.32744137222</ele>
        <time>2015-08-07T11:22:13Z</time>
      </trkpt>
      <trkpt lat="45.41944" lon="0.7499">
        <ele>139.97186159211</ele>
        <time>2015-08-07T11:22:18Z</time>
      </trkpt>
      <trkpt lat="45.41946" lon="0.74982">
        <ele>139.97186159211</ele>
        <time>2015-08-07T11:22:23Z</time>
      </trkpt>
      <trkpt lat="45.41949" lon="0.74974">
        <ele>140.62870507774</ele>
        <time>2015-08-07T11:22:28Z</time>
      </trkpt>
      <trkpt lat="45.41951" lon="0.74964">
        <ele>140.62870507774</ele>
        <time>2015-08-07T11:22:33Z</time>
      </trkpt>
      <trkpt lat="45.41954" lon="0.74956">
        <ele>141.6698678533</ele>
        <time>2015-08-07T11:22:38Z</time>
      </trkpt>
      <trkpt lat="45.41955" lon="0.74947">
        <ele>141.6698678533</ele>
        <time>2015-08-07T11:22:43Z</time>
      </trkpt>
      <trkpt lat="45.41956" lon="0.74938">
        <ele>142.6462411246</ele>
        <time>2015-08-07T11:22:48Z</time>
      </trkpt>
      <trkpt lat="45.41957" lon="0.74932">
        <ele>142.6462411246</ele>
        <time>2015-08-07T11:22:53Z</time>
      </trkpt>
      <trkpt lat="45.41958" lon="0.7493">
        <ele>142.6462411246</ele>
        <time>2015-08-07T11:22:58Z</time>
      </trkpt>
      <trkpt lat="45.41959" lon="0.74927">
        <ele>142.6462411246</ele>
        <time>2015-08-07T11:23:03Z</time>
      </trkpt>
      <trkpt lat="45.41959" lon="0.74927">
        <ele>142.6462411246</ele>
        <time>2015-08-07T11:23:08Z</time>
      </trkpt>
      <trkpt lat="45.4196" lon="0.74927">
        <ele>143.6318782233</ele>
        <time>2015-08-07T11:23:13Z</time>
      </trkpt>
      <trkpt lat="45.4196" lon="0.74927">
        <ele>143.6318782233</ele>
        <time>2015-08-07T11:23:18Z</time>
      </trkpt>
      <trkpt lat="45.4196" lon="0.74927">
        <ele>143.6318782233</ele>
        <time>2015-08-07T11:23:23Z</time>
      </trkpt>
      <trkpt lat="45.4196" lon="0.74927">
        <ele>143.6318782233</ele>
        <time>2015-08-07T11:23:28Z</time>
      </trkpt>
      <trkpt lat="45.41959" lon="0.74921">
        <ele>143.6318782233</ele>
        <time>2015-08-07T11:23:33Z</time>
      </trkpt>
      <trkpt lat="45.41957" lon="0.74913">
        <ele>144.10452827399</ele>
        <time>2015-08-07T11:23:38Z</time>
      </trkpt>
      <trkpt lat="45.41955" lon="0.74905">
        <ele>144.10452827399</ele>
        <time>2015-08-07T11:23:43Z</time>
      </trkpt>
      <trkpt lat="45.41955" lon="0.74896">
        <ele>144.44643350008</ele>
        <time>2015-08-07T11:23:48Z</time>
      </trkpt>
      <trkpt lat="45.41962" lon="0.74891">
        <ele>144.44643350008</ele>
        <time>2015-08-07T11:23:53Z</time>
      </trkpt>
      <trkpt lat="45.41969" lon="0.74892">
        <ele>145.32919542429</ele>
        <time>2015-08-07T11:23:58Z</time>
      </trkpt>
      <trkpt lat="45.41976" lon="0.74892">
        <ele>145.32919542429</ele>
        <time>2015-08-07T11:24:03Z</time>
      </trkpt>
      <trkpt lat="45.41982" lon="0.7489">
        <ele>146.62421623921</ele>
        <time>2015-08-07T11:24:08Z</time>
      </trkpt>
      <trkpt lat="45.41984" lon="0.74892">
        <ele>146.62421623921</ele>
        <time>2015-08-07T11:24:13Z</time>
      </trkpt>
      <trkpt lat="45.41985" lon="0.74894">
        <ele>146.62421623921</ele>
        <time>2015-08-07T11:24:18Z</time>
      </trkpt>
      <trkpt lat="45.41985" lon="0.74894">
        <ele>146.62421623921</ele>
        <time>2015-08-07T11:24:23Z</time>
      </trkpt>
      <trkpt lat="45.41985" lon="0.74894">
        <ele>146.62421623921</ele>
        <time>2015-08-07T11:24:28Z</time>
      </trkpt>
      <trkpt lat="45.41985" lon="0.74894">
        <ele>146.62421623921</ele>
        <time>2015-08-07T11:24:33Z</time>
      </trkpt>
      <trkpt lat="45.41982" lon="0.74894">
        <ele>146.62421623921</ele>
        <time>2015-08-07T11:24:38Z</time>
      </trkpt>
      <trkpt lat="45.4198" lon="0.74892">
        <ele>147.69242370605</ele>
        <time>2015-08-07T11:24:43Z</time>
      </trkpt>
      <trkpt lat="45.4198" lon="0.74894">
        <ele>147.69242370605</ele>
        <time>2015-08-07T11:24:48Z</time>
      </trkpt>
      <trkpt lat="45.4198" lon="0.74894">
        <ele>147.69242370605</ele>
        <time>2015-08-07T11:24:53Z</time>
      </trkpt>
      <trkpt lat="45.4198" lon="0.74894">
        <ele>147.69242370605</ele>
        <time>2015-08-07T11:24:58Z</time>
      </trkpt>
      <trkpt lat="45.4198" lon="0.74895">
        <ele>147.69242370605</ele>
        <time>2015-08-07T11:25:03Z</time>
      </trkpt>
      <trkpt lat="45.4198" lon="0.74895">
        <ele>147.69242370605</ele>
        <time>2015-08-07T11:25:08Z</time>
      </trkpt>
      <trkpt lat="45.4198" lon="0.74896">
        <ele>147.69242370605</ele>
        <time>2015-08-07T11:25:24Z</time>
      </trkpt>
      <trkpt lat="45.41981" lon="0.74896">
        <ele>147.69242370605</ele>
        <time>2015-08-07T11:25:29Z</time>
      </trkpt>
      <trkpt lat="45.41982" lon="0.74888">
        <ele>148.85026892558</ele>
        <time>2015-08-07T11:25:39Z</time>
      </trkpt>
      <trkpt lat="45.41984" lon="0.74889">
        <ele>148.85026892558</ele>
        <time>2015-08-07T11:25:44Z</time>
      </trkpt>
      <trkpt lat="45.41981" lon="0.74887">
        <ele>148.85026892558</ele>
        <time>2015-08-07T11:25:53Z</time>
      </trkpt>
      <trkpt lat="45.41979" lon="0.74886">
        <ele>148.85026892558</ele>
        <time>2015-08-07T11:25:58Z</time>
      </trkpt>
      <trkpt lat="45.41979" lon="0.74893">
        <ele>150.26105242584</ele>
        <time>2015-08-07T11:26:08Z</time>
      </trkpt>
      <trkpt lat="45.41979" lon="0.74894">
        <ele>150.26105242584</ele>
        <time>2015-08-07T11:26:14Z</time>
      </trkpt>
      <trkpt lat="45.4198" lon="0.74893">
        <ele>150.26105242584</ele>
        <time>2015-08-07T11:26:24Z</time>
      </trkpt>
      <trkpt lat="45.41982" lon="0.74895">
        <ele>150.26105242584</ele>
        <time>2015-08-07T11:26:29Z</time>
      </trkpt>
      <trkpt lat="45.41982" lon="0.74895">
        <ele>150.26105242584</ele>
        <time>2015-08-07T11:26:39Z</time>
      </trkpt>
      <trkpt lat="45.41982" lon="0.74895">
        <ele>150.26105242584</ele>
        <time>2015-08-07T11:26:44Z</time>
      </trkpt>
      <trkpt lat="45.41983" lon="0.74892">
        <ele>150.26105242584</ele>
        <time>2015-08-07T11:26:59Z</time>
      </trkpt>
      <trkpt lat="45.41987" lon="0.7487">
        <ele>152.66628037668</ele>
        <time>2015-08-07T11:27:14Z</time>
      </trkpt>
      <trkpt lat="45.42012" lon="0.74775">
        <ele>155.15062928034</ele>
        <time>2015-08-07T11:27:29Z</time>
      </trkpt>
      <trkpt lat="45.42014" lon="0.74768">
        <ele>155.15062928034</ele>
        <time>2015-08-07T11:27:33Z</time>
      </trkpt>
      <trkpt lat="45.42017" lon="0.74759">
        <ele>157.26937912784</ele>
        <time>2015-08-07T11:27:38Z</time>
      </trkpt>
      <trkpt lat="45.42019" lon="0.7475">
        <ele>157.26937912784</ele>
        <time>2015-08-07T11:27:43Z</time>
      </trkpt>
      <trkpt lat="45.4202" lon="0.74741">
        <ele>159.27450204615</ele>
        <time>2015-08-07T11:27:48Z</time>
      </trkpt>
      <trkpt lat="45.4202" lon="0.74733">
        <ele>159.27450204615</ele>
        <time>2015-08-07T11:27:53Z</time>
      </trkpt>
      <trkpt lat="45.42023" lon="0.74727">
        <ele>160.76578617382</ele>
        <time>2015-08-07T11:27:58Z</time>
      </trkpt>
      <trkpt lat="45.42025" lon="0.74718">
        <ele>160.76578617382</ele>
        <time>2015-08-07T11:28:03Z</time>
      </trkpt>
      <trkpt lat="45.42027" lon="0.74711">
        <ele>162.33950875806</ele>
        <time>2015-08-07T11:28:08Z</time>
      </trkpt>
      <trkpt lat="45.4203" lon="0.74703">
        <ele>162.33950875806</ele>
        <time>2015-08-07T11:28:13Z</time>
      </trkpt>
      <trkpt lat="45.42034" lon="0.74695">
        <ele>163.53924312373</ele>
        <time>2015-08-07T11:28:18Z</time>
      </trkpt>
      <trkpt lat="45.42038" lon="0.74688">
        <ele>163.53924312373</ele>
        <time>2015-08-07T11:28:23Z</time>
      </trkpt>
      <trkpt lat="45.42042" lon="0.74677">
        <ele>164.67821713711</ele>
        <time>2015-08-07T11:28:28Z</time>
      </trkpt>
      <trkpt lat="45.42053" lon="0.74654">
        <ele>165.44166170088</ele>
        <time>2015-08-07T11:28:33Z</time>
      </trkpt>
      <trkpt lat="45.42068" lon="0.74624">
        <ele>166.2596467516</ele>
        <time>2015-08-07T11:28:38Z</time>
      </trkpt>
      <trkpt lat="45.42083" lon="0.74599">
        <ele>166.76681025491</ele>
        <time>2015-08-07T11:28:43Z</time>
      </trkpt>
      <trkpt lat="45.4209" lon="0.74588">
        <ele>167.56232216946</ele>
        <time>2015-08-07T11:28:48Z</time>
      </trkpt>
      <trkpt lat="45.42096" lon="0.74579">
        <ele>167.56232216946</ele>
        <time>2015-08-07T11:28:53Z</time>
      </trkpt>
      <trkpt lat="45.42101" lon="0.74573">
        <ele>168.40801042859</ele>
        <time>2015-08-07T11:28:58Z</time>
      </trkpt>
      <trkpt lat="45.42106" lon="0.74566">
        <ele>168.40801042859</ele>
        <time>2015-08-07T11:29:03Z</time>
      </trkpt>
      <trkpt lat="45.42111" lon="0.74559">
        <ele>169.27049071076</ele>
        <time>2015-08-07T11:29:08Z</time>
      </trkpt>
      <trkpt lat="45.42116" lon="0.74551">
        <ele>169.27049071076</ele>
        <time>2015-08-07T11:29:13Z</time>
      </trkpt>
      <trkpt lat="45.42121" lon="0.74543">
        <ele>169.98916712103</ele>
        <time>2015-08-07T11:29:18Z</time>
      </trkpt>
      <trkpt lat="45.42126" lon="0.74535">
        <ele>169.98916712103</ele>
        <time>2015-08-07T11:29:23Z</time>
      </trkpt>
      <trkpt lat="45.42131" lon="0.74528">
        <ele>170.76159017154</ele>
        <time>2015-08-07T11:29:28Z</time>
      </trkpt>
      <trkpt lat="45.42136" lon="0.74522">
        <ele>170.76159017154</ele>
        <time>2015-08-07T11:29:33Z</time>
      </trkpt>
      <trkpt lat="45.4214" lon="0.74514">
        <ele>171.29515499487</ele>
        <time>2015-08-07T11:29:38Z</time>
      </trkpt>
      <trkpt lat="45.42144" lon="0.74508">
        <ele>171.29515499487</ele>
        <time>2015-08-07T11:29:43Z</time>
      </trkpt>
      <trkpt lat="45.42149" lon="0.74503">
        <ele>171.17537819669</ele>
        <time>2015-08-07T11:29:48Z</time>
      </trkpt>
      <trkpt lat="45.42153" lon="0.74497">
        <ele>171.17537819669</ele>
        <time>2015-08-07T11:29:53Z</time>
      </trkpt>
      <trkpt lat="45.42155" lon="0.74489">
        <ele>171.05771790945</ele>
        <time>2015-08-07T11:29:58Z</time>
      </trkpt>
      <trkpt lat="45.42162" lon="0.7448">
        <ele>171.05771790945</ele>
        <time>2015-08-07T11:30:03Z</time>
      </trkpt>
      <trkpt lat="45.42167" lon="0.74474">
        <ele>171.44865168268</ele>
        <time>2015-08-07T11:30:08Z</time>
      </trkpt>
      <trkpt lat="45.42169" lon="0.74469">
        <ele>171.44865168268</ele>
        <time>2015-08-07T11:30:13Z</time>
      </trkpt>
      <trkpt lat="45.42176" lon="0.74461">
        <ele>171.51906808564</ele>
        <time>2015-08-07T11:30:18Z</time>
      </trkpt>
      <trkpt lat="45.42182" lon="0.74456">
        <ele>171.51906808564</ele>
        <time>2015-08-07T11:30:23Z</time>
      </trkpt>
      <trkpt lat="45.42187" lon="0.74448">
        <ele>171.55370750099</ele>
        <time>2015-08-07T11:30:28Z</time>
      </trkpt>
      <trkpt lat="45.4219" lon="0.74443">
        <ele>171.55370750099</ele>
        <time>2015-08-07T11:30:33Z</time>
      </trkpt>
      <trkpt lat="45.42195" lon="0.74435">
        <ele>171.54270979628</ele>
        <time>2015-08-07T11:30:38Z</time>
      </trkpt>
      <trkpt lat="45.42202" lon="0.74427">
        <ele>171.59237594218</ele>
        <time>2015-08-07T11:30:43Z</time>
      </trkpt>
      <trkpt lat="45.42209" lon="0.74421">
        <ele>171.59237594218</ele>
        <time>2015-08-07T11:30:48Z</time>
      </trkpt>
      <trkpt lat="45.42215" lon="0.74416">
        <ele>171.71457378403</ele>
        <time>2015-08-07T11:30:53Z</time>
      </trkpt>
      <trkpt lat="45.4222" lon="0.7441">
        <ele>171.71457378403</ele>
        <time>2015-08-07T11:30:58Z</time>
      </trkpt>
      <trkpt lat="45.42226" lon="0.74404">
        <ele>171.76157937189</ele>
        <time>2015-08-07T11:31:03Z</time>
      </trkpt>
      <trkpt lat="45.42231" lon="0.74398">
        <ele>171.76157937189</ele>
        <time>2015-08-07T11:31:08Z</time>
      </trkpt>
      <trkpt lat="45.42236" lon="0.7439">
        <ele>171.92818687556</ele>
        <time>2015-08-07T11:31:13Z</time>
      </trkpt>
      <trkpt lat="45.42241" lon="0.74385">
        <ele>171.92818687556</ele>
        <time>2015-08-07T11:31:18Z</time>
      </trkpt>
      <trkpt lat="45.42245" lon="0.7438">
        <ele>171.29929372776</ele>
        <time>2015-08-07T11:31:23Z</time>
      </trkpt>
      <trkpt lat="45.42251" lon="0.74374">
        <ele>171.29929372776</ele>
        <time>2015-08-07T11:31:28Z</time>
      </trkpt>
      <trkpt lat="45.42257" lon="0.74369">
        <ele>170.81621668601</ele>
        <time>2015-08-07T11:31:33Z</time>
      </trkpt>
      <trkpt lat="45.42265" lon="0.74365">
        <ele>170.81621668601</ele>
        <time>2015-08-07T11:31:38Z</time>
      </trkpt>
      <trkpt lat="45.42274" lon="0.74359">
        <ele>171.50921804191</ele>
        <time>2015-08-07T11:31:43Z</time>
      </trkpt>
      <trkpt lat="45.4228" lon="0.74354">
        <ele>171.50921804191</ele>
        <time>2015-08-07T11:31:48Z</time>
      </trkpt>
      <trkpt lat="45.42287" lon="0.7435">
        <ele>172.11024260099</ele>
        <time>2015-08-07T11:31:53Z</time>
      </trkpt>
      <trkpt lat="45.42294" lon="0.74344">
        <ele>172.11024260099</ele>
        <time>2015-08-07T11:31:58Z</time>
      </trkpt>
      <trkpt lat="45.42297" lon="0.74348">
        <ele>172.88572917573</ele>
        <time>2015-08-07T11:32:03Z</time>
      </trkpt>
      <trkpt lat="45.42296" lon="0.74356">
        <ele>172.88572917573</ele>
        <time>2015-08-07T11:32:08Z</time>
      </trkpt>
      <trkpt lat="45.42292" lon="0.74363">
        <ele>173.41911706376</ele>
        <time>2015-08-07T11:32:13Z</time>
      </trkpt>
      <trkpt lat="45.42288" lon="0.74365">
        <ele>173.41911706376</ele>
        <time>2015-08-07T11:32:18Z</time>
      </trkpt>
      <trkpt lat="45.4229" lon="0.74359">
        <ele>173.41911706376</ele>
        <time>2015-08-07T11:32:23Z</time>
      </trkpt>
      <trkpt lat="45.4229" lon="0.74358">
        <ele>173.41911706376</ele>
        <time>2015-08-07T11:32:28Z</time>
      </trkpt>
      <trkpt lat="45.42291" lon="0.74358">
        <ele>174.00242280794</ele>
        <time>2015-08-07T11:32:34Z</time>
      </trkpt>
      <trkpt lat="45.42292" lon="0.74357">
        <ele>174.00242280794</ele>
        <time>2015-08-07T11:32:44Z</time>
      </trkpt>
      <trkpt lat="45.42292" lon="0.74357">
        <ele>174.00242280794</ele>
        <time>2015-08-07T11:32:49Z</time>
      </trkpt>
      <trkpt lat="45.42292" lon="0.74355">
        <ele>174.00242280794</ele>
        <time>2015-08-07T11:32:59Z</time>
      </trkpt>
      <trkpt lat="45.42292" lon="0.74356">
        <ele>174.00242280794</ele>
        <time>2015-08-07T11:33:04Z</time>
      </trkpt>
      <trkpt lat="45.42294" lon="0.74353">
        <ele>174.00242280794</ele>
        <time>2015-08-07T11:33:14Z</time>
      </trkpt>
      <trkpt lat="45.42294" lon="0.74353">
        <ele>174.00242280794</ele>
        <time>2015-08-07T11:33:19Z</time>
      </trkpt>
      <trkpt lat="45.42294" lon="0.74352">
        <ele>174.00242280794</ele>
        <time>2015-08-07T11:33:29Z</time>
      </trkpt>
      <trkpt lat="45.42294" lon="0.74352">
        <ele>174.00242280794</ele>
        <time>2015-08-07T11:33:34Z</time>
      </trkpt>
      <trkpt lat="45.42298" lon="0.74341">
        <ele>175.1222158738</ele>
        <time>2015-08-07T11:33:44Z</time>
      </trkpt>
      <trkpt lat="45.423" lon="0.74336">
        <ele>175.1222158738</ele>
        <time>2015-08-07T11:33:49Z</time>
      </trkpt>
      <trkpt lat="45.42312" lon="0.74324">
        <ele>176.17578629725</ele>
        <time>2015-08-07T11:33:59Z</time>
      </trkpt>
      <trkpt lat="45.42317" lon="0.74317">
        <ele>176.17578629725</ele>
        <time>2015-08-07T11:34:03Z</time>
      </trkpt>
      <trkpt lat="45.42322" lon="0.7431">
        <ele>176.64810041749</ele>
        <time>2015-08-07T11:34:08Z</time>
      </trkpt>
      <trkpt lat="45.42327" lon="0.74306">
        <ele>176.64810041749</ele>
        <time>2015-08-07T11:34:13Z</time>
      </trkpt>
      <trkpt lat="45.42331" lon="0.74302">
        <ele>176.61119560952</ele>
        <time>2015-08-07T11:34:18Z</time>
      </trkpt>
      <trkpt lat="45.42335" lon="0.74296">
        <ele>176.61119560952</ele>
        <time>2015-08-07T11:34:23Z</time>
      </trkpt>
      <trkpt lat="45.42338" lon="0.74292">
        <ele>176.30616293753</ele>
        <time>2015-08-07T11:34:28Z</time>
      </trkpt>
      <trkpt lat="45.42343" lon="0.74287">
        <ele>176.30616293753</ele>
        <time>2015-08-07T11:34:33Z</time>
      </trkpt>
      <trkpt lat="45.42348" lon="0.74275">
        <ele>176.38945009833</ele>
        <time>2015-08-07T11:34:38Z</time>
      </trkpt>
      <trkpt lat="45.42352" lon="0.74268">
        <ele>176.38945009833</ele>
        <time>2015-08-07T11:34:43Z</time>
      </trkpt>
      <trkpt lat="45.42355" lon="0.74255">
        <ele>176.89172675261</ele>
        <time>2015-08-07T11:34:48Z</time>
      </trkpt>
      <trkpt lat="45.42361" lon="0.74249">
        <ele>176.89172675261</ele>
        <time>2015-08-07T11:34:53Z</time>
      </trkpt>
      <trkpt lat="45.42364" lon="0.74241">
        <ele>177.13406459117</ele>
        <time>2015-08-07T11:34:58Z</time>
      </trkpt>
      <trkpt lat="45.42367" lon="0.74231">
        <ele>177.13406459117</ele>
        <time>2015-08-07T11:35:03Z</time>
      </trkpt>
      <trkpt lat="45.4237" lon="0.74222">
        <ele>177.68423461629</ele>
        <time>2015-08-07T11:35:08Z</time>
      </trkpt>
      <trkpt lat="45.42373" lon="0.74213">
        <ele>177.68423461629</ele>
        <time>2015-08-07T11:35:13Z</time>
      </trkpt>
      <trkpt lat="45.42375" lon="0.74205">
        <ele>177.9145200712</ele>
        <time>2015-08-07T11:35:18Z</time>
      </trkpt>
      <trkpt lat="45.42377" lon="0.74197">
        <ele>177.9145200712</ele>
        <time>2015-08-07T11:35:23Z</time>
      </trkpt>
      <trkpt lat="45.42378" lon="0.74186">
        <ele>178.28178704892</ele>
        <time>2015-08-07T11:35:28Z</time>
      </trkpt>
      <trkpt lat="45.42376" lon="0.74175">
        <ele>178.28178704892</ele>
        <time>2015-08-07T11:35:33Z</time>
      </trkpt>
      <trkpt lat="45.42375" lon="0.74165">
        <ele>179.10805258904</ele>
        <time>2015-08-07T11:35:38Z</time>
      </trkpt>
      <trkpt lat="45.42374" lon="0.74155">
        <ele>179.10805258904</ele>
        <time>2015-08-07T11:35:43Z</time>
      </trkpt>
      <trkpt lat="45.42372" lon="0.74147">
        <ele>180.22921132568</ele>
        <time>2015-08-07T11:35:48Z</time>
      </trkpt>
      <trkpt lat="45.4237" lon="0.74139">
        <ele>180.22921132568</ele>
        <time>2015-08-07T11:35:53Z</time>
      </trkpt>
      <trkpt lat="45.42366" lon="0.74132">
        <ele>181.78058801566</ele>
        <time>2015-08-07T11:35:58Z</time>
      </trkpt>
      <trkpt lat="45.42364" lon="0.74124">
        <ele>181.78058801566</ele>
        <time>2015-08-07T11:36:03Z</time>
      </trkpt>
      <trkpt lat="45.42364" lon="0.74117">
        <ele>182.97844454065</ele>
        <time>2015-08-07T11:36:08Z</time>
      </trkpt>
      <trkpt lat="45.4237" lon="0.74108">
        <ele>182.97844454065</ele>
        <time>2015-08-07T11:36:14Z</time>
      </trkpt>
      <trkpt lat="45.42382" lon="0.74102">
        <ele>183.74609872833</ele>
        <time>2015-08-07T11:36:24Z</time>
      </trkpt>
      <trkpt lat="45.42387" lon="0.74097">
        <ele>183.74609872833</ele>
        <time>2015-08-07T11:36:29Z</time>
      </trkpt>
      <trkpt lat="45.42406" lon="0.7408">
        <ele>184.05693718802</ele>
        <time>2015-08-07T11:36:43Z</time>
      </trkpt>
      <trkpt lat="45.4241" lon="0.74074">
        <ele>184.05693718802</ele>
        <time>2015-08-07T11:36:48Z</time>
      </trkpt>
      <trkpt lat="45.42414" lon="0.74069">
        <ele>183.12378983302</ele>
        <time>2015-08-07T11:36:53Z</time>
      </trkpt>
      <trkpt lat="45.42418" lon="0.74062">
        <ele>183.12378983302</ele>
        <time>2015-08-07T11:36:58Z</time>
      </trkpt>
      <trkpt lat="45.42421" lon="0.74054">
        <ele>181.83483825484</ele>
        <time>2015-08-07T11:37:03Z</time>
      </trkpt>
      <trkpt lat="45.42421" lon="0.74048">
        <ele>181.83483825484</ele>
        <time>2015-08-07T11:37:08Z</time>
      </trkpt>
      <trkpt lat="45.42416" lon="0.74046">
        <ele>180.45196663029</ele>
        <time>2015-08-07T11:37:13Z</time>
      </trkpt>
      <trkpt lat="45.42412" lon="0.74036">
        <ele>180.45196663029</ele>
        <time>2015-08-07T11:37:18Z</time>
      </trkpt>
      <trkpt lat="45.42405" lon="0.7403">
        <ele>180.28448101786</ele>
        <time>2015-08-07T11:37:23Z</time>
      </trkpt>
      <trkpt lat="45.42399" lon="0.74026">
        <ele>180.28448101786</ele>
        <time>2015-08-07T11:37:28Z</time>
      </trkpt>
      <trkpt lat="45.42392" lon="0.74021">
        <ele>180.30833818393</ele>
        <time>2015-08-07T11:37:33Z</time>
      </trkpt>
      <trkpt lat="45.42389" lon="0.74017">
        <ele>180.30833818393</ele>
        <time>2015-08-07T11:37:38Z</time>
      </trkpt>
      <trkpt lat="45.42384" lon="0.74013">
        <ele>179.43002860153</ele>
        <time>2015-08-07T11:37:43Z</time>
      </trkpt>
      <trkpt lat="45.42381" lon="0.74004">
        <ele>179.43002860153</ele>
        <time>2015-08-07T11:37:48Z</time>
      </trkpt>
      <trkpt lat="45.4238" lon="0.74007">
        <ele>179.43002860153</ele>
        <time>2015-08-07T11:37:53Z</time>
      </trkpt>
      <trkpt lat="45.42376" lon="0.7401">
        <ele>178.80052022195</ele>
        <time>2015-08-07T11:37:58Z</time>
      </trkpt>
      <trkpt lat="45.42372" lon="0.74011">
        <ele>178.80052022195</ele>
        <time>2015-08-07T11:38:03Z</time>
      </trkpt>
      <trkpt lat="45.42364" lon="0.74011">
        <ele>177.74173392881</ele>
        <time>2015-08-07T11:38:08Z</time>
      </trkpt>
      <trkpt lat="45.42359" lon="0.74008">
        <ele>177.74173392881</ele>
        <time>2015-08-07T11:38:13Z</time>
      </trkpt>
      <trkpt lat="45.42356" lon="0.74001">
        <ele>176.34710065724</ele>
        <time>2015-08-07T11:38:18Z</time>
      </trkpt>
      <trkpt lat="45.42352" lon="0.73992">
        <ele>176.34710065724</ele>
        <time>2015-08-07T11:38:23Z</time>
      </trkpt>
      <trkpt lat="45.42349" lon="0.73986">
        <ele>175.16521676328</ele>
        <time>2015-08-07T11:38:28Z</time>
      </trkpt>
      <trkpt lat="45.42349" lon="0.73981">
        <ele>175.16521676328</ele>
        <time>2015-08-07T11:38:33Z</time>
      </trkpt>
      <trkpt lat="45.42346" lon="0.73973">
        <ele>174.44430595641</ele>
        <time>2015-08-07T11:38:38Z</time>
      </trkpt>
      <trkpt lat="45.42343" lon="0.73966">
        <ele>174.44430595641</ele>
        <time>2015-08-07T11:38:43Z</time>
      </trkpt>
      <trkpt lat="45.42343" lon="0.7396">
        <ele>172.74129051499</ele>
        <time>2015-08-07T11:38:48Z</time>
      </trkpt>
      <trkpt lat="45.42347" lon="0.73955">
        <ele>172.74129051499</ele>
        <time>2015-08-07T11:38:53Z</time>
      </trkpt>
      <trkpt lat="45.42349" lon="0.7395">
        <ele>171.53193196061</ele>
        <time>2015-08-07T11:38:58Z</time>
      </trkpt>
      <trkpt lat="45.42351" lon="0.73952">
        <ele>171.53193196061</ele>
        <time>2015-08-07T11:39:09Z</time>
      </trkpt>
      <trkpt lat="45.42355" lon="0.73952">
        <ele>171.53193196061</ele>
        <time>2015-08-07T11:39:14Z</time>
      </trkpt>
      <trkpt lat="45.42356" lon="0.73951">
        <ele>171.53193196061</ele>
        <time>2015-08-07T11:39:24Z</time>
      </trkpt>
      <trkpt lat="45.42356" lon="0.73951">
        <ele>171.53193196061</ele>
        <time>2015-08-07T11:39:29Z</time>
      </trkpt>
      <trkpt lat="45.42366" lon="0.73948">
        <ele>171.60565849269</ele>
        <time>2015-08-07T11:39:39Z</time>
      </trkpt>
      <trkpt lat="45.42369" lon="0.73944">
        <ele>171.60565849269</ele>
        <time>2015-08-07T11:39:43Z</time>
      </trkpt>
      <trkpt lat="45.42364" lon="0.73941">
        <ele>171.60565849269</ele>
        <time>2015-08-07T11:39:48Z</time>
      </trkpt>
      <trkpt lat="45.42358" lon="0.73938">
        <ele>170.95209729656</ele>
        <time>2015-08-07T11:39:53Z</time>
      </trkpt>
      <trkpt lat="45.42353" lon="0.73937">
        <ele>170.95209729656</ele>
        <time>2015-08-07T11:39:58Z</time>
      </trkpt>
      <trkpt lat="45.42344" lon="0.73944">
        <ele>169.54070723239</ele>
        <time>2015-08-07T11:40:03Z</time>
      </trkpt>
      <trkpt lat="45.42338" lon="0.73947">
        <ele>169.54070723239</ele>
        <time>2015-08-07T11:40:08Z</time>
      </trkpt>
      <trkpt lat="45.42333" lon="0.73948">
        <ele>168.2963479295</ele>
        <time>2015-08-07T11:40:13Z</time>
      </trkpt>
      <trkpt lat="45.42328" lon="0.73954">
        <ele>168.2963479295</ele>
        <time>2015-08-07T11:40:18Z</time>
      </trkpt>
      <trkpt lat="45.42323" lon="0.7395">
        <ele>167.26834441156</ele>
        <time>2015-08-07T11:40:23Z</time>
      </trkpt>
      <trkpt lat="45.42316" lon="0.73951">
        <ele>167.26834441156</ele>
        <time>2015-08-07T11:40:28Z</time>
      </trkpt>
      <trkpt lat="45.42308" lon="0.73951">
        <ele>166.90519703791</ele>
        <time>2015-08-07T11:40:33Z</time>
      </trkpt>
      <trkpt lat="45.423" lon="0.73955">
        <ele>166.90519703791</ele>
        <time>2015-08-07T11:40:38Z</time>
      </trkpt>
      <trkpt lat="45.42294" lon="0.73956">
        <ele>166.53965447269</ele>
        <time>2015-08-07T11:40:43Z</time>
      </trkpt>
      <trkpt lat="45.42285" lon="0.7396">
        <ele>166.2883506216</ele>
        <time>2015-08-07T11:40:48Z</time>
      </trkpt>
      <trkpt lat="45.42278" lon="0.73966">
        <ele>166.2883506216</ele>
        <time>2015-08-07T11:40:53Z</time>
      </trkpt>
      <trkpt lat="45.42273" lon="0.73968">
        <ele>165.53837391527</ele>
        <time>2015-08-07T11:40:58Z</time>
      </trkpt>
      <trkpt lat="45.42267" lon="0.73968">
        <ele>165.53837391527</ele>
        <time>2015-08-07T11:41:03Z</time>
      </trkpt>
      <trkpt lat="45.4226" lon="0.73972">
        <ele>164.37163759433</ele>
        <time>2015-08-07T11:41:08Z</time>
      </trkpt>
      <trkpt lat="45.42256" lon="0.73972">
        <ele>164.37163759433</ele>
        <time>2015-08-07T11:41:13Z</time>
      </trkpt>
      <trkpt lat="45.42248" lon="0.73977">
        <ele>163.13892089478</ele>
        <time>2015-08-07T11:41:18Z</time>
      </trkpt>
      <trkpt lat="45.42242" lon="0.7398">
        <ele>163.13892089478</ele>
        <time>2015-08-07T11:41:23Z</time>
      </trkpt>
      <trkpt lat="45.42234" lon="0.73983">
        <ele>162.35266817812</ele>
        <time>2015-08-07T11:41:28Z</time>
      </trkpt>
      <trkpt lat="45.42226" lon="0.73987">
        <ele>162.35266817812</ele>
        <time>2015-08-07T11:41:33Z</time>
      </trkpt>
      <trkpt lat="45.4222" lon="0.73989">
        <ele>161.33344110294</ele>
        <time>2015-08-07T11:41:38Z</time>
      </trkpt>
      <trkpt lat="45.42215" lon="0.73982">
        <ele>161.33344110294</ele>
        <time>2015-08-07T11:41:43Z</time>
      </trkpt>
      <trkpt lat="45.42215" lon="0.73972">
        <ele>160.10076851319</ele>
        <time>2015-08-07T11:41:48Z</time>
      </trkpt>
      <trkpt lat="45.42215" lon="0.73962">
        <ele>160.10076851319</ele>
        <time>2015-08-07T11:41:53Z</time>
      </trkpt>
      <trkpt lat="45.42215" lon="0.73961">
        <ele>160.10076851319</ele>
        <time>2015-08-07T11:41:58Z</time>
      </trkpt>
      <trkpt lat="45.42215" lon="0.73956">
        <ele>158.54354473674</ele>
        <time>2015-08-07T11:42:03Z</time>
      </trkpt>
      <trkpt lat="45.42214" lon="0.73947">
        <ele>158.54354473674</ele>
        <time>2015-08-07T11:42:08Z</time>
      </trkpt>
      <trkpt lat="45.42212" lon="0.73937">
        <ele>156.9631476153</ele>
        <time>2015-08-07T11:42:13Z</time>
      </trkpt>
      <trkpt lat="45.42211" lon="0.73928">
        <ele>156.9631476153</ele>
        <time>2015-08-07T11:42:18Z</time>
      </trkpt>
      <trkpt lat="45.42211" lon="0.73918">
        <ele>155.4370231054</ele>
        <time>2015-08-07T11:42:23Z</time>
      </trkpt>
      <trkpt lat="45.4221" lon="0.73909">
        <ele>155.4370231054</ele>
        <time>2015-08-07T11:42:28Z</time>
      </trkpt>
      <trkpt lat="45.4221" lon="0.73899">
        <ele>154.12313794597</ele>
        <time>2015-08-07T11:42:33Z</time>
      </trkpt>
      <trkpt lat="45.42206" lon="0.73888">
        <ele>154.12313794597</ele>
        <time>2015-08-07T11:42:38Z</time>
      </trkpt>
      <trkpt lat="45.422" lon="0.73879">
        <ele>152.90775296796</ele>
        <time>2015-08-07T11:42:43Z</time>
      </trkpt>
      <trkpt lat="45.42196" lon="0.73869">
        <ele>152.90775296796</ele>
        <time>2015-08-07T11:42:48Z</time>
      </trkpt>
      <trkpt lat="45.42183" lon="0.73862">
        <ele>151.44011156202</ele>
        <time>2015-08-07T11:42:53Z</time>
      </trkpt>
      <trkpt lat="45.42163" lon="0.73844">
        <ele>149.68404532162</ele>
        <time>2015-08-07T11:42:58Z</time>
      </trkpt>
      <trkpt lat="45.42142" lon="0.73806">
        <ele>149.50901301277</ele>
        <time>2015-08-07T11:43:03Z</time>
      </trkpt>
      <trkpt lat="45.42114" lon="0.73776">
        <ele>149.74597205139</ele>
        <time>2015-08-07T11:43:08Z</time>
      </trkpt>
      <trkpt lat="45.42092" lon="0.73751">
        <ele>150.65074084511</ele>
        <time>2015-08-07T11:43:13Z</time>
      </trkpt>
      <trkpt lat="45.42066" lon="0.7375">
        <ele>152.05487964139</ele>
        <time>2015-08-07T11:43:18Z</time>
      </trkpt>
      <trkpt lat="45.42059" lon="0.73747">
        <ele>152.05487964139</ele>
        <time>2015-08-07T11:43:23Z</time>
      </trkpt>
      <trkpt lat="45.42054" lon="0.73742">
        <ele>154.00261397277</ele>
        <time>2015-08-07T11:43:28Z</time>
      </trkpt>
      <trkpt lat="45.42045" lon="0.73743">
        <ele>155.29399623069</ele>
        <time>2015-08-07T11:43:33Z</time>
      </trkpt>
      <trkpt lat="45.42037" lon="0.73745">
        <ele>155.29399623069</ele>
        <time>2015-08-07T11:43:38Z</time>
      </trkpt>
      <trkpt lat="45.42032" lon="0.73742">
        <ele>156.89424581762</ele>
        <time>2015-08-07T11:43:43Z</time>
      </trkpt>
      <trkpt lat="45.42021" lon="0.73744">
        <ele>158.1404077033</ele>
        <time>2015-08-07T11:43:48Z</time>
      </trkpt>
      <trkpt lat="45.42018" lon="0.73735">
        <ele>158.1404077033</ele>
        <time>2015-08-07T11:43:53Z</time>
      </trkpt>
      <trkpt lat="45.42012" lon="0.73734">
        <ele>159.08214606104</ele>
        <time>2015-08-07T11:43:58Z</time>
      </trkpt>
      <trkpt lat="45.42009" lon="0.73732">
        <ele>159.08214606104</ele>
        <time>2015-08-07T11:44:03Z</time>
      </trkpt>
      <trkpt lat="45.42001" lon="0.73731">
        <ele>159.39166924631</ele>
        <time>2015-08-07T11:44:08Z</time>
      </trkpt>
      <trkpt lat="45.41995" lon="0.73732">
        <ele>159.39166924631</ele>
        <time>2015-08-07T11:44:13Z</time>
      </trkpt>
      <trkpt lat="45.41989" lon="0.73734">
        <ele>160.16495561665</ele>
        <time>2015-08-07T11:44:18Z</time>
      </trkpt>
      <trkpt lat="45.41982" lon="0.73735">
        <ele>160.16495561665</ele>
        <time>2015-08-07T11:44:23Z</time>
      </trkpt>
      <trkpt lat="45.41976" lon="0.73739">
        <ele>161.19127538773</ele>
        <time>2015-08-07T11:44:28Z</time>
      </trkpt>
      <trkpt lat="45.41968" lon="0.73743">
        <ele>161.19127538773</ele>
        <time>2015-08-07T11:44:33Z</time>
      </trkpt>
      <trkpt lat="45.41963" lon="0.73748">
        <ele>162.40442482512</ele>
        <time>2015-08-07T11:44:38Z</time>
      </trkpt>
      <trkpt lat="45.41957" lon="0.7375">
        <ele>162.40442482512</ele>
        <time>2015-08-07T11:44:43Z</time>
      </trkpt>
      <trkpt lat="45.41949" lon="0.73753">
        <ele>163.05086864155</ele>
        <time>2015-08-07T11:44:48Z</time>
      </trkpt>
      <trkpt lat="45.41943" lon="0.73756">
        <ele>163.05086864155</ele>
        <time>2015-08-07T11:44:53Z</time>
      </trkpt>
      <trkpt lat="45.41933" lon="0.73753">
        <ele>163.54374132076</ele>
        <time>2015-08-07T11:44:58Z</time>
      </trkpt>
      <trkpt lat="45.41929" lon="0.73755">
        <ele>163.54374132076</ele>
        <time>2015-08-07T11:45:03Z</time>
      </trkpt>
      <trkpt lat="45.41922" lon="0.73757">
        <ele>163.83400093426</ele>
        <time>2015-08-07T11:45:08Z</time>
      </trkpt>
      <trkpt lat="45.41916" lon="0.73757">
        <ele>163.83400093426</ele>
        <time>2015-08-07T11:45:13Z</time>
      </trkpt>
      <trkpt lat="45.41908" lon="0.73755">
        <ele>164.17948802715</ele>
        <time>2015-08-07T11:45:18Z</time>
      </trkpt>
      <trkpt lat="45.41902" lon="0.73755">
        <ele>164.17948802715</ele>
        <time>2015-08-07T11:45:23Z</time>
      </trkpt>
      <trkpt lat="45.41893" lon="0.73761">
        <ele>164.34345953522</ele>
        <time>2015-08-07T11:45:28Z</time>
      </trkpt>
      <trkpt lat="45.41876" lon="0.73764">
        <ele>164.16479534868</ele>
        <time>2015-08-07T11:45:33Z</time>
      </trkpt>
      <trkpt lat="45.4185" lon="0.73763">
        <ele>163.88434870092</ele>
        <time>2015-08-07T11:45:38Z</time>
      </trkpt>
      <trkpt lat="45.4184" lon="0.73755">
        <ele>164.69118506792</ele>
        <time>2015-08-07T11:45:43Z</time>
      </trkpt>
      <trkpt lat="45.41833" lon="0.73751">
        <ele>164.69118506792</ele>
        <time>2015-08-07T11:45:48Z</time>
      </trkpt>
      <trkpt lat="45.41829" lon="0.73743">
        <ele>165.45032221692</ele>
        <time>2015-08-07T11:45:53Z</time>
      </trkpt>
      <trkpt lat="45.41825" lon="0.73738">
        <ele>165.45032221692</ele>
        <time>2015-08-07T11:45:58Z</time>
      </trkpt>
      <trkpt lat="45.41819" lon="0.73727">
        <ele>166.83969563635</ele>
        <time>2015-08-07T11:46:03Z</time>
      </trkpt>
      <trkpt lat="45.41815" lon="0.73714">
        <ele>168.96695161222</ele>
        <time>2015-08-07T11:46:08Z</time>
      </trkpt>
      <trkpt lat="45.41818" lon="0.73705">
        <ele>168.96695161222</ele>
        <time>2015-08-07T11:46:13Z</time>
      </trkpt>
      <trkpt lat="45.41821" lon="0.73695">
        <ele>170.96430151856</ele>
        <time>2015-08-07T11:46:18Z</time>
      </trkpt>
      <trkpt lat="45.41823" lon="0.73685">
        <ele>170.96430151856</ele>
        <time>2015-08-07T11:46:23Z</time>
      </trkpt>
      <trkpt lat="45.41823" lon="0.73674">
        <ele>173.55574476335</ele>
        <time>2015-08-07T11:46:28Z</time>
      </trkpt>
      <trkpt lat="45.41824" lon="0.73669">
        <ele>173.55574476335</ele>
        <time>2015-08-07T11:46:33Z</time>
      </trkpt>
      <trkpt lat="45.41821" lon="0.73659">
        <ele>175.40739332512</ele>
        <time>2015-08-07T11:46:38Z</time>
      </trkpt>
      <trkpt lat="45.41821" lon="0.73648">
        <ele>175.40739332512</ele>
        <time>2015-08-07T11:46:43Z</time>
      </trkpt>
      <trkpt lat="45.41825" lon="0.73636">
        <ele>177.53367556144</ele>
        <time>2015-08-07T11:46:48Z</time>
      </trkpt>
      <trkpt lat="45.41827" lon="0.73628">
        <ele>177.53367556144</ele>
        <time>2015-08-07T11:46:53Z</time>
      </trkpt>
      <trkpt lat="45.41829" lon="0.73618">
        <ele>178.56807961644</ele>
        <time>2015-08-07T11:46:58Z</time>
      </trkpt>
      <trkpt lat="45.41831" lon="0.73609">
        <ele>178.56807961644</ele>
        <time>2015-08-07T11:47:03Z</time>
      </trkpt>
      <trkpt lat="45.41833" lon="0.73597">
        <ele>179.39492945913</ele>
        <time>2015-08-07T11:47:08Z</time>
      </trkpt>
      <trkpt lat="45.41835" lon="0.73586">
        <ele>179.39492945913</ele>
        <time>2015-08-07T11:47:13Z</time>
      </trkpt>
      <trkpt lat="45.41836" lon="0.73578">
        <ele>179.94081420022</ele>
        <time>2015-08-07T11:47:18Z</time>
      </trkpt>
      <trkpt lat="45.4184" lon="0.7357">
        <ele>179.94081420022</ele>
        <time>2015-08-07T11:47:23Z</time>
      </trkpt>
      <trkpt lat="45.41841" lon="0.73565">
        <ele>180.21069072935</ele>
        <time>2015-08-07T11:47:28Z</time>
      </trkpt>
      <trkpt lat="45.41845" lon="0.73555">
        <ele>180.21069072935</ele>
        <time>2015-08-07T11:47:33Z</time>
      </trkpt>
      <trkpt lat="45.41847" lon="0.73546">
        <ele>180.49827394946</ele>
        <time>2015-08-07T11:47:38Z</time>
      </trkpt>
      <trkpt lat="45.41852" lon="0.73539">
        <ele>180.49827394946</ele>
        <time>2015-08-07T11:47:43Z</time>
      </trkpt>
      <trkpt lat="45.41856" lon="0.7353">
        <ele>180.49932624313</ele>
        <time>2015-08-07T11:47:48Z</time>
      </trkpt>
      <trkpt lat="45.41858" lon="0.73524">
        <ele>180.49932624313</ele>
        <time>2015-08-07T11:47:53Z</time>
      </trkpt>
      <trkpt lat="45.41864" lon="0.73515">
        <ele>180.71107287869</ele>
        <time>2015-08-07T11:47:58Z</time>
      </trkpt>
      <trkpt lat="45.41867" lon="0.73504">
        <ele>180.71107287869</ele>
        <time>2015-08-07T11:48:03Z</time>
      </trkpt>
      <trkpt lat="45.41869" lon="0.73494">
        <ele>180.64258904571</ele>
        <time>2015-08-07T11:48:08Z</time>
      </trkpt>
      <trkpt lat="45.41871" lon="0.73485">
        <ele>180.64258904571</ele>
        <time>2015-08-07T11:48:13Z</time>
      </trkpt>
      <trkpt lat="45.41872" lon="0.73479">
        <ele>180.57485740766</ele>
        <time>2015-08-07T11:48:18Z</time>
      </trkpt>
      <trkpt lat="45.41877" lon="0.73466">
        <ele>181.30151241415</ele>
        <time>2015-08-07T11:48:23Z</time>
      </trkpt>
      <trkpt lat="45.41879" lon="0.73452">
        <ele>181.55259066821</ele>
        <time>2015-08-07T11:48:28Z</time>
      </trkpt>
      <trkpt lat="45.41881" lon="0.73442">
        <ele>181.55259066821</ele>
        <time>2015-08-07T11:48:33Z</time>
      </trkpt>
      <trkpt lat="45.41881" lon="0.73434">
        <ele>181.46423381707</ele>
        <time>2015-08-07T11:48:38Z</time>
      </trkpt>
      <trkpt lat="45.41881" lon="0.73424">
        <ele>181.46423381707</ele>
        <time>2015-08-07T11:48:43Z</time>
      </trkpt>
      <trkpt lat="45.4188" lon="0.73413">
        <ele>181.35094109292</ele>
        <time>2015-08-07T11:48:48Z</time>
      </trkpt>
      <trkpt lat="45.41881" lon="0.73404">
        <ele>181.35094109292</ele>
        <time>2015-08-07T11:48:53Z</time>
      </trkpt>
      <trkpt lat="45.41882" lon="0.73398">
        <ele>181.59070074115</ele>
        <time>2015-08-07T11:48:58Z</time>
      </trkpt>
      <trkpt lat="45.41881" lon="0.73393">
        <ele>181.59070074115</ele>
        <time>2015-08-07T11:49:03Z</time>
      </trkpt>
      <trkpt lat="45.41882" lon="0.73385">
        <ele>181.95634761452</ele>
        <time>2015-08-07T11:49:08Z</time>
      </trkpt>
      <trkpt lat="45.41883" lon="0.73379">
        <ele>181.95634761452</ele>
        <time>2015-08-07T11:49:13Z</time>
      </trkpt>
      <trkpt lat="45.41884" lon="0.73368">
        <ele>182.1794485535</ele>
        <time>2015-08-07T11:49:18Z</time>
      </trkpt>
      <trkpt lat="45.41885" lon="0.73355">
        <ele>182.63140461806</ele>
        <time>2015-08-07T11:49:23Z</time>
      </trkpt>
      <trkpt lat="45.41886" lon="0.73344">
        <ele>182.63140461806</ele>
        <time>2015-08-07T11:49:28Z</time>
      </trkpt>
      <trkpt lat="45.41884" lon="0.73335">
        <ele>183.79983793787</ele>
        <time>2015-08-07T11:49:33Z</time>
      </trkpt>
      <trkpt lat="45.41884" lon="0.73331">
        <ele>183.79983793787</ele>
        <time>2015-08-07T11:49:38Z</time>
      </trkpt>
      <trkpt lat="45.41886" lon="0.73327">
        <ele>183.79983793787</ele>
        <time>2015-08-07T11:49:43Z</time>
      </trkpt>
      <trkpt lat="45.41886" lon="0.73322">
        <ele>184.52052809083</ele>
        <time>2015-08-07T11:49:48Z</time>
      </trkpt>
      <trkpt lat="45.41886" lon="0.73316">
        <ele>184.52052809083</ele>
        <time>2015-08-07T11:49:53Z</time>
      </trkpt>
      <trkpt lat="45.41884" lon="0.73305">
        <ele>184.96983245866</ele>
        <time>2015-08-07T11:49:59Z</time>
      </trkpt>
      <trkpt lat="45.41886" lon="0.73283">
        <ele>186.43601438199</ele>
        <time>2015-08-07T11:50:08Z</time>
      </trkpt>
      <trkpt lat="45.4189" lon="0.73275">
        <ele>186.43601438199</ele>
        <time>2015-08-07T11:50:13Z</time>
      </trkpt>
      <trkpt lat="45.41891" lon="0.73253">
        <ele>187.0835479332</ele>
        <time>2015-08-07T11:50:23Z</time>
      </trkpt>
      <trkpt lat="45.41892" lon="0.73242">
        <ele>187.0835479332</ele>
        <time>2015-08-07T11:50:28Z</time>
      </trkpt>
      <trkpt lat="45.41892" lon="0.73234">
        <ele>187.1307508074</ele>
        <time>2015-08-07T11:50:33Z</time>
      </trkpt>
      <trkpt lat="45.41892" lon="0.73222">
        <ele>187.1307508074</ele>
        <time>2015-08-07T11:50:38Z</time>
      </trkpt>
      <trkpt lat="45.41888" lon="0.73212">
        <ele>187.06983947783</ele>
        <time>2015-08-07T11:50:43Z</time>
      </trkpt>
      <trkpt lat="45.41889" lon="0.73203">
        <ele>187.06983947783</ele>
        <time>2015-08-07T11:50:48Z</time>
      </trkpt>
      <trkpt lat="45.4189" lon="0.7319">
        <ele>187.28514686914</ele>
        <time>2015-08-07T11:50:53Z</time>
      </trkpt>
      <trkpt lat="45.4189" lon="0.73177">
        <ele>188.10319849455</ele>
        <time>2015-08-07T11:50:58Z</time>
      </trkpt>
      <trkpt lat="45.41892" lon="0.73167">
        <ele>188.10319849455</ele>
        <time>2015-08-07T11:51:03Z</time>
      </trkpt>
      <trkpt lat="45.41887" lon="0.73157">
        <ele>187.11556860043</ele>
        <time>2015-08-07T11:51:08Z</time>
      </trkpt>
      <trkpt lat="45.41889" lon="0.7315">
        <ele>187.11556860043</ele>
        <time>2015-08-07T11:51:13Z</time>
      </trkpt>
      <trkpt lat="45.41889" lon="0.73139">
        <ele>186.39034059644</ele>
        <time>2015-08-07T11:51:18Z</time>
      </trkpt>
      <trkpt lat="45.41888" lon="0.7313">
        <ele>186.39034059644</ele>
        <time>2015-08-07T11:51:23Z</time>
      </trkpt>
      <trkpt lat="45.41888" lon="0.73121">
        <ele>185.50834197101</ele>
        <time>2015-08-07T11:51:28Z</time>
      </trkpt>
      <trkpt lat="45.41887" lon="0.73114">
        <ele>185.50834197101</ele>
        <time>2015-08-07T11:51:33Z</time>
      </trkpt>
      <trkpt lat="45.41888" lon="0.73114">
        <ele>185.50834197101</ele>
        <time>2015-08-07T11:51:38Z</time>
      </trkpt>
      <trkpt lat="45.41888" lon="0.73111">
        <ele>185.50834197101</ele>
        <time>2015-08-07T11:51:43Z</time>
      </trkpt>
      <trkpt lat="45.41886" lon="0.73103">
        <ele>186.05594897014</ele>
        <time>2015-08-07T11:51:48Z</time>
      </trkpt>
      <trkpt lat="45.41886" lon="0.73099">
        <ele>186.05594897014</ele>
        <time>2015-08-07T11:51:53Z</time>
      </trkpt>
      <trkpt lat="45.41886" lon="0.73097">
        <ele>186.05594897014</ele>
        <time>2015-08-07T11:51:58Z</time>
      </trkpt>
      <trkpt lat="45.41886" lon="0.73096">
        <ele>186.05594897014</ele>
        <time>2015-08-07T11:52:03Z</time>
      </trkpt>
      <trkpt lat="45.41886" lon="0.73096">
        <ele>186.05594897014</ele>
        <time>2015-08-07T11:52:08Z</time>
      </trkpt>
      <trkpt lat="45.41886" lon="0.73096">
        <ele>186.05594897014</ele>
        <time>2015-08-07T11:52:13Z</time>
      </trkpt>
      <trkpt lat="45.41886" lon="0.73096">
        <ele>186.05594897014</ele>
        <time>2015-08-07T11:52:18Z</time>
      </trkpt>
      <trkpt lat="45.41886" lon="0.73096">
        <ele>186.05594897014</ele>
        <time>2015-08-07T11:52:23Z</time>
      </trkpt>
      <trkpt lat="45.41886" lon="0.73096">
        <ele>186.05594897014</ele>
        <time>2015-08-07T11:52:28Z</time>
      </trkpt>
      <trkpt lat="45.41886" lon="0.73096">
        <ele>186.05594897014</ele>
        <time>2015-08-07T11:52:33Z</time>
      </trkpt>
      <trkpt lat="45.41886" lon="0.73096">
        <ele>186.05594897014</ele>
        <time>2015-08-07T11:52:38Z</time>
      </trkpt>
      <trkpt lat="45.41886" lon="0.73096">
        <ele>186.05594897014</ele>
        <time>2015-08-07T11:52:43Z</time>
      </trkpt>
      <trkpt lat="45.41886" lon="0.73096">
        <ele>186.05594897014</ele>
        <time>2015-08-07T11:52:48Z</time>
      </trkpt>
      <trkpt lat="45.41886" lon="0.73095">
        <ele>186.05594897014</ele>
        <time>2015-08-07T11:52:53Z</time>
      </trkpt>
      <trkpt lat="45.41886" lon="0.73095">
        <ele>186.05594897014</ele>
        <time>2015-08-07T11:52:58Z</time>
      </trkpt>
      <trkpt lat="45.41886" lon="0.73095">
        <ele>186.05594897014</ele>
        <time>2015-08-07T11:53:03Z</time>
      </trkpt>
      <trkpt lat="45.41886" lon="0.73095">
        <ele>186.05594897014</ele>
        <time>2015-08-07T11:53:08Z</time>
      </trkpt>
      <trkpt lat="45.41886" lon="0.73095">
        <ele>186.05594897014</ele>
        <time>2015-08-07T11:53:13Z</time>
      </trkpt>
      <trkpt lat="45.41886" lon="0.73095">
        <ele>186.05594897014</ele>
        <time>2015-08-07T11:53:18Z</time>
      </trkpt>
      <trkpt lat="45.41886" lon="0.73095">
        <ele>186.05594897014</ele>
        <time>2015-08-07T11:53:23Z</time>
      </trkpt>
      <trkpt lat="45.41886" lon="0.73095">
        <ele>186.05594897014</ele>
        <time>2015-08-07T11:53:28Z</time>
      </trkpt>
      <trkpt lat="45.41886" lon="0.73095">
        <ele>186.05594897014</ele>
        <time>2015-08-07T11:53:33Z</time>
      </trkpt>
      <trkpt lat="45.41886" lon="0.73095">
        <ele>186.05594897014</ele>
        <time>2015-08-07T11:53:38Z</time>
      </trkpt>
      <trkpt lat="45.41886" lon="0.73095">
        <ele>186.05594897014</ele>
        <time>2015-08-07T11:53:43Z</time>
      </trkpt>
      <trkpt lat="45.41886" lon="0.73094">
        <ele>186.05594897014</ele>
        <time>2015-08-07T11:53:48Z</time>
      </trkpt>
      <trkpt lat="45.4189" lon="0.73098">
        <ele>187.23643550915</ele>
        <time>2015-08-07T11:53:53Z</time>
      </trkpt>
      <trkpt lat="45.41887" lon="0.73098">
        <ele>187.23643550915</ele>
        <time>2015-08-07T11:53:58Z</time>
      </trkpt>
      <trkpt lat="45.41885" lon="0.73098">
        <ele>187.23643550915</ele>
        <time>2015-08-07T11:54:03Z</time>
      </trkpt>
      <trkpt lat="45.41884" lon="0.73098">
        <ele>187.23643550915</ele>
        <time>2015-08-07T11:54:08Z</time>
      </trkpt>
      <trkpt lat="45.41883" lon="0.73098">
        <ele>187.23643550915</ele>
        <time>2015-08-07T11:54:13Z</time>
      </trkpt>
      <trkpt lat="45.41889" lon="0.73091">
        <ele>188.65568027992</ele>
        <time>2015-08-07T11:54:29Z</time>
      </trkpt>
      <trkpt lat="45.4189" lon="0.73091">
        <ele>188.65568027992</ele>
        <time>2015-08-07T11:54:34Z</time>
      </trkpt>
      <trkpt lat="45.41887" lon="0.7309">
        <ele>188.65568027992</ele>
        <time>2015-08-07T11:54:44Z</time>
      </trkpt>
      <trkpt lat="45.41886" lon="0.7309">
        <ele>188.65568027992</ele>
        <time>2015-08-07T11:54:49Z</time>
      </trkpt>
      <trkpt lat="45.41883" lon="0.7309">
        <ele>188.65568027992</ele>
        <time>2015-08-07T11:54:59Z</time>
      </trkpt>
      <trkpt lat="45.41883" lon="0.73091">
        <ele>188.65568027992</ele>
        <time>2015-08-07T11:55:03Z</time>
      </trkpt>
      <trkpt lat="45.41883" lon="0.7309">
        <ele>188.65568027992</ele>
        <time>2015-08-07T11:55:15Z</time>
      </trkpt>
      <trkpt lat="45.41883" lon="0.7309">
        <ele>188.65568027992</ele>
        <time>2015-08-07T11:55:19Z</time>
      </trkpt>
      <trkpt lat="45.41883" lon="0.7309">
        <ele>188.65568027992</ele>
        <time>2015-08-07T11:55:29Z</time>
      </trkpt>
      <trkpt lat="45.41883" lon="0.7309">
        <ele>188.65568027992</ele>
        <time>2015-08-07T11:55:34Z</time>
      </trkpt>
      <trkpt lat="45.41883" lon="0.73092">
        <ele>189.99106672081</ele>
        <time>2015-08-07T11:55:44Z</time>
      </trkpt>
      <trkpt lat="45.41884" lon="0.73092">
        <ele>189.99106672081</ele>
        <time>2015-08-07T11:55:49Z</time>
      </trkpt>
      <trkpt lat="45.41886" lon="0.7309">
        <ele>189.99106672081</ele>
        <time>2015-08-07T11:56:04Z</time>
      </trkpt>
      <trkpt lat="45.41887" lon="0.7309">
        <ele>189.99106672081</ele>
        <time>2015-08-07T11:56:09Z</time>
      </trkpt>
      <trkpt lat="45.41889" lon="0.73094">
        <ele>189.99106672081</ele>
        <time>2015-08-07T11:56:19Z</time>
      </trkpt>
      <trkpt lat="45.41889" lon="0.73094">
        <ele>189.99106672081</ele>
        <time>2015-08-07T11:56:24Z</time>
      </trkpt>
      <trkpt lat="45.41889" lon="0.73094">
        <ele>189.99106672081</ele>
        <time>2015-08-07T11:56:34Z</time>
      </trkpt>
      <trkpt lat="45.41889" lon="0.73094">
        <ele>189.99106672081</ele>
        <time>2015-08-07T11:56:39Z</time>
      </trkpt>
      <trkpt lat="45.41889" lon="0.73094">
        <ele>189.99106672081</ele>
        <time>2015-08-07T11:56:49Z</time>
      </trkpt>
      <trkpt lat="45.41889" lon="0.73094">
        <ele>189.99106672081</ele>
        <time>2015-08-07T11:56:54Z</time>
      </trkpt>
      <trkpt lat="45.41889" lon="0.73094">
        <ele>189.99106672081</ele>
        <time>2015-08-07T11:57:03Z</time>
      </trkpt>
      <trkpt lat="45.41886" lon="0.73093">
        <ele>191.79416499686</ele>
        <time>2015-08-07T11:57:08Z</time>
      </trkpt>
      <trkpt lat="45.41884" lon="0.73092">
        <ele>191.79416499686</ele>
        <time>2015-08-07T11:57:13Z</time>
      </trkpt>
      <trkpt lat="45.41884" lon="0.73092">
        <ele>191.79416499686</ele>
        <time>2015-08-07T11:57:18Z</time>
      </trkpt>
      <trkpt lat="45.41884" lon="0.73092">
        <ele>191.79416499686</ele>
        <time>2015-08-07T11:57:23Z</time>
      </trkpt>
      <trkpt lat="45.41885" lon="0.7309">
        <ele>191.79416499686</ele>
        <time>2015-08-07T11:57:28Z</time>
      </trkpt>
      <trkpt lat="45.41885" lon="0.7309">
        <ele>191.79416499686</ele>
        <time>2015-08-07T11:57:33Z</time>
      </trkpt>
      <trkpt lat="45.41882" lon="0.73082">
        <ele>192.80215119603</ele>
        <time>2015-08-07T11:57:38Z</time>
      </trkpt>
      <trkpt lat="45.41881" lon="0.73076">
        <ele>192.80215119603</ele>
        <time>2015-08-07T11:57:43Z</time>
      </trkpt>
      <trkpt lat="45.41882" lon="0.73068">
        <ele>193.80711994894</ele>
        <time>2015-08-07T11:57:48Z</time>
      </trkpt>
      <trkpt lat="45.41886" lon="0.73061">
        <ele>193.80711994894</ele>
        <time>2015-08-07T11:57:53Z</time>
      </trkpt>
      <trkpt lat="45.41891" lon="0.73052">
        <ele>194.2892344844</ele>
        <time>2015-08-07T11:57:58Z</time>
      </trkpt>
      <trkpt lat="45.41891" lon="0.73043">
        <ele>194.2892344844</ele>
        <time>2015-08-07T11:58:03Z</time>
      </trkpt>
      <trkpt lat="45.41892" lon="0.73033">
        <ele>194.46006105415</ele>
        <time>2015-08-07T11:58:08Z</time>
      </trkpt>
      <trkpt lat="45.41892" lon="0.73024">
        <ele>194.46006105415</ele>
        <time>2015-08-07T11:58:13Z</time>
      </trkpt>
      <trkpt lat="45.41894" lon="0.73014">
        <ele>194.25711155939</ele>
        <time>2015-08-07T11:58:18Z</time>
      </trkpt>
      <trkpt lat="45.41894" lon="0.73003">
        <ele>194.25711155939</ele>
        <time>2015-08-07T11:58:23Z</time>
      </trkpt>
      <trkpt lat="45.41895" lon="0.73001">
        <ele>194.25711155939</ele>
        <time>2015-08-07T11:58:28Z</time>
      </trkpt>
      <trkpt lat="45.4189" lon="0.72999">
        <ele>193.27767883868</ele>
        <time>2015-08-07T11:58:33Z</time>
      </trkpt>
      <trkpt lat="45.4189" lon="0.72998">
        <ele>193.27767883868</ele>
        <time>2015-08-07T11:58:38Z</time>
      </trkpt>
      <trkpt lat="45.41891" lon="0.72999">
        <ele>193.27767883868</ele>
        <time>2015-08-07T11:58:43Z</time>
      </trkpt>
      <trkpt lat="45.41895" lon="0.73003">
        <ele>193.27767883868</ele>
        <time>2015-08-07T11:58:48Z</time>
      </trkpt>
      <trkpt lat="45.41892" lon="0.72995">
        <ele>192.07312859222</ele>
        <time>2015-08-07T11:58:53Z</time>
      </trkpt>
      <trkpt lat="45.41892" lon="0.72991">
        <ele>192.07312859222</ele>
        <time>2015-08-07T11:58:58Z</time>
      </trkpt>
      <trkpt lat="45.41892" lon="0.72991">
        <ele>192.07312859222</ele>
        <time>2015-08-07T11:59:03Z</time>
      </trkpt>
      <trkpt lat="45.41893" lon="0.72992">
        <ele>192.07312859222</ele>
        <time>2015-08-07T11:59:08Z</time>
      </trkpt>
      <trkpt lat="45.41893" lon="0.72994">
        <ele>192.07312859222</ele>
        <time>2015-08-07T11:59:14Z</time>
      </trkpt>
      <trkpt lat="45.41895" lon="0.72997">
        <ele>192.07312859222</ele>
        <time>2015-08-07T11:59:24Z</time>
      </trkpt>
      <trkpt lat="45.41898" lon="0.72997">
        <ele>192.04843604668</ele>
        <time>2015-08-07T11:59:29Z</time>
      </trkpt>
      <trkpt lat="45.41896" lon="0.72991">
        <ele>192.04843604668</ele>
        <time>2015-08-07T11:59:39Z</time>
      </trkpt>
      <trkpt lat="45.41898" lon="0.72992">
        <ele>192.04843604668</ele>
        <time>2015-08-07T11:59:44Z</time>
      </trkpt>
      <trkpt lat="45.41899" lon="0.72992">
        <ele>192.04843604668</ele>
        <time>2015-08-07T11:59:54Z</time>
      </trkpt>
      <trkpt lat="45.41899" lon="0.72992">
        <ele>192.04843604668</ele>
        <time>2015-08-07T11:59:59Z</time>
      </trkpt>
      <trkpt lat="45.41897" lon="0.7299">
        <ele>191.73510582763</ele>
        <time>2015-08-07T12:00:09Z</time>
      </trkpt>
      <trkpt lat="45.41897" lon="0.7299">
        <ele>191.73510582763</ele>
        <time>2015-08-07T12:00:14Z</time>
      </trkpt>
      <trkpt lat="45.41898" lon="0.72993">
        <ele>191.73510582763</ele>
        <time>2015-08-07T12:00:29Z</time>
      </trkpt>
      <trkpt lat="45.41898" lon="0.72994">
        <ele>191.73510582763</ele>
        <time>2015-08-07T12:00:33Z</time>
      </trkpt>
      <trkpt lat="45.41898" lon="0.72996">
        <ele>191.73510582763</ele>
        <time>2015-08-07T12:00:44Z</time>
      </trkpt>
      <trkpt lat="45.41898" lon="0.72996">
        <ele>191.73510582763</ele>
        <time>2015-08-07T12:00:49Z</time>
      </trkpt>
      <trkpt lat="45.41895" lon="0.72993">
        <ele>190.89736740591</ele>
        <time>2015-08-07T12:00:59Z</time>
      </trkpt>
      <trkpt lat="45.41895" lon="0.72993">
        <ele>190.89736740591</ele>
        <time>2015-08-07T12:01:04Z</time>
      </trkpt>
      <trkpt lat="45.41893" lon="0.72998">
        <ele>190.89736740591</ele>
        <time>2015-08-07T12:01:14Z</time>
      </trkpt>
      <trkpt lat="45.41893" lon="0.72999">
        <ele>190.89736740591</ele>
        <time>2015-08-07T12:01:19Z</time>
      </trkpt>
      <trkpt lat="45.41886" lon="0.72992">
        <ele>189.95229555649</ele>
        <time>2015-08-07T12:01:29Z</time>
      </trkpt>
      <trkpt lat="45.41883" lon="0.7299">
        <ele>189.95229555649</ele>
        <time>2015-08-07T12:01:34Z</time>
      </trkpt>
      <trkpt lat="45.41883" lon="0.72988">
        <ele>189.95229555649</ele>
        <time>2015-08-07T12:01:44Z</time>
      </trkpt>
      <trkpt lat="45.41883" lon="0.72988">
        <ele>189.95229555649</ele>
        <time>2015-08-07T12:01:49Z</time>
      </trkpt>
      <trkpt lat="45.41885" lon="0.72985">
        <ele>189.95229555649</ele>
        <time>2015-08-07T12:01:59Z</time>
      </trkpt>
      <trkpt lat="45.41886" lon="0.72985">
        <ele>189.95229555649</ele>
        <time>2015-08-07T12:02:03Z</time>
      </trkpt>
      <trkpt lat="45.41886" lon="0.72985">
        <ele>189.95229555649</ele>
        <time>2015-08-07T12:02:08Z</time>
      </trkpt>
      <trkpt lat="45.41886" lon="0.72985">
        <ele>189.95229555649</ele>
        <time>2015-08-07T12:02:13Z</time>
      </trkpt>
      <trkpt lat="45.41886" lon="0.72985">
        <ele>189.95229555649</ele>
        <time>2015-08-07T12:02:18Z</time>
      </trkpt>
      <trkpt lat="45.41884" lon="0.72983">
        <ele>189.79097678195</ele>
        <time>2015-08-07T12:02:23Z</time>
      </trkpt>
      <trkpt lat="45.41882" lon="0.72978">
        <ele>189.79097678195</ele>
        <time>2015-08-07T12:02:28Z</time>
      </trkpt>
      <trkpt lat="45.41881" lon="0.72975">
        <ele>189.79097678195</ele>
        <time>2015-08-07T12:02:33Z</time>
      </trkpt>
      <trkpt lat="45.41878" lon="0.72969">
        <ele>189.07512547146</ele>
        <time>2015-08-07T12:02:38Z</time>
      </trkpt>
      <trkpt lat="45.41872" lon="0.72959">
        <ele>189.07512547146</ele>
        <time>2015-08-07T12:02:43Z</time>
      </trkpt>
      <trkpt lat="45.4187" lon="0.72947">
        <ele>189.18909245492</ele>
        <time>2015-08-07T12:02:48Z</time>
      </trkpt>
      <trkpt lat="45.41868" lon="0.72939">
        <ele>189.18909245492</ele>
        <time>2015-08-07T12:02:53Z</time>
      </trkpt>
      <trkpt lat="45.41867" lon="0.7293">
        <ele>189.28030677335</ele>
        <time>2015-08-07T12:02:58Z</time>
      </trkpt>
      <trkpt lat="45.41865" lon="0.72923">
        <ele>189.28030677335</ele>
        <time>2015-08-07T12:03:03Z</time>
      </trkpt>
      <trkpt lat="45.41863" lon="0.72918">
        <ele>189.27939036579</ele>
        <time>2015-08-07T12:03:08Z</time>
      </trkpt>
      <trkpt lat="45.41861" lon="0.72916">
        <ele>189.27939036579</ele>
        <time>2015-08-07T12:03:13Z</time>
      </trkpt>
      <trkpt lat="45.41861" lon="0.72915">
        <ele>189.27939036579</ele>
        <time>2015-08-07T12:03:18Z</time>
      </trkpt>
      <trkpt lat="45.41862" lon="0.72914">
        <ele>189.27939036579</ele>
        <time>2015-08-07T12:03:23Z</time>
      </trkpt>
      <trkpt lat="45.41863" lon="0.7291">
        <ele>189.27939036579</ele>
        <time>2015-08-07T12:03:28Z</time>
      </trkpt>
      <trkpt lat="45.41863" lon="0.72911">
        <ele>189.27939036579</ele>
        <time>2015-08-07T12:03:33Z</time>
      </trkpt>
      <trkpt lat="45.41864" lon="0.72911">
        <ele>189.27939036579</ele>
        <time>2015-08-07T12:03:38Z</time>
      </trkpt>
      <trkpt lat="45.41865" lon="0.72911">
        <ele>189.27939036579</ele>
        <time>2015-08-07T12:03:43Z</time>
      </trkpt>
      <trkpt lat="45.41864" lon="0.72911">
        <ele>189.27939036579</ele>
        <time>2015-08-07T12:03:48Z</time>
      </trkpt>
      <trkpt lat="45.41865" lon="0.72914">
        <ele>188.94932990092</ele>
        <time>2015-08-07T12:03:53Z</time>
      </trkpt>
      <trkpt lat="45.41865" lon="0.72914">
        <ele>188.94932990092</ele>
        <time>2015-08-07T12:03:58Z</time>
      </trkpt>
      <trkpt lat="45.41865" lon="0.72912">
        <ele>188.94932990092</ele>
        <time>2015-08-07T12:04:03Z</time>
      </trkpt>
      <trkpt lat="45.41864" lon="0.72911">
        <ele>188.94932990092</ele>
        <time>2015-08-07T12:04:08Z</time>
      </trkpt>
      <trkpt lat="45.41865" lon="0.72909">
        <ele>188.94932990092</ele>
        <time>2015-08-07T12:04:18Z</time>
      </trkpt>
      <trkpt lat="45.41867" lon="0.72907">
        <ele>188.94932990092</ele>
        <time>2015-08-07T12:04:24Z</time>
      </trkpt>
      <trkpt lat="45.41864" lon="0.72899">
        <ele>188.80635673381</ele>
        <time>2015-08-07T12:04:33Z</time>
      </trkpt>
      <trkpt lat="45.41865" lon="0.72897">
        <ele>188.80635673381</ele>
        <time>2015-08-07T12:04:40Z</time>
      </trkpt>
      <trkpt lat="45.41866" lon="0.72893">
        <ele>188.80635673381</ele>
        <time>2015-08-07T12:04:49Z</time>
      </trkpt>
      <trkpt lat="45.41865" lon="0.72892">
        <ele>188.80635673381</ele>
        <time>2015-08-07T12:04:54Z</time>
      </trkpt>
      <trkpt lat="45.41858" lon="0.72882">
        <ele>188.24736422382</ele>
        <time>2015-08-07T12:05:04Z</time>
      </trkpt>
      <trkpt lat="45.41858" lon="0.72879">
        <ele>188.24736422382</ele>
        <time>2015-08-07T12:05:09Z</time>
      </trkpt>
      <trkpt lat="45.41872" lon="0.72886">
        <ele>188.08371445187</ele>
        <time>2015-08-07T12:05:24Z</time>
      </trkpt>
      <trkpt lat="45.41873" lon="0.72888">
        <ele>188.08371445187</ele>
        <time>2015-08-07T12:05:29Z</time>
      </trkpt>
      <trkpt lat="45.41873" lon="0.72892">
        <ele>188.08371445187</ele>
        <time>2015-08-07T12:05:39Z</time>
      </trkpt>
      <trkpt lat="45.41871" lon="0.72892">
        <ele>188.08371445187</ele>
        <time>2015-08-07T12:05:44Z</time>
      </trkpt>
      <trkpt lat="45.41871" lon="0.72894">
        <ele>188.08371445187</ele>
        <time>2015-08-07T12:05:54Z</time>
      </trkpt>
      <trkpt lat="45.41877" lon="0.72895">
        <ele>187.5672421726</ele>
        <time>2015-08-07T12:05:59Z</time>
      </trkpt>
      <trkpt lat="45.41887" lon="0.72891">
        <ele>187.3026710587</ele>
        <time>2015-08-07T12:06:10Z</time>
      </trkpt>
      <trkpt lat="45.41889" lon="0.72888">
        <ele>187.3026710587</ele>
        <time>2015-08-07T12:06:14Z</time>
      </trkpt>
      <trkpt lat="45.41894" lon="0.72885">
        <ele>187.3026710587</ele>
        <time>2015-08-07T12:06:24Z</time>
      </trkpt>
      <trkpt lat="45.41897" lon="0.72884">
        <ele>186.7831102124</ele>
        <time>2015-08-07T12:06:29Z</time>
      </trkpt>
      <trkpt lat="45.419" lon="0.72877">
        <ele>186.7831102124</ele>
        <time>2015-08-07T12:06:38Z</time>
      </trkpt>
      <trkpt lat="45.41905" lon="0.72874">
        <ele>186.01512255586</ele>
        <time>2015-08-07T12:06:43Z</time>
      </trkpt>
      <trkpt lat="45.41909" lon="0.72876">
        <ele>186.01512255586</ele>
        <time>2015-08-07T12:06:48Z</time>
      </trkpt>
      <trkpt lat="45.41912" lon="0.72881">
        <ele>185.66833151379</ele>
        <time>2015-08-07T12:06:53Z</time>
      </trkpt>
      <trkpt lat="45.41918" lon="0.72886">
        <ele>185.66833151379</ele>
        <time>2015-08-07T12:06:58Z</time>
      </trkpt>
      <trkpt lat="45.41922" lon="0.72892">
        <ele>184.73346470424</ele>
        <time>2015-08-07T12:07:03Z</time>
      </trkpt>
      <trkpt lat="45.41928" lon="0.72898">
        <ele>184.73346470424</ele>
        <time>2015-08-07T12:07:08Z</time>
      </trkpt>
      <trkpt lat="45.41927" lon="0.72907">
        <ele>184.12159299512</ele>
        <time>2015-08-07T12:07:13Z</time>
      </trkpt>
      <trkpt lat="45.41921" lon="0.72913">
        <ele>184.12159299512</ele>
        <time>2015-08-07T12:07:18Z</time>
      </trkpt>
      <trkpt lat="45.4192" lon="0.72918">
        <ele>183.92650515529</ele>
        <time>2015-08-07T12:07:23Z</time>
      </trkpt>
      <trkpt lat="45.41921" lon="0.72926">
        <ele>183.92650515529</ele>
        <time>2015-08-07T12:07:28Z</time>
      </trkpt>
      <trkpt lat="45.41917" lon="0.72935">
        <ele>184.03210445833</ele>
        <time>2015-08-07T12:07:33Z</time>
      </trkpt>
      <trkpt lat="45.41916" lon="0.7294">
        <ele>184.03210445833</ele>
        <time>2015-08-07T12:07:38Z</time>
      </trkpt>
      <trkpt lat="45.41913" lon="0.72941">
        <ele>184.03210445833</ele>
        <time>2015-08-07T12:07:43Z</time>
      </trkpt>
      <trkpt lat="45.4191" lon="0.72944">
        <ele>184.28667649354</ele>
        <time>2015-08-07T12:07:48Z</time>
      </trkpt>
      <trkpt lat="45.41907" lon="0.72947">
        <ele>184.28667649354</ele>
        <time>2015-08-07T12:07:53Z</time>
      </trkpt>
      <trkpt lat="45.41901" lon="0.72957">
        <ele>184.3618236843</ele>
        <time>2015-08-07T12:07:58Z</time>
      </trkpt>
      <trkpt lat="45.41893" lon="0.72959">
        <ele>184.3618236843</ele>
        <time>2015-08-07T12:08:03Z</time>
      </trkpt>
      <trkpt lat="45.41893" lon="0.7296">
        <ele>184.04018088846</ele>
        <time>2015-08-07T12:08:08Z</time>
      </trkpt>
      <trkpt lat="45.41894" lon="0.72967">
        <ele>184.04018088846</ele>
        <time>2015-08-07T12:08:13Z</time>
      </trkpt>
      <trkpt lat="45.41892" lon="0.72976">
        <ele>183.68343935134</ele>
        <time>2015-08-07T12:08:18Z</time>
      </trkpt>
      <trkpt lat="45.41889" lon="0.72975">
        <ele>183.68343935134</ele>
        <time>2015-08-07T12:08:23Z</time>
      </trkpt>
      <trkpt lat="45.4189" lon="0.72975">
        <ele>183.68343935134</ele>
        <time>2015-08-07T12:08:28Z</time>
      </trkpt>
      <trkpt lat="45.41888" lon="0.72975">
        <ele>183.68343935134</ele>
        <time>2015-08-07T12:08:33Z</time>
      </trkpt>
      <trkpt lat="45.41885" lon="0.72977">
        <ele>183.68343935134</ele>
        <time>2015-08-07T12:08:38Z</time>
      </trkpt>
      <trkpt lat="45.41885" lon="0.72975">
        <ele>183.58353104147</ele>
        <time>2015-08-07T12:08:45Z</time>
      </trkpt>
      <trkpt lat="45.41888" lon="0.72977">
        <ele>183.58353104147</ele>
        <time>2015-08-07T12:08:54Z</time>
      </trkpt>
      <trkpt lat="45.41889" lon="0.72977">
        <ele>183.58353104147</ele>
        <time>2015-08-07T12:08:59Z</time>
      </trkpt>
      <trkpt lat="45.41892" lon="0.7298">
        <ele>183.58353104147</ele>
        <time>2015-08-07T12:09:09Z</time>
      </trkpt>
      <trkpt lat="45.41895" lon="0.72982">
        <ele>183.54901410172</ele>
        <time>2015-08-07T12:09:14Z</time>
      </trkpt>
      <trkpt lat="45.41894" lon="0.72975">
        <ele>183.54901410172</ele>
        <time>2015-08-07T12:09:23Z</time>
      </trkpt>
      <trkpt lat="45.41894" lon="0.72969">
        <ele>183.31580924791</ele>
        <time>2015-08-07T12:09:29Z</time>
      </trkpt>
      <trkpt lat="45.41899" lon="0.72955">
        <ele>183.9655697524</ele>
        <time>2015-08-07T12:09:38Z</time>
      </trkpt>
      <trkpt lat="45.41906" lon="0.72951">
        <ele>183.9655697524</ele>
        <time>2015-08-07T12:09:43Z</time>
      </trkpt>
      <trkpt lat="45.41905" lon="0.72949">
        <ele>183.94720375727</ele>
        <time>2015-08-07T12:09:48Z</time>
      </trkpt>
      <trkpt lat="45.41908" lon="0.72946">
        <ele>183.94720375727</ele>
        <time>2015-08-07T12:09:53Z</time>
      </trkpt>
      <trkpt lat="45.4191" lon="0.72939">
        <ele>183.9582426434</ele>
        <time>2015-08-07T12:09:58Z</time>
      </trkpt>
      <trkpt lat="45.41911" lon="0.72933">
        <ele>183.9582426434</ele>
        <time>2015-08-07T12:10:03Z</time>
      </trkpt>
      <trkpt lat="45.41914" lon="0.72929">
        <ele>183.9582426434</ele>
        <time>2015-08-07T12:10:08Z</time>
      </trkpt>
      <trkpt lat="45.41919" lon="0.72927">
        <ele>183.95312703964</ele>
        <time>2015-08-07T12:10:13Z</time>
      </trkpt>
      <trkpt lat="45.41922" lon="0.72927">
        <ele>183.95312703964</ele>
        <time>2015-08-07T12:10:18Z</time>
      </trkpt>
      <trkpt lat="45.41925" lon="0.72925">
        <ele>183.95312703964</ele>
        <time>2015-08-07T12:10:23Z</time>
      </trkpt>
      <trkpt lat="45.41927" lon="0.72925">
        <ele>183.95312703964</ele>
        <time>2015-08-07T12:10:28Z</time>
      </trkpt>
      <trkpt lat="45.4193" lon="0.72926">
        <ele>184.65344953442</ele>
        <time>2015-08-07T12:10:33Z</time>
      </trkpt>
      <trkpt lat="45.41933" lon="0.72922">
        <ele>184.65344953442</ele>
        <time>2015-08-07T12:10:38Z</time>
      </trkpt>
      <trkpt lat="45.41934" lon="0.72919">
        <ele>184.65344953442</ele>
        <time>2015-08-07T12:10:43Z</time>
      </trkpt>
      <trkpt lat="45.41939" lon="0.72917">
        <ele>184.92440122881</ele>
        <time>2015-08-07T12:10:48Z</time>
      </trkpt>
      <trkpt lat="45.41945" lon="0.72914">
        <ele>184.92440122881</ele>
        <time>2015-08-07T12:10:53Z</time>
      </trkpt>
      <trkpt lat="45.41947" lon="0.7291">
        <ele>185.05595333311</ele>
        <time>2015-08-07T12:10:58Z</time>
      </trkpt>
      <trkpt lat="45.4195" lon="0.72904">
        <ele>185.05595333311</ele>
        <time>2015-08-07T12:11:03Z</time>
      </trkpt>
      <trkpt lat="45.41956" lon="0.72898">
        <ele>185.04333944913</ele>
        <time>2015-08-07T12:11:08Z</time>
      </trkpt>
      <trkpt lat="45.41953" lon="0.72893">
        <ele>185.04333944913</ele>
        <time>2015-08-07T12:11:13Z</time>
      </trkpt>
      <trkpt lat="45.41951" lon="0.72891">
        <ele>185.04333944913</ele>
        <time>2015-08-07T12:11:18Z</time>
      </trkpt>
      <trkpt lat="45.41949" lon="0.72889">
        <ele>185.01223508089</ele>
        <time>2015-08-07T12:11:23Z</time>
      </trkpt>
      <trkpt lat="45.41945" lon="0.72885">
        <ele>185.01223508089</ele>
        <time>2015-08-07T12:11:28Z</time>
      </trkpt>
      <trkpt lat="45.41942" lon="0.72881">
        <ele>186.24642769286</ele>
        <time>2015-08-07T12:11:33Z</time>
      </trkpt>
      <trkpt lat="45.4194" lon="0.7288">
        <ele>186.24642769286</ele>
        <time>2015-08-07T12:11:38Z</time>
      </trkpt>
      <trkpt lat="45.41939" lon="0.7288">
        <ele>186.24642769286</ele>
        <time>2015-08-07T12:11:43Z</time>
      </trkpt>
      <trkpt lat="45.41939" lon="0.7288">
        <ele>186.24642769286</ele>
        <time>2015-08-07T12:11:49Z</time>
      </trkpt>
      <trkpt lat="45.4194" lon="0.72873">
        <ele>186.24642769286</ele>
        <time>2015-08-07T12:11:59Z</time>
      </trkpt>
      <trkpt lat="45.41939" lon="0.72872">
        <ele>187.78459005618</ele>
        <time>2015-08-07T12:12:04Z</time>
      </trkpt>
      <trkpt lat="45.41937" lon="0.7287">
        <ele>187.78459005618</ele>
        <time>2015-08-07T12:12:14Z</time>
      </trkpt>
      <trkpt lat="45.41939" lon="0.72875">
        <ele>187.78459005618</ele>
        <time>2015-08-07T12:12:19Z</time>
      </trkpt>
      <trkpt lat="45.4194" lon="0.72873">
        <ele>187.78459005618</ele>
        <time>2015-08-07T12:12:24Z</time>
      </trkpt>
      <trkpt lat="45.41941" lon="0.72873">
        <ele>188.33165339803</ele>
        <time>2015-08-07T12:12:34Z</time>
      </trkpt>
      <trkpt lat="45.41941" lon="0.72873">
        <ele>188.33165339803</ele>
        <time>2015-08-07T12:12:39Z</time>
      </trkpt>
      <trkpt lat="45.41941" lon="0.72873">
        <ele>188.33165339803</ele>
        <time>2015-08-07T12:12:49Z</time>
      </trkpt>
      <trkpt lat="45.41941" lon="0.72873">
        <ele>188.33165339803</ele>
        <time>2015-08-07T12:12:54Z</time>
      </trkpt>
      <trkpt lat="45.41937" lon="0.72874">
        <ele>188.33165339803</ele>
        <time>2015-08-07T12:13:04Z</time>
      </trkpt>
      <trkpt lat="45.41937" lon="0.72874">
        <ele>188.33165339803</ele>
        <time>2015-08-07T12:13:09Z</time>
      </trkpt>
      <trkpt lat="45.41937" lon="0.72872">
        <ele>188.33165339803</ele>
        <time>2015-08-07T12:13:19Z</time>
      </trkpt>
      <trkpt lat="45.41937" lon="0.72872">
        <ele>188.33165339803</ele>
        <time>2015-08-07T12:13:24Z</time>
      </trkpt>
      <trkpt lat="45.41938" lon="0.72872">
        <ele>188.33165339803</ele>
        <time>2015-08-07T12:13:33Z</time>
      </trkpt>
      <trkpt lat="45.41938" lon="0.72872">
        <ele>188.33165339803</ele>
        <time>2015-08-07T12:13:39Z</time>
      </trkpt>
      <trkpt lat="45.41937" lon="0.72876">
        <ele>188.33165339803</ele>
        <time>2015-08-07T12:13:49Z</time>
      </trkpt>
      <trkpt lat="45.41938" lon="0.72876">
        <ele>188.33165339803</ele>
        <time>2015-08-07T12:13:54Z</time>
      </trkpt>
      <trkpt lat="45.41935" lon="0.72878">
        <ele>189.22683302492</ele>
        <time>2015-08-07T12:14:04Z</time>
      </trkpt>
      <trkpt lat="45.41931" lon="0.72875">
        <ele>189.22683302492</ele>
        <time>2015-08-07T12:14:09Z</time>
      </trkpt>
      <trkpt lat="45.4192" lon="0.72873">
        <ele>190.26889892891</ele>
        <time>2015-08-07T12:14:19Z</time>
      </trkpt>
      <trkpt lat="45.41919" lon="0.72873">
        <ele>190.26889892891</ele>
        <time>2015-08-07T12:14:24Z</time>
      </trkpt>
      <trkpt lat="45.41916" lon="0.7287">
        <ele>190.26889892891</ele>
        <time>2015-08-07T12:14:34Z</time>
      </trkpt>
      <trkpt lat="45.41911" lon="0.72862">
        <ele>191.61688678404</ele>
        <time>2015-08-07T12:14:39Z</time>
      </trkpt>
      <trkpt lat="45.41906" lon="0.7286">
        <ele>191.61688678404</ele>
        <time>2015-08-07T12:14:43Z</time>
      </trkpt>
      <trkpt lat="45.41892" lon="0.72849">
        <ele>192.49501500921</ele>
        <time>2015-08-07T12:14:53Z</time>
      </trkpt>
      <trkpt lat="45.41883" lon="0.72845">
        <ele>193.2955060511</ele>
        <time>2015-08-07T12:14:58Z</time>
      </trkpt>
      <trkpt lat="45.41878" lon="0.72844">
        <ele>193.2955060511</ele>
        <time>2015-08-07T12:15:03Z</time>
      </trkpt>
      <trkpt lat="45.41876" lon="0.72842">
        <ele>193.2955060511</ele>
        <time>2015-08-07T12:15:08Z</time>
      </trkpt>
      <trkpt lat="45.4187" lon="0.72839">
        <ele>193.66147816183</ele>
        <time>2015-08-07T12:15:13Z</time>
      </trkpt>
      <trkpt lat="45.41861" lon="0.72839">
        <ele>193.66147816183</ele>
        <time>2015-08-07T12:15:18Z</time>
      </trkpt>
      <trkpt lat="45.41857" lon="0.72839">
        <ele>193.65263365471</ele>
        <time>2015-08-07T12:15:23Z</time>
      </trkpt>
      <trkpt lat="45.41851" lon="0.72837">
        <ele>193.65263365471</ele>
        <time>2015-08-07T12:15:28Z</time>
      </trkpt>
      <trkpt lat="45.41843" lon="0.72841">
        <ele>193.88742306915</ele>
        <time>2015-08-07T12:15:33Z</time>
      </trkpt>
      <trkpt lat="45.41838" lon="0.72843">
        <ele>193.88742306915</ele>
        <time>2015-08-07T12:15:38Z</time>
      </trkpt>
      <trkpt lat="45.4183" lon="0.7284">
        <ele>194.24649666918</ele>
        <time>2015-08-07T12:15:43Z</time>
      </trkpt>
      <trkpt lat="45.41822" lon="0.72841">
        <ele>194.24649666918</ele>
        <time>2015-08-07T12:15:48Z</time>
      </trkpt>
      <trkpt lat="45.41817" lon="0.72838">
        <ele>194.01370146955</ele>
        <time>2015-08-07T12:15:53Z</time>
      </trkpt>
      <trkpt lat="45.41813" lon="0.72837">
        <ele>194.01370146955</ele>
        <time>2015-08-07T12:15:58Z</time>
      </trkpt>
      <trkpt lat="45.41807" lon="0.7283">
        <ele>193.31980524601</ele>
        <time>2015-08-07T12:16:03Z</time>
      </trkpt>
      <trkpt lat="45.418" lon="0.72824">
        <ele>193.31980524601</ele>
        <time>2015-08-07T12:16:08Z</time>
      </trkpt>
      <trkpt lat="45.41794" lon="0.72819">
        <ele>192.58993215682</ele>
        <time>2015-08-07T12:16:13Z</time>
      </trkpt>
      <trkpt lat="45.41787" lon="0.72815">
        <ele>192.58993215682</ele>
        <time>2015-08-07T12:16:18Z</time>
      </trkpt>
      <trkpt lat="45.4178" lon="0.7281">
        <ele>191.82900626149</ele>
        <time>2015-08-07T12:16:23Z</time>
      </trkpt>
      <trkpt lat="45.41775" lon="0.72806">
        <ele>191.82900626149</ele>
        <time>2015-08-07T12:16:28Z</time>
      </trkpt>
      <trkpt lat="45.41767" lon="0.72802">
        <ele>191.08493046338</ele>
        <time>2015-08-07T12:16:33Z</time>
      </trkpt>
      <trkpt lat="45.41764" lon="0.72796">
        <ele>191.08493046338</ele>
        <time>2015-08-07T12:16:38Z</time>
      </trkpt>
      <trkpt lat="45.41756" lon="0.72793">
        <ele>190.51734226176</ele>
        <time>2015-08-07T12:16:43Z</time>
      </trkpt>
      <trkpt lat="45.41746" lon="0.7279">
        <ele>190.56188493288</ele>
        <time>2015-08-07T12:16:48Z</time>
      </trkpt>
      <trkpt lat="45.41741" lon="0.72784">
        <ele>190.56188493288</ele>
        <time>2015-08-07T12:16:53Z</time>
      </trkpt>
      <trkpt lat="45.41736" lon="0.72777">
        <ele>190.55406036268</ele>
        <time>2015-08-07T12:16:58Z</time>
      </trkpt>
      <trkpt lat="45.41731" lon="0.72771">
        <ele>190.55406036268</ele>
        <time>2015-08-07T12:17:03Z</time>
      </trkpt>
      <trkpt lat="45.41725" lon="0.72764">
        <ele>190.74299593469</ele>
        <time>2015-08-07T12:17:08Z</time>
      </trkpt>
      <trkpt lat="45.4172" lon="0.72756">
        <ele>190.74299593469</ele>
        <time>2015-08-07T12:17:13Z</time>
      </trkpt>
      <trkpt lat="45.41715" lon="0.72753">
        <ele>190.99868568702</ele>
        <time>2015-08-07T12:17:18Z</time>
      </trkpt>
      <trkpt lat="45.41712" lon="0.72751">
        <ele>190.99868568702</ele>
        <time>2015-08-07T12:17:23Z</time>
      </trkpt>
      <trkpt lat="45.41705" lon="0.72746">
        <ele>190.50874957073</ele>
        <time>2015-08-07T12:17:28Z</time>
      </trkpt>
      <trkpt lat="45.41698" lon="0.72741">
        <ele>190.50874957073</ele>
        <time>2015-08-07T12:17:33Z</time>
      </trkpt>
      <trkpt lat="45.4169" lon="0.72736">
        <ele>190.49689547013</ele>
        <time>2015-08-07T12:17:38Z</time>
      </trkpt>
      <trkpt lat="45.41687" lon="0.72729">
        <ele>190.49689547013</ele>
        <time>2015-08-07T12:17:43Z</time>
      </trkpt>
      <trkpt lat="45.4168" lon="0.72726">
        <ele>190.49595882655</ele>
        <time>2015-08-07T12:17:48Z</time>
      </trkpt>
      <trkpt lat="45.41675" lon="0.72721">
        <ele>190.49595882655</ele>
        <time>2015-08-07T12:17:53Z</time>
      </trkpt>
      <trkpt lat="45.41668" lon="0.72716">
        <ele>190.17393378682</ele>
        <time>2015-08-07T12:17:58Z</time>
      </trkpt>
      <trkpt lat="45.41662" lon="0.72712">
        <ele>190.17393378682</ele>
        <time>2015-08-07T12:18:03Z</time>
      </trkpt>
      <trkpt lat="45.41654" lon="0.72707">
        <ele>189.52672899569</ele>
        <time>2015-08-07T12:18:08Z</time>
      </trkpt>
      <trkpt lat="45.41651" lon="0.72704">
        <ele>189.52672899569</ele>
        <time>2015-08-07T12:18:13Z</time>
      </trkpt>
      <trkpt lat="45.41645" lon="0.72699">
        <ele>189.07025500641</ele>
        <time>2015-08-07T12:18:19Z</time>
      </trkpt>
      <trkpt lat="45.41632" lon="0.72697">
        <ele>188.05702865065</ele>
        <time>2015-08-07T12:18:29Z</time>
      </trkpt>
      <trkpt lat="45.41625" lon="0.7269">
        <ele>188.05702865065</ele>
        <time>2015-08-07T12:18:34Z</time>
      </trkpt>
      <trkpt lat="45.41613" lon="0.72674">
        <ele>187.56858601328</ele>
        <time>2015-08-07T12:18:48Z</time>
      </trkpt>
      <trkpt lat="45.41608" lon="0.72672">
        <ele>187.56858601328</ele>
        <time>2015-08-07T12:18:53Z</time>
      </trkpt>
      <trkpt lat="45.41604" lon="0.7267">
        <ele>186.96265040429</ele>
        <time>2015-08-07T12:18:58Z</time>
      </trkpt>
      <trkpt lat="45.41599" lon="0.72666">
        <ele>186.96265040429</ele>
        <time>2015-08-07T12:19:03Z</time>
      </trkpt>
      <trkpt lat="45.41592" lon="0.72659">
        <ele>186.39380566239</ele>
        <time>2015-08-07T12:19:08Z</time>
      </trkpt>
      <trkpt lat="45.41584" lon="0.72652">
        <ele>186.26454478201</ele>
        <time>2015-08-07T12:19:13Z</time>
      </trkpt>
      <trkpt lat="45.41579" lon="0.72646">
        <ele>186.26454478201</ele>
        <time>2015-08-07T12:19:18Z</time>
      </trkpt>
      <trkpt lat="45.41572" lon="0.72639">
        <ele>185.88010497398</ele>
        <time>2015-08-07T12:19:23Z</time>
      </trkpt>
      <trkpt lat="45.4156" lon="0.72628">
        <ele>185.89444315063</ele>
        <time>2015-08-07T12:19:28Z</time>
      </trkpt>
      <trkpt lat="45.4155" lon="0.72623">
        <ele>185.9611917662</ele>
        <time>2015-08-07T12:19:33Z</time>
      </trkpt>
      <trkpt lat="45.41543" lon="0.72619">
        <ele>185.9611917662</ele>
        <time>2015-08-07T12:19:38Z</time>
      </trkpt>
      <trkpt lat="45.41538" lon="0.72611">
        <ele>186.20599411002</ele>
        <time>2015-08-07T12:19:43Z</time>
      </trkpt>
      <trkpt lat="45.41538" lon="0.7261">
        <ele>186.20599411002</ele>
        <time>2015-08-07T12:19:48Z</time>
      </trkpt>
      <trkpt lat="45.41539" lon="0.72609">
        <ele>186.20599411002</ele>
        <time>2015-08-07T12:19:53Z</time>
      </trkpt>
      <trkpt lat="45.41542" lon="0.72606">
        <ele>186.20599411002</ele>
        <time>2015-08-07T12:19:58Z</time>
      </trkpt>
      <trkpt lat="45.41523" lon="0.72606">
        <ele>171.93801182022</ele>
        <time>2015-08-07T13:50:07Z</time>
      </trkpt>
      <trkpt lat="45.41523" lon="0.72596">
        <ele>171.93801182022</ele>
        <time>2015-08-07T13:50:12Z</time>
      </trkpt>
      <trkpt lat="45.41521" lon="0.72596">
        <ele>178.15183226338</ele>
        <time>2015-08-07T13:50:17Z</time>
      </trkpt>
      <trkpt lat="45.41512" lon="0.72595">
        <ele>182.1699212743</ele>
        <time>2015-08-07T13:50:22Z</time>
      </trkpt>
      <trkpt lat="45.41509" lon="0.72593">
        <ele>182.1699212743</ele>
        <time>2015-08-07T13:50:27Z</time>
      </trkpt>
      <trkpt lat="45.41504" lon="0.72589">
        <ele>182.1699212743</ele>
        <time>2015-08-07T13:50:32Z</time>
      </trkpt>
      <trkpt lat="45.41502" lon="0.72588">
        <ele>186.09403023644</ele>
        <time>2015-08-07T13:50:37Z</time>
      </trkpt>
      <trkpt lat="45.41496" lon="0.72582">
        <ele>186.09403023644</ele>
        <time>2015-08-07T13:50:42Z</time>
      </trkpt>
      <trkpt lat="45.41493" lon="0.72579">
        <ele>188.79601939329</ele>
        <time>2015-08-07T13:50:47Z</time>
      </trkpt>
      <trkpt lat="45.41488" lon="0.72574">
        <ele>188.79601939329</ele>
        <time>2015-08-07T13:50:52Z</time>
      </trkpt>
      <trkpt lat="45.41485" lon="0.72567">
        <ele>191.85097123983</ele>
        <time>2015-08-07T13:50:57Z</time>
      </trkpt>
      <trkpt lat="45.41478" lon="0.72563">
        <ele>191.85097123983</ele>
        <time>2015-08-07T13:51:02Z</time>
      </trkpt>
      <trkpt lat="45.41474" lon="0.7256">
        <ele>193.98842749129</ele>
        <time>2015-08-07T13:51:07Z</time>
      </trkpt>
      <trkpt lat="45.41472" lon="0.72556">
        <ele>193.98842749129</ele>
        <time>2015-08-07T13:51:12Z</time>
      </trkpt>
      <trkpt lat="45.4147" lon="0.72553">
        <ele>193.98842749129</ele>
        <time>2015-08-07T13:51:17Z</time>
      </trkpt>
      <trkpt lat="45.41466" lon="0.7255">
        <ele>195.70780327257</ele>
        <time>2015-08-07T13:51:22Z</time>
      </trkpt>
      <trkpt lat="45.41463" lon="0.72544">
        <ele>195.70780327257</ele>
        <time>2015-08-07T13:51:27Z</time>
      </trkpt>
      <trkpt lat="45.41458" lon="0.72538">
        <ele>196.58524896467</ele>
        <time>2015-08-07T13:51:32Z</time>
      </trkpt>
      <trkpt lat="45.41454" lon="0.72533">
        <ele>196.58524896467</ele>
        <time>2015-08-07T13:51:37Z</time>
      </trkpt>
      <trkpt lat="45.41451" lon="0.72528">
        <ele>196.3740943366</ele>
        <time>2015-08-07T13:51:42Z</time>
      </trkpt>
      <trkpt lat="45.41448" lon="0.72522">
        <ele>196.3740943366</ele>
        <time>2015-08-07T13:51:47Z</time>
      </trkpt>
      <trkpt lat="45.41447" lon="0.72517">
        <ele>196.3740943366</ele>
        <time>2015-08-07T13:51:52Z</time>
      </trkpt>
      <trkpt lat="45.41444" lon="0.72512">
        <ele>196.06755827512</ele>
        <time>2015-08-07T13:51:57Z</time>
      </trkpt>
      <trkpt lat="45.41439" lon="0.72505">
        <ele>196.06755827512</ele>
        <time>2015-08-07T13:52:02Z</time>
      </trkpt>
      <trkpt lat="45.41435" lon="0.72504">
        <ele>195.54580232485</ele>
        <time>2015-08-07T13:52:07Z</time>
      </trkpt>
      <trkpt lat="45.41431" lon="0.72495">
        <ele>195.54580232485</ele>
        <time>2015-08-07T13:52:12Z</time>
      </trkpt>
      <trkpt lat="45.41428" lon="0.72492">
        <ele>195.30922929935</ele>
        <time>2015-08-07T13:52:17Z</time>
      </trkpt>
      <trkpt lat="45.41422" lon="0.72486">
        <ele>195.30922929935</ele>
        <time>2015-08-07T13:52:22Z</time>
      </trkpt>
      <trkpt lat="45.41419" lon="0.72478">
        <ele>194.71675595766</ele>
        <time>2015-08-07T13:52:27Z</time>
      </trkpt>
      <trkpt lat="45.41414" lon="0.72473">
        <ele>194.71675595766</ele>
        <time>2015-08-07T13:52:32Z</time>
      </trkpt>
      <trkpt lat="45.4141" lon="0.7247">
        <ele>193.95208905723</ele>
        <time>2015-08-07T13:52:37Z</time>
      </trkpt>
      <trkpt lat="45.41405" lon="0.72466">
        <ele>193.95208905723</ele>
        <time>2015-08-07T13:52:42Z</time>
      </trkpt>
      <trkpt lat="45.41399" lon="0.72462">
        <ele>193.61116445838</ele>
        <time>2015-08-07T13:52:47Z</time>
      </trkpt>
      <trkpt lat="45.41394" lon="0.72462">
        <ele>193.61116445838</ele>
        <time>2015-08-07T13:52:52Z</time>
      </trkpt>
      <trkpt lat="45.41388" lon="0.7246">
        <ele>193.67925263759</ele>
        <time>2015-08-07T13:52:57Z</time>
      </trkpt>
      <trkpt lat="45.41372" lon="0.7244">
        <ele>195.74869915542</ele>
        <time>2015-08-07T13:53:13Z</time>
      </trkpt>
      <trkpt lat="45.41369" lon="0.72434">
        <ele>195.74869915542</ele>
        <time>2015-08-07T13:53:17Z</time>
      </trkpt>
      <trkpt lat="45.4137" lon="0.72422">
        <ele>205.74965237625</ele>
        <time>2015-08-07T13:53:22Z</time>
      </trkpt>
      <trkpt lat="45.41365" lon="0.72415">
        <ele>205.74965237625</ele>
        <time>2015-08-07T13:53:27Z</time>
      </trkpt>
      <trkpt lat="45.41362" lon="0.72408">
        <ele>207.6378846989</ele>
        <time>2015-08-07T13:53:32Z</time>
      </trkpt>
      <trkpt lat="45.4136" lon="0.72406">
        <ele>207.6378846989</ele>
        <time>2015-08-07T13:53:37Z</time>
      </trkpt>
      <trkpt lat="45.41357" lon="0.72404">
        <ele>207.6378846989</ele>
        <time>2015-08-07T13:53:42Z</time>
      </trkpt>
      <trkpt lat="45.41355" lon="0.72396">
        <ele>208.05700882216</ele>
        <time>2015-08-07T13:53:47Z</time>
      </trkpt>
      <trkpt lat="45.41354" lon="0.72383">
        <ele>208.05700882216</ele>
        <time>2015-08-07T13:53:52Z</time>
      </trkpt>
      <trkpt lat="45.4135" lon="0.72376">
        <ele>207.59024689561</ele>
        <time>2015-08-07T13:53:57Z</time>
      </trkpt>
      <trkpt lat="45.41347" lon="0.72369">
        <ele>207.59024689561</ele>
        <time>2015-08-07T13:54:02Z</time>
      </trkpt>
      <trkpt lat="45.41343" lon="0.72358">
        <ele>206.55338257067</ele>
        <time>2015-08-07T13:54:07Z</time>
      </trkpt>
      <trkpt lat="45.41342" lon="0.72356">
        <ele>206.55338257067</ele>
        <time>2015-08-07T13:54:12Z</time>
      </trkpt>
      <trkpt lat="45.41338" lon="0.72346">
        <ele>205.90095891928</ele>
        <time>2015-08-07T13:54:17Z</time>
      </trkpt>
      <trkpt lat="45.41332" lon="0.72342">
        <ele>205.90095891928</ele>
        <time>2015-08-07T13:54:22Z</time>
      </trkpt>
      <trkpt lat="45.41327" lon="0.72337">
        <ele>204.29666336487</ele>
        <time>2015-08-07T13:54:27Z</time>
      </trkpt>
      <trkpt lat="45.4132" lon="0.72335">
        <ele>204.29666336487</ele>
        <time>2015-08-07T13:54:32Z</time>
      </trkpt>
      <trkpt lat="45.41316" lon="0.72329">
        <ele>201.75633816567</ele>
        <time>2015-08-07T13:54:37Z</time>
      </trkpt>
      <trkpt lat="45.41312" lon="0.72326">
        <ele>201.75633816567</ele>
        <time>2015-08-07T13:54:42Z</time>
      </trkpt>
      <trkpt lat="45.41307" lon="0.72322">
        <ele>198.86022602756</ele>
        <time>2015-08-07T13:54:47Z</time>
      </trkpt>
      <trkpt lat="45.41301" lon="0.72318">
        <ele>198.86022602756</ele>
        <time>2015-08-07T13:54:52Z</time>
      </trkpt>
      <trkpt lat="45.41296" lon="0.72311">
        <ele>196.2218242089</ele>
        <time>2015-08-07T13:54:57Z</time>
      </trkpt>
      <trkpt lat="45.4129" lon="0.72309">
        <ele>196.2218242089</ele>
        <time>2015-08-07T13:55:02Z</time>
      </trkpt>
      <trkpt lat="45.41285" lon="0.72299">
        <ele>194.08360096941</ele>
        <time>2015-08-07T13:55:07Z</time>
      </trkpt>
      <trkpt lat="45.41279" lon="0.72294">
        <ele>194.08360096941</ele>
        <time>2015-08-07T13:55:12Z</time>
      </trkpt>
      <trkpt lat="45.41272" lon="0.72284">
        <ele>192.68089359112</ele>
        <time>2015-08-07T13:55:17Z</time>
      </trkpt>
      <trkpt lat="45.41266" lon="0.72273">
        <ele>191.71758661683</ele>
        <time>2015-08-07T13:55:22Z</time>
      </trkpt>
      <trkpt lat="45.41262" lon="0.72272">
        <ele>191.71758661683</ele>
        <time>2015-08-07T13:55:27Z</time>
      </trkpt>
      <trkpt lat="45.41258" lon="0.7227">
        <ele>191.71758661683</ele>
        <time>2015-08-07T13:55:32Z</time>
      </trkpt>
      <trkpt lat="45.4125" lon="0.72266">
        <ele>190.27269046741</ele>
        <time>2015-08-07T13:55:37Z</time>
      </trkpt>
      <trkpt lat="45.41243" lon="0.72264">
        <ele>190.27269046741</ele>
        <time>2015-08-07T13:55:42Z</time>
      </trkpt>
      <trkpt lat="45.41238" lon="0.72255">
        <ele>188.92433650545</ele>
        <time>2015-08-07T13:55:47Z</time>
      </trkpt>
      <trkpt lat="45.41234" lon="0.72247">
        <ele>188.92433650545</ele>
        <time>2015-08-07T13:55:52Z</time>
      </trkpt>
      <trkpt lat="45.4123" lon="0.72238">
        <ele>187.72381725868</ele>
        <time>2015-08-07T13:55:57Z</time>
      </trkpt>
      <trkpt lat="45.41226" lon="0.72229">
        <ele>187.72381725868</ele>
        <time>2015-08-07T13:56:02Z</time>
      </trkpt>
      <trkpt lat="45.41222" lon="0.72221">
        <ele>186.63643599409</ele>
        <time>2015-08-07T13:56:07Z</time>
      </trkpt>
      <trkpt lat="45.41217" lon="0.72214">
        <ele>186.63643599409</ele>
        <time>2015-08-07T13:56:12Z</time>
      </trkpt>
      <trkpt lat="45.41212" lon="0.72207">
        <ele>185.74249174348</ele>
        <time>2015-08-07T13:56:17Z</time>
      </trkpt>
      <trkpt lat="45.41207" lon="0.72199">
        <ele>185.74249174348</ele>
        <time>2015-08-07T13:56:22Z</time>
      </trkpt>
      <trkpt lat="45.41202" lon="0.7219">
        <ele>185.34375340228</ele>
        <time>2015-08-07T13:56:27Z</time>
      </trkpt>
      <trkpt lat="45.41198" lon="0.72183">
        <ele>185.34375340228</ele>
        <time>2015-08-07T13:56:32Z</time>
      </trkpt>
      <trkpt lat="45.41193" lon="0.72176">
        <ele>185.13030237059</ele>
        <time>2015-08-07T13:56:37Z</time>
      </trkpt>
      <trkpt lat="45.41187" lon="0.72169">
        <ele>185.13030237059</ele>
        <time>2015-08-07T13:56:42Z</time>
      </trkpt>
      <trkpt lat="45.41182" lon="0.72162">
        <ele>185.16465530371</ele>
        <time>2015-08-07T13:56:47Z</time>
      </trkpt>
      <trkpt lat="45.41179" lon="0.7216">
        <ele>185.16465530371</ele>
        <time>2015-08-07T13:56:52Z</time>
      </trkpt>
      <trkpt lat="45.41175" lon="0.72151">
        <ele>185.21787975939</ele>
        <time>2015-08-07T13:56:57Z</time>
      </trkpt>
      <trkpt lat="45.4117" lon="0.72146">
        <ele>185.21787975939</ele>
        <time>2015-08-07T13:57:02Z</time>
      </trkpt>
      <trkpt lat="45.41164" lon="0.7214">
        <ele>185.27461598717</ele>
        <time>2015-08-07T13:57:07Z</time>
      </trkpt>
      <trkpt lat="45.41159" lon="0.72132">
        <ele>185.27461598717</ele>
        <time>2015-08-07T13:57:12Z</time>
      </trkpt>
      <trkpt lat="45.41154" lon="0.72124">
        <ele>185.74249621723</ele>
        <time>2015-08-07T13:57:17Z</time>
      </trkpt>
      <trkpt lat="45.41149" lon="0.72114">
        <ele>185.74249621723</ele>
        <time>2015-08-07T13:57:22Z</time>
      </trkpt>
      <trkpt lat="45.41145" lon="0.72105">
        <ele>186.62488241435</ele>
        <time>2015-08-07T13:57:27Z</time>
      </trkpt>
      <trkpt lat="45.41139" lon="0.72099">
        <ele>186.62488241435</ele>
        <time>2015-08-07T13:57:32Z</time>
      </trkpt>
      <trkpt lat="45.41134" lon="0.72096">
        <ele>187.28814775241</ele>
        <time>2015-08-07T13:57:37Z</time>
      </trkpt>
      <trkpt lat="45.41128" lon="0.72089">
        <ele>187.28814775241</ele>
        <time>2015-08-07T13:57:42Z</time>
      </trkpt>
      <trkpt lat="45.41127" lon="0.72086">
        <ele>188.21678238458</ele>
        <time>2015-08-07T13:57:47Z</time>
      </trkpt>
      <trkpt lat="45.41126" lon="0.72081">
        <ele>188.21678238458</ele>
        <time>2015-08-07T13:57:52Z</time>
      </trkpt>
      <trkpt lat="45.41121" lon="0.7207">
        <ele>189.89590776616</ele>
        <time>2015-08-07T13:57:58Z</time>
      </trkpt>
      <trkpt lat="45.41111" lon="0.72051">
        <ele>191.4459063937</ele>
        <time>2015-08-07T13:58:08Z</time>
      </trkpt>
      <trkpt lat="45.41107" lon="0.72049">
        <ele>191.4459063937</ele>
        <time>2015-08-07T13:58:13Z</time>
      </trkpt>
      <trkpt lat="45.411" lon="0.72042">
        <ele>192.26780925374</ele>
        <time>2015-08-07T13:58:22Z</time>
      </trkpt>
      <trkpt lat="45.41096" lon="0.72038">
        <ele>192.26780925374</ele>
        <time>2015-08-07T13:58:28Z</time>
      </trkpt>
      <trkpt lat="45.41088" lon="0.72023">
        <ele>194.06297356249</ele>
        <time>2015-08-07T13:58:38Z</time>
      </trkpt>
      <trkpt lat="45.41084" lon="0.72018">
        <ele>194.06297356249</ele>
        <time>2015-08-07T13:58:43Z</time>
      </trkpt>
      <trkpt lat="45.41068" lon="0.72001">
        <ele>195.41304804612</ele>
        <time>2015-08-07T13:58:58Z</time>
      </trkpt>
      <trkpt lat="45.41063" lon="0.71993">
        <ele>195.41304804612</ele>
        <time>2015-08-07T13:59:03Z</time>
      </trkpt>
      <trkpt lat="45.41054" lon="0.71979">
        <ele>196.96352727937</ele>
        <time>2015-08-07T13:59:13Z</time>
      </trkpt>
      <trkpt lat="45.41051" lon="0.71973">
        <ele>196.96352727937</ele>
        <time>2015-08-07T13:59:18Z</time>
      </trkpt>
      <trkpt lat="45.41041" lon="0.7196">
        <ele>200.18800757749</ele>
        <time>2015-08-07T13:59:28Z</time>
      </trkpt>
      <trkpt lat="45.41035" lon="0.71957">
        <ele>200.18800757749</ele>
        <time>2015-08-07T13:59:33Z</time>
      </trkpt>
      <trkpt lat="45.41023" lon="0.71943">
        <ele>201.38392338749</ele>
        <time>2015-08-07T13:59:43Z</time>
      </trkpt>
      <trkpt lat="45.41017" lon="0.71939">
        <ele>201.38392338749</ele>
        <time>2015-08-07T13:59:48Z</time>
      </trkpt>
      <trkpt lat="45.41007" lon="0.71928">
        <ele>201.73043524839</ele>
        <time>2015-08-07T13:59:57Z</time>
      </trkpt>
      <trkpt lat="45.41001" lon="0.71925">
        <ele>201.73043524839</ele>
        <time>2015-08-07T14:00:03Z</time>
      </trkpt>
      <trkpt lat="45.40986" lon="0.7192">
        <ele>202.8313941311</ele>
        <time>2015-08-07T14:00:18Z</time>
      </trkpt>
      <trkpt lat="45.40984" lon="0.71919">
        <ele>202.8313941311</ele>
        <time>2015-08-07T14:00:23Z</time>
      </trkpt>
      <trkpt lat="45.40972" lon="0.71917">
        <ele>204.05177817097</ele>
        <time>2015-08-07T14:00:32Z</time>
      </trkpt>
      <trkpt lat="45.40962" lon="0.71914">
        <ele>205.33365221765</ele>
        <time>2015-08-07T14:00:37Z</time>
      </trkpt>
      <trkpt lat="45.40956" lon="0.71913">
        <ele>205.33365221765</ele>
        <time>2015-08-07T14:00:42Z</time>
      </trkpt>
      <trkpt lat="45.4095" lon="0.71909">
        <ele>206.39880989295</ele>
        <time>2015-08-07T14:00:47Z</time>
      </trkpt>
      <trkpt lat="45.40944" lon="0.71907">
        <ele>206.39880989295</ele>
        <time>2015-08-07T14:00:52Z</time>
      </trkpt>
      <trkpt lat="45.4094" lon="0.71909">
        <ele>207.78626339534</ele>
        <time>2015-08-07T14:00:57Z</time>
      </trkpt>
      <trkpt lat="45.40933" lon="0.71906">
        <ele>207.78626339534</ele>
        <time>2015-08-07T14:01:02Z</time>
      </trkpt>
      <trkpt lat="45.40925" lon="0.71906">
        <ele>208.91401078763</ele>
        <time>2015-08-07T14:01:07Z</time>
      </trkpt>
      <trkpt lat="45.4092" lon="0.71905">
        <ele>208.91401078763</ele>
        <time>2015-08-07T14:01:12Z</time>
      </trkpt>
      <trkpt lat="45.40915" lon="0.71904">
        <ele>209.94992257459</ele>
        <time>2015-08-07T14:01:17Z</time>
      </trkpt>
      <trkpt lat="45.40911" lon="0.71903">
        <ele>209.94992257459</ele>
        <time>2015-08-07T14:01:22Z</time>
      </trkpt>
      <trkpt lat="45.40905" lon="0.71903">
        <ele>209.91902544385</ele>
        <time>2015-08-07T14:01:27Z</time>
      </trkpt>
      <trkpt lat="45.40898" lon="0.71903">
        <ele>209.91902544385</ele>
        <time>2015-08-07T14:01:32Z</time>
      </trkpt>
      <trkpt lat="45.4089" lon="0.71907">
        <ele>208.40586002929</ele>
        <time>2015-08-07T14:01:37Z</time>
      </trkpt>
      <trkpt lat="45.40882" lon="0.71905">
        <ele>208.40586002929</ele>
        <time>2015-08-07T14:01:42Z</time>
      </trkpt>
      <trkpt lat="45.40874" lon="0.71904">
        <ele>206.91136634802</ele>
        <time>2015-08-07T14:01:47Z</time>
      </trkpt>
      <trkpt lat="45.40866" lon="0.71902">
        <ele>206.91136634802</ele>
        <time>2015-08-07T14:01:52Z</time>
      </trkpt>
      <trkpt lat="45.40858" lon="0.71901">
        <ele>204.92285192653</ele>
        <time>2015-08-07T14:01:57Z</time>
      </trkpt>
      <trkpt lat="45.40853" lon="0.719">
        <ele>204.92285192653</ele>
        <time>2015-08-07T14:02:02Z</time>
      </trkpt>
      <trkpt lat="45.40846" lon="0.71894">
        <ele>203.13383408071</ele>
        <time>2015-08-07T14:02:07Z</time>
      </trkpt>
      <trkpt lat="45.40841" lon="0.71889">
        <ele>203.13383408071</ele>
        <time>2015-08-07T14:02:12Z</time>
      </trkpt>
      <trkpt lat="45.40836" lon="0.71894">
        <ele>200.65304090471</ele>
        <time>2015-08-07T14:02:17Z</time>
      </trkpt>
      <trkpt lat="45.40831" lon="0.71892">
        <ele>200.65304090471</ele>
        <time>2015-08-07T14:02:22Z</time>
      </trkpt>
      <trkpt lat="45.40826" lon="0.71891">
        <ele>198.53921256419</ele>
        <time>2015-08-07T14:02:27Z</time>
      </trkpt>
      <trkpt lat="45.4082" lon="0.71891">
        <ele>198.53921256419</ele>
        <time>2015-08-07T14:02:32Z</time>
      </trkpt>
      <trkpt lat="45.40814" lon="0.71889">
        <ele>196.4769309124</ele>
        <time>2015-08-07T14:02:37Z</time>
      </trkpt>
      <trkpt lat="45.40809" lon="0.71889">
        <ele>196.4769309124</ele>
        <time>2015-08-07T14:02:42Z</time>
      </trkpt>
      <trkpt lat="45.40801" lon="0.71879">
        <ele>194.78913369098</ele>
        <time>2015-08-07T14:02:47Z</time>
      </trkpt>
      <trkpt lat="45.40786" lon="0.71867">
        <ele>193.62614744231</ele>
        <time>2015-08-07T14:02:58Z</time>
      </trkpt>
      <trkpt lat="45.4078" lon="0.71866">
        <ele>193.62614744231</ele>
        <time>2015-08-07T14:03:02Z</time>
      </trkpt>
      <trkpt lat="45.40779" lon="0.71875">
        <ele>191.29274413112</ele>
        <time>2015-08-07T14:03:07Z</time>
      </trkpt>
      <trkpt lat="45.40772" lon="0.71869">
        <ele>191.29274413112</ele>
        <time>2015-08-07T14:03:12Z</time>
      </trkpt>
      <trkpt lat="45.40766" lon="0.71859">
        <ele>189.94872283468</ele>
        <time>2015-08-07T14:03:17Z</time>
      </trkpt>
      <trkpt lat="45.4076" lon="0.71844">
        <ele>189.68114737586</ele>
        <time>2015-08-07T14:03:22Z</time>
      </trkpt>
      <trkpt lat="45.40756" lon="0.71842">
        <ele>189.68114737586</ele>
        <time>2015-08-07T14:03:27Z</time>
      </trkpt>
      <trkpt lat="45.40751" lon="0.71841">
        <ele>189.37994814478</ele>
        <time>2015-08-07T14:03:32Z</time>
      </trkpt>
      <trkpt lat="45.4075" lon="0.71841">
        <ele>189.37994814478</ele>
        <time>2015-08-07T14:03:37Z</time>
      </trkpt>
      <trkpt lat="45.40749" lon="0.71837">
        <ele>189.37994814478</ele>
        <time>2015-08-07T14:03:42Z</time>
      </trkpt>
      <trkpt lat="45.40747" lon="0.71832">
        <ele>189.37994814478</ele>
        <time>2015-08-07T14:03:47Z</time>
      </trkpt>
      <trkpt lat="45.40743" lon="0.71828">
        <ele>188.67271449827</ele>
        <time>2015-08-07T14:03:52Z</time>
      </trkpt>
      <trkpt lat="45.4074" lon="0.71828">
        <ele>188.67271449827</ele>
        <time>2015-08-07T14:03:57Z</time>
      </trkpt>
      <trkpt lat="45.40737" lon="0.71818">
        <ele>188.05535636442</ele>
        <time>2015-08-07T14:04:02Z</time>
      </trkpt>
      <trkpt lat="45.40733" lon="0.71811">
        <ele>188.05535636442</ele>
        <time>2015-08-07T14:04:07Z</time>
      </trkpt>
      <trkpt lat="45.40729" lon="0.71807">
        <ele>187.06058857709</ele>
        <time>2015-08-07T14:04:12Z</time>
      </trkpt>
      <trkpt lat="45.40723" lon="0.71799">
        <ele>187.06058857709</ele>
        <time>2015-08-07T14:04:17Z</time>
      </trkpt>
      <trkpt lat="45.40718" lon="0.71783">
        <ele>186.83176383542</ele>
        <time>2015-08-07T14:04:22Z</time>
      </trkpt>
      <trkpt lat="45.40713" lon="0.71777">
        <ele>186.83176383542</ele>
        <time>2015-08-07T14:04:27Z</time>
      </trkpt>
      <trkpt lat="45.40711" lon="0.7178">
        <ele>185.72429448242</ele>
        <time>2015-08-07T14:04:32Z</time>
      </trkpt>
      <trkpt lat="45.40708" lon="0.71776">
        <ele>185.72429448242</ele>
        <time>2015-08-07T14:04:37Z</time>
      </trkpt>
      <trkpt lat="45.40705" lon="0.71772">
        <ele>185.72429448242</ele>
        <time>2015-08-07T14:04:42Z</time>
      </trkpt>
      <trkpt lat="45.40698" lon="0.71763">
        <ele>185.14880342705</ele>
        <time>2015-08-07T14:04:47Z</time>
      </trkpt>
      <trkpt lat="45.40693" lon="0.7176">
        <ele>185.14880342705</ele>
        <time>2015-08-07T14:04:52Z</time>
      </trkpt>
      <trkpt lat="45.40688" lon="0.7175">
        <ele>184.31705032289</ele>
        <time>2015-08-07T14:04:57Z</time>
      </trkpt>
      <trkpt lat="45.40686" lon="0.71756">
        <ele>184.31705032289</ele>
        <time>2015-08-07T14:05:02Z</time>
      </trkpt>
      <trkpt lat="45.40681" lon="0.7175">
        <ele>183.16361766922</ele>
        <time>2015-08-07T14:05:07Z</time>
      </trkpt>
      <trkpt lat="45.40676" lon="0.71745">
        <ele>183.16361766922</ele>
        <time>2015-08-07T14:05:12Z</time>
      </trkpt>
      <trkpt lat="45.4067" lon="0.71738">
        <ele>182.04686270592</ele>
        <time>2015-08-07T14:05:17Z</time>
      </trkpt>
      <trkpt lat="45.40666" lon="0.71735">
        <ele>182.04686270592</ele>
        <time>2015-08-07T14:05:22Z</time>
      </trkpt>
      <trkpt lat="45.40663" lon="0.71726">
        <ele>181.6732965921</ele>
        <time>2015-08-07T14:05:27Z</time>
      </trkpt>
      <trkpt lat="45.40656" lon="0.71715">
        <ele>181.26782627259</ele>
        <time>2015-08-07T14:05:32Z</time>
      </trkpt>
      <trkpt lat="45.4065" lon="0.71702">
        <ele>180.91989153574</ele>
        <time>2015-08-07T14:05:37Z</time>
      </trkpt>
      <trkpt lat="45.40646" lon="0.71685">
        <ele>181.18788733377</ele>
        <time>2015-08-07T14:05:42Z</time>
      </trkpt>
      <trkpt lat="45.40647" lon="0.71693">
        <ele>181.18788733377</ele>
        <time>2015-08-07T14:05:47Z</time>
      </trkpt>
      <trkpt lat="45.40641" lon="0.71684">
        <ele>181.41955141877</ele>
        <time>2015-08-07T14:05:52Z</time>
      </trkpt>
      <trkpt lat="45.40632" lon="0.71675">
        <ele>181.15471703438</ele>
        <time>2015-08-07T14:05:57Z</time>
      </trkpt>
      <trkpt lat="45.40629" lon="0.71664">
        <ele>181.15471703438</ele>
        <time>2015-08-07T14:06:02Z</time>
      </trkpt>
      <trkpt lat="45.40628" lon="0.7166">
        <ele>181.3525451158</ele>
        <time>2015-08-07T14:06:07Z</time>
      </trkpt>
      <trkpt lat="45.40622" lon="0.71648">
        <ele>182.12181912756</ele>
        <time>2015-08-07T14:06:12Z</time>
      </trkpt>
      <trkpt lat="45.40617" lon="0.71642">
        <ele>182.12181912756</ele>
        <time>2015-08-07T14:06:17Z</time>
      </trkpt>
      <trkpt lat="45.40613" lon="0.71628">
        <ele>183.28769517863</ele>
        <time>2015-08-07T14:06:22Z</time>
      </trkpt>
      <trkpt lat="45.40608" lon="0.71623">
        <ele>183.28769517863</ele>
        <time>2015-08-07T14:06:27Z</time>
      </trkpt>
      <trkpt lat="45.406" lon="0.7162">
        <ele>183.37459970199</ele>
        <time>2015-08-07T14:06:32Z</time>
      </trkpt>
      <trkpt lat="45.40596" lon="0.71616">
        <ele>183.37459970199</ele>
        <time>2015-08-07T14:06:37Z</time>
      </trkpt>
      <trkpt lat="45.40592" lon="0.71608">
        <ele>183.02292458169</ele>
        <time>2015-08-07T14:06:42Z</time>
      </trkpt>
      <trkpt lat="45.40586" lon="0.71601">
        <ele>183.02292458169</ele>
        <time>2015-08-07T14:06:47Z</time>
      </trkpt>
      <trkpt lat="45.4058" lon="0.71591">
        <ele>182.98598050907</ele>
        <time>2015-08-07T14:06:52Z</time>
      </trkpt>
      <trkpt lat="45.40575" lon="0.71584">
        <ele>182.98598050907</ele>
        <time>2015-08-07T14:06:57Z</time>
      </trkpt>
      <trkpt lat="45.4057" lon="0.71576">
        <ele>183.00893802867</ele>
        <time>2015-08-07T14:07:02Z</time>
      </trkpt>
      <trkpt lat="45.40566" lon="0.71569">
        <ele>183.00893802867</ele>
        <time>2015-08-07T14:07:07Z</time>
      </trkpt>
      <trkpt lat="45.40562" lon="0.71562">
        <ele>183.25936984833</ele>
        <time>2015-08-07T14:07:12Z</time>
      </trkpt>
      <trkpt lat="45.40558" lon="0.71554">
        <ele>183.25936984833</ele>
        <time>2015-08-07T14:07:17Z</time>
      </trkpt>
      <trkpt lat="45.40554" lon="0.71548">
        <ele>183.61783181303</ele>
        <time>2015-08-07T14:07:22Z</time>
      </trkpt>
      <trkpt lat="45.4055" lon="0.71543">
        <ele>183.61783181303</ele>
        <time>2015-08-07T14:07:27Z</time>
      </trkpt>
      <trkpt lat="45.40547" lon="0.71535">
        <ele>183.77140951705</ele>
        <time>2015-08-07T14:07:32Z</time>
      </trkpt>
      <trkpt lat="45.40547" lon="0.71528">
        <ele>183.77140951705</ele>
        <time>2015-08-07T14:07:37Z</time>
      </trkpt>
      <trkpt lat="45.40544" lon="0.71525">
        <ele>183.77140951705</ele>
        <time>2015-08-07T14:07:42Z</time>
      </trkpt>
      <trkpt lat="45.4054" lon="0.71521">
        <ele>183.67599493092</ele>
        <time>2015-08-07T14:07:47Z</time>
      </trkpt>
      <trkpt lat="45.40538" lon="0.71516">
        <ele>183.67599493092</ele>
        <time>2015-08-07T14:07:52Z</time>
      </trkpt>
      <trkpt lat="45.40536" lon="0.71514">
        <ele>183.67599493092</ele>
        <time>2015-08-07T14:07:57Z</time>
      </trkpt>
      <trkpt lat="45.4053" lon="0.71504">
        <ele>183.52223176526</ele>
        <time>2015-08-07T14:08:02Z</time>
      </trkpt>
      <trkpt lat="45.40527" lon="0.71495">
        <ele>183.52223176526</ele>
        <time>2015-08-07T14:08:07Z</time>
      </trkpt>
      <trkpt lat="45.40523" lon="0.71491">
        <ele>183.18401860442</ele>
        <time>2015-08-07T14:08:12Z</time>
      </trkpt>
      <trkpt lat="45.40515" lon="0.71483">
        <ele>182.79027023092</ele>
        <time>2015-08-07T14:08:17Z</time>
      </trkpt>
      <trkpt lat="45.4051" lon="0.71477">
        <ele>182.79027023092</ele>
        <time>2015-08-07T14:08:22Z</time>
      </trkpt>
      <trkpt lat="45.40507" lon="0.71474">
        <ele>183.15288402893</ele>
        <time>2015-08-07T14:08:27Z</time>
      </trkpt>
      <trkpt lat="45.40505" lon="0.71473">
        <ele>183.15288402893</ele>
        <time>2015-08-07T14:08:32Z</time>
      </trkpt>
      <trkpt lat="45.40498" lon="0.71474">
        <ele>183.15288402893</ele>
        <time>2015-08-07T14:08:37Z</time>
      </trkpt>
      <trkpt lat="45.40498" lon="0.71474">
        <ele>183.43538972721</ele>
        <time>2015-08-07T14:08:42Z</time>
      </trkpt>
      <trkpt lat="45.40485" lon="0.71467">
        <ele>183.6130976061</ele>
        <time>2015-08-07T14:08:47Z</time>
      </trkpt>
      <trkpt lat="45.40482" lon="0.71466">
        <ele>183.6130976061</ele>
        <time>2015-08-07T14:08:52Z</time>
      </trkpt>
      <trkpt lat="45.40482" lon="0.71465">
        <ele>183.6130976061</ele>
        <time>2015-08-07T14:08:57Z</time>
      </trkpt>
      <trkpt lat="45.40482" lon="0.71465">
        <ele>183.6130976061</ele>
        <time>2015-08-07T14:09:02Z</time>
      </trkpt>
      <trkpt lat="45.40482" lon="0.71464">
        <ele>183.6130976061</ele>
        <time>2015-08-07T14:09:07Z</time>
      </trkpt>
      <trkpt lat="45.40482" lon="0.71464">
        <ele>183.6130976061</ele>
        <time>2015-08-07T14:09:12Z</time>
      </trkpt>
      <trkpt lat="45.40482" lon="0.71464">
        <ele>183.6130976061</ele>
        <time>2015-08-07T14:09:17Z</time>
      </trkpt>
      <trkpt lat="45.40482" lon="0.71464">
        <ele>183.6130976061</ele>
        <time>2015-08-07T14:09:22Z</time>
      </trkpt>
      <trkpt lat="45.40478" lon="0.71462">
        <ele>183.6130976061</ele>
        <time>2015-08-07T14:09:27Z</time>
      </trkpt>
      <trkpt lat="45.40477" lon="0.71464">
        <ele>184.90366344006</ele>
        <time>2015-08-07T14:09:32Z</time>
      </trkpt>
      <trkpt lat="45.40472" lon="0.71473">
        <ele>184.90366344006</ele>
        <time>2015-08-07T14:09:37Z</time>
      </trkpt>
      <trkpt lat="45.40468" lon="0.71478">
        <ele>185.92280140646</ele>
        <time>2015-08-07T14:09:42Z</time>
      </trkpt>
      <trkpt lat="45.40465" lon="0.71482">
        <ele>185.92280140646</ele>
        <time>2015-08-07T14:09:47Z</time>
      </trkpt>
      <trkpt lat="45.4046" lon="0.7149">
        <ele>186.13883136011</ele>
        <time>2015-08-07T14:09:52Z</time>
      </trkpt>
      <trkpt lat="45.40455" lon="0.71502">
        <ele>186.47458567535</ele>
        <time>2015-08-07T14:09:57Z</time>
      </trkpt>
      <trkpt lat="45.4045" lon="0.71511">
        <ele>186.47458567535</ele>
        <time>2015-08-07T14:10:02Z</time>
      </trkpt>
      <trkpt lat="45.40449" lon="0.71522">
        <ele>186.67442414271</ele>
        <time>2015-08-07T14:10:07Z</time>
      </trkpt>
      <trkpt lat="45.40446" lon="0.7153">
        <ele>186.67442414271</ele>
        <time>2015-08-07T14:10:12Z</time>
      </trkpt>
      <trkpt lat="45.40442" lon="0.71537">
        <ele>186.28570579537</ele>
        <time>2015-08-07T14:10:17Z</time>
      </trkpt>
      <trkpt lat="45.40438" lon="0.71544">
        <ele>186.28570579537</ele>
        <time>2015-08-07T14:10:22Z</time>
      </trkpt>
      <trkpt lat="45.40435" lon="0.71552">
        <ele>186.23157274562</ele>
        <time>2015-08-07T14:10:27Z</time>
      </trkpt>
      <trkpt lat="45.40433" lon="0.7156">
        <ele>186.23157274562</ele>
        <time>2015-08-07T14:10:32Z</time>
      </trkpt>
      <trkpt lat="45.40431" lon="0.71566">
        <ele>185.7228574327</ele>
        <time>2015-08-07T14:10:37Z</time>
      </trkpt>
      <trkpt lat="45.40429" lon="0.71575">
        <ele>185.7228574327</ele>
        <time>2015-08-07T14:10:42Z</time>
      </trkpt>
      <trkpt lat="45.40427" lon="0.71582">
        <ele>185.02447822082</ele>
        <time>2015-08-07T14:10:47Z</time>
      </trkpt>
      <trkpt lat="45.40424" lon="0.71594">
        <ele>185.02447822082</ele>
        <time>2015-08-07T14:10:52Z</time>
      </trkpt>
      <trkpt lat="45.40421" lon="0.71604">
        <ele>184.4833136749</ele>
        <time>2015-08-07T14:10:57Z</time>
      </trkpt>
      <trkpt lat="45.40418" lon="0.71615">
        <ele>184.4833136749</ele>
        <time>2015-08-07T14:11:02Z</time>
      </trkpt>
      <trkpt lat="45.40414" lon="0.71621">
        <ele>183.32481175592</ele>
        <time>2015-08-07T14:11:07Z</time>
      </trkpt>
      <trkpt lat="45.40412" lon="0.71631">
        <ele>183.32481175592</ele>
        <time>2015-08-07T14:11:12Z</time>
      </trkpt>
      <trkpt lat="45.4041" lon="0.7164">
        <ele>182.5628269608</ele>
        <time>2015-08-07T14:11:17Z</time>
      </trkpt>
      <trkpt lat="45.40408" lon="0.71646">
        <ele>182.5628269608</ele>
        <time>2015-08-07T14:11:22Z</time>
      </trkpt>
      <trkpt lat="45.40406" lon="0.71653">
        <ele>181.76624532771</ele>
        <time>2015-08-07T14:11:27Z</time>
      </trkpt>
      <trkpt lat="45.40404" lon="0.71655">
        <ele>181.76624532771</ele>
        <time>2015-08-07T14:11:32Z</time>
      </trkpt>
      <trkpt lat="45.40401" lon="0.71656">
        <ele>181.76624532771</ele>
        <time>2015-08-07T14:11:37Z</time>
      </trkpt>
      <trkpt lat="45.404" lon="0.71656">
        <ele>181.76624532771</ele>
        <time>2015-08-07T14:11:42Z</time>
      </trkpt>
      <trkpt lat="45.40399" lon="0.71659">
        <ele>181.76624532771</ele>
        <time>2015-08-07T14:11:47Z</time>
      </trkpt>
      <trkpt lat="45.40398" lon="0.71659">
        <ele>180.708732981</ele>
        <time>2015-08-07T14:11:52Z</time>
      </trkpt>
      <trkpt lat="45.40398" lon="0.7166">
        <ele>180.708732981</ele>
        <time>2015-08-07T14:11:57Z</time>
      </trkpt>
      <trkpt lat="45.40398" lon="0.71662">
        <ele>180.708732981</ele>
        <time>2015-08-07T14:12:02Z</time>
      </trkpt>
      <trkpt lat="45.40397" lon="0.71662">
        <ele>180.708732981</ele>
        <time>2015-08-07T14:12:07Z</time>
      </trkpt>
      <trkpt lat="45.40391" lon="0.71658">
        <ele>179.25339728326</ele>
        <time>2015-08-07T14:12:12Z</time>
      </trkpt>
      <trkpt lat="45.40387" lon="0.71659">
        <ele>179.25339728326</ele>
        <time>2015-08-07T14:12:17Z</time>
      </trkpt>
      <trkpt lat="45.40387" lon="0.71656">
        <ele>179.25339728326</ele>
        <time>2015-08-07T14:12:27Z</time>
      </trkpt>
      <trkpt lat="45.40384" lon="0.71656">
        <ele>179.25339728326</ele>
        <time>2015-08-07T14:12:33Z</time>
      </trkpt>
      <trkpt lat="45.40372" lon="0.71655">
        <ele>178.81663525788</ele>
        <time>2015-08-07T14:12:42Z</time>
      </trkpt>
      <trkpt lat="45.40364" lon="0.71658">
        <ele>178.81663525788</ele>
        <time>2015-08-07T14:12:48Z</time>
      </trkpt>
      <trkpt lat="45.40352" lon="0.71656">
        <ele>179.02162118576</ele>
        <time>2015-08-07T14:12:58Z</time>
      </trkpt>
      <trkpt lat="45.40349" lon="0.71655">
        <ele>179.02162118576</ele>
        <time>2015-08-07T14:13:03Z</time>
      </trkpt>
      <trkpt lat="45.40345" lon="0.71661">
        <ele>179.02162118576</ele>
        <time>2015-08-07T14:13:07Z</time>
      </trkpt>
      <trkpt lat="45.4034" lon="0.71664">
        <ele>178.91213347218</ele>
        <time>2015-08-07T14:13:12Z</time>
      </trkpt>
      <trkpt lat="45.40334" lon="0.71669">
        <ele>178.91213347218</ele>
        <time>2015-08-07T14:13:17Z</time>
      </trkpt>
      <trkpt lat="45.40331" lon="0.71676">
        <ele>178.25163664905</ele>
        <time>2015-08-07T14:13:22Z</time>
      </trkpt>
      <trkpt lat="45.40326" lon="0.7168">
        <ele>178.25163664905</ele>
        <time>2015-08-07T14:13:27Z</time>
      </trkpt>
      <trkpt lat="45.40324" lon="0.71682">
        <ele>178.25163664905</ele>
        <time>2015-08-07T14:13:32Z</time>
      </trkpt>
      <trkpt lat="45.4032" lon="0.71691">
        <ele>178.24925095491</ele>
        <time>2015-08-07T14:13:37Z</time>
      </trkpt>
      <trkpt lat="45.40311" lon="0.71712">
        <ele>177.89048658629</ele>
        <time>2015-08-07T14:13:42Z</time>
      </trkpt>
      <trkpt lat="45.40298" lon="0.71739">
        <ele>177.49017914923</ele>
        <time>2015-08-07T14:13:47Z</time>
      </trkpt>
      <trkpt lat="45.40283" lon="0.71766">
        <ele>177.42660209502</ele>
        <time>2015-08-07T14:13:52Z</time>
      </trkpt>
      <trkpt lat="45.40271" lon="0.71784">
        <ele>177.64576690152</ele>
        <time>2015-08-07T14:13:57Z</time>
      </trkpt>
      <trkpt lat="45.40265" lon="0.71791">
        <ele>177.64576690152</ele>
        <time>2015-08-07T14:14:02Z</time>
      </trkpt>
      <trkpt lat="45.4026" lon="0.71798">
        <ele>177.70774710632</ele>
        <time>2015-08-07T14:14:07Z</time>
      </trkpt>
      <trkpt lat="45.40256" lon="0.71802">
        <ele>177.70774710632</ele>
        <time>2015-08-07T14:14:12Z</time>
      </trkpt>
      <trkpt lat="45.40253" lon="0.71806">
        <ele>178.12769004728</ele>
        <time>2015-08-07T14:14:17Z</time>
      </trkpt>
      <trkpt lat="45.40247" lon="0.71813">
        <ele>178.12769004728</ele>
        <time>2015-08-07T14:14:22Z</time>
      </trkpt>
      <trkpt lat="45.40244" lon="0.71818">
        <ele>177.98400155725</ele>
        <time>2015-08-07T14:14:27Z</time>
      </trkpt>
      <trkpt lat="45.40239" lon="0.71824">
        <ele>177.98400155725</ele>
        <time>2015-08-07T14:14:32Z</time>
      </trkpt>
      <trkpt lat="45.40235" lon="0.7183">
        <ele>177.23139720807</ele>
        <time>2015-08-07T14:14:37Z</time>
      </trkpt>
      <trkpt lat="45.40229" lon="0.71832">
        <ele>177.23139720807</ele>
        <time>2015-08-07T14:14:42Z</time>
      </trkpt>
      <trkpt lat="45.4022" lon="0.71837">
        <ele>176.42048877719</ele>
        <time>2015-08-07T14:14:47Z</time>
      </trkpt>
      <trkpt lat="45.40213" lon="0.71837">
        <ele>176.42048877719</ele>
        <time>2015-08-07T14:14:52Z</time>
      </trkpt>
      <trkpt lat="45.40207" lon="0.71842">
        <ele>175.78778896194</ele>
        <time>2015-08-07T14:14:57Z</time>
      </trkpt>
      <trkpt lat="45.402" lon="0.71847">
        <ele>175.78778896194</ele>
        <time>2015-08-07T14:15:02Z</time>
      </trkpt>
      <trkpt lat="45.40192" lon="0.71848">
        <ele>175.59516719761</ele>
        <time>2015-08-07T14:15:07Z</time>
      </trkpt>
      <trkpt lat="45.40167" lon="0.71853">
        <ele>176.28577680579</ele>
        <time>2015-08-07T14:15:22Z</time>
      </trkpt>
      <trkpt lat="45.40159" lon="0.71853">
        <ele>176.28577680579</ele>
        <time>2015-08-07T14:15:28Z</time>
      </trkpt>
      <trkpt lat="45.40148" lon="0.71852">
        <ele>176.53836922336</ele>
        <time>2015-08-07T14:15:38Z</time>
      </trkpt>
      <trkpt lat="45.40138" lon="0.71852">
        <ele>177.14757539494</ele>
        <time>2015-08-07T14:15:42Z</time>
      </trkpt>
      <trkpt lat="45.40131" lon="0.71851">
        <ele>177.14757539494</ele>
        <time>2015-08-07T14:15:47Z</time>
      </trkpt>
      <trkpt lat="45.40124" lon="0.71852">
        <ele>177.06164065214</ele>
        <time>2015-08-07T14:15:52Z</time>
      </trkpt>
      <trkpt lat="45.40118" lon="0.71853">
        <ele>177.06164065214</ele>
        <time>2015-08-07T14:15:57Z</time>
      </trkpt>
      <trkpt lat="45.4011" lon="0.71854">
        <ele>176.51858854626</ele>
        <time>2015-08-07T14:16:02Z</time>
      </trkpt>
      <trkpt lat="45.40101" lon="0.71855">
        <ele>176.51858854626</ele>
        <time>2015-08-07T14:16:07Z</time>
      </trkpt>
      <trkpt lat="45.40096" lon="0.71855">
        <ele>176.15818217242</ele>
        <time>2015-08-07T14:16:12Z</time>
      </trkpt>
      <trkpt lat="45.40087" lon="0.71854">
        <ele>176.15818217242</ele>
        <time>2015-08-07T14:16:17Z</time>
      </trkpt>
      <trkpt lat="45.4008" lon="0.71854">
        <ele>176.24122115446</ele>
        <time>2015-08-07T14:16:22Z</time>
      </trkpt>
      <trkpt lat="45.40074" lon="0.71854">
        <ele>176.24122115446</ele>
        <time>2015-08-07T14:16:27Z</time>
      </trkpt>
      <trkpt lat="45.40068" lon="0.71856">
        <ele>176.21547902</ele>
        <time>2015-08-07T14:16:32Z</time>
      </trkpt>
      <trkpt lat="45.4006" lon="0.71855">
        <ele>176.21547902</ele>
        <time>2015-08-07T14:16:37Z</time>
      </trkpt>
      <trkpt lat="45.40054" lon="0.71855">
        <ele>175.54078507226</ele>
        <time>2015-08-07T14:16:42Z</time>
      </trkpt>
      <trkpt lat="45.40049" lon="0.71854">
        <ele>175.54078507226</ele>
        <time>2015-08-07T14:16:47Z</time>
      </trkpt>
      <trkpt lat="45.40042" lon="0.71851">
        <ele>174.33816985621</ele>
        <time>2015-08-07T14:16:52Z</time>
      </trkpt>
      <trkpt lat="45.40035" lon="0.71848">
        <ele>174.33816985621</ele>
        <time>2015-08-07T14:16:57Z</time>
      </trkpt>
      <trkpt lat="45.40028" lon="0.71843">
        <ele>173.08154230541</ele>
        <time>2015-08-07T14:17:02Z</time>
      </trkpt>
      <trkpt lat="45.4002" lon="0.71837">
        <ele>172.29661293695</ele>
        <time>2015-08-07T14:17:07Z</time>
      </trkpt>
      <trkpt lat="45.40019" lon="0.71836">
        <ele>172.29661293695</ele>
        <time>2015-08-07T14:17:12Z</time>
      </trkpt>
      <trkpt lat="45.40019" lon="0.71836">
        <ele>172.29661293695</ele>
        <time>2015-08-07T14:17:17Z</time>
      </trkpt>
      <trkpt lat="45.40016" lon="0.71833">
        <ele>172.29661293695</ele>
        <time>2015-08-07T14:17:22Z</time>
      </trkpt>
      <trkpt lat="45.40014" lon="0.71832">
        <ele>172.29661293695</ele>
        <time>2015-08-07T14:17:27Z</time>
      </trkpt>
      <trkpt lat="45.40012" lon="0.7183">
        <ele>171.69091965728</ele>
        <time>2015-08-07T14:17:32Z</time>
      </trkpt>
      <trkpt lat="45.40007" lon="0.71827">
        <ele>171.69091965728</ele>
        <time>2015-08-07T14:17:37Z</time>
      </trkpt>
      <trkpt lat="45.4" lon="0.71824">
        <ele>171.12267077152</ele>
        <time>2015-08-07T14:17:42Z</time>
      </trkpt>
      <trkpt lat="45.39994" lon="0.71817">
        <ele>171.12267077152</ele>
        <time>2015-08-07T14:17:47Z</time>
      </trkpt>
      <trkpt lat="45.39982" lon="0.71807">
        <ele>170.46036778159</ele>
        <time>2015-08-07T14:17:57Z</time>
      </trkpt>
      <trkpt lat="45.39977" lon="0.71804">
        <ele>170.46036778159</ele>
        <time>2015-08-07T14:18:02Z</time>
      </trkpt>
      <trkpt lat="45.39972" lon="0.71804">
        <ele>169.48153571939</ele>
        <time>2015-08-07T14:18:07Z</time>
      </trkpt>
      <trkpt lat="45.39967" lon="0.71801">
        <ele>169.48153571939</ele>
        <time>2015-08-07T14:18:12Z</time>
      </trkpt>
      <trkpt lat="45.3996" lon="0.71798">
        <ele>168.51412918276</ele>
        <time>2015-08-07T14:18:17Z</time>
      </trkpt>
      <trkpt lat="45.39953" lon="0.71797">
        <ele>168.51412918276</ele>
        <time>2015-08-07T14:18:22Z</time>
      </trkpt>
      <trkpt lat="45.39947" lon="0.71797">
        <ele>167.2999068797</ele>
        <time>2015-08-07T14:18:27Z</time>
      </trkpt>
      <trkpt lat="45.39939" lon="0.71795">
        <ele>167.2999068797</ele>
        <time>2015-08-07T14:18:32Z</time>
      </trkpt>
      <trkpt lat="45.39932" lon="0.71792">
        <ele>166.00377737938</ele>
        <time>2015-08-07T14:18:37Z</time>
      </trkpt>
      <trkpt lat="45.39925" lon="0.71789">
        <ele>166.00377737938</ele>
        <time>2015-08-07T14:18:42Z</time>
      </trkpt>
      <trkpt lat="45.39921" lon="0.71786">
        <ele>164.76431574017</ele>
        <time>2015-08-07T14:18:47Z</time>
      </trkpt>
      <trkpt lat="45.39913" lon="0.71784">
        <ele>164.76431574017</ele>
        <time>2015-08-07T14:18:52Z</time>
      </trkpt>
      <trkpt lat="45.39906" lon="0.71784">
        <ele>163.69530465974</ele>
        <time>2015-08-07T14:18:57Z</time>
      </trkpt>
      <trkpt lat="45.39898" lon="0.71784">
        <ele>163.69530465974</ele>
        <time>2015-08-07T14:19:02Z</time>
      </trkpt>
      <trkpt lat="45.39892" lon="0.71786">
        <ele>163.08899105315</ele>
        <time>2015-08-07T14:19:07Z</time>
      </trkpt>
      <trkpt lat="45.39885" lon="0.71789">
        <ele>163.08899105315</ele>
        <time>2015-08-07T14:19:12Z</time>
      </trkpt>
      <trkpt lat="45.39878" lon="0.7179">
        <ele>162.58071123981</ele>
        <time>2015-08-07T14:19:17Z</time>
      </trkpt>
      <trkpt lat="45.3987" lon="0.7179">
        <ele>162.58071123981</ele>
        <time>2015-08-07T14:19:22Z</time>
      </trkpt>
      <trkpt lat="45.39863" lon="0.7179">
        <ele>162.27901786353</ele>
        <time>2015-08-07T14:19:27Z</time>
      </trkpt>
      <trkpt lat="45.39856" lon="0.71789">
        <ele>162.27901786353</ele>
        <time>2015-08-07T14:19:32Z</time>
      </trkpt>
      <trkpt lat="45.39849" lon="0.71788">
        <ele>162.05328455624</ele>
        <time>2015-08-07T14:19:37Z</time>
      </trkpt>
      <trkpt lat="45.39842" lon="0.71787">
        <ele>162.05328455624</ele>
        <time>2015-08-07T14:19:42Z</time>
      </trkpt>
      <trkpt lat="45.39834" lon="0.71785">
        <ele>161.73899261511</ele>
        <time>2015-08-07T14:19:47Z</time>
      </trkpt>
      <trkpt lat="45.39827" lon="0.71784">
        <ele>161.73899261511</ele>
        <time>2015-08-07T14:19:52Z</time>
      </trkpt>
      <trkpt lat="45.3982" lon="0.71783">
        <ele>161.34244258212</ele>
        <time>2015-08-07T14:19:57Z</time>
      </trkpt>
      <trkpt lat="45.39812" lon="0.71782">
        <ele>161.34244258212</ele>
        <time>2015-08-07T14:20:02Z</time>
      </trkpt>
      <trkpt lat="45.39806" lon="0.71782">
        <ele>160.9705462207</ele>
        <time>2015-08-07T14:20:07Z</time>
      </trkpt>
      <trkpt lat="45.39802" lon="0.71778">
        <ele>160.9705462207</ele>
        <time>2015-08-07T14:20:12Z</time>
      </trkpt>
      <trkpt lat="45.39801" lon="0.7177">
        <ele>160.23227978456</ele>
        <time>2015-08-07T14:20:18Z</time>
      </trkpt>
      <trkpt lat="45.39804" lon="0.71768">
        <ele>160.23227978456</ele>
        <time>2015-08-07T14:20:27Z</time>
      </trkpt>
      <trkpt lat="45.39806" lon="0.71765">
        <ele>160.23227978456</ele>
        <time>2015-08-07T14:20:32Z</time>
      </trkpt>
      <trkpt lat="45.39807" lon="0.71766">
        <ele>160.23227978456</ele>
        <time>2015-08-07T14:20:37Z</time>
      </trkpt>
      <trkpt lat="45.39807" lon="0.71766">
        <ele>160.23227978456</ele>
        <time>2015-08-07T14:20:42Z</time>
      </trkpt>
      <trkpt lat="45.39808" lon="0.71766">
        <ele>160.23227978456</ele>
        <time>2015-08-07T14:20:47Z</time>
      </trkpt>
      <trkpt lat="45.39808" lon="0.71766">
        <ele>160.23227978456</ele>
        <time>2015-08-07T14:20:52Z</time>
      </trkpt>
      <trkpt lat="45.39807" lon="0.71767">
        <ele>160.19304842492</ele>
        <time>2015-08-07T14:20:57Z</time>
      </trkpt>
      <trkpt lat="45.39805" lon="0.71765">
        <ele>160.19304842492</ele>
        <time>2015-08-07T14:21:02Z</time>
      </trkpt>
      <trkpt lat="45.39804" lon="0.71757">
        <ele>160.19304842492</ele>
        <time>2015-08-07T14:21:07Z</time>
      </trkpt>
      <trkpt lat="45.39803" lon="0.71749">
        <ele>159.71956257876</ele>
        <time>2015-08-07T14:21:12Z</time>
      </trkpt>
      <trkpt lat="45.39799" lon="0.71742">
        <ele>159.71956257876</ele>
        <time>2015-08-07T14:21:17Z</time>
      </trkpt>
      <trkpt lat="45.39793" lon="0.71738">
        <ele>159.26173841485</ele>
        <time>2015-08-07T14:21:22Z</time>
      </trkpt>
      <trkpt lat="45.3979" lon="0.71737">
        <ele>159.26173841485</ele>
        <time>2015-08-07T14:21:27Z</time>
      </trkpt>
      <trkpt lat="45.39783" lon="0.71733">
        <ele>158.76080607426</ele>
        <time>2015-08-07T14:21:32Z</time>
      </trkpt>
      <trkpt lat="45.39777" lon="0.71729">
        <ele>158.76080607426</ele>
        <time>2015-08-07T14:21:37Z</time>
      </trkpt>
      <trkpt lat="45.3977" lon="0.71726">
        <ele>158.43622490865</ele>
        <time>2015-08-07T14:21:42Z</time>
      </trkpt>
      <trkpt lat="45.39764" lon="0.71725">
        <ele>158.43622490865</ele>
        <time>2015-08-07T14:21:47Z</time>
      </trkpt>
      <trkpt lat="45.39757" lon="0.71721">
        <ele>158.0152517315</ele>
        <time>2015-08-07T14:21:52Z</time>
      </trkpt>
      <trkpt lat="45.3975" lon="0.71718">
        <ele>158.0152517315</ele>
        <time>2015-08-07T14:21:57Z</time>
      </trkpt>
      <trkpt lat="45.39743" lon="0.71716">
        <ele>157.47601033822</ele>
        <time>2015-08-07T14:22:02Z</time>
      </trkpt>
      <trkpt lat="45.39735" lon="0.71713">
        <ele>157.47601033822</ele>
        <time>2015-08-07T14:22:07Z</time>
      </trkpt>
      <trkpt lat="45.39728" lon="0.71711">
        <ele>157.00030330033</ele>
        <time>2015-08-07T14:22:12Z</time>
      </trkpt>
      <trkpt lat="45.39721" lon="0.71709">
        <ele>157.00030330033</ele>
        <time>2015-08-07T14:22:17Z</time>
      </trkpt>
      <trkpt lat="45.39713" lon="0.71705">
        <ele>156.39610705949</ele>
        <time>2015-08-07T14:22:22Z</time>
      </trkpt>
      <trkpt lat="45.39699" lon="0.71691">
        <ele>155.71642844078</ele>
        <time>2015-08-07T14:22:27Z</time>
      </trkpt>
      <trkpt lat="45.39674" lon="0.71679">
        <ele>155.08263396301</ele>
        <time>2015-08-07T14:22:32Z</time>
      </trkpt>
      <trkpt lat="45.39649" lon="0.71664">
        <ele>154.44850979432</ele>
        <time>2015-08-07T14:22:37Z</time>
      </trkpt>
      <trkpt lat="45.39624" lon="0.71649">
        <ele>153.74240155506</ele>
        <time>2015-08-07T14:22:42Z</time>
      </trkpt>
      <trkpt lat="45.39611" lon="0.71621">
        <ele>152.88369467304</ele>
        <time>2015-08-07T14:22:47Z</time>
      </trkpt>
      <trkpt lat="45.3961" lon="0.71595">
        <ele>151.81251979131</ele>
        <time>2015-08-07T14:22:52Z</time>
      </trkpt>
      <trkpt lat="45.39607" lon="0.71586">
        <ele>151.81251979131</ele>
        <time>2015-08-07T14:22:57Z</time>
      </trkpt>
      <trkpt lat="45.39602" lon="0.7158">
        <ele>150.35869423795</ele>
        <time>2015-08-07T14:23:02Z</time>
      </trkpt>
      <trkpt lat="45.39599" lon="0.71573">
        <ele>150.35869423795</ele>
        <time>2015-08-07T14:23:07Z</time>
      </trkpt>
      <trkpt lat="45.39599" lon="0.7157">
        <ele>150.35869423795</ele>
        <time>2015-08-07T14:23:12Z</time>
      </trkpt>
      <trkpt lat="45.39597" lon="0.71559">
        <ele>148.26470941781</ele>
        <time>2015-08-07T14:23:17Z</time>
      </trkpt>
      <trkpt lat="45.39597" lon="0.71553">
        <ele>148.26470941781</ele>
        <time>2015-08-07T14:23:22Z</time>
      </trkpt>
      <trkpt lat="45.39597" lon="0.71544">
        <ele>145.6540166087</ele>
        <time>2015-08-07T14:23:27Z</time>
      </trkpt>
      <trkpt lat="45.39595" lon="0.71531">
        <ele>143.76647661225</ele>
        <time>2015-08-07T14:23:32Z</time>
      </trkpt>
      <trkpt lat="45.39595" lon="0.71521">
        <ele>143.76647661225</ele>
        <time>2015-08-07T14:23:37Z</time>
      </trkpt>
      <trkpt lat="45.39593" lon="0.71513">
        <ele>141.8465251041</ele>
        <time>2015-08-07T14:23:42Z</time>
      </trkpt>
      <trkpt lat="45.39592" lon="0.71507">
        <ele>141.8465251041</ele>
        <time>2015-08-07T14:23:47Z</time>
      </trkpt>
      <trkpt lat="45.3959" lon="0.71497">
        <ele>139.58323362051</ele>
        <time>2015-08-07T14:23:52Z</time>
      </trkpt>
      <trkpt lat="45.39589" lon="0.71491">
        <ele>139.58323362051</ele>
        <time>2015-08-07T14:23:57Z</time>
      </trkpt>
      <trkpt lat="45.39587" lon="0.71484">
        <ele>136.76146470074</ele>
        <time>2015-08-07T14:24:02Z</time>
      </trkpt>
      <trkpt lat="45.39587" lon="0.71479">
        <ele>136.76146470074</ele>
        <time>2015-08-07T14:24:07Z</time>
      </trkpt>
      <trkpt lat="45.39586" lon="0.71473">
        <ele>136.76146470074</ele>
        <time>2015-08-07T14:24:12Z</time>
      </trkpt>
      <trkpt lat="45.39586" lon="0.71464">
        <ele>133.06808321114</ele>
        <time>2015-08-07T14:24:17Z</time>
      </trkpt>
      <trkpt lat="45.39585" lon="0.71453">
        <ele>133.06808321114</ele>
        <time>2015-08-07T14:24:22Z</time>
      </trkpt>
      <trkpt lat="45.39586" lon="0.71441">
        <ele>129.91582365601</ele>
        <time>2015-08-07T14:24:27Z</time>
      </trkpt>
      <trkpt lat="45.39587" lon="0.71433">
        <ele>129.91582365601</ele>
        <time>2015-08-07T14:24:32Z</time>
      </trkpt>
      <trkpt lat="45.39588" lon="0.71419">
        <ele>127.37266364672</ele>
        <time>2015-08-07T14:24:37Z</time>
      </trkpt>
      <trkpt lat="45.39587" lon="0.71407">
        <ele>127.37266364672</ele>
        <time>2015-08-07T14:24:42Z</time>
      </trkpt>
      <trkpt lat="45.39589" lon="0.71399">
        <ele>124.73597361514</ele>
        <time>2015-08-07T14:24:47Z</time>
      </trkpt>
      <trkpt lat="45.39589" lon="0.71389">
        <ele>124.73597361514</ele>
        <time>2015-08-07T14:24:52Z</time>
      </trkpt>
      <trkpt lat="45.39587" lon="0.71377">
        <ele>122.52217846575</ele>
        <time>2015-08-07T14:24:57Z</time>
      </trkpt>
      <trkpt lat="45.39587" lon="0.71368">
        <ele>122.52217846575</ele>
        <time>2015-08-07T14:25:02Z</time>
      </trkpt>
      <trkpt lat="45.39585" lon="0.71354">
        <ele>121.10757464564</ele>
        <time>2015-08-07T14:25:07Z</time>
      </trkpt>
      <trkpt lat="45.39583" lon="0.71345">
        <ele>121.10757464564</ele>
        <time>2015-08-07T14:25:12Z</time>
      </trkpt>
      <trkpt lat="45.3958" lon="0.71336">
        <ele>119.80084453496</ele>
        <time>2015-08-07T14:25:17Z</time>
      </trkpt>
      <trkpt lat="45.39578" lon="0.71327">
        <ele>119.80084453496</ele>
        <time>2015-08-07T14:25:22Z</time>
      </trkpt>
      <trkpt lat="45.39574" lon="0.71315">
        <ele>118.92657185953</ele>
        <time>2015-08-07T14:25:27Z</time>
      </trkpt>
      <trkpt lat="45.39571" lon="0.71304">
        <ele>118.92657185953</ele>
        <time>2015-08-07T14:25:32Z</time>
      </trkpt>
      <trkpt lat="45.39569" lon="0.71294">
        <ele>118.49594261067</ele>
        <time>2015-08-07T14:25:37Z</time>
      </trkpt>
      <trkpt lat="45.39566" lon="0.71285">
        <ele>118.49594261067</ele>
        <time>2015-08-07T14:25:42Z</time>
      </trkpt>
      <trkpt lat="45.39564" lon="0.71275">
        <ele>118.31621254495</ele>
        <time>2015-08-07T14:25:47Z</time>
      </trkpt>
      <trkpt lat="45.39563" lon="0.71265">
        <ele>118.31621254495</ele>
        <time>2015-08-07T14:25:52Z</time>
      </trkpt>
      <trkpt lat="45.39562" lon="0.71254">
        <ele>118.35210777568</ele>
        <time>2015-08-07T14:25:57Z</time>
      </trkpt>
      <trkpt lat="45.39562" lon="0.71246">
        <ele>118.35210777568</ele>
        <time>2015-08-07T14:26:02Z</time>
      </trkpt>
      <trkpt lat="45.39561" lon="0.71238">
        <ele>118.75760393271</ele>
        <time>2015-08-07T14:26:07Z</time>
      </trkpt>
      <trkpt lat="45.39557" lon="0.71207">
        <ele>119.34280760662</ele>
        <time>2015-08-07T14:26:12Z</time>
      </trkpt>
      <trkpt lat="45.39549" lon="0.71159">
        <ele>120.60854610933</ele>
        <time>2015-08-07T14:26:17Z</time>
      </trkpt>
      <trkpt lat="45.39548" lon="0.71111">
        <ele>122.2819521935</ele>
        <time>2015-08-07T14:26:22Z</time>
      </trkpt>
      <trkpt lat="45.39553" lon="0.71065">
        <ele>124.41168753385</ele>
        <time>2015-08-07T14:26:27Z</time>
      </trkpt>
      <trkpt lat="45.39549" lon="0.71016">
        <ele>126.65247653059</ele>
        <time>2015-08-07T14:26:32Z</time>
      </trkpt>
      <trkpt lat="45.39555" lon="0.70956">
        <ele>129.17411674086</ele>
        <time>2015-08-07T14:26:37Z</time>
      </trkpt>
      <trkpt lat="45.39564" lon="0.70898">
        <ele>132.49349180983</ele>
        <time>2015-08-07T14:26:42Z</time>
      </trkpt>
      <trkpt lat="45.39565" lon="0.70844">
        <ele>135.68949450518</ele>
        <time>2015-08-07T14:26:47Z</time>
      </trkpt>
      <trkpt lat="45.3956" lon="0.70803">
        <ele>138.6873499105</ele>
        <time>2015-08-07T14:26:52Z</time>
      </trkpt>
      <trkpt lat="45.39556" lon="0.70788">
        <ele>141.60582306385</ele>
        <time>2015-08-07T14:26:57Z</time>
      </trkpt>
      <trkpt lat="45.39555" lon="0.70774">
        <ele>144.68504717088</ele>
        <time>2015-08-07T14:27:02Z</time>
      </trkpt>
      <trkpt lat="45.39552" lon="0.70764">
        <ele>144.68504717088</ele>
        <time>2015-08-07T14:27:07Z</time>
      </trkpt>
      <trkpt lat="45.39551" lon="0.70753">
        <ele>147.29699787658</ele>
        <time>2015-08-07T14:27:12Z</time>
      </trkpt>
      <trkpt lat="45.39549" lon="0.70743">
        <ele>147.29699787658</ele>
        <time>2015-08-07T14:27:17Z</time>
      </trkpt>
      <trkpt lat="45.39547" lon="0.70734">
        <ele>149.53862417829</ele>
        <time>2015-08-07T14:27:22Z</time>
      </trkpt>
      <trkpt lat="45.39544" lon="0.70725">
        <ele>149.53862417829</ele>
        <time>2015-08-07T14:27:27Z</time>
      </trkpt>
      <trkpt lat="45.39542" lon="0.70716">
        <ele>151.2848431721</ele>
        <time>2015-08-07T14:27:32Z</time>
      </trkpt>
      <trkpt lat="45.39539" lon="0.70706">
        <ele>151.2848431721</ele>
        <time>2015-08-07T14:27:37Z</time>
      </trkpt>
      <trkpt lat="45.39536" lon="0.70699">
        <ele>152.62313147983</ele>
        <time>2015-08-07T14:27:42Z</time>
      </trkpt>
      <trkpt lat="45.39533" lon="0.70688">
        <ele>152.62313147983</ele>
        <time>2015-08-07T14:27:47Z</time>
      </trkpt>
      <trkpt lat="45.3953" lon="0.70678">
        <ele>154.21235838356</ele>
        <time>2015-08-07T14:27:52Z</time>
      </trkpt>
      <trkpt lat="45.39527" lon="0.70671">
        <ele>154.21235838356</ele>
        <time>2015-08-07T14:27:57Z</time>
      </trkpt>
      <trkpt lat="45.39524" lon="0.70662">
        <ele>155.48080744768</ele>
        <time>2015-08-07T14:28:02Z</time>
      </trkpt>
      <trkpt lat="45.39522" lon="0.70657">
        <ele>155.48080744768</ele>
        <time>2015-08-07T14:28:07Z</time>
      </trkpt>
      <trkpt lat="45.39516" lon="0.70646">
        <ele>156.64926634863</ele>
        <time>2015-08-07T14:28:12Z</time>
      </trkpt>
      <trkpt lat="45.39503" lon="0.70642">
        <ele>158.65777766468</ele>
        <time>2015-08-07T14:28:22Z</time>
      </trkpt>
      <trkpt lat="45.39496" lon="0.70645">
        <ele>158.65777766468</ele>
        <time>2015-08-07T14:28:27Z</time>
      </trkpt>
      <trkpt lat="45.3949" lon="0.7065">
        <ele>160.73232982367</ele>
        <time>2015-08-07T14:28:32Z</time>
      </trkpt>
      <trkpt lat="45.39482" lon="0.70651">
        <ele>160.73232982367</ele>
        <time>2015-08-07T14:28:37Z</time>
      </trkpt>
      <trkpt lat="45.39477" lon="0.70652">
        <ele>162.54490792559</ele>
        <time>2015-08-07T14:28:42Z</time>
      </trkpt>
      <trkpt lat="45.39469" lon="0.70654">
        <ele>162.54490792559</ele>
        <time>2015-08-07T14:28:47Z</time>
      </trkpt>
      <trkpt lat="45.39463" lon="0.70656">
        <ele>164.29693940027</ele>
        <time>2015-08-07T14:28:52Z</time>
      </trkpt>
      <trkpt lat="45.39456" lon="0.70659">
        <ele>164.29693940027</ele>
        <time>2015-08-07T14:28:57Z</time>
      </trkpt>
      <trkpt lat="45.39449" lon="0.70662">
        <ele>165.82957939502</ele>
        <time>2015-08-07T14:29:02Z</time>
      </trkpt>
      <trkpt lat="45.39444" lon="0.70665">
        <ele>165.82957939502</ele>
        <time>2015-08-07T14:29:07Z</time>
      </trkpt>
      <trkpt lat="45.39438" lon="0.70667">
        <ele>167.25588592928</ele>
        <time>2015-08-07T14:29:12Z</time>
      </trkpt>
      <trkpt lat="45.39439" lon="0.70666">
        <ele>167.25588592928</ele>
        <time>2015-08-07T14:29:17Z</time>
      </trkpt>
      <trkpt lat="45.3944" lon="0.70668">
        <ele>167.25588592928</ele>
        <time>2015-08-07T14:29:22Z</time>
      </trkpt>
      <trkpt lat="45.3944" lon="0.70668">
        <ele>167.25588592928</ele>
        <time>2015-08-07T14:29:27Z</time>
      </trkpt>
      <trkpt lat="45.3944" lon="0.70668">
        <ele>167.25588592928</ele>
        <time>2015-08-07T14:29:32Z</time>
      </trkpt>
      <trkpt lat="45.3944" lon="0.70668">
        <ele>167.25588592928</ele>
        <time>2015-08-07T14:29:37Z</time>
      </trkpt>
      <trkpt lat="45.3944" lon="0.70668">
        <ele>167.25588592928</ele>
        <time>2015-08-07T14:29:42Z</time>
      </trkpt>
      <trkpt lat="45.3944" lon="0.70668">
        <ele>167.25588592928</ele>
        <time>2015-08-07T14:29:47Z</time>
      </trkpt>
      <trkpt lat="45.39439" lon="0.70668">
        <ele>167.25588592928</ele>
        <time>2015-08-07T14:29:52Z</time>
      </trkpt>
      <trkpt lat="45.3944" lon="0.7067">
        <ele>167.25588592928</ele>
        <time>2015-08-07T14:29:57Z</time>
      </trkpt>
      <trkpt lat="45.39443" lon="0.70669">
        <ele>167.25588592928</ele>
        <time>2015-08-07T14:30:02Z</time>
      </trkpt>
      <trkpt lat="45.39442" lon="0.70667">
        <ele>167.98938972471</ele>
        <time>2015-08-07T14:30:07Z</time>
      </trkpt>
      <trkpt lat="45.39443" lon="0.70667">
        <ele>167.98938972471</ele>
        <time>2015-08-07T14:30:12Z</time>
      </trkpt>
      <trkpt lat="45.39443" lon="0.70667">
        <ele>167.98938972471</ele>
        <time>2015-08-07T14:30:17Z</time>
      </trkpt>
      <trkpt lat="45.39443" lon="0.70667">
        <ele>167.98938972471</ele>
        <time>2015-08-07T14:30:22Z</time>
      </trkpt>
      <trkpt lat="45.39443" lon="0.70667">
        <ele>167.98938972471</ele>
        <time>2015-08-07T14:30:27Z</time>
      </trkpt>
      <trkpt lat="45.39443" lon="0.70667">
        <ele>167.98938972471</ele>
        <time>2015-08-07T14:30:32Z</time>
      </trkpt>
      <trkpt lat="45.39443" lon="0.70667">
        <ele>167.98938972471</ele>
        <time>2015-08-07T14:30:37Z</time>
      </trkpt>
      <trkpt lat="45.39443" lon="0.70667">
        <ele>167.98938972471</ele>
        <time>2015-08-07T14:30:42Z</time>
      </trkpt>
      <trkpt lat="45.39443" lon="0.70667">
        <ele>167.98938972471</ele>
        <time>2015-08-07T14:30:53Z</time>
      </trkpt>
      <trkpt lat="45.39443" lon="0.70667">
        <ele>167.98938972471</ele>
        <time>2015-08-07T14:30:58Z</time>
      </trkpt>
      <trkpt lat="45.39443" lon="0.70667">
        <ele>167.98938972471</ele>
        <time>2015-08-07T14:31:07Z</time>
      </trkpt>
      <trkpt lat="45.39443" lon="0.70667">
        <ele>167.98938972471</ele>
        <time>2015-08-07T14:31:13Z</time>
      </trkpt>
      <trkpt lat="45.39443" lon="0.70667">
        <ele>167.98938972471</ele>
        <time>2015-08-07T14:31:23Z</time>
      </trkpt>
      <trkpt lat="45.39443" lon="0.70667">
        <ele>167.98938972471</ele>
        <time>2015-08-07T14:31:28Z</time>
      </trkpt>
      <trkpt lat="45.39443" lon="0.70667">
        <ele>167.98938972471</ele>
        <time>2015-08-07T14:31:38Z</time>
      </trkpt>
      <trkpt lat="45.39443" lon="0.70667">
        <ele>167.98938972471</ele>
        <time>2015-08-07T14:31:43Z</time>
      </trkpt>
      <trkpt lat="45.39443" lon="0.70667">
        <ele>167.98938972471</ele>
        <time>2015-08-07T14:31:58Z</time>
      </trkpt>
      <trkpt lat="45.39443" lon="0.70667">
        <ele>167.98938972471</ele>
        <time>2015-08-07T14:32:03Z</time>
      </trkpt>
      <trkpt lat="45.39442" lon="0.70666">
        <ele>167.98938972471</ele>
        <time>2015-08-07T14:32:13Z</time>
      </trkpt>
      <trkpt lat="45.39443" lon="0.70667">
        <ele>167.98938972471</ele>
        <time>2015-08-07T14:32:28Z</time>
      </trkpt>
      <trkpt lat="45.39443" lon="0.70667">
        <ele>167.98938972471</ele>
        <time>2015-08-07T14:32:33Z</time>
      </trkpt>
      <trkpt lat="45.39443" lon="0.70667">
        <ele>167.98938972471</ele>
        <time>2015-08-07T14:32:43Z</time>
      </trkpt>
      <trkpt lat="45.39443" lon="0.70667">
        <ele>167.98938972471</ele>
        <time>2015-08-07T14:32:48Z</time>
      </trkpt>
      <trkpt lat="45.39443" lon="0.70667">
        <ele>167.98938972471</ele>
        <time>2015-08-07T14:32:58Z</time>
      </trkpt>
      <trkpt lat="45.39443" lon="0.70667">
        <ele>167.98938972471</ele>
        <time>2015-08-07T14:33:03Z</time>
      </trkpt>
      <trkpt lat="45.39442" lon="0.70665">
        <ele>167.98938972471</ele>
        <time>2015-08-07T14:33:12Z</time>
      </trkpt>
      <trkpt lat="45.39443" lon="0.70665">
        <ele>167.98938972471</ele>
        <time>2015-08-07T14:33:18Z</time>
      </trkpt>
      <trkpt lat="45.39441" lon="0.70661">
        <ele>167.98938972471</ele>
        <time>2015-08-07T14:33:28Z</time>
      </trkpt>
      <trkpt lat="45.39441" lon="0.70661">
        <ele>169.01643140753</ele>
        <time>2015-08-07T14:33:33Z</time>
      </trkpt>
      <trkpt lat="45.39439" lon="0.70661">
        <ele>169.01643140753</ele>
        <time>2015-08-07T14:33:48Z</time>
      </trkpt>
      <trkpt lat="45.39423" lon="0.70673">
        <ele>169.93885815415</ele>
        <time>2015-08-07T14:34:03Z</time>
      </trkpt>
      <trkpt lat="45.39404" lon="0.70684">
        <ele>170.90704692651</ele>
        <time>2015-08-07T14:34:18Z</time>
      </trkpt>
      <trkpt lat="45.39398" lon="0.70687">
        <ele>170.90704692651</ele>
        <time>2015-08-07T14:34:23Z</time>
      </trkpt>
      <trkpt lat="45.39385" lon="0.70694">
        <ele>171.77215527591</ele>
        <time>2015-08-07T14:34:33Z</time>
      </trkpt>
      <trkpt lat="45.39379" lon="0.70696">
        <ele>171.77215527591</ele>
        <time>2015-08-07T14:34:37Z</time>
      </trkpt>
      <trkpt lat="45.39374" lon="0.70697">
        <ele>172.22379783644</ele>
        <time>2015-08-07T14:34:42Z</time>
      </trkpt>
      <trkpt lat="45.39359" lon="0.70701">
        <ele>172.50891733477</ele>
        <time>2015-08-07T14:34:52Z</time>
      </trkpt>
      <trkpt lat="45.39352" lon="0.70702">
        <ele>172.50891733477</ele>
        <time>2015-08-07T14:34:57Z</time>
      </trkpt>
      <trkpt lat="45.39346" lon="0.70703">
        <ele>172.77046067225</ele>
        <time>2015-08-07T14:35:02Z</time>
      </trkpt>
      <trkpt lat="45.3934" lon="0.70706">
        <ele>172.77046067225</ele>
        <time>2015-08-07T14:35:07Z</time>
      </trkpt>
      <trkpt lat="45.39334" lon="0.70708">
        <ele>172.78079272914</ele>
        <time>2015-08-07T14:35:12Z</time>
      </trkpt>
      <trkpt lat="45.39328" lon="0.70711">
        <ele>172.78079272914</ele>
        <time>2015-08-07T14:35:17Z</time>
      </trkpt>
      <trkpt lat="45.39322" lon="0.70714">
        <ele>172.73333268999</ele>
        <time>2015-08-07T14:35:22Z</time>
      </trkpt>
      <trkpt lat="45.39318" lon="0.70718">
        <ele>172.73333268999</ele>
        <time>2015-08-07T14:35:27Z</time>
      </trkpt>
      <trkpt lat="45.3931" lon="0.70722">
        <ele>172.49051053469</ele>
        <time>2015-08-07T14:35:32Z</time>
      </trkpt>
      <trkpt lat="45.39304" lon="0.70724">
        <ele>172.49051053469</ele>
        <time>2015-08-07T14:35:37Z</time>
      </trkpt>
      <trkpt lat="45.39296" lon="0.70727">
        <ele>172.2569527417</ele>
        <time>2015-08-07T14:35:42Z</time>
      </trkpt>
      <trkpt lat="45.39289" lon="0.70731">
        <ele>172.2569527417</ele>
        <time>2015-08-07T14:35:47Z</time>
      </trkpt>
      <trkpt lat="45.39282" lon="0.70734">
        <ele>171.60262151241</ele>
        <time>2015-08-07T14:35:52Z</time>
      </trkpt>
      <trkpt lat="45.39275" lon="0.70736">
        <ele>171.60262151241</ele>
        <time>2015-08-07T14:35:57Z</time>
      </trkpt>
      <trkpt lat="45.39269" lon="0.70738">
        <ele>170.66351655709</ele>
        <time>2015-08-07T14:36:02Z</time>
      </trkpt>
      <trkpt lat="45.39262" lon="0.70741">
        <ele>170.66351655709</ele>
        <time>2015-08-07T14:36:07Z</time>
      </trkpt>
      <trkpt lat="45.39256" lon="0.70744">
        <ele>169.69618501487</ele>
        <time>2015-08-07T14:36:12Z</time>
      </trkpt>
      <trkpt lat="45.39253" lon="0.70745">
        <ele>169.69618501487</ele>
        <time>2015-08-07T14:36:17Z</time>
      </trkpt>
      <trkpt lat="45.39246" lon="0.70747">
        <ele>168.7366739303</ele>
        <time>2015-08-07T14:36:22Z</time>
      </trkpt>
      <trkpt lat="45.3924" lon="0.70747">
        <ele>168.7366739303</ele>
        <time>2015-08-07T14:36:27Z</time>
      </trkpt>
      <trkpt lat="45.39232" lon="0.70749">
        <ele>168.82714581092</ele>
        <time>2015-08-07T14:36:32Z</time>
      </trkpt>
      <trkpt lat="45.39228" lon="0.70751">
        <ele>168.82714581092</ele>
        <time>2015-08-07T14:36:37Z</time>
      </trkpt>
      <trkpt lat="45.39222" lon="0.70754">
        <ele>168.8838767109</ele>
        <time>2015-08-07T14:36:42Z</time>
      </trkpt>
      <trkpt lat="45.39216" lon="0.70757">
        <ele>168.8838767109</ele>
        <time>2015-08-07T14:36:47Z</time>
      </trkpt>
      <trkpt lat="45.3921" lon="0.70759">
        <ele>168.83955398043</ele>
        <time>2015-08-07T14:36:52Z</time>
      </trkpt>
      <trkpt lat="45.39204" lon="0.7076">
        <ele>168.83955398043</ele>
        <time>2015-08-07T14:36:57Z</time>
      </trkpt>
      <trkpt lat="45.39197" lon="0.7076">
        <ele>168.79059251733</ele>
        <time>2015-08-07T14:37:02Z</time>
      </trkpt>
      <trkpt lat="45.39195" lon="0.7076">
        <ele>168.79059251733</ele>
        <time>2015-08-07T14:37:07Z</time>
      </trkpt>
      <trkpt lat="45.39189" lon="0.70759">
        <ele>168.79059251733</ele>
        <time>2015-08-07T14:37:12Z</time>
      </trkpt>
      <trkpt lat="45.39181" lon="0.7076">
        <ele>168.95600958493</ele>
        <time>2015-08-07T14:37:17Z</time>
      </trkpt>
      <trkpt lat="45.39173" lon="0.70759">
        <ele>168.95600958493</ele>
        <time>2015-08-07T14:37:22Z</time>
      </trkpt>
      <trkpt lat="45.39166" lon="0.70757">
        <ele>168.96165446417</ele>
        <time>2015-08-07T14:37:27Z</time>
      </trkpt>
      <trkpt lat="45.39159" lon="0.70756">
        <ele>168.96165446417</ele>
        <time>2015-08-07T14:37:32Z</time>
      </trkpt>
      <trkpt lat="45.39153" lon="0.70754">
        <ele>168.73508296037</ele>
        <time>2015-08-07T14:37:37Z</time>
      </trkpt>
      <trkpt lat="45.39147" lon="0.70752">
        <ele>168.73508296037</ele>
        <time>2015-08-07T14:37:42Z</time>
      </trkpt>
      <trkpt lat="45.39141" lon="0.70748">
        <ele>168.1809589164</ele>
        <time>2015-08-07T14:37:47Z</time>
      </trkpt>
      <trkpt lat="45.39135" lon="0.70745">
        <ele>168.1809589164</ele>
        <time>2015-08-07T14:37:52Z</time>
      </trkpt>
      <trkpt lat="45.39129" lon="0.70742">
        <ele>167.60092012842</ele>
        <time>2015-08-07T14:37:57Z</time>
      </trkpt>
      <trkpt lat="45.39122" lon="0.70741">
        <ele>167.60092012842</ele>
        <time>2015-08-07T14:38:02Z</time>
      </trkpt>
      <trkpt lat="45.39114" lon="0.70739">
        <ele>167.07270862173</ele>
        <time>2015-08-07T14:38:07Z</time>
      </trkpt>
      <trkpt lat="45.39107" lon="0.70737">
        <ele>167.07270862173</ele>
        <time>2015-08-07T14:38:12Z</time>
      </trkpt>
      <trkpt lat="45.391" lon="0.70735">
        <ele>166.5672710865</ele>
        <time>2015-08-07T14:38:17Z</time>
      </trkpt>
      <trkpt lat="45.39092" lon="0.70735">
        <ele>166.5672710865</ele>
        <time>2015-08-07T14:38:22Z</time>
      </trkpt>
      <trkpt lat="45.39085" lon="0.70734">
        <ele>166.33136878822</ele>
        <time>2015-08-07T14:38:27Z</time>
      </trkpt>
      <trkpt lat="45.39078" lon="0.70732">
        <ele>166.33136878822</ele>
        <time>2015-08-07T14:38:32Z</time>
      </trkpt>
      <trkpt lat="45.3907" lon="0.70731">
        <ele>166.39105317882</ele>
        <time>2015-08-07T14:38:37Z</time>
      </trkpt>
      <trkpt lat="45.39065" lon="0.70729">
        <ele>166.39105317882</ele>
        <time>2015-08-07T14:38:42Z</time>
      </trkpt>
      <trkpt lat="45.39058" lon="0.70728">
        <ele>166.26516973099</ele>
        <time>2015-08-07T14:38:47Z</time>
      </trkpt>
      <trkpt lat="45.39052" lon="0.70727">
        <ele>166.26516973099</ele>
        <time>2015-08-07T14:38:52Z</time>
      </trkpt>
      <trkpt lat="45.39045" lon="0.70726">
        <ele>166.30096608267</ele>
        <time>2015-08-07T14:38:57Z</time>
      </trkpt>
      <trkpt lat="45.39038" lon="0.70723">
        <ele>166.30096608267</ele>
        <time>2015-08-07T14:39:02Z</time>
      </trkpt>
      <trkpt lat="45.39029" lon="0.70723">
        <ele>166.21438534304</ele>
        <time>2015-08-07T14:39:07Z</time>
      </trkpt>
      <trkpt lat="45.39023" lon="0.70721">
        <ele>166.21438534304</ele>
        <time>2015-08-07T14:39:12Z</time>
      </trkpt>
      <trkpt lat="45.39015" lon="0.7072">
        <ele>166.37659483834</ele>
        <time>2015-08-07T14:39:17Z</time>
      </trkpt>
      <trkpt lat="45.39008" lon="0.70719">
        <ele>166.37659483834</ele>
        <time>2015-08-07T14:39:22Z</time>
      </trkpt>
      <trkpt lat="45.39002" lon="0.70718">
        <ele>166.62633534044</ele>
        <time>2015-08-07T14:39:27Z</time>
      </trkpt>
      <trkpt lat="45.38995" lon="0.70718">
        <ele>166.62633534044</ele>
        <time>2015-08-07T14:39:32Z</time>
      </trkpt>
      <trkpt lat="45.38988" lon="0.70718">
        <ele>166.95798740015</ele>
        <time>2015-08-07T14:39:38Z</time>
      </trkpt>
      <trkpt lat="45.38976" lon="0.70717">
        <ele>167.45251236744</ele>
        <time>2015-08-07T14:39:47Z</time>
      </trkpt>
      <trkpt lat="45.38968" lon="0.70717">
        <ele>167.45251236744</ele>
        <time>2015-08-07T14:39:53Z</time>
      </trkpt>
      <trkpt lat="45.38947" lon="0.70713">
        <ele>167.10356699311</ele>
        <time>2015-08-07T14:40:08Z</time>
      </trkpt>
      <trkpt lat="45.38924" lon="0.70707">
        <ele>166.20597884704</ele>
        <time>2015-08-07T14:40:23Z</time>
      </trkpt>
      <trkpt lat="45.38917" lon="0.70707">
        <ele>166.20597884704</ele>
        <time>2015-08-07T14:40:28Z</time>
      </trkpt>
      <trkpt lat="45.38903" lon="0.70704">
        <ele>165.06321188081</ele>
        <time>2015-08-07T14:40:38Z</time>
      </trkpt>
      <trkpt lat="45.38894" lon="0.70701">
        <ele>163.88499878482</ele>
        <time>2015-08-07T14:40:43Z</time>
      </trkpt>
      <trkpt lat="45.38882" lon="0.70696">
        <ele>162.53423130932</ele>
        <time>2015-08-07T14:40:53Z</time>
      </trkpt>
      <trkpt lat="45.38874" lon="0.70693">
        <ele>162.53423130932</ele>
        <time>2015-08-07T14:40:58Z</time>
      </trkpt>
      <trkpt lat="45.38864" lon="0.7069">
        <ele>160.72574877419</ele>
        <time>2015-08-07T14:41:07Z</time>
      </trkpt>
      <trkpt lat="45.38858" lon="0.70688">
        <ele>160.72574877419</ele>
        <time>2015-08-07T14:41:12Z</time>
      </trkpt>
      <trkpt lat="45.38851" lon="0.70689">
        <ele>159.03237238843</ele>
        <time>2015-08-07T14:41:17Z</time>
      </trkpt>
      <trkpt lat="45.38844" lon="0.70688">
        <ele>159.03237238843</ele>
        <time>2015-08-07T14:41:22Z</time>
      </trkpt>
      <trkpt lat="45.38838" lon="0.70692">
        <ele>157.59531822568</ele>
        <time>2015-08-07T14:41:27Z</time>
      </trkpt>
      <trkpt lat="45.38834" lon="0.70694">
        <ele>157.59531822568</ele>
        <time>2015-08-07T14:41:32Z</time>
      </trkpt>
      <trkpt lat="45.38833" lon="0.70693">
        <ele>157.59531822568</ele>
        <time>2015-08-07T14:41:37Z</time>
      </trkpt>
      <trkpt lat="45.38833" lon="0.70695">
        <ele>157.59531822568</ele>
        <time>2015-08-07T14:41:42Z</time>
      </trkpt>
      <trkpt lat="45.38829" lon="0.70701">
        <ele>156.32843227706</ele>
        <time>2015-08-07T14:41:47Z</time>
      </trkpt>
      <trkpt lat="45.38826" lon="0.70709">
        <ele>156.32843227706</ele>
        <time>2015-08-07T14:41:52Z</time>
      </trkpt>
      <trkpt lat="45.38823" lon="0.70716">
        <ele>155.13688400309</ele>
        <time>2015-08-07T14:41:57Z</time>
      </trkpt>
      <trkpt lat="45.3882" lon="0.70722">
        <ele>155.13688400309</ele>
        <time>2015-08-07T14:42:02Z</time>
      </trkpt>
      <trkpt lat="45.38818" lon="0.7073">
        <ele>153.91806539344</ele>
        <time>2015-08-07T14:42:07Z</time>
      </trkpt>
      <trkpt lat="45.38816" lon="0.70739">
        <ele>153.91806539344</ele>
        <time>2015-08-07T14:42:12Z</time>
      </trkpt>
      <trkpt lat="45.38814" lon="0.70749">
        <ele>152.8074364752</ele>
        <time>2015-08-07T14:42:17Z</time>
      </trkpt>
      <trkpt lat="45.38813" lon="0.70755">
        <ele>152.8074364752</ele>
        <time>2015-08-07T14:42:22Z</time>
      </trkpt>
      <trkpt lat="45.38812" lon="0.70755">
        <ele>152.8074364752</ele>
        <time>2015-08-07T14:42:27Z</time>
      </trkpt>
      <trkpt lat="45.38812" lon="0.70755">
        <ele>152.8074364752</ele>
        <time>2015-08-07T14:42:32Z</time>
      </trkpt>
      <trkpt lat="45.38813" lon="0.70755">
        <ele>152.8074364752</ele>
        <time>2015-08-07T14:42:37Z</time>
      </trkpt>
      <trkpt lat="45.38813" lon="0.70755">
        <ele>152.8074364752</ele>
        <time>2015-08-07T14:42:42Z</time>
      </trkpt>
      <trkpt lat="45.38813" lon="0.70755">
        <ele>152.8074364752</ele>
        <time>2015-08-07T14:42:52Z</time>
      </trkpt>
      <trkpt lat="45.38813" lon="0.70755">
        <ele>152.8074364752</ele>
        <time>2015-08-07T14:42:57Z</time>
      </trkpt>
      <trkpt lat="45.38813" lon="0.70755">
        <ele>152.8074364752</ele>
        <time>2015-08-07T14:43:02Z</time>
      </trkpt>
      <trkpt lat="45.38813" lon="0.70755">
        <ele>152.8074364752</ele>
        <time>2015-08-07T14:43:07Z</time>
      </trkpt>
      <trkpt lat="45.38813" lon="0.70755">
        <ele>152.8074364752</ele>
        <time>2015-08-07T14:43:12Z</time>
      </trkpt>
      <trkpt lat="45.38813" lon="0.70755">
        <ele>152.8074364752</ele>
        <time>2015-08-07T14:43:17Z</time>
      </trkpt>
      <trkpt lat="45.38811" lon="0.70754">
        <ele>152.8074364752</ele>
        <time>2015-08-07T14:43:22Z</time>
      </trkpt>
      <trkpt lat="45.38814" lon="0.7075">
        <ele>151.31039881318</ele>
        <time>2015-08-07T14:43:27Z</time>
      </trkpt>
      <trkpt lat="45.38825" lon="0.70723">
        <ele>149.83430981401</ele>
        <time>2015-08-07T14:43:32Z</time>
      </trkpt>
      <trkpt lat="45.38835" lon="0.707">
        <ele>148.32408028075</ele>
        <time>2015-08-07T14:43:37Z</time>
      </trkpt>
      <trkpt lat="45.3884" lon="0.70691">
        <ele>148.32408028075</ele>
        <time>2015-08-07T14:43:42Z</time>
      </trkpt>
      <trkpt lat="45.38842" lon="0.70682">
        <ele>147.01685407624</ele>
        <time>2015-08-07T14:43:47Z</time>
      </trkpt>
      <trkpt lat="45.38843" lon="0.70673">
        <ele>147.01685407624</ele>
        <time>2015-08-07T14:43:52Z</time>
      </trkpt>
      <trkpt lat="45.38847" lon="0.70665">
        <ele>145.49756224741</ele>
        <time>2015-08-07T14:43:57Z</time>
      </trkpt>
      <trkpt lat="45.38852" lon="0.70656">
        <ele>145.49756224741</ele>
        <time>2015-08-07T14:44:02Z</time>
      </trkpt>
      <trkpt lat="45.38856" lon="0.70647">
        <ele>144.073820244</ele>
        <time>2015-08-07T14:44:07Z</time>
      </trkpt>
      <trkpt lat="45.38861" lon="0.70638">
        <ele>144.073820244</ele>
        <time>2015-08-07T14:44:12Z</time>
      </trkpt>
      <trkpt lat="45.38865" lon="0.70629">
        <ele>142.62673155429</ele>
        <time>2015-08-07T14:44:17Z</time>
      </trkpt>
      <trkpt lat="45.38869" lon="0.7062">
        <ele>142.62673155429</ele>
        <time>2015-08-07T14:44:22Z</time>
      </trkpt>
      <trkpt lat="45.38872" lon="0.7061">
        <ele>141.36310861159</ele>
        <time>2015-08-07T14:44:27Z</time>
      </trkpt>
      <trkpt lat="45.38873" lon="0.70599">
        <ele>141.36310861159</ele>
        <time>2015-08-07T14:44:32Z</time>
      </trkpt>
      <trkpt lat="45.38874" lon="0.7059">
        <ele>140.28657818803</ele>
        <time>2015-08-07T14:44:37Z</time>
      </trkpt>
      <trkpt lat="45.38873" lon="0.70578">
        <ele>140.28657818803</ele>
        <time>2015-08-07T14:44:42Z</time>
      </trkpt>
      <trkpt lat="45.38872" lon="0.70568">
        <ele>139.38543289758</ele>
        <time>2015-08-07T14:44:47Z</time>
      </trkpt>
      <trkpt lat="45.38871" lon="0.70557">
        <ele>139.38543289758</ele>
        <time>2015-08-07T14:44:52Z</time>
      </trkpt>
      <trkpt lat="45.38871" lon="0.70547">
        <ele>138.5185051529</ele>
        <time>2015-08-07T14:44:57Z</time>
      </trkpt>
      <trkpt lat="45.3887" lon="0.70537">
        <ele>138.5185051529</ele>
        <time>2015-08-07T14:45:02Z</time>
      </trkpt>
      <trkpt lat="45.38871" lon="0.70526">
        <ele>137.84300071889</ele>
        <time>2015-08-07T14:45:07Z</time>
      </trkpt>
      <trkpt lat="45.3887" lon="0.70514">
        <ele>137.84300071889</ele>
        <time>2015-08-07T14:45:12Z</time>
      </trkpt>
      <trkpt lat="45.3887" lon="0.70505">
        <ele>137.15805622313</ele>
        <time>2015-08-07T14:45:17Z</time>
      </trkpt>
      <trkpt lat="45.38869" lon="0.70494">
        <ele>137.15805622313</ele>
        <time>2015-08-07T14:45:22Z</time>
      </trkpt>
      <trkpt lat="45.38868" lon="0.70484">
        <ele>136.42159063056</ele>
        <time>2015-08-07T14:45:27Z</time>
      </trkpt>
      <trkpt lat="45.38868" lon="0.70474">
        <ele>136.42159063056</ele>
        <time>2015-08-07T14:45:32Z</time>
      </trkpt>
      <trkpt lat="45.38868" lon="0.70465">
        <ele>135.58024342976</ele>
        <time>2015-08-07T14:45:37Z</time>
      </trkpt>
      <trkpt lat="45.38867" lon="0.70455">
        <ele>135.58024342976</ele>
        <time>2015-08-07T14:45:42Z</time>
      </trkpt>
      <trkpt lat="45.38865" lon="0.70442">
        <ele>134.80093717569</ele>
        <time>2015-08-07T14:45:47Z</time>
      </trkpt>
      <trkpt lat="45.38865" lon="0.70431">
        <ele>134.80093717569</ele>
        <time>2015-08-07T14:45:52Z</time>
      </trkpt>
      <trkpt lat="45.38865" lon="0.70423">
        <ele>133.96425525214</ele>
        <time>2015-08-07T14:45:57Z</time>
      </trkpt>
      <trkpt lat="45.38863" lon="0.70411">
        <ele>133.96425525214</ele>
        <time>2015-08-07T14:46:02Z</time>
      </trkpt>
      <trkpt lat="45.38861" lon="0.704">
        <ele>133.42078410035</ele>
        <time>2015-08-07T14:46:07Z</time>
      </trkpt>
      <trkpt lat="45.38858" lon="0.7039">
        <ele>133.42078410035</ele>
        <time>2015-08-07T14:46:12Z</time>
      </trkpt>
      <trkpt lat="45.38857" lon="0.70379">
        <ele>133.11976526173</ele>
        <time>2015-08-07T14:46:17Z</time>
      </trkpt>
      <trkpt lat="45.38856" lon="0.7037">
        <ele>133.11976526173</ele>
        <time>2015-08-07T14:46:22Z</time>
      </trkpt>
      <trkpt lat="45.38854" lon="0.70359">
        <ele>133.04223908787</ele>
        <time>2015-08-07T14:46:27Z</time>
      </trkpt>
      <trkpt lat="45.38853" lon="0.70348">
        <ele>133.04223908787</ele>
        <time>2015-08-07T14:46:32Z</time>
      </trkpt>
      <trkpt lat="45.38853" lon="0.70337">
        <ele>133.01142601325</ele>
        <time>2015-08-07T14:46:37Z</time>
      </trkpt>
      <trkpt lat="45.38852" lon="0.70326">
        <ele>133.01142601325</ele>
        <time>2015-08-07T14:46:42Z</time>
      </trkpt>
      <trkpt lat="45.38851" lon="0.70316">
        <ele>133.13715907399</ele>
        <time>2015-08-07T14:46:47Z</time>
      </trkpt>
      <trkpt lat="45.38851" lon="0.70307">
        <ele>133.13715907399</ele>
        <time>2015-08-07T14:46:52Z</time>
      </trkpt>
      <trkpt lat="45.3885" lon="0.70297">
        <ele>133.13162004871</ele>
        <time>2015-08-07T14:46:57Z</time>
      </trkpt>
      <trkpt lat="45.3885" lon="0.70286">
        <ele>133.13162004871</ele>
        <time>2015-08-07T14:47:02Z</time>
      </trkpt>
      <trkpt lat="45.38849" lon="0.70274">
        <ele>133.44902457064</ele>
        <time>2015-08-07T14:47:07Z</time>
      </trkpt>
      <trkpt lat="45.3885" lon="0.70266">
        <ele>133.44902457064</ele>
        <time>2015-08-07T14:47:12Z</time>
      </trkpt>
      <trkpt lat="45.38851" lon="0.70253">
        <ele>133.51492555518</ele>
        <time>2015-08-07T14:47:17Z</time>
      </trkpt>
      <trkpt lat="45.38851" lon="0.70242">
        <ele>133.51492555518</ele>
        <time>2015-08-07T14:47:22Z</time>
      </trkpt>
      <trkpt lat="45.38851" lon="0.7023">
        <ele>133.76331131804</ele>
        <time>2015-08-07T14:47:27Z</time>
      </trkpt>
      <trkpt lat="45.38852" lon="0.70218">
        <ele>133.76331131804</ele>
        <time>2015-08-07T14:47:32Z</time>
      </trkpt>
      <trkpt lat="45.38852" lon="0.70208">
        <ele>134.22108484056</ele>
        <time>2015-08-07T14:47:37Z</time>
      </trkpt>
      <trkpt lat="45.38854" lon="0.70199">
        <ele>134.22108484056</ele>
        <time>2015-08-07T14:47:42Z</time>
      </trkpt>
      <trkpt lat="45.38854" lon="0.70188">
        <ele>134.86935808326</ele>
        <time>2015-08-07T14:47:47Z</time>
      </trkpt>
      <trkpt lat="45.38853" lon="0.70184">
        <ele>134.86935808326</ele>
        <time>2015-08-07T14:47:52Z</time>
      </trkpt>
      <trkpt lat="45.3885" lon="0.70179">
        <ele>134.86935808326</ele>
        <time>2015-08-07T14:47:57Z</time>
      </trkpt>
      <trkpt lat="45.38844" lon="0.70181">
        <ele>135.12807766791</ele>
        <time>2015-08-07T14:48:02Z</time>
      </trkpt>
      <trkpt lat="45.38839" lon="0.70183">
        <ele>135.12807766791</ele>
        <time>2015-08-07T14:48:07Z</time>
      </trkpt>
      <trkpt lat="45.38832" lon="0.70184">
        <ele>135.25352861552</ele>
        <time>2015-08-07T14:48:12Z</time>
      </trkpt>
      <trkpt lat="45.38825" lon="0.70186">
        <ele>135.25352861552</ele>
        <time>2015-08-07T14:48:17Z</time>
      </trkpt>
      <trkpt lat="45.38819" lon="0.70188">
        <ele>135.33946343908</ele>
        <time>2015-08-07T14:48:22Z</time>
      </trkpt>
      <trkpt lat="45.38813" lon="0.70191">
        <ele>135.33946343908</ele>
        <time>2015-08-07T14:48:27Z</time>
      </trkpt>
      <trkpt lat="45.38806" lon="0.70193">
        <ele>135.12702857205</ele>
        <time>2015-08-07T14:48:32Z</time>
      </trkpt>
      <trkpt lat="45.388" lon="0.70196">
        <ele>135.12702857205</ele>
        <time>2015-08-07T14:48:37Z</time>
      </trkpt>
      <trkpt lat="45.38793" lon="0.70198">
        <ele>134.80959659455</ele>
        <time>2015-08-07T14:48:42Z</time>
      </trkpt>
      <trkpt lat="45.3879" lon="0.70201">
        <ele>134.80959659455</ele>
        <time>2015-08-07T14:48:47Z</time>
      </trkpt>
      <trkpt lat="45.38789" lon="0.70202">
        <ele>134.80959659455</ele>
        <time>2015-08-07T14:48:52Z</time>
      </trkpt>
      <trkpt lat="45.38786" lon="0.70204">
        <ele>134.80959659455</ele>
        <time>2015-08-07T14:48:57Z</time>
      </trkpt>
      <trkpt lat="45.38783" lon="0.70206">
        <ele>134.37932741199</ele>
        <time>2015-08-07T14:49:02Z</time>
      </trkpt>
      <trkpt lat="45.38777" lon="0.70208">
        <ele>134.37932741199</ele>
        <time>2015-08-07T14:49:07Z</time>
      </trkpt>
      <trkpt lat="45.38773" lon="0.7021">
        <ele>133.95901643511</ele>
        <time>2015-08-07T14:49:12Z</time>
      </trkpt>
      <trkpt lat="45.3877" lon="0.70211">
        <ele>133.95901643511</ele>
        <time>2015-08-07T14:49:17Z</time>
      </trkpt>
      <trkpt lat="45.3876" lon="0.70216">
        <ele>133.48951980161</ele>
        <time>2015-08-07T14:49:28Z</time>
      </trkpt>
      <trkpt lat="45.38753" lon="0.7022">
        <ele>133.48951980161</ele>
        <time>2015-08-07T14:49:33Z</time>
      </trkpt>
      <trkpt lat="45.38745" lon="0.70224">
        <ele>132.75769515296</ele>
        <time>2015-08-07T14:49:43Z</time>
      </trkpt>
      <trkpt lat="45.38738" lon="0.70227">
        <ele>132.75769515296</ele>
        <time>2015-08-07T14:49:49Z</time>
      </trkpt>
      <trkpt lat="45.38727" lon="0.70233">
        <ele>131.912699075</ele>
        <time>2015-08-07T14:49:58Z</time>
      </trkpt>
      <trkpt lat="45.38719" lon="0.70238">
        <ele>131.912699075</ele>
        <time>2015-08-07T14:50:03Z</time>
      </trkpt>
      <trkpt lat="45.38696" lon="0.70253">
        <ele>131.04985128785</ele>
        <time>2015-08-07T14:50:13Z</time>
      </trkpt>
      <trkpt lat="45.38671" lon="0.7028">
        <ele>130.04138472341</ele>
        <time>2015-08-07T14:50:18Z</time>
      </trkpt>
      <trkpt lat="45.38601" lon="0.70323">
        <ele>130.25370110422</ele>
        <time>2015-08-07T14:50:28Z</time>
      </trkpt>
      <trkpt lat="45.38579" lon="0.70338">
        <ele>130.80217502136</ele>
        <time>2015-08-07T14:50:33Z</time>
      </trkpt>
      <trkpt lat="45.38554" lon="0.70359">
        <ele>131.88944330087</ele>
        <time>2015-08-07T14:50:43Z</time>
      </trkpt>
      <trkpt lat="45.38549" lon="0.70365">
        <ele>131.88944330087</ele>
        <time>2015-08-07T14:50:48Z</time>
      </trkpt>
      <trkpt lat="45.38544" lon="0.70369">
        <ele>133.21180633104</ele>
        <time>2015-08-07T14:50:52Z</time>
      </trkpt>
      <trkpt lat="45.38541" lon="0.70376">
        <ele>133.21180633104</ele>
        <time>2015-08-07T14:50:57Z</time>
      </trkpt>
      <trkpt lat="45.38535" lon="0.70382">
        <ele>134.37197376014</ele>
        <time>2015-08-07T14:51:02Z</time>
      </trkpt>
      <trkpt lat="45.3853" lon="0.70388">
        <ele>134.37197376014</ele>
        <time>2015-08-07T14:51:07Z</time>
      </trkpt>
      <trkpt lat="45.38525" lon="0.70394">
        <ele>135.62203168515</ele>
        <time>2015-08-07T14:51:12Z</time>
      </trkpt>
      <trkpt lat="45.38522" lon="0.70399">
        <ele>135.62203168515</ele>
        <time>2015-08-07T14:51:17Z</time>
      </trkpt>
      <trkpt lat="45.38514" lon="0.70409">
        <ele>136.9071429791</ele>
        <time>2015-08-07T14:51:22Z</time>
      </trkpt>
      <trkpt lat="45.38509" lon="0.70415">
        <ele>136.9071429791</ele>
        <time>2015-08-07T14:51:27Z</time>
      </trkpt>
      <trkpt lat="45.38505" lon="0.70422">
        <ele>138.17647969991</ele>
        <time>2015-08-07T14:51:32Z</time>
      </trkpt>
      <trkpt lat="45.385" lon="0.70427">
        <ele>138.17647969991</ele>
        <time>2015-08-07T14:51:37Z</time>
      </trkpt>
      <trkpt lat="45.38496" lon="0.70434">
        <ele>139.48395790966</ele>
        <time>2015-08-07T14:51:42Z</time>
      </trkpt>
      <trkpt lat="45.3849" lon="0.70441">
        <ele>139.48395790966</ele>
        <time>2015-08-07T14:51:47Z</time>
      </trkpt>
      <trkpt lat="45.38485" lon="0.70447">
        <ele>140.69217767655</ele>
        <time>2015-08-07T14:51:52Z</time>
      </trkpt>
      <trkpt lat="45.38478" lon="0.70453">
        <ele>140.69217767655</ele>
        <time>2015-08-07T14:51:57Z</time>
      </trkpt>
      <trkpt lat="45.38471" lon="0.70459">
        <ele>141.65980254156</ele>
        <time>2015-08-07T14:52:02Z</time>
      </trkpt>
      <trkpt lat="45.38464" lon="0.70464">
        <ele>141.65980254156</ele>
        <time>2015-08-07T14:52:07Z</time>
      </trkpt>
      <trkpt lat="45.38459" lon="0.70469">
        <ele>142.42959472419</ele>
        <time>2015-08-07T14:52:12Z</time>
      </trkpt>
      <trkpt lat="45.38453" lon="0.70471">
        <ele>142.42959472419</ele>
        <time>2015-08-07T14:52:17Z</time>
      </trkpt>
      <trkpt lat="45.38447" lon="0.70475">
        <ele>143.02742997355</ele>
        <time>2015-08-07T14:52:22Z</time>
      </trkpt>
      <trkpt lat="45.3844" lon="0.70481">
        <ele>143.02742997355</ele>
        <time>2015-08-07T14:52:27Z</time>
      </trkpt>
      <trkpt lat="45.38435" lon="0.70486">
        <ele>143.44905531043</ele>
        <time>2015-08-07T14:52:32Z</time>
      </trkpt>
      <trkpt lat="45.3843" lon="0.70491">
        <ele>143.44905531043</ele>
        <time>2015-08-07T14:52:37Z</time>
      </trkpt>
      <trkpt lat="45.38426" lon="0.70497">
        <ele>143.77760222118</ele>
        <time>2015-08-07T14:52:42Z</time>
      </trkpt>
      <trkpt lat="45.38421" lon="0.70501">
        <ele>143.77760222118</ele>
        <time>2015-08-07T14:52:47Z</time>
      </trkpt>
      <trkpt lat="45.38417" lon="0.70505">
        <ele>143.96076496092</ele>
        <time>2015-08-07T14:52:52Z</time>
      </trkpt>
      <trkpt lat="45.38412" lon="0.7051">
        <ele>143.96076496092</ele>
        <time>2015-08-07T14:52:57Z</time>
      </trkpt>
      <trkpt lat="45.38406" lon="0.70514">
        <ele>144.00823707236</ele>
        <time>2015-08-07T14:53:02Z</time>
      </trkpt>
      <trkpt lat="45.38401" lon="0.7052">
        <ele>144.00823707236</ele>
        <time>2015-08-07T14:53:07Z</time>
      </trkpt>
      <trkpt lat="45.38396" lon="0.70525">
        <ele>143.9727137027</ele>
        <time>2015-08-07T14:53:12Z</time>
      </trkpt>
      <trkpt lat="45.38389" lon="0.7053">
        <ele>143.9727137027</ele>
        <time>2015-08-07T14:53:17Z</time>
      </trkpt>
      <trkpt lat="45.38384" lon="0.70535">
        <ele>143.87452353983</ele>
        <time>2015-08-07T14:53:22Z</time>
      </trkpt>
      <trkpt lat="45.38378" lon="0.70541">
        <ele>143.87452353983</ele>
        <time>2015-08-07T14:53:27Z</time>
      </trkpt>
      <trkpt lat="45.38373" lon="0.70546">
        <ele>143.47336466379</ele>
        <time>2015-08-07T14:53:32Z</time>
      </trkpt>
      <trkpt lat="45.38367" lon="0.70551">
        <ele>143.47336466379</ele>
        <time>2015-08-07T14:53:37Z</time>
      </trkpt>
      <trkpt lat="45.3836" lon="0.70556">
        <ele>143.03749494176</ele>
        <time>2015-08-07T14:53:42Z</time>
      </trkpt>
      <trkpt lat="45.38354" lon="0.70561">
        <ele>143.03749494176</ele>
        <time>2015-08-07T14:53:47Z</time>
      </trkpt>
      <trkpt lat="45.38348" lon="0.70566">
        <ele>142.55623470643</ele>
        <time>2015-08-07T14:53:52Z</time>
      </trkpt>
      <trkpt lat="45.38342" lon="0.70571">
        <ele>142.55623470643</ele>
        <time>2015-08-07T14:53:57Z</time>
      </trkpt>
      <trkpt lat="45.38335" lon="0.70576">
        <ele>142.01987868557</ele>
        <time>2015-08-07T14:54:02Z</time>
      </trkpt>
      <trkpt lat="45.38328" lon="0.70584">
        <ele>141.66463205807</ele>
        <time>2015-08-07T14:54:18Z</time>
      </trkpt>
      <trkpt lat="45.38326" lon="0.70586">
        <ele>141.66463205807</ele>
        <time>2015-08-07T14:54:23Z</time>
      </trkpt>
      <trkpt lat="45.38314" lon="0.70594">
        <ele>141.31978618476</ele>
        <time>2015-08-07T14:54:33Z</time>
      </trkpt>
      <trkpt lat="45.38294" lon="0.70605">
        <ele>140.81277051511</ele>
        <time>2015-08-07T14:54:47Z</time>
      </trkpt>
      <trkpt lat="45.38291" lon="0.70606">
        <ele>140.81277051511</ele>
        <time>2015-08-07T14:54:53Z</time>
      </trkpt>
      <trkpt lat="45.38272" lon="0.7061">
        <ele>140.44533346016</ele>
        <time>2015-08-07T14:55:02Z</time>
      </trkpt>
      <trkpt lat="45.38269" lon="0.70604">
        <ele>140.44533346016</ele>
        <time>2015-08-07T14:55:07Z</time>
      </trkpt>
      <trkpt lat="45.38267" lon="0.70601">
        <ele>140.44533346016</ele>
        <time>2015-08-07T14:55:12Z</time>
      </trkpt>
      <trkpt lat="45.38268" lon="0.70602">
        <ele>140.44533346016</ele>
        <time>2015-08-07T14:55:17Z</time>
      </trkpt>
      <trkpt lat="45.38268" lon="0.70602">
        <ele>140.44533346016</ele>
        <time>2015-08-07T14:55:22Z</time>
      </trkpt>
      <trkpt lat="45.38269" lon="0.70599">
        <ele>139.64643402771</ele>
        <time>2015-08-07T14:55:27Z</time>
      </trkpt>
      <trkpt lat="45.38271" lon="0.70599">
        <ele>139.64643402771</ele>
        <time>2015-08-07T14:55:32Z</time>
      </trkpt>
      <trkpt lat="45.38271" lon="0.70599">
        <ele>139.64643402771</ele>
        <time>2015-08-07T14:55:37Z</time>
      </trkpt>
      <trkpt lat="45.38271" lon="0.70599">
        <ele>139.64643402771</ele>
        <time>2015-08-07T14:55:42Z</time>
      </trkpt>
      <trkpt lat="45.38272" lon="0.70597">
        <ele>139.64643402771</ele>
        <time>2015-08-07T14:55:47Z</time>
      </trkpt>
      <trkpt lat="45.38271" lon="0.70595">
        <ele>139.64643402771</ele>
        <time>2015-08-07T14:55:52Z</time>
      </trkpt>
      <trkpt lat="45.38271" lon="0.70595">
        <ele>139.64643402771</ele>
        <time>2015-08-07T14:55:57Z</time>
      </trkpt>
      <trkpt lat="45.38271" lon="0.70595">
        <ele>139.64643402771</ele>
        <time>2015-08-07T14:56:02Z</time>
      </trkpt>
      <trkpt lat="45.38271" lon="0.70595">
        <ele>139.64643402771</ele>
        <time>2015-08-07T14:56:07Z</time>
      </trkpt>
      <trkpt lat="45.3827" lon="0.70594">
        <ele>139.64643402771</ele>
        <time>2015-08-07T14:56:12Z</time>
      </trkpt>
      <trkpt lat="45.3827" lon="0.70594">
        <ele>139.64643402771</ele>
        <time>2015-08-07T14:56:17Z</time>
      </trkpt>
      <trkpt lat="45.38269" lon="0.70592">
        <ele>139.64643402771</ele>
        <time>2015-08-07T14:56:22Z</time>
      </trkpt>
      <trkpt lat="45.38269" lon="0.70592">
        <ele>138.79610729937</ele>
        <time>2015-08-07T14:56:27Z</time>
      </trkpt>
      <trkpt lat="45.3827" lon="0.70591">
        <ele>138.79610729937</ele>
        <time>2015-08-07T14:56:32Z</time>
      </trkpt>
      <trkpt lat="45.3827" lon="0.70591">
        <ele>138.79610729937</ele>
        <time>2015-08-07T14:56:37Z</time>
      </trkpt>
      <trkpt lat="45.3827" lon="0.70592">
        <ele>138.79610729937</ele>
        <time>2015-08-07T14:56:42Z</time>
      </trkpt>
      <trkpt lat="45.3827" lon="0.70592">
        <ele>138.79610729937</ele>
        <time>2015-08-07T14:56:47Z</time>
      </trkpt>
      <trkpt lat="45.3827" lon="0.70592">
        <ele>138.79610729937</ele>
        <time>2015-08-07T14:56:52Z</time>
      </trkpt>
      <trkpt lat="45.3827" lon="0.70592">
        <ele>138.79610729937</ele>
        <time>2015-08-07T14:56:57Z</time>
      </trkpt>
      <trkpt lat="45.38269" lon="0.70592">
        <ele>138.79610729937</ele>
        <time>2015-08-07T14:57:02Z</time>
      </trkpt>
      <trkpt lat="45.38268" lon="0.70592">
        <ele>138.79610729937</ele>
        <time>2015-08-07T14:57:07Z</time>
      </trkpt>
      <trkpt lat="45.38268" lon="0.70591">
        <ele>138.79610729937</ele>
        <time>2015-08-07T14:57:12Z</time>
      </trkpt>
      <trkpt lat="45.38268" lon="0.7059">
        <ele>138.79610729937</ele>
        <time>2015-08-07T14:57:17Z</time>
      </trkpt>
      <trkpt lat="45.38268" lon="0.7059">
        <ele>138.79610729937</ele>
        <time>2015-08-07T14:57:22Z</time>
      </trkpt>
      <trkpt lat="45.38268" lon="0.7059">
        <ele>138.79610729937</ele>
        <time>2015-08-07T14:57:27Z</time>
      </trkpt>
      <trkpt lat="45.38268" lon="0.7059">
        <ele>138.79610729937</ele>
        <time>2015-08-07T14:57:32Z</time>
      </trkpt>
      <trkpt lat="45.38268" lon="0.7059">
        <ele>138.79610729937</ele>
        <time>2015-08-07T14:57:37Z</time>
      </trkpt>
      <trkpt lat="45.38268" lon="0.70589">
        <ele>138.79610729937</ele>
        <time>2015-08-07T14:57:53Z</time>
      </trkpt>
      <trkpt lat="45.38268" lon="0.70589">
        <ele>138.79610729937</ele>
        <time>2015-08-07T14:57:58Z</time>
      </trkpt>
      <trkpt lat="45.38268" lon="0.70589">
        <ele>138.79610729937</ele>
        <time>2015-08-07T14:58:07Z</time>
      </trkpt>
      <trkpt lat="45.38268" lon="0.70589">
        <ele>138.79610729937</ele>
        <time>2015-08-07T14:58:14Z</time>
      </trkpt>
      <trkpt lat="45.38267" lon="0.70587">
        <ele>138.79610729937</ele>
        <time>2015-08-07T14:58:22Z</time>
      </trkpt>
      <trkpt lat="45.38266" lon="0.70586">
        <ele>138.79610729937</ele>
        <time>2015-08-07T14:58:28Z</time>
      </trkpt>
      <trkpt lat="45.38266" lon="0.70586">
        <ele>138.79610729937</ele>
        <time>2015-08-07T14:58:38Z</time>
      </trkpt>
      <trkpt lat="45.38266" lon="0.70586">
        <ele>138.79610729937</ele>
        <time>2015-08-07T14:58:43Z</time>
      </trkpt>
      <trkpt lat="45.38267" lon="0.70587">
        <ele>138.79610729937</ele>
        <time>2015-08-07T14:58:52Z</time>
      </trkpt>
      <trkpt lat="45.38267" lon="0.70587">
        <ele>139.29863866596</ele>
        <time>2015-08-07T14:58:58Z</time>
      </trkpt>
      <trkpt lat="45.38267" lon="0.70587">
        <ele>139.29863866596</ele>
        <time>2015-08-07T14:59:08Z</time>
      </trkpt>
      <trkpt lat="45.38267" lon="0.70587">
        <ele>139.29863866596</ele>
        <time>2015-08-07T14:59:13Z</time>
      </trkpt>
      <trkpt lat="45.38266" lon="0.70586">
        <ele>139.29863866596</ele>
        <time>2015-08-07T14:59:23Z</time>
      </trkpt>
      <trkpt lat="45.38266" lon="0.70586">
        <ele>139.29863866596</ele>
        <time>2015-08-07T14:59:29Z</time>
      </trkpt>
      <trkpt lat="45.38266" lon="0.70587">
        <ele>139.29863866596</ele>
        <time>2015-08-07T14:59:38Z</time>
      </trkpt>
      <trkpt lat="45.38266" lon="0.70589">
        <ele>139.29863866596</ele>
        <time>2015-08-07T14:59:44Z</time>
      </trkpt>
      <trkpt lat="45.38266" lon="0.70589">
        <ele>139.29863866596</ele>
        <time>2015-08-07T14:59:53Z</time>
      </trkpt>
      <trkpt lat="45.38266" lon="0.70589">
        <ele>139.29863866596</ele>
        <time>2015-08-07T14:59:58Z</time>
      </trkpt>
      <trkpt lat="45.38266" lon="0.70589">
        <ele>139.29863866596</ele>
        <time>2015-08-07T15:00:13Z</time>
      </trkpt>
      <trkpt lat="45.38265" lon="0.70589">
        <ele>139.29863866596</ele>
        <time>2015-08-07T15:00:28Z</time>
      </trkpt>
      <trkpt lat="45.38266" lon="0.70589">
        <ele>139.29863866596</ele>
        <time>2015-08-07T15:00:42Z</time>
      </trkpt>
      <trkpt lat="45.38266" lon="0.70589">
        <ele>139.29863866596</ele>
        <time>2015-08-07T15:00:48Z</time>
      </trkpt>
      <trkpt lat="45.38266" lon="0.70589">
        <ele>139.29863866596</ele>
        <time>2015-08-07T15:00:57Z</time>
      </trkpt>
      <trkpt lat="45.38267" lon="0.70588">
        <ele>139.29863866596</ele>
        <time>2015-08-07T15:01:02Z</time>
      </trkpt>
      <trkpt lat="45.38266" lon="0.70591">
        <ele>140.24646805659</ele>
        <time>2015-08-07T15:01:07Z</time>
      </trkpt>
      <trkpt lat="45.38266" lon="0.70591">
        <ele>140.24646805659</ele>
        <time>2015-08-07T15:01:12Z</time>
      </trkpt>
      <trkpt lat="45.38268" lon="0.70593">
        <ele>140.24646805659</ele>
        <time>2015-08-07T15:01:17Z</time>
      </trkpt>
      <trkpt lat="45.38269" lon="0.70593">
        <ele>140.24646805659</ele>
        <time>2015-08-07T15:01:22Z</time>
      </trkpt>
      <trkpt lat="45.38269" lon="0.70594">
        <ele>140.24646805659</ele>
        <time>2015-08-07T15:01:27Z</time>
      </trkpt>
      <trkpt lat="45.38269" lon="0.70594">
        <ele>140.24646805659</ele>
        <time>2015-08-07T15:01:32Z</time>
      </trkpt>
      <trkpt lat="45.38269" lon="0.70594">
        <ele>140.24646805659</ele>
        <time>2015-08-07T15:01:37Z</time>
      </trkpt>
      <trkpt lat="45.38266" lon="0.70588">
        <ele>140.75422921254</ele>
        <time>2015-08-07T15:01:42Z</time>
      </trkpt>
      <trkpt lat="45.38263" lon="0.70581">
        <ele>140.75422921254</ele>
        <time>2015-08-07T15:01:47Z</time>
      </trkpt>
      <trkpt lat="45.3826" lon="0.70573">
        <ele>141.41512810468</ele>
        <time>2015-08-07T15:01:52Z</time>
      </trkpt>
      <trkpt lat="45.38257" lon="0.70564">
        <ele>141.41512810468</ele>
        <time>2015-08-07T15:01:57Z</time>
      </trkpt>
      <trkpt lat="45.38253" lon="0.70555">
        <ele>141.92812228723</ele>
        <time>2015-08-07T15:02:02Z</time>
      </trkpt>
      <trkpt lat="45.3825" lon="0.70548">
        <ele>141.92812228723</ele>
        <time>2015-08-07T15:02:07Z</time>
      </trkpt>
      <trkpt lat="45.38247" lon="0.70539">
        <ele>142.99467249399</ele>
        <time>2015-08-07T15:02:12Z</time>
      </trkpt>
      <trkpt lat="45.38245" lon="0.70531">
        <ele>142.99467249399</ele>
        <time>2015-08-07T15:02:17Z</time>
      </trkpt>
      <trkpt lat="45.38242" lon="0.70521">
        <ele>143.79324531219</ele>
        <time>2015-08-07T15:02:22Z</time>
      </trkpt>
      <trkpt lat="45.38241" lon="0.70512">
        <ele>143.79324531219</ele>
        <time>2015-08-07T15:02:27Z</time>
      </trkpt>
      <trkpt lat="45.38239" lon="0.70502">
        <ele>144.11105553166</ele>
        <time>2015-08-07T15:02:32Z</time>
      </trkpt>
      <trkpt lat="45.38237" lon="0.70492">
        <ele>144.11105553166</ele>
        <time>2015-08-07T15:02:37Z</time>
      </trkpt>
      <trkpt lat="45.38233" lon="0.70483">
        <ele>143.76673483118</ele>
        <time>2015-08-07T15:02:42Z</time>
      </trkpt>
      <trkpt lat="45.38232" lon="0.70473">
        <ele>143.76673483118</ele>
        <time>2015-08-07T15:02:47Z</time>
      </trkpt>
      <trkpt lat="45.38231" lon="0.70465">
        <ele>143.47319931127</ele>
        <time>2015-08-07T15:02:52Z</time>
      </trkpt>
      <trkpt lat="45.38228" lon="0.70462">
        <ele>143.47319931127</ele>
        <time>2015-08-07T15:02:57Z</time>
      </trkpt>
      <trkpt lat="45.3823" lon="0.70462">
        <ele>143.47319931127</ele>
        <time>2015-08-07T15:03:13Z</time>
      </trkpt>
      <trkpt lat="45.38232" lon="0.70464">
        <ele>143.47319931127</ele>
        <time>2015-08-07T15:03:28Z</time>
      </trkpt>
      <trkpt lat="45.38229" lon="0.70461">
        <ele>143.3288414849</ele>
        <time>2015-08-07T15:03:43Z</time>
      </trkpt>
      <trkpt lat="45.38227" lon="0.7045">
        <ele>143.3288414849</ele>
        <time>2015-08-07T15:03:48Z</time>
      </trkpt>
      <trkpt lat="45.38223" lon="0.70432">
        <ele>143.5829490037</ele>
        <time>2015-08-07T15:03:57Z</time>
      </trkpt>
      <trkpt lat="45.3822" lon="0.70422">
        <ele>143.5829490037</ele>
        <time>2015-08-07T15:04:02Z</time>
      </trkpt>
      <trkpt lat="45.38216" lon="0.70413">
        <ele>143.9177727229</ele>
        <time>2015-08-07T15:04:07Z</time>
      </trkpt>
      <trkpt lat="45.38213" lon="0.70403">
        <ele>143.9177727229</ele>
        <time>2015-08-07T15:04:12Z</time>
      </trkpt>
      <trkpt lat="45.38211" lon="0.70396">
        <ele>144.25485972402</ele>
        <time>2015-08-07T15:04:17Z</time>
      </trkpt>
      <trkpt lat="45.38209" lon="0.70391">
        <ele>144.25485972402</ele>
        <time>2015-08-07T15:04:22Z</time>
      </trkpt>
      <trkpt lat="45.38209" lon="0.70383">
        <ele>144.85298375056</ele>
        <time>2015-08-07T15:04:27Z</time>
      </trkpt>
      <trkpt lat="45.38207" lon="0.70377">
        <ele>144.85298375056</ele>
        <time>2015-08-07T15:04:32Z</time>
      </trkpt>
      <trkpt lat="45.38204" lon="0.70369">
        <ele>145.72061471283</ele>
        <time>2015-08-07T15:04:37Z</time>
      </trkpt>
      <trkpt lat="45.38203" lon="0.7036">
        <ele>145.72061471283</ele>
        <time>2015-08-07T15:04:42Z</time>
      </trkpt>
      <trkpt lat="45.382" lon="0.70351">
        <ele>146.70634020526</ele>
        <time>2015-08-07T15:04:47Z</time>
      </trkpt>
      <trkpt lat="45.38198" lon="0.70342">
        <ele>146.70634020526</ele>
        <time>2015-08-07T15:04:52Z</time>
      </trkpt>
      <trkpt lat="45.38198" lon="0.70333">
        <ele>147.74161658752</ele>
        <time>2015-08-07T15:04:57Z</time>
      </trkpt>
      <trkpt lat="45.38198" lon="0.70323">
        <ele>147.74161658752</ele>
        <time>2015-08-07T15:05:02Z</time>
      </trkpt>
      <trkpt lat="45.38199" lon="0.70315">
        <ele>149.15192345551</ele>
        <time>2015-08-07T15:05:07Z</time>
      </trkpt>
      <trkpt lat="45.382" lon="0.70307">
        <ele>149.15192345551</ele>
        <time>2015-08-07T15:05:12Z</time>
      </trkpt>
      <trkpt lat="45.38202" lon="0.70299">
        <ele>150.84871190446</ele>
        <time>2015-08-07T15:05:17Z</time>
      </trkpt>
      <trkpt lat="45.38203" lon="0.70291">
        <ele>150.84871190446</ele>
        <time>2015-08-07T15:05:22Z</time>
      </trkpt>
      <trkpt lat="45.38205" lon="0.70282">
        <ele>152.48977435248</ele>
        <time>2015-08-07T15:05:27Z</time>
      </trkpt>
      <trkpt lat="45.38206" lon="0.70274">
        <ele>152.48977435248</ele>
        <time>2015-08-07T15:05:32Z</time>
      </trkpt>
      <trkpt lat="45.38208" lon="0.70267">
        <ele>154.20499074136</ele>
        <time>2015-08-07T15:05:37Z</time>
      </trkpt>
      <trkpt lat="45.38208" lon="0.70262">
        <ele>154.20499074136</ele>
        <time>2015-08-07T15:05:42Z</time>
      </trkpt>
      <trkpt lat="45.38206" lon="0.70251">
        <ele>156.08572654461</ele>
        <time>2015-08-07T15:05:47Z</time>
      </trkpt>
      <trkpt lat="45.38209" lon="0.70245">
        <ele>156.08572654461</ele>
        <time>2015-08-07T15:05:52Z</time>
      </trkpt>
      <trkpt lat="45.38212" lon="0.70238">
        <ele>157.17863449075</ele>
        <time>2015-08-07T15:05:57Z</time>
      </trkpt>
      <trkpt lat="45.38214" lon="0.70232">
        <ele>157.17863449075</ele>
        <time>2015-08-07T15:06:02Z</time>
      </trkpt>
      <trkpt lat="45.38215" lon="0.70224">
        <ele>157.53940025508</ele>
        <time>2015-08-07T15:06:07Z</time>
      </trkpt>
      <trkpt lat="45.38211" lon="0.70214">
        <ele>157.53940025508</ele>
        <time>2015-08-07T15:06:12Z</time>
      </trkpt>
      <trkpt lat="45.38209" lon="0.70209">
        <ele>157.97112048475</ele>
        <time>2015-08-07T15:06:17Z</time>
      </trkpt>
      <trkpt lat="45.38209" lon="0.70199">
        <ele>157.97112048475</ele>
        <time>2015-08-07T15:06:22Z</time>
      </trkpt>
      <trkpt lat="45.38208" lon="0.70189">
        <ele>158.67014409559</ele>
        <time>2015-08-07T15:06:27Z</time>
      </trkpt>
      <trkpt lat="45.38205" lon="0.7018">
        <ele>158.67014409559</ele>
        <time>2015-08-07T15:06:32Z</time>
      </trkpt>
      <trkpt lat="45.38203" lon="0.70172">
        <ele>159.25567839875</ele>
        <time>2015-08-07T15:06:37Z</time>
      </trkpt>
      <trkpt lat="45.38206" lon="0.70164">
        <ele>159.25567839875</ele>
        <time>2015-08-07T15:06:42Z</time>
      </trkpt>
      <trkpt lat="45.38207" lon="0.70156">
        <ele>159.73556142554</ele>
        <time>2015-08-07T15:06:47Z</time>
      </trkpt>
      <trkpt lat="45.38208" lon="0.70149">
        <ele>159.73556142554</ele>
        <time>2015-08-07T15:06:52Z</time>
      </trkpt>
      <trkpt lat="45.38209" lon="0.70143">
        <ele>160.11740977067</ele>
        <time>2015-08-07T15:06:57Z</time>
      </trkpt>
      <trkpt lat="45.38209" lon="0.70134">
        <ele>160.11740977067</ele>
        <time>2015-08-07T15:07:02Z</time>
      </trkpt>
      <trkpt lat="45.38206" lon="0.70127">
        <ele>160.09156444096</ele>
        <time>2015-08-07T15:07:07Z</time>
      </trkpt>
      <trkpt lat="45.38201" lon="0.7012">
        <ele>160.09156444096</ele>
        <time>2015-08-07T15:07:12Z</time>
      </trkpt>
      <trkpt lat="45.38194" lon="0.70116">
        <ele>161.01517451563</ele>
        <time>2015-08-07T15:07:17Z</time>
      </trkpt>
      <trkpt lat="45.38191" lon="0.70112">
        <ele>161.01517451563</ele>
        <time>2015-08-07T15:07:22Z</time>
      </trkpt>
      <trkpt lat="45.3819" lon="0.7011">
        <ele>161.01517451563</ele>
        <time>2015-08-07T15:07:27Z</time>
      </trkpt>
      <trkpt lat="45.38189" lon="0.7011">
        <ele>161.01517451563</ele>
        <time>2015-08-07T15:07:32Z</time>
      </trkpt>
      <trkpt lat="45.38184" lon="0.70107">
        <ele>162.15434264614</ele>
        <time>2015-08-07T15:07:37Z</time>
      </trkpt>
      <trkpt lat="45.38179" lon="0.70102">
        <ele>162.15434264614</ele>
        <time>2015-08-07T15:07:42Z</time>
      </trkpt>
      <trkpt lat="45.38175" lon="0.70099">
        <ele>163.549079508</ele>
        <time>2015-08-07T15:07:47Z</time>
      </trkpt>
      <trkpt lat="45.3817" lon="0.70095">
        <ele>163.549079508</ele>
        <time>2015-08-07T15:07:52Z</time>
      </trkpt>
      <trkpt lat="45.38166" lon="0.70093">
        <ele>164.28465082335</ele>
        <time>2015-08-07T15:07:57Z</time>
      </trkpt>
      <trkpt lat="45.38163" lon="0.70088">
        <ele>164.28465082335</ele>
        <time>2015-08-07T15:08:02Z</time>
      </trkpt>
      <trkpt lat="45.38151" lon="0.70072">
        <ele>165.66267053855</ele>
        <time>2015-08-07T15:08:12Z</time>
      </trkpt>
      <trkpt lat="45.38143" lon="0.7007">
        <ele>165.66267053855</ele>
        <time>2015-08-07T15:08:17Z</time>
      </trkpt>
      <trkpt lat="45.38134" lon="0.70063">
        <ele>166.74012650009</ele>
        <time>2015-08-07T15:08:27Z</time>
      </trkpt>
      <trkpt lat="45.38126" lon="0.70061">
        <ele>166.74012650009</ele>
        <time>2015-08-07T15:08:32Z</time>
      </trkpt>
      <trkpt lat="45.38119" lon="0.70058">
        <ele>167.95558421059</ele>
        <time>2015-08-07T15:08:37Z</time>
      </trkpt>
      <trkpt lat="45.38114" lon="0.70056">
        <ele>167.95558421059</ele>
        <time>2015-08-07T15:08:42Z</time>
      </trkpt>
      <trkpt lat="45.38109" lon="0.70055">
        <ele>168.76392173059</ele>
        <time>2015-08-07T15:08:47Z</time>
      </trkpt>
      <trkpt lat="45.38105" lon="0.70052">
        <ele>168.76392173059</ele>
        <time>2015-08-07T15:08:52Z</time>
      </trkpt>
      <trkpt lat="45.38099" lon="0.70049">
        <ele>169.58356542474</ele>
        <time>2015-08-07T15:08:57Z</time>
      </trkpt>
      <trkpt lat="45.38094" lon="0.70047">
        <ele>169.58356542474</ele>
        <time>2015-08-07T15:09:02Z</time>
      </trkpt>
      <trkpt lat="45.38089" lon="0.70044">
        <ele>170.12489915327</ele>
        <time>2015-08-07T15:09:07Z</time>
      </trkpt>
      <trkpt lat="45.38083" lon="0.70042">
        <ele>170.12489915327</ele>
        <time>2015-08-07T15:09:12Z</time>
      </trkpt>
      <trkpt lat="45.38077" lon="0.7004">
        <ele>170.30775311479</ele>
        <time>2015-08-07T15:09:17Z</time>
      </trkpt>
      <trkpt lat="45.3807" lon="0.70037">
        <ele>170.30775311479</ele>
        <time>2015-08-07T15:09:22Z</time>
      </trkpt>
      <trkpt lat="45.38065" lon="0.70035">
        <ele>170.28947144595</ele>
        <time>2015-08-07T15:09:27Z</time>
      </trkpt>
      <trkpt lat="45.38057" lon="0.7003">
        <ele>170.28947144595</ele>
        <time>2015-08-07T15:09:32Z</time>
      </trkpt>
      <trkpt lat="45.38052" lon="0.70027">
        <ele>170.18761679807</ele>
        <time>2015-08-07T15:09:37Z</time>
      </trkpt>
      <trkpt lat="45.38045" lon="0.70026">
        <ele>170.18761679807</ele>
        <time>2015-08-07T15:09:42Z</time>
      </trkpt>
      <trkpt lat="45.38037" lon="0.70026">
        <ele>170.70223441467</ele>
        <time>2015-08-07T15:09:47Z</time>
      </trkpt>
      <trkpt lat="45.38031" lon="0.70022">
        <ele>170.70223441467</ele>
        <time>2015-08-07T15:09:52Z</time>
      </trkpt>
      <trkpt lat="45.38027" lon="0.70019">
        <ele>170.92383628769</ele>
        <time>2015-08-07T15:09:57Z</time>
      </trkpt>
      <trkpt lat="45.38022" lon="0.70015">
        <ele>170.92383628769</ele>
        <time>2015-08-07T15:10:02Z</time>
      </trkpt>
      <trkpt lat="45.38017" lon="0.70013">
        <ele>170.73113770465</ele>
        <time>2015-08-07T15:10:07Z</time>
      </trkpt>
      <trkpt lat="45.38011" lon="0.70013">
        <ele>170.73113770465</ele>
        <time>2015-08-07T15:10:12Z</time>
      </trkpt>
      <trkpt lat="45.38005" lon="0.70011">
        <ele>170.60379038565</ele>
        <time>2015-08-07T15:10:17Z</time>
      </trkpt>
      <trkpt lat="45.38002" lon="0.70008">
        <ele>170.60379038565</ele>
        <time>2015-08-07T15:10:22Z</time>
      </trkpt>
      <trkpt lat="45.37993" lon="0.70006">
        <ele>170.30870774996</ele>
        <time>2015-08-07T15:10:27Z</time>
      </trkpt>
      <trkpt lat="45.37987" lon="0.70004">
        <ele>170.30870774996</ele>
        <time>2015-08-07T15:10:32Z</time>
      </trkpt>
      <trkpt lat="45.37982" lon="0.70003">
        <ele>170.00508033473</ele>
        <time>2015-08-07T15:10:37Z</time>
      </trkpt>
      <trkpt lat="45.37976" lon="0.70001">
        <ele>170.00508033473</ele>
        <time>2015-08-07T15:10:42Z</time>
      </trkpt>
      <trkpt lat="45.37969" lon="0.69999">
        <ele>170.0854058628</ele>
        <time>2015-08-07T15:10:47Z</time>
      </trkpt>
      <trkpt lat="45.37962" lon="0.69994">
        <ele>170.0854058628</ele>
        <time>2015-08-07T15:10:52Z</time>
      </trkpt>
      <trkpt lat="45.37955" lon="0.69989">
        <ele>169.81700905826</ele>
        <time>2015-08-07T15:10:57Z</time>
      </trkpt>
      <trkpt lat="45.3795" lon="0.69986">
        <ele>169.81700905826</ele>
        <time>2015-08-07T15:11:02Z</time>
      </trkpt>
      <trkpt lat="45.37944" lon="0.6998">
        <ele>169.27136799815</ele>
        <time>2015-08-07T15:11:07Z</time>
      </trkpt>
      <trkpt lat="45.37938" lon="0.69977">
        <ele>169.27136799815</ele>
        <time>2015-08-07T15:11:12Z</time>
      </trkpt>
      <trkpt lat="45.37932" lon="0.69972">
        <ele>169.12072422109</ele>
        <time>2015-08-07T15:11:17Z</time>
      </trkpt>
      <trkpt lat="45.37928" lon="0.69966">
        <ele>169.12072422109</ele>
        <time>2015-08-07T15:11:22Z</time>
      </trkpt>
      <trkpt lat="45.37923" lon="0.6996">
        <ele>168.48803601969</ele>
        <time>2015-08-07T15:11:27Z</time>
      </trkpt>
      <trkpt lat="45.37918" lon="0.69954">
        <ele>168.48803601969</ele>
        <time>2015-08-07T15:11:32Z</time>
      </trkpt>
      <trkpt lat="45.37914" lon="0.69948">
        <ele>167.75812048851</ele>
        <time>2015-08-07T15:11:37Z</time>
      </trkpt>
      <trkpt lat="45.37909" lon="0.69942">
        <ele>167.75812048851</ele>
        <time>2015-08-07T15:11:42Z</time>
      </trkpt>
      <trkpt lat="45.37905" lon="0.69936">
        <ele>166.82659318408</ele>
        <time>2015-08-07T15:11:47Z</time>
      </trkpt>
      <trkpt lat="45.37899" lon="0.69931">
        <ele>166.82659318408</ele>
        <time>2015-08-07T15:11:52Z</time>
      </trkpt>
      <trkpt lat="45.37893" lon="0.69925">
        <ele>166.31780250802</ele>
        <time>2015-08-07T15:11:57Z</time>
      </trkpt>
      <trkpt lat="45.37889" lon="0.69921">
        <ele>166.31780250802</ele>
        <time>2015-08-07T15:12:02Z</time>
      </trkpt>
      <trkpt lat="45.37884" lon="0.69915">
        <ele>165.71373857505</ele>
        <time>2015-08-07T15:12:07Z</time>
      </trkpt>
      <trkpt lat="45.3788" lon="0.69909">
        <ele>165.71373857505</ele>
        <time>2015-08-07T15:12:12Z</time>
      </trkpt>
      <trkpt lat="45.37878" lon="0.69902">
        <ele>164.30406319158</ele>
        <time>2015-08-07T15:12:17Z</time>
      </trkpt>
      <trkpt lat="45.37874" lon="0.69893">
        <ele>164.30406319158</ele>
        <time>2015-08-07T15:12:22Z</time>
      </trkpt>
      <trkpt lat="45.37866" lon="0.69876">
        <ele>161.95160020676</ele>
        <time>2015-08-07T15:12:32Z</time>
      </trkpt>
      <trkpt lat="45.37864" lon="0.69872">
        <ele>161.95160020676</ele>
        <time>2015-08-07T15:12:37Z</time>
      </trkpt>
      <trkpt lat="45.37861" lon="0.69866">
        <ele>161.95160020676</ele>
        <time>2015-08-07T15:12:42Z</time>
      </trkpt>
      <trkpt lat="45.37856" lon="0.6986">
        <ele>159.87203993021</ele>
        <time>2015-08-07T15:12:47Z</time>
      </trkpt>
      <trkpt lat="45.37853" lon="0.69854">
        <ele>159.87203993021</ele>
        <time>2015-08-07T15:12:52Z</time>
      </trkpt>
      <trkpt lat="45.37851" lon="0.69847">
        <ele>157.9371350533</ele>
        <time>2015-08-07T15:12:57Z</time>
      </trkpt>
      <trkpt lat="45.37847" lon="0.69839">
        <ele>157.9371350533</ele>
        <time>2015-08-07T15:13:02Z</time>
      </trkpt>
      <trkpt lat="45.37842" lon="0.69835">
        <ele>156.07077296677</ele>
        <time>2015-08-07T15:13:07Z</time>
      </trkpt>
      <trkpt lat="45.37837" lon="0.69828">
        <ele>156.07077296677</ele>
        <time>2015-08-07T15:13:12Z</time>
      </trkpt>
      <trkpt lat="45.37831" lon="0.69821">
        <ele>154.44710370481</ele>
        <time>2015-08-07T15:13:17Z</time>
      </trkpt>
      <trkpt lat="45.37825" lon="0.69813">
        <ele>154.44710370481</ele>
        <time>2015-08-07T15:13:22Z</time>
      </trkpt>
      <trkpt lat="45.37824" lon="0.69806">
        <ele>153.15461421844</ele>
        <time>2015-08-07T15:13:27Z</time>
      </trkpt>
      <trkpt lat="45.37823" lon="0.69798">
        <ele>153.15461421844</ele>
        <time>2015-08-07T15:13:32Z</time>
      </trkpt>
      <trkpt lat="45.3782" lon="0.69788">
        <ele>151.40955455641</ele>
        <time>2015-08-07T15:13:37Z</time>
      </trkpt>
      <trkpt lat="45.37818" lon="0.69779">
        <ele>151.40955455641</ele>
        <time>2015-08-07T15:13:42Z</time>
      </trkpt>
      <trkpt lat="45.37816" lon="0.6977">
        <ele>149.75505062114</ele>
        <time>2015-08-07T15:13:48Z</time>
      </trkpt>
      <trkpt lat="45.3781" lon="0.69752">
        <ele>149.24155101876</ele>
        <time>2015-08-07T15:13:58Z</time>
      </trkpt>
      <trkpt lat="45.37808" lon="0.69746">
        <ele>149.24155101876</ele>
        <time>2015-08-07T15:14:02Z</time>
      </trkpt>
      <trkpt lat="45.37807" lon="0.69744">
        <ele>149.24155101876</ele>
        <time>2015-08-07T15:14:07Z</time>
      </trkpt>
      <trkpt lat="45.37804" lon="0.69732">
        <ele>148.27381033598</ele>
        <time>2015-08-07T15:14:12Z</time>
      </trkpt>
      <trkpt lat="45.37803" lon="0.69727">
        <ele>148.27381033598</ele>
        <time>2015-08-07T15:14:17Z</time>
      </trkpt>
      <trkpt lat="45.378" lon="0.6972">
        <ele>146.68630545967</ele>
        <time>2015-08-07T15:14:22Z</time>
      </trkpt>
      <trkpt lat="45.37797" lon="0.69709">
        <ele>146.68630545967</ele>
        <time>2015-08-07T15:14:27Z</time>
      </trkpt>
      <trkpt lat="45.37796" lon="0.69705">
        <ele>145.60985280049</ele>
        <time>2015-08-07T15:14:32Z</time>
      </trkpt>
      <trkpt lat="45.37795" lon="0.697">
        <ele>145.60985280049</ele>
        <time>2015-08-07T15:14:37Z</time>
      </trkpt>
      <trkpt lat="45.37794" lon="0.69692">
        <ele>143.66955124859</ele>
        <time>2015-08-07T15:14:42Z</time>
      </trkpt>
      <trkpt lat="45.37795" lon="0.69682">
        <ele>143.66955124859</ele>
        <time>2015-08-07T15:14:47Z</time>
      </trkpt>
      <trkpt lat="45.37782" lon="0.69651">
        <ele>142.51923235533</ele>
        <time>2015-08-07T15:15:02Z</time>
      </trkpt>
      <trkpt lat="45.37783" lon="0.69642">
        <ele>142.51923235533</ele>
        <time>2015-08-07T15:15:08Z</time>
      </trkpt>
      <trkpt lat="45.37791" lon="0.69624">
        <ele>141.0084071639</ele>
        <time>2015-08-07T15:15:18Z</time>
      </trkpt>
      <trkpt lat="45.37794" lon="0.69617">
        <ele>141.0084071639</ele>
        <time>2015-08-07T15:15:23Z</time>
      </trkpt>
      <trkpt lat="45.37792" lon="0.69595">
        <ele>138.66281963733</ele>
        <time>2015-08-07T15:15:33Z</time>
      </trkpt>
      <trkpt lat="45.37791" lon="0.69589">
        <ele>138.66281963733</ele>
        <time>2015-08-07T15:15:38Z</time>
      </trkpt>
      <trkpt lat="45.37784" lon="0.69572">
        <ele>135.80903176537</ele>
        <time>2015-08-07T15:15:48Z</time>
      </trkpt>
      <trkpt lat="45.37784" lon="0.69562">
        <ele>135.80903176537</ele>
        <time>2015-08-07T15:15:53Z</time>
      </trkpt>
      <trkpt lat="45.37784" lon="0.69545">
        <ele>132.90940845933</ele>
        <time>2015-08-07T15:16:02Z</time>
      </trkpt>
      <trkpt lat="45.37787" lon="0.69536">
        <ele>132.90940845933</ele>
        <time>2015-08-07T15:16:07Z</time>
      </trkpt>
      <trkpt lat="45.37783" lon="0.69526">
        <ele>130.30584908228</ele>
        <time>2015-08-07T15:16:12Z</time>
      </trkpt>
      <trkpt lat="45.37784" lon="0.69515">
        <ele>130.30584908228</ele>
        <time>2015-08-07T15:16:17Z</time>
      </trkpt>
      <trkpt lat="45.37779" lon="0.69508">
        <ele>128.660005536</ele>
        <time>2015-08-07T15:16:22Z</time>
      </trkpt>
      <trkpt lat="45.37779" lon="0.695">
        <ele>128.660005536</ele>
        <time>2015-08-07T15:16:27Z</time>
      </trkpt>
      <trkpt lat="45.3778" lon="0.69489">
        <ele>127.14095549066</ele>
        <time>2015-08-07T15:16:32Z</time>
      </trkpt>
      <trkpt lat="45.37781" lon="0.69482">
        <ele>127.14095549066</ele>
        <time>2015-08-07T15:16:38Z</time>
      </trkpt>
      <trkpt lat="45.3778" lon="0.69462">
        <ele>125.74207814762</ele>
        <time>2015-08-07T15:16:49Z</time>
      </trkpt>
      <trkpt lat="45.37782" lon="0.69455">
        <ele>125.74207814762</ele>
        <time>2015-08-07T15:16:53Z</time>
      </trkpt>
      <trkpt lat="45.37784" lon="0.69436">
        <ele>123.95234469672</ele>
        <time>2015-08-07T15:17:08Z</time>
      </trkpt>
      <trkpt lat="45.37786" lon="0.69412">
        <ele>122.49532218516</ele>
        <time>2015-08-07T15:17:23Z</time>
      </trkpt>
      <trkpt lat="45.3779" lon="0.69406">
        <ele>122.49532218516</ele>
        <time>2015-08-07T15:17:29Z</time>
      </trkpt>
      <trkpt lat="45.37789" lon="0.6939">
        <ele>120.54157650298</ele>
        <time>2015-08-07T15:17:38Z</time>
      </trkpt>
      <trkpt lat="45.37789" lon="0.69379">
        <ele>120.54157650298</ele>
        <time>2015-08-07T15:17:43Z</time>
      </trkpt>
      <trkpt lat="45.37791" lon="0.69357">
        <ele>118.86583169824</ele>
        <time>2015-08-07T15:17:53Z</time>
      </trkpt>
      <trkpt lat="45.37793" lon="0.69348">
        <ele>118.86583169824</ele>
        <time>2015-08-07T15:17:58Z</time>
      </trkpt>
      <trkpt lat="45.37797" lon="0.69327">
        <ele>116.52769104612</ele>
        <time>2015-08-07T15:18:08Z</time>
      </trkpt>
      <trkpt lat="45.37799" lon="0.69316">
        <ele>116.52769104612</ele>
        <time>2015-08-07T15:18:13Z</time>
      </trkpt>
      <trkpt lat="45.37804" lon="0.69294">
        <ele>114.45893756787</ele>
        <time>2015-08-07T15:18:23Z</time>
      </trkpt>
      <trkpt lat="45.37803" lon="0.69284">
        <ele>114.45893756787</ele>
        <time>2015-08-07T15:18:27Z</time>
      </trkpt>
      <trkpt lat="45.37797" lon="0.69268">
        <ele>112.71498112616</ele>
        <time>2015-08-07T15:18:38Z</time>
      </trkpt>
      <trkpt lat="45.37794" lon="0.69262">
        <ele>112.71498112616</ele>
        <time>2015-08-07T15:18:43Z</time>
      </trkpt>
      <trkpt lat="45.37792" lon="0.69235">
        <ele>111.38934012104</ele>
        <time>2015-08-07T15:18:58Z</time>
      </trkpt>
      <trkpt lat="45.37806" lon="0.69218">
        <ele>109.09741522278</ele>
        <time>2015-08-07T15:19:13Z</time>
      </trkpt>
      <trkpt lat="45.37822" lon="0.69209">
        <ele>106.34587035601</ele>
        <time>2015-08-07T15:19:28Z</time>
      </trkpt>
      <trkpt lat="45.37825" lon="0.69206">
        <ele>106.34587035601</ele>
        <time>2015-08-07T15:19:33Z</time>
      </trkpt>
      <trkpt lat="45.37832" lon="0.69189">
        <ele>103.28825833751</ele>
        <time>2015-08-07T15:19:43Z</time>
      </trkpt>
      <trkpt lat="45.37833" lon="0.69178">
        <ele>103.28825833751</ele>
        <time>2015-08-07T15:19:48Z</time>
      </trkpt>
      <trkpt lat="45.37837" lon="0.69171">
        <ele>100.2405061461</ele>
        <time>2015-08-07T15:19:57Z</time>
      </trkpt>
      <trkpt lat="45.37837" lon="0.69171">
        <ele>100.2405061461</ele>
        <time>2015-08-07T15:20:03Z</time>
      </trkpt>
      <trkpt lat="45.3784" lon="0.69157">
        <ele>97.423108560733</ele>
        <time>2015-08-07T15:20:13Z</time>
      </trkpt>
      <trkpt lat="45.37841" lon="0.69149">
        <ele>97.423108560733</ele>
        <time>2015-08-07T15:20:18Z</time>
      </trkpt>
      <trkpt lat="45.37847" lon="0.69139">
        <ele>95.06839518781</ele>
        <time>2015-08-07T15:20:28Z</time>
      </trkpt>
      <trkpt lat="45.37845" lon="0.69129">
        <ele>95.06839518781</ele>
        <time>2015-08-07T15:20:33Z</time>
      </trkpt>
      <trkpt lat="45.37838" lon="0.69112">
        <ele>93.923399219362</ele>
        <time>2015-08-07T15:20:43Z</time>
      </trkpt>
      <trkpt lat="45.37832" lon="0.69108">
        <ele>93.923399219362</ele>
        <time>2015-08-07T15:20:48Z</time>
      </trkpt>
      <trkpt lat="45.37828" lon="0.69107">
        <ele>93.495034552598</ele>
        <time>2015-08-07T15:21:03Z</time>
      </trkpt>
      <trkpt lat="45.37825" lon="0.69106">
        <ele>93.495034552598</ele>
        <time>2015-08-07T15:21:18Z</time>
      </trkpt>
      <trkpt lat="45.37825" lon="0.69106">
        <ele>93.495034552598</ele>
        <time>2015-08-07T15:21:23Z</time>
      </trkpt>
      <trkpt lat="45.37824" lon="0.69105">
        <ele>93.495034552598</ele>
        <time>2015-08-07T15:21:33Z</time>
      </trkpt>
      <trkpt lat="45.37824" lon="0.69105">
        <ele>93.495034552598</ele>
        <time>2015-08-07T15:21:38Z</time>
      </trkpt>
      <trkpt lat="45.37824" lon="0.69105">
        <ele>93.495034552598</ele>
        <time>2015-08-07T15:21:48Z</time>
      </trkpt>
      <trkpt lat="45.37824" lon="0.69106">
        <ele>93.495034552598</ele>
        <time>2015-08-07T15:21:53Z</time>
      </trkpt>
      <trkpt lat="45.37823" lon="0.69107">
        <ele>93.495034552598</ele>
        <time>2015-08-07T15:22:03Z</time>
      </trkpt>
      <trkpt lat="45.37823" lon="0.69107">
        <ele>93.495034552598</ele>
        <time>2015-08-07T15:22:08Z</time>
      </trkpt>
      <trkpt lat="45.37822" lon="0.69111">
        <ele>93.223421654153</ele>
        <time>2015-08-07T15:22:18Z</time>
      </trkpt>
      <trkpt lat="45.37825" lon="0.69113">
        <ele>93.223421654153</ele>
        <time>2015-08-07T15:22:23Z</time>
      </trkpt>
      <trkpt lat="45.37826" lon="0.69113">
        <ele>93.223421654153</ele>
        <time>2015-08-07T15:22:38Z</time>
      </trkpt>
      <trkpt lat="45.37826" lon="0.69113">
        <ele>93.223421654153</ele>
        <time>2015-08-07T15:22:43Z</time>
      </trkpt>
      <trkpt lat="45.37827" lon="0.69113">
        <ele>93.223421654153</ele>
        <time>2015-08-07T15:22:53Z</time>
      </trkpt>
      <trkpt lat="45.37827" lon="0.6911">
        <ele>93.223421654153</ele>
        <time>2015-08-07T15:22:58Z</time>
      </trkpt>
      <trkpt lat="45.37836" lon="0.6911">
        <ele>92.1136890462</ele>
        <time>2015-08-07T15:23:08Z</time>
      </trkpt>
      <trkpt lat="45.37841" lon="0.69106">
        <ele>92.1136890462</ele>
        <time>2015-08-07T15:23:13Z</time>
      </trkpt>
      <trkpt lat="45.37838" lon="0.69113">
        <ele>92.099703205276</ele>
        <time>2015-08-07T15:23:22Z</time>
      </trkpt>
      <trkpt lat="45.37833" lon="0.6911">
        <ele>92.099703205276</ele>
        <time>2015-08-07T15:23:28Z</time>
      </trkpt>
      <trkpt lat="45.37826" lon="0.69101">
        <ele>91.914958840741</ele>
        <time>2015-08-07T15:23:38Z</time>
      </trkpt>
      <trkpt lat="45.37825" lon="0.691">
        <ele>91.914958840741</ele>
        <time>2015-08-07T15:23:44Z</time>
      </trkpt>
      <trkpt lat="45.3783" lon="0.69109">
        <ele>91.914958840741</ele>
        <time>2015-08-07T15:23:53Z</time>
      </trkpt>
      <trkpt lat="45.37836" lon="0.69114">
        <ele>91.380768505214</ele>
        <time>2015-08-07T15:23:58Z</time>
      </trkpt>
      <trkpt lat="45.37846" lon="0.69126">
        <ele>91.139524122741</ele>
        <time>2015-08-07T15:24:08Z</time>
      </trkpt>
      <trkpt lat="45.37849" lon="0.69135">
        <ele>91.139524122741</ele>
        <time>2015-08-07T15:24:13Z</time>
      </trkpt>
      <trkpt lat="45.37842" lon="0.69145">
        <ele>91.598228094081</ele>
        <time>2015-08-07T15:24:23Z</time>
      </trkpt>
      <trkpt lat="45.37838" lon="0.69136">
        <ele>91.598228094081</ele>
        <time>2015-08-07T15:24:27Z</time>
      </trkpt>
      <trkpt lat="45.37833" lon="0.69126">
        <ele>92.281747871387</ele>
        <time>2015-08-07T15:24:32Z</time>
      </trkpt>
      <trkpt lat="45.37828" lon="0.69118">
        <ele>92.281747871387</ele>
        <time>2015-08-07T15:24:37Z</time>
      </trkpt>
      <trkpt lat="45.37824" lon="0.69109">
        <ele>93.282434509966</ele>
        <time>2015-08-07T15:24:42Z</time>
      </trkpt>
      <trkpt lat="45.37819" lon="0.69099">
        <ele>93.282434509966</ele>
        <time>2015-08-07T15:24:47Z</time>
      </trkpt>
      <trkpt lat="45.37815" lon="0.69091">
        <ele>94.54087325962</ele>
        <time>2015-08-07T15:24:52Z</time>
      </trkpt>
      <trkpt lat="45.37811" lon="0.69083">
        <ele>94.54087325962</ele>
        <time>2015-08-07T15:24:57Z</time>
      </trkpt>
      <trkpt lat="45.37808" lon="0.69073">
        <ele>96.044563846469</ele>
        <time>2015-08-07T15:25:02Z</time>
      </trkpt>
      <trkpt lat="45.37809" lon="0.69066">
        <ele>96.044563846469</ele>
        <time>2015-08-07T15:25:07Z</time>
      </trkpt>
      <trkpt lat="45.37813" lon="0.69059">
        <ele>96.916628362098</ele>
        <time>2015-08-07T15:25:12Z</time>
      </trkpt>
      <trkpt lat="45.37819" lon="0.69054">
        <ele>96.916628362098</ele>
        <time>2015-08-07T15:25:17Z</time>
      </trkpt>
      <trkpt lat="45.37825" lon="0.69049">
        <ele>97.182296966651</ele>
        <time>2015-08-07T15:25:22Z</time>
      </trkpt>
      <trkpt lat="45.37832" lon="0.69044">
        <ele>97.182296966651</ele>
        <time>2015-08-07T15:25:27Z</time>
      </trkpt>
      <trkpt lat="45.37836" lon="0.69038">
        <ele>96.852326399036</ele>
        <time>2015-08-07T15:25:32Z</time>
      </trkpt>
      <trkpt lat="45.37842" lon="0.69033">
        <ele>96.852326399036</ele>
        <time>2015-08-07T15:25:37Z</time>
      </trkpt>
      <trkpt lat="45.37847" lon="0.69027">
        <ele>96.572542571583</ele>
        <time>2015-08-07T15:25:42Z</time>
      </trkpt>
      <trkpt lat="45.37853" lon="0.69022">
        <ele>96.572542571583</ele>
        <time>2015-08-07T15:25:47Z</time>
      </trkpt>
      <trkpt lat="45.37859" lon="0.69017">
        <ele>96.480137566796</ele>
        <time>2015-08-07T15:25:52Z</time>
      </trkpt>
      <trkpt lat="45.37867" lon="0.69009">
        <ele>96.355940610557</ele>
        <time>2015-08-07T15:25:57Z</time>
      </trkpt>
      <trkpt lat="45.37871" lon="0.69005">
        <ele>96.355940610557</ele>
        <time>2015-08-07T15:26:02Z</time>
      </trkpt>
      <trkpt lat="45.37876" lon="0.69">
        <ele>96.040312977769</ele>
        <time>2015-08-07T15:26:07Z</time>
      </trkpt>
      <trkpt lat="45.3788" lon="0.68993">
        <ele>96.040312977769</ele>
        <time>2015-08-07T15:26:12Z</time>
      </trkpt>
      <trkpt lat="45.37884" lon="0.68991">
        <ele>95.746268610048</ele>
        <time>2015-08-07T15:26:17Z</time>
      </trkpt>
      <trkpt lat="45.37889" lon="0.68986">
        <ele>95.746268610048</ele>
        <time>2015-08-07T15:26:22Z</time>
      </trkpt>
      <trkpt lat="45.37893" lon="0.68979">
        <ele>95.498291257748</ele>
        <time>2015-08-07T15:26:27Z</time>
      </trkpt>
      <trkpt lat="45.37898" lon="0.68969">
        <ele>95.498291257748</ele>
        <time>2015-08-07T15:26:32Z</time>
      </trkpt>
      <trkpt lat="45.37901" lon="0.6896">
        <ele>96.226950707823</ele>
        <time>2015-08-07T15:26:37Z</time>
      </trkpt>
      <trkpt lat="45.37904" lon="0.6895">
        <ele>96.226950707823</ele>
        <time>2015-08-07T15:26:42Z</time>
      </trkpt>
      <trkpt lat="45.37906" lon="0.6894">
        <ele>97.480423211653</ele>
        <time>2015-08-07T15:26:47Z</time>
      </trkpt>
      <trkpt lat="45.37907" lon="0.68928">
        <ele>97.480423211653</ele>
        <time>2015-08-07T15:26:52Z</time>
      </trkpt>
      <trkpt lat="45.3791" lon="0.68918">
        <ele>98.723437143255</ele>
        <time>2015-08-07T15:26:57Z</time>
      </trkpt>
      <trkpt lat="45.37912" lon="0.68909">
        <ele>98.723437143255</ele>
        <time>2015-08-07T15:27:02Z</time>
      </trkpt>
      <trkpt lat="45.37915" lon="0.68898">
        <ele>99.47461175398</ele>
        <time>2015-08-07T15:27:07Z</time>
      </trkpt>
      <trkpt lat="45.37914" lon="0.68888">
        <ele>99.47461175398</ele>
        <time>2015-08-07T15:27:12Z</time>
      </trkpt>
      <trkpt lat="45.37916" lon="0.68865">
        <ele>100.91790290094</ele>
        <time>2015-08-07T15:27:23Z</time>
      </trkpt>
      <trkpt lat="45.37916" lon="0.68855">
        <ele>100.91790290094</ele>
        <time>2015-08-07T15:27:28Z</time>
      </trkpt>
      <trkpt lat="45.37915" lon="0.68836">
        <ele>102.23182067258</ele>
        <time>2015-08-07T15:27:37Z</time>
      </trkpt>
      <trkpt lat="45.37911" lon="0.68829">
        <ele>102.23182067258</ele>
        <time>2015-08-07T15:27:42Z</time>
      </trkpt>
      <trkpt lat="45.37906" lon="0.68826">
        <ele>103.62128373099</ele>
        <time>2015-08-07T15:27:47Z</time>
      </trkpt>
      <trkpt lat="45.37901" lon="0.68822">
        <ele>103.62128373099</ele>
        <time>2015-08-07T15:27:52Z</time>
      </trkpt>
      <trkpt lat="45.37882" lon="0.68818">
        <ele>104.68525104054</ele>
        <time>2015-08-07T15:28:08Z</time>
      </trkpt>
      <trkpt lat="45.37866" lon="0.68799">
        <ele>106.07641195139</ele>
        <time>2015-08-07T15:28:23Z</time>
      </trkpt>
      <trkpt lat="45.37858" lon="0.68788">
        <ele>107.678209325</ele>
        <time>2015-08-07T15:28:28Z</time>
      </trkpt>
      <trkpt lat="45.37846" lon="0.68781">
        <ele>109.67045884653</ele>
        <time>2015-08-07T15:28:37Z</time>
      </trkpt>
      <trkpt lat="45.3784" lon="0.68774">
        <ele>109.67045884653</ele>
        <time>2015-08-07T15:28:42Z</time>
      </trkpt>
      <trkpt lat="45.37827" lon="0.6876">
        <ele>111.44065615645</ele>
        <time>2015-08-07T15:28:53Z</time>
      </trkpt>
      <trkpt lat="45.37821" lon="0.6875">
        <ele>113.24353843483</ele>
        <time>2015-08-07T15:28:57Z</time>
      </trkpt>
      <trkpt lat="45.37816" lon="0.68742">
        <ele>113.24353843483</ele>
        <time>2015-08-07T15:29:02Z</time>
      </trkpt>
      <trkpt lat="45.3781" lon="0.68733">
        <ele>115.8340362857</ele>
        <time>2015-08-07T15:29:07Z</time>
      </trkpt>
      <trkpt lat="45.37804" lon="0.6873">
        <ele>115.8340362857</ele>
        <time>2015-08-07T15:29:12Z</time>
      </trkpt>
      <trkpt lat="45.37794" lon="0.68719">
        <ele>118.13705105187</ele>
        <time>2015-08-07T15:29:23Z</time>
      </trkpt>
      <trkpt lat="45.37791" lon="0.68717">
        <ele>118.13705105187</ele>
        <time>2015-08-07T15:29:27Z</time>
      </trkpt>
      <trkpt lat="45.37775" lon="0.68701">
        <ele>119.64745405191</ele>
        <time>2015-08-07T15:29:37Z</time>
      </trkpt>
      <trkpt lat="45.37775" lon="0.68701">
        <ele>119.64745405191</ele>
        <time>2015-08-07T15:29:42Z</time>
      </trkpt>
      <trkpt lat="45.37771" lon="0.68693">
        <ele>119.64745405191</ele>
        <time>2015-08-07T15:29:47Z</time>
      </trkpt>
      <trkpt lat="45.37766" lon="0.68686">
        <ele>120.73550403972</ele>
        <time>2015-08-07T15:29:52Z</time>
      </trkpt>
      <trkpt lat="45.37759" lon="0.68677">
        <ele>121.70242543655</ele>
        <time>2015-08-07T15:29:57Z</time>
      </trkpt>
      <trkpt lat="45.37753" lon="0.68668">
        <ele>121.70242543655</ele>
        <time>2015-08-07T15:30:02Z</time>
      </trkpt>
      <trkpt lat="45.37748" lon="0.68662">
        <ele>122.64052010809</ele>
        <time>2015-08-07T15:30:07Z</time>
      </trkpt>
      <trkpt lat="45.37742" lon="0.68657">
        <ele>122.64052010809</ele>
        <time>2015-08-07T15:30:12Z</time>
      </trkpt>
      <trkpt lat="45.37741" lon="0.68656">
        <ele>122.64052010809</ele>
        <time>2015-08-07T15:30:17Z</time>
      </trkpt>
      <trkpt lat="45.37733" lon="0.68651">
        <ele>123.18884913318</ele>
        <time>2015-08-07T15:30:22Z</time>
      </trkpt>
      <trkpt lat="45.37726" lon="0.68648">
        <ele>123.18884913318</ele>
        <time>2015-08-07T15:30:27Z</time>
      </trkpt>
      <trkpt lat="45.3772" lon="0.68648">
        <ele>123.11515345582</ele>
        <time>2015-08-07T15:30:32Z</time>
      </trkpt>
      <trkpt lat="45.37711" lon="0.68648">
        <ele>122.94113077811</ele>
        <time>2015-08-07T15:30:37Z</time>
      </trkpt>
      <trkpt lat="45.37702" lon="0.6865">
        <ele>122.90561814242</ele>
        <time>2015-08-07T15:30:42Z</time>
      </trkpt>
      <trkpt lat="45.37695" lon="0.68652">
        <ele>122.90561814242</ele>
        <time>2015-08-07T15:30:47Z</time>
      </trkpt>
      <trkpt lat="45.3769" lon="0.68656">
        <ele>123.0135091005</ele>
        <time>2015-08-07T15:30:52Z</time>
      </trkpt>
      <trkpt lat="45.37685" lon="0.68659">
        <ele>123.0135091005</ele>
        <time>2015-08-07T15:30:57Z</time>
      </trkpt>
      <trkpt lat="45.37678" lon="0.68664">
        <ele>123.06732253903</ele>
        <time>2015-08-07T15:31:02Z</time>
      </trkpt>
      <trkpt lat="45.37671" lon="0.68669">
        <ele>123.06732253903</ele>
        <time>2015-08-07T15:31:07Z</time>
      </trkpt>
      <trkpt lat="45.37664" lon="0.68668">
        <ele>123.20141041232</ele>
        <time>2015-08-07T15:31:12Z</time>
      </trkpt>
      <trkpt lat="45.37657" lon="0.68665">
        <ele>123.20141041232</ele>
        <time>2015-08-07T15:31:17Z</time>
      </trkpt>
      <trkpt lat="45.3765" lon="0.68661">
        <ele>123.30957037392</ele>
        <time>2015-08-07T15:31:22Z</time>
      </trkpt>
      <trkpt lat="45.37643" lon="0.68657">
        <ele>123.30957037392</ele>
        <time>2015-08-07T15:31:27Z</time>
      </trkpt>
      <trkpt lat="45.37636" lon="0.68653">
        <ele>123.43769273188</ele>
        <time>2015-08-07T15:31:32Z</time>
      </trkpt>
      <trkpt lat="45.37629" lon="0.6865">
        <ele>123.43769273188</ele>
        <time>2015-08-07T15:31:37Z</time>
      </trkpt>
      <trkpt lat="45.37622" lon="0.68645">
        <ele>123.5562818986</ele>
        <time>2015-08-07T15:31:42Z</time>
      </trkpt>
      <trkpt lat="45.37616" lon="0.6864">
        <ele>123.5562818986</ele>
        <time>2015-08-07T15:31:47Z</time>
      </trkpt>
      <trkpt lat="45.3761" lon="0.68635">
        <ele>123.58047805117</ele>
        <time>2015-08-07T15:31:52Z</time>
      </trkpt>
      <trkpt lat="45.37603" lon="0.68628">
        <ele>123.58047805117</ele>
        <time>2015-08-07T15:31:57Z</time>
      </trkpt>
      <trkpt lat="45.37597" lon="0.68618">
        <ele>123.66257500101</ele>
        <time>2015-08-07T15:32:02Z</time>
      </trkpt>
      <trkpt lat="45.37592" lon="0.68611">
        <ele>123.66257500101</ele>
        <time>2015-08-07T15:32:07Z</time>
      </trkpt>
      <trkpt lat="45.37588" lon="0.68602">
        <ele>123.79947370185</ele>
        <time>2015-08-07T15:32:12Z</time>
      </trkpt>
      <trkpt lat="45.37585" lon="0.68594">
        <ele>123.79947370185</ele>
        <time>2015-08-07T15:32:17Z</time>
      </trkpt>
      <trkpt lat="45.37581" lon="0.68585">
        <ele>124.10349781478</ele>
        <time>2015-08-07T15:32:22Z</time>
      </trkpt>
      <trkpt lat="45.37578" lon="0.68576">
        <ele>124.10349781478</ele>
        <time>2015-08-07T15:32:27Z</time>
      </trkpt>
      <trkpt lat="45.37575" lon="0.68566">
        <ele>124.57742574784</ele>
        <time>2015-08-07T15:32:32Z</time>
      </trkpt>
      <trkpt lat="45.37572" lon="0.68556">
        <ele>124.57742574784</ele>
        <time>2015-08-07T15:32:37Z</time>
      </trkpt>
      <trkpt lat="45.37567" lon="0.68543">
        <ele>124.92076805752</ele>
        <time>2015-08-07T15:32:42Z</time>
      </trkpt>
      <trkpt lat="45.37565" lon="0.68535">
        <ele>124.92076805752</ele>
        <time>2015-08-07T15:32:47Z</time>
      </trkpt>
      <trkpt lat="45.37561" lon="0.68524">
        <ele>124.98521592413</ele>
        <time>2015-08-07T15:32:52Z</time>
      </trkpt>
      <trkpt lat="45.37558" lon="0.68515">
        <ele>124.98521592413</ele>
        <time>2015-08-07T15:32:57Z</time>
      </trkpt>
      <trkpt lat="45.37557" lon="0.68507">
        <ele>124.07213718758</ele>
        <time>2015-08-07T15:33:02Z</time>
      </trkpt>
      <trkpt lat="45.37555" lon="0.68496">
        <ele>124.07213718758</ele>
        <time>2015-08-07T15:33:07Z</time>
      </trkpt>
      <trkpt lat="45.37554" lon="0.68493">
        <ele>122.93486534749</ele>
        <time>2015-08-07T15:33:12Z</time>
      </trkpt>
      <trkpt lat="45.37555" lon="0.68491">
        <ele>122.93486534749</ele>
        <time>2015-08-07T15:33:17Z</time>
      </trkpt>
      <trkpt lat="45.37554" lon="0.68481">
        <ele>122.93486534749</ele>
        <time>2015-08-07T15:33:22Z</time>
      </trkpt>
      <trkpt lat="45.37551" lon="0.68471">
        <ele>121.78205780658</ele>
        <time>2015-08-07T15:33:27Z</time>
      </trkpt>
      <trkpt lat="45.3755" lon="0.68461">
        <ele>121.78205780658</ele>
        <time>2015-08-07T15:33:32Z</time>
      </trkpt>
      <trkpt lat="45.37548" lon="0.68451">
        <ele>121.05207622475</ele>
        <time>2015-08-07T15:33:37Z</time>
      </trkpt>
      <trkpt lat="45.37544" lon="0.6844">
        <ele>120.05463543728</ele>
        <time>2015-08-07T15:33:42Z</time>
      </trkpt>
      <trkpt lat="45.37546" lon="0.68432">
        <ele>120.05463543728</ele>
        <time>2015-08-07T15:33:47Z</time>
      </trkpt>
      <trkpt lat="45.3755" lon="0.68426">
        <ele>119.08760483345</ele>
        <time>2015-08-07T15:33:52Z</time>
      </trkpt>
      <trkpt lat="45.37552" lon="0.68424">
        <ele>119.08760483345</ele>
        <time>2015-08-07T15:33:57Z</time>
      </trkpt>
      <trkpt lat="45.37554" lon="0.68425">
        <ele>119.08760483345</ele>
        <time>2015-08-07T15:34:02Z</time>
      </trkpt>
      <trkpt lat="45.37554" lon="0.68427">
        <ele>119.08760483345</ele>
        <time>2015-08-07T15:34:07Z</time>
      </trkpt>
      <trkpt lat="45.3755" lon="0.68423">
        <ele>118.78712905661</ele>
        <time>2015-08-07T15:34:12Z</time>
      </trkpt>
      <trkpt lat="45.37542" lon="0.68417">
        <ele>118.09784012131</ele>
        <time>2015-08-07T15:34:17Z</time>
      </trkpt>
      <trkpt lat="45.37538" lon="0.68411">
        <ele>118.09784012131</ele>
        <time>2015-08-07T15:34:22Z</time>
      </trkpt>
      <trkpt lat="45.37532" lon="0.68404">
        <ele>117.91638164468</ele>
        <time>2015-08-07T15:34:27Z</time>
      </trkpt>
      <trkpt lat="45.37527" lon="0.68397">
        <ele>117.91638164468</ele>
        <time>2015-08-07T15:34:32Z</time>
      </trkpt>
      <trkpt lat="45.37523" lon="0.6839">
        <ele>118.06327263076</ele>
        <time>2015-08-07T15:34:37Z</time>
      </trkpt>
      <trkpt lat="45.37519" lon="0.68383">
        <ele>118.06327263076</ele>
        <time>2015-08-07T15:34:42Z</time>
      </trkpt>
      <trkpt lat="45.37516" lon="0.68377">
        <ele>118.40006134759</ele>
        <time>2015-08-07T15:34:47Z</time>
      </trkpt>
      <trkpt lat="45.37511" lon="0.68367">
        <ele>118.40006134759</ele>
        <time>2015-08-07T15:34:52Z</time>
      </trkpt>
      <trkpt lat="45.37506" lon="0.68359">
        <ele>119.07168950384</ele>
        <time>2015-08-07T15:34:57Z</time>
      </trkpt>
      <trkpt lat="45.37502" lon="0.68353">
        <ele>119.07168950384</ele>
        <time>2015-08-07T15:35:02Z</time>
      </trkpt>
      <trkpt lat="45.37498" lon="0.68348">
        <ele>120.13940469239</ele>
        <time>2015-08-07T15:35:07Z</time>
      </trkpt>
      <trkpt lat="45.3749" lon="0.68343">
        <ele>120.13940469239</ele>
        <time>2015-08-07T15:35:12Z</time>
      </trkpt>
      <trkpt lat="45.37483" lon="0.68342">
        <ele>121.06794192972</ele>
        <time>2015-08-07T15:35:17Z</time>
      </trkpt>
      <trkpt lat="45.37477" lon="0.68343">
        <ele>121.06794192972</ele>
        <time>2015-08-07T15:35:22Z</time>
      </trkpt>
      <trkpt lat="45.37471" lon="0.6834">
        <ele>122.47136400127</ele>
        <time>2015-08-07T15:35:27Z</time>
      </trkpt>
      <trkpt lat="45.37467" lon="0.68332">
        <ele>122.47136400127</ele>
        <time>2015-08-07T15:35:32Z</time>
      </trkpt>
      <trkpt lat="45.37465" lon="0.68329">
        <ele>123.67790621444</ele>
        <time>2015-08-07T15:35:37Z</time>
      </trkpt>
      <trkpt lat="45.37458" lon="0.68322">
        <ele>123.67790621444</ele>
        <time>2015-08-07T15:35:42Z</time>
      </trkpt>
      <trkpt lat="45.37453" lon="0.68316">
        <ele>125.06004918054</ele>
        <time>2015-08-07T15:35:47Z</time>
      </trkpt>
      <trkpt lat="45.37446" lon="0.68311">
        <ele>125.06004918054</ele>
        <time>2015-08-07T15:35:52Z</time>
      </trkpt>
      <trkpt lat="45.3744" lon="0.68303">
        <ele>126.53007288852</ele>
        <time>2015-08-07T15:35:57Z</time>
      </trkpt>
      <trkpt lat="45.37436" lon="0.68297">
        <ele>126.53007288852</ele>
        <time>2015-08-07T15:36:02Z</time>
      </trkpt>
      <trkpt lat="45.37432" lon="0.6829">
        <ele>128.1073296101</ele>
        <time>2015-08-07T15:36:07Z</time>
      </trkpt>
      <trkpt lat="45.37427" lon="0.68283">
        <ele>128.1073296101</ele>
        <time>2015-08-07T15:36:12Z</time>
      </trkpt>
      <trkpt lat="45.37422" lon="0.68275">
        <ele>129.96797824071</ele>
        <time>2015-08-07T15:36:17Z</time>
      </trkpt>
      <trkpt lat="45.37417" lon="0.68266">
        <ele>129.96797824071</ele>
        <time>2015-08-07T15:36:22Z</time>
      </trkpt>
      <trkpt lat="45.37414" lon="0.68258">
        <ele>132.01505903039</ele>
        <time>2015-08-07T15:36:27Z</time>
      </trkpt>
      <trkpt lat="45.37408" lon="0.68249">
        <ele>132.01505903039</ele>
        <time>2015-08-07T15:36:32Z</time>
      </trkpt>
      <trkpt lat="45.37406" lon="0.68241">
        <ele>134.31676209522</ele>
        <time>2015-08-07T15:36:37Z</time>
      </trkpt>
      <trkpt lat="45.37402" lon="0.68235">
        <ele>134.31676209522</ele>
        <time>2015-08-07T15:36:42Z</time>
      </trkpt>
      <trkpt lat="45.37396" lon="0.68229">
        <ele>136.3015038504</ele>
        <time>2015-08-07T15:36:47Z</time>
      </trkpt>
      <trkpt lat="45.37391" lon="0.68224">
        <ele>136.3015038504</ele>
        <time>2015-08-07T15:36:52Z</time>
      </trkpt>
      <trkpt lat="45.37385" lon="0.68217">
        <ele>138.27647260871</ele>
        <time>2015-08-07T15:36:57Z</time>
      </trkpt>
      <trkpt lat="45.37383" lon="0.68213">
        <ele>138.27647260871</ele>
        <time>2015-08-07T15:37:02Z</time>
      </trkpt>
      <trkpt lat="45.37378" lon="0.68209">
        <ele>140.45432272128</ele>
        <time>2015-08-07T15:37:07Z</time>
      </trkpt>
      <trkpt lat="45.37372" lon="0.68206">
        <ele>140.45432272128</ele>
        <time>2015-08-07T15:37:12Z</time>
      </trkpt>
      <trkpt lat="45.37365" lon="0.68204">
        <ele>142.98835459007</ele>
        <time>2015-08-07T15:37:17Z</time>
      </trkpt>
      <trkpt lat="45.37359" lon="0.68199">
        <ele>142.98835459007</ele>
        <time>2015-08-07T15:37:22Z</time>
      </trkpt>
      <trkpt lat="45.37355" lon="0.68195">
        <ele>145.28472011306</ele>
        <time>2015-08-07T15:37:27Z</time>
      </trkpt>
      <trkpt lat="45.3735" lon="0.68191">
        <ele>145.28472011306</ele>
        <time>2015-08-07T15:37:32Z</time>
      </trkpt>
      <trkpt lat="45.37346" lon="0.68186">
        <ele>147.48568294737</ele>
        <time>2015-08-07T15:37:37Z</time>
      </trkpt>
      <trkpt lat="45.3734" lon="0.68178">
        <ele>147.48568294737</ele>
        <time>2015-08-07T15:37:42Z</time>
      </trkpt>
      <trkpt lat="45.37336" lon="0.68173">
        <ele>149.46401913965</ele>
        <time>2015-08-07T15:37:47Z</time>
      </trkpt>
      <trkpt lat="45.37332" lon="0.68168">
        <ele>149.46401913965</ele>
        <time>2015-08-07T15:37:52Z</time>
      </trkpt>
      <trkpt lat="45.37327" lon="0.6816">
        <ele>151.31874345542</ele>
        <time>2015-08-07T15:37:57Z</time>
      </trkpt>
      <trkpt lat="45.37322" lon="0.68154">
        <ele>151.31874345542</ele>
        <time>2015-08-07T15:38:02Z</time>
      </trkpt>
      <trkpt lat="45.37317" lon="0.68151">
        <ele>152.82500459045</ele>
        <time>2015-08-07T15:38:07Z</time>
      </trkpt>
      <trkpt lat="45.3731" lon="0.68148">
        <ele>152.82500459045</ele>
        <time>2015-08-07T15:38:12Z</time>
      </trkpt>
      <trkpt lat="45.37304" lon="0.68143">
        <ele>153.86201917012</ele>
        <time>2015-08-07T15:38:17Z</time>
      </trkpt>
      <trkpt lat="45.37301" lon="0.68137">
        <ele>153.86201917012</ele>
        <time>2015-08-07T15:38:22Z</time>
      </trkpt>
      <trkpt lat="45.37297" lon="0.68131">
        <ele>154.67957530716</ele>
        <time>2015-08-07T15:38:27Z</time>
      </trkpt>
      <trkpt lat="45.37295" lon="0.68125">
        <ele>154.67957530716</ele>
        <time>2015-08-07T15:38:32Z</time>
      </trkpt>
      <trkpt lat="45.37293" lon="0.68118">
        <ele>154.51545920654</ele>
        <time>2015-08-07T15:38:37Z</time>
      </trkpt>
      <trkpt lat="45.37291" lon="0.6811">
        <ele>154.51545920654</ele>
        <time>2015-08-07T15:38:42Z</time>
      </trkpt>
      <trkpt lat="45.37289" lon="0.68103">
        <ele>153.99211484601</ele>
        <time>2015-08-07T15:38:47Z</time>
      </trkpt>
      <trkpt lat="45.37287" lon="0.6809">
        <ele>153.99211484601</ele>
        <time>2015-08-07T15:38:52Z</time>
      </trkpt>
      <trkpt lat="45.37285" lon="0.68078">
        <ele>153.7594025175</ele>
        <time>2015-08-07T15:38:57Z</time>
      </trkpt>
      <trkpt lat="45.37286" lon="0.68071">
        <ele>153.7594025175</ele>
        <time>2015-08-07T15:39:02Z</time>
      </trkpt>
      <trkpt lat="45.37288" lon="0.68064">
        <ele>153.02081306686</ele>
        <time>2015-08-07T15:39:07Z</time>
      </trkpt>
      <trkpt lat="45.37287" lon="0.68058">
        <ele>153.02081306686</ele>
        <time>2015-08-07T15:39:12Z</time>
      </trkpt>
      <trkpt lat="45.37283" lon="0.68045">
        <ele>151.42891275257</ele>
        <time>2015-08-07T15:39:17Z</time>
      </trkpt>
      <trkpt lat="45.37284" lon="0.68036">
        <ele>151.42891275257</ele>
        <time>2015-08-07T15:39:22Z</time>
      </trkpt>
      <trkpt lat="45.37284" lon="0.68027">
        <ele>150.24943408856</ele>
        <time>2015-08-07T15:39:27Z</time>
      </trkpt>
      <trkpt lat="45.37285" lon="0.6802">
        <ele>150.24943408856</ele>
        <time>2015-08-07T15:39:32Z</time>
      </trkpt>
      <trkpt lat="45.37287" lon="0.68011">
        <ele>150.0487165891</ele>
        <time>2015-08-07T15:39:37Z</time>
      </trkpt>
      <trkpt lat="45.3729" lon="0.68003">
        <ele>150.0487165891</ele>
        <time>2015-08-07T15:39:42Z</time>
      </trkpt>
      <trkpt lat="45.37293" lon="0.68">
        <ele>149.51853400422</ele>
        <time>2015-08-07T15:39:47Z</time>
      </trkpt>
      <trkpt lat="45.37293" lon="0.67991">
        <ele>149.51853400422</ele>
        <time>2015-08-07T15:39:52Z</time>
      </trkpt>
      <trkpt lat="45.37293" lon="0.67983">
        <ele>149.40757956728</ele>
        <time>2015-08-07T15:39:57Z</time>
      </trkpt>
      <trkpt lat="45.37291" lon="0.67972">
        <ele>149.40757956728</ele>
        <time>2015-08-07T15:40:02Z</time>
      </trkpt>
      <trkpt lat="45.3729" lon="0.67962">
        <ele>149.42838856822</ele>
        <time>2015-08-07T15:40:07Z</time>
      </trkpt>
      <trkpt lat="45.37289" lon="0.67952">
        <ele>149.42838856822</ele>
        <time>2015-08-07T15:40:12Z</time>
      </trkpt>
      <trkpt lat="45.37291" lon="0.67943">
        <ele>149.57360984885</ele>
        <time>2015-08-07T15:40:17Z</time>
      </trkpt>
      <trkpt lat="45.3729" lon="0.6793">
        <ele>150.02338930635</ele>
        <time>2015-08-07T15:40:22Z</time>
      </trkpt>
      <trkpt lat="45.3729" lon="0.67916">
        <ele>150.74198882733</ele>
        <time>2015-08-07T15:40:27Z</time>
      </trkpt>
      <trkpt lat="45.37289" lon="0.67902">
        <ele>151.76755657541</ele>
        <time>2015-08-07T15:40:32Z</time>
      </trkpt>
      <trkpt lat="45.37292" lon="0.67894">
        <ele>151.76755657541</ele>
        <time>2015-08-07T15:40:37Z</time>
      </trkpt>
      <trkpt lat="45.37294" lon="0.67884">
        <ele>152.45721564037</ele>
        <time>2015-08-07T15:40:42Z</time>
      </trkpt>
      <trkpt lat="45.37295" lon="0.67874">
        <ele>152.45721564037</ele>
        <time>2015-08-07T15:40:47Z</time>
      </trkpt>
      <trkpt lat="45.37296" lon="0.67864">
        <ele>153.16735393461</ele>
        <time>2015-08-07T15:40:52Z</time>
      </trkpt>
      <trkpt lat="45.373" lon="0.67854">
        <ele>153.16735393461</ele>
        <time>2015-08-07T15:40:57Z</time>
      </trkpt>
      <trkpt lat="45.37302" lon="0.67846">
        <ele>153.50753162205</ele>
        <time>2015-08-07T15:41:02Z</time>
      </trkpt>
      <trkpt lat="45.37305" lon="0.6784">
        <ele>153.50753162205</ele>
        <time>2015-08-07T15:41:07Z</time>
      </trkpt>
      <trkpt lat="45.37305" lon="0.67825">
        <ele>154.24106293388</ele>
        <time>2015-08-07T15:41:12Z</time>
      </trkpt>
      <trkpt lat="45.37305" lon="0.67819">
        <ele>154.24106293388</ele>
        <time>2015-08-07T15:41:17Z</time>
      </trkpt>
      <trkpt lat="45.37306" lon="0.67813">
        <ele>154.24106293388</ele>
        <time>2015-08-07T15:41:22Z</time>
      </trkpt>
      <trkpt lat="45.37307" lon="0.67804">
        <ele>154.56088703525</ele>
        <time>2015-08-07T15:41:27Z</time>
      </trkpt>
      <trkpt lat="45.37309" lon="0.67796">
        <ele>154.56088703525</ele>
        <time>2015-08-07T15:41:32Z</time>
      </trkpt>
      <trkpt lat="45.37308" lon="0.67788">
        <ele>154.72913627201</ele>
        <time>2015-08-07T15:41:37Z</time>
      </trkpt>
      <trkpt lat="45.37308" lon="0.67785">
        <ele>154.72913627201</ele>
        <time>2015-08-07T15:41:42Z</time>
      </trkpt>
      <trkpt lat="45.37307" lon="0.67783">
        <ele>154.72913627201</ele>
        <time>2015-08-07T15:41:47Z</time>
      </trkpt>
      <trkpt lat="45.37307" lon="0.67775">
        <ele>154.84496837257</ele>
        <time>2015-08-07T15:41:52Z</time>
      </trkpt>
      <trkpt lat="45.37306" lon="0.67767">
        <ele>154.84496837257</ele>
        <time>2015-08-07T15:41:57Z</time>
      </trkpt>
      <trkpt lat="45.37306" lon="0.67762">
        <ele>154.61126939253</ele>
        <time>2015-08-07T15:42:02Z</time>
      </trkpt>
      <trkpt lat="45.37303" lon="0.67751">
        <ele>154.61126939253</ele>
        <time>2015-08-07T15:42:07Z</time>
      </trkpt>
      <trkpt lat="45.37299" lon="0.67737">
        <ele>154.77688410225</ele>
        <time>2015-08-07T15:42:12Z</time>
      </trkpt>
      <trkpt lat="45.37296" lon="0.67724">
        <ele>155.27069923186</ele>
        <time>2015-08-07T15:42:17Z</time>
      </trkpt>
      <trkpt lat="45.37291" lon="0.67711">
        <ele>155.92498696606</ele>
        <time>2015-08-07T15:42:22Z</time>
      </trkpt>
      <trkpt lat="45.37288" lon="0.677">
        <ele>155.92498696606</ele>
        <time>2015-08-07T15:42:27Z</time>
      </trkpt>
      <trkpt lat="45.37286" lon="0.6769">
        <ele>156.4829729588</ele>
        <time>2015-08-07T15:42:32Z</time>
      </trkpt>
      <trkpt lat="45.37283" lon="0.67679">
        <ele>156.4829729588</ele>
        <time>2015-08-07T15:42:37Z</time>
      </trkpt>
      <trkpt lat="45.3728" lon="0.6767">
        <ele>156.73579922654</ele>
        <time>2015-08-07T15:42:42Z</time>
      </trkpt>
      <trkpt lat="45.37279" lon="0.67662">
        <ele>156.73579922654</ele>
        <time>2015-08-07T15:42:47Z</time>
      </trkpt>
      <trkpt lat="45.37275" lon="0.67651">
        <ele>156.96633611847</ele>
        <time>2015-08-07T15:42:52Z</time>
      </trkpt>
      <trkpt lat="45.37272" lon="0.67642">
        <ele>156.96633611847</ele>
        <time>2015-08-07T15:42:57Z</time>
      </trkpt>
      <trkpt lat="45.37268" lon="0.67632">
        <ele>157.13406703025</ele>
        <time>2015-08-07T15:43:02Z</time>
      </trkpt>
      <trkpt lat="45.37264" lon="0.67623">
        <ele>157.13406703025</ele>
        <time>2015-08-07T15:43:07Z</time>
      </trkpt>
      <trkpt lat="45.3726" lon="0.67616">
        <ele>157.33129124722</ele>
        <time>2015-08-07T15:43:12Z</time>
      </trkpt>
      <trkpt lat="45.37256" lon="0.67608">
        <ele>157.33129124722</ele>
        <time>2015-08-07T15:43:17Z</time>
      </trkpt>
      <trkpt lat="45.37251" lon="0.67601">
        <ele>157.71546373865</ele>
        <time>2015-08-07T15:43:22Z</time>
      </trkpt>
      <trkpt lat="45.37247" lon="0.67592">
        <ele>157.71546373865</ele>
        <time>2015-08-07T15:43:27Z</time>
      </trkpt>
      <trkpt lat="45.37244" lon="0.67588">
        <ele>157.98516680369</ele>
        <time>2015-08-07T15:43:32Z</time>
      </trkpt>
      <trkpt lat="45.37241" lon="0.67582">
        <ele>157.98516680369</ele>
        <time>2015-08-07T15:43:37Z</time>
      </trkpt>
      <trkpt lat="45.37238" lon="0.67577">
        <ele>157.83258598161</ele>
        <time>2015-08-07T15:43:42Z</time>
      </trkpt>
      <trkpt lat="45.37233" lon="0.67568">
        <ele>157.83258598161</ele>
        <time>2015-08-07T15:43:47Z</time>
      </trkpt>
      <trkpt lat="45.3723" lon="0.67557">
        <ele>157.95362131758</ele>
        <time>2015-08-07T15:43:52Z</time>
      </trkpt>
      <trkpt lat="45.37226" lon="0.67549">
        <ele>157.95362131758</ele>
        <time>2015-08-07T15:43:57Z</time>
      </trkpt>
      <trkpt lat="45.37221" lon="0.67542">
        <ele>158.08434596612</ele>
        <time>2015-08-07T15:44:02Z</time>
      </trkpt>
      <trkpt lat="45.37216" lon="0.67534">
        <ele>158.08434596612</ele>
        <time>2015-08-07T15:44:07Z</time>
      </trkpt>
      <trkpt lat="45.37211" lon="0.67528">
        <ele>158.18190993819</ele>
        <time>2015-08-07T15:44:12Z</time>
      </trkpt>
      <trkpt lat="45.37206" lon="0.67519">
        <ele>158.18190993819</ele>
        <time>2015-08-07T15:44:17Z</time>
      </trkpt>
      <trkpt lat="45.37203" lon="0.67515">
        <ele>158.37959726503</ele>
        <time>2015-08-07T15:44:22Z</time>
      </trkpt>
      <trkpt lat="45.37195" lon="0.67507">
        <ele>158.62764667659</ele>
        <time>2015-08-07T15:44:27Z</time>
      </trkpt>
      <trkpt lat="45.37192" lon="0.67502">
        <ele>158.62764667659</ele>
        <time>2015-08-07T15:44:32Z</time>
      </trkpt>
      <trkpt lat="45.37185" lon="0.67494">
        <ele>158.50508173564</ele>
        <time>2015-08-07T15:44:37Z</time>
      </trkpt>
      <trkpt lat="45.37182" lon="0.67491">
        <ele>158.50508173564</ele>
        <time>2015-08-07T15:44:42Z</time>
      </trkpt>
      <trkpt lat="45.37179" lon="0.67489">
        <ele>158.50508173564</ele>
        <time>2015-08-07T15:44:47Z</time>
      </trkpt>
      <trkpt lat="45.37175" lon="0.67485">
        <ele>158.74691748636</ele>
        <time>2015-08-07T15:44:52Z</time>
      </trkpt>
      <trkpt lat="45.3717" lon="0.67479">
        <ele>158.74691748636</ele>
        <time>2015-08-07T15:44:57Z</time>
      </trkpt>
      <trkpt lat="45.37163" lon="0.67471">
        <ele>158.63523440326</ele>
        <time>2015-08-07T15:45:02Z</time>
      </trkpt>
      <trkpt lat="45.37157" lon="0.67461">
        <ele>158.4137020572</ele>
        <time>2015-08-07T15:45:07Z</time>
      </trkpt>
      <trkpt lat="45.37149" lon="0.67452">
        <ele>158.25071189807</ele>
        <time>2015-08-07T15:45:12Z</time>
      </trkpt>
      <trkpt lat="45.37141" lon="0.67442">
        <ele>158.02826668495</ele>
        <time>2015-08-07T15:45:17Z</time>
      </trkpt>
      <trkpt lat="45.37137" lon="0.67435">
        <ele>158.02826668495</ele>
        <time>2015-08-07T15:45:22Z</time>
      </trkpt>
      <trkpt lat="45.37132" lon="0.67429">
        <ele>157.76685890069</ele>
        <time>2015-08-07T15:45:27Z</time>
      </trkpt>
      <trkpt lat="45.37127" lon="0.67422">
        <ele>157.76685890069</ele>
        <time>2015-08-07T15:45:32Z</time>
      </trkpt>
      <trkpt lat="45.37122" lon="0.67417">
        <ele>157.6008271941</ele>
        <time>2015-08-07T15:45:37Z</time>
      </trkpt>
      <trkpt lat="45.37116" lon="0.6741">
        <ele>157.6008271941</ele>
        <time>2015-08-07T15:45:42Z</time>
      </trkpt>
      <trkpt lat="45.37112" lon="0.67405">
        <ele>157.55344859511</ele>
        <time>2015-08-07T15:45:47Z</time>
      </trkpt>
      <trkpt lat="45.37109" lon="0.67401">
        <ele>157.55344859511</ele>
        <time>2015-08-07T15:45:52Z</time>
      </trkpt>
      <trkpt lat="45.37103" lon="0.67397">
        <ele>156.88211860895</ele>
        <time>2015-08-07T15:45:57Z</time>
      </trkpt>
      <trkpt lat="45.37096" lon="0.6739">
        <ele>156.52893963104</ele>
        <time>2015-08-07T15:46:02Z</time>
      </trkpt>
      <trkpt lat="45.37085" lon="0.67382">
        <ele>156.31385142528</ele>
        <time>2015-08-07T15:46:07Z</time>
      </trkpt>
      <trkpt lat="45.37079" lon="0.67374">
        <ele>156.31385142528</ele>
        <time>2015-08-07T15:46:12Z</time>
      </trkpt>
      <trkpt lat="45.37074" lon="0.67367">
        <ele>156.27133575062</ele>
        <time>2015-08-07T15:46:17Z</time>
      </trkpt>
      <trkpt lat="45.37068" lon="0.67364">
        <ele>156.27133575062</ele>
        <time>2015-08-07T15:46:22Z</time>
      </trkpt>
      <trkpt lat="45.37057" lon="0.67351">
        <ele>155.91400261318</ele>
        <time>2015-08-07T15:46:27Z</time>
      </trkpt>
      <trkpt lat="45.37048" lon="0.67339">
        <ele>155.32430487306</ele>
        <time>2015-08-07T15:46:32Z</time>
      </trkpt>
      <trkpt lat="45.37035" lon="0.67322">
        <ele>154.27660026524</ele>
        <time>2015-08-07T15:46:37Z</time>
      </trkpt>
      <trkpt lat="45.37032" lon="0.67313">
        <ele>154.27660026524</ele>
        <time>2015-08-07T15:46:42Z</time>
      </trkpt>
      <trkpt lat="45.37032" lon="0.67304">
        <ele>153.19713662566</ele>
        <time>2015-08-07T15:46:47Z</time>
      </trkpt>
      <trkpt lat="45.37032" lon="0.67295">
        <ele>153.19713662566</ele>
        <time>2015-08-07T15:46:52Z</time>
      </trkpt>
      <trkpt lat="45.37028" lon="0.67278">
        <ele>152.97085467781</ele>
        <time>2015-08-07T15:46:57Z</time>
      </trkpt>
      <trkpt lat="45.37029" lon="0.67267">
        <ele>152.97085467781</ele>
        <time>2015-08-07T15:47:02Z</time>
      </trkpt>
      <trkpt lat="45.37028" lon="0.67256">
        <ele>153.17587437759</ele>
        <time>2015-08-07T15:47:07Z</time>
      </trkpt>
      <trkpt lat="45.37026" lon="0.67243">
        <ele>153.86677834385</ele>
        <time>2015-08-07T15:47:12Z</time>
      </trkpt>
      <trkpt lat="45.37025" lon="0.67229">
        <ele>154.86214042828</ele>
        <time>2015-08-07T15:47:17Z</time>
      </trkpt>
      <trkpt lat="45.37025" lon="0.67221">
        <ele>154.86214042828</ele>
        <time>2015-08-07T15:47:22Z</time>
      </trkpt>
      <trkpt lat="45.37021" lon="0.67215">
        <ele>155.02741141588</ele>
        <time>2015-08-07T15:47:27Z</time>
      </trkpt>
      <trkpt lat="45.3702" lon="0.67206">
        <ele>155.02741141588</ele>
        <time>2015-08-07T15:47:32Z</time>
      </trkpt>
      <trkpt lat="45.37019" lon="0.67199">
        <ele>155.61944920061</ele>
        <time>2015-08-07T15:47:37Z</time>
      </trkpt>
      <trkpt lat="45.37018" lon="0.67192">
        <ele>155.61944920061</ele>
        <time>2015-08-07T15:47:42Z</time>
      </trkpt>
      <trkpt lat="45.37011" lon="0.67173">
        <ele>155.40930388156</ele>
        <time>2015-08-07T15:47:47Z</time>
      </trkpt>
      <trkpt lat="45.37" lon="0.67152">
        <ele>155.06191054788</ele>
        <time>2015-08-07T15:47:52Z</time>
      </trkpt>
      <trkpt lat="45.36988" lon="0.67129">
        <ele>154.9775463417</ele>
        <time>2015-08-07T15:47:57Z</time>
      </trkpt>
      <trkpt lat="45.3698" lon="0.67108">
        <ele>155.06516186663</ele>
        <time>2015-08-07T15:48:02Z</time>
      </trkpt>
      <trkpt lat="45.36964" lon="0.67078">
        <ele>155.54252006518</ele>
        <time>2015-08-07T15:48:07Z</time>
      </trkpt>
      <trkpt lat="45.36956" lon="0.6706">
        <ele>156.49498148143</ele>
        <time>2015-08-07T15:48:12Z</time>
      </trkpt>
      <trkpt lat="45.36956" lon="0.67055">
        <ele>156.49498148143</ele>
        <time>2015-08-07T15:48:17Z</time>
      </trkpt>
      <trkpt lat="45.3695" lon="0.67044">
        <ele>157.65441913029</ele>
        <time>2015-08-07T15:48:22Z</time>
      </trkpt>
      <trkpt lat="45.36948" lon="0.67037">
        <ele>157.65441913029</ele>
        <time>2015-08-07T15:48:27Z</time>
      </trkpt>
      <trkpt lat="45.36945" lon="0.67031">
        <ele>158.45476712383</ele>
        <time>2015-08-07T15:48:32Z</time>
      </trkpt>
      <trkpt lat="45.36939" lon="0.67018">
        <ele>159.81366040379</ele>
        <time>2015-08-07T15:48:37Z</time>
      </trkpt>
      <trkpt lat="45.36932" lon="0.67007">
        <ele>161.52775563137</ele>
        <time>2015-08-07T15:48:42Z</time>
      </trkpt>
      <trkpt lat="45.36926" lon="0.66995">
        <ele>163.26355890896</ele>
        <time>2015-08-07T15:48:47Z</time>
      </trkpt>
      <trkpt lat="45.36924" lon="0.66987">
        <ele>163.26355890896</ele>
        <time>2015-08-07T15:48:52Z</time>
      </trkpt>
      <trkpt lat="45.36923" lon="0.66975">
        <ele>164.29412072246</ele>
        <time>2015-08-07T15:48:57Z</time>
      </trkpt>
      <trkpt lat="45.36918" lon="0.66962">
        <ele>165.38902198068</ele>
        <time>2015-08-07T15:49:02Z</time>
      </trkpt>
      <trkpt lat="45.36917" lon="0.66956">
        <ele>165.38902198068</ele>
        <time>2015-08-07T15:49:07Z</time>
      </trkpt>
      <trkpt lat="45.36912" lon="0.66945">
        <ele>166.03623148108</ele>
        <time>2015-08-07T15:49:12Z</time>
      </trkpt>
      <trkpt lat="45.3691" lon="0.66935">
        <ele>166.03623148108</ele>
        <time>2015-08-07T15:49:17Z</time>
      </trkpt>
      <trkpt lat="45.3691" lon="0.6691">
        <ele>167.11728407536</ele>
        <time>2015-08-07T15:49:27Z</time>
      </trkpt>
      <trkpt lat="45.36907" lon="0.66898">
        <ele>167.90580588171</ele>
        <time>2015-08-07T15:49:32Z</time>
      </trkpt>
      <trkpt lat="45.36905" lon="0.66889">
        <ele>167.90580588171</ele>
        <time>2015-08-07T15:49:37Z</time>
      </trkpt>
      <trkpt lat="45.36904" lon="0.66885">
        <ele>169.14195015505</ele>
        <time>2015-08-07T15:49:42Z</time>
      </trkpt>
      <trkpt lat="45.36904" lon="0.66887">
        <ele>169.14195015505</ele>
        <time>2015-08-07T15:49:47Z</time>
      </trkpt>
      <trkpt lat="45.36904" lon="0.66887">
        <ele>169.14195015505</ele>
        <time>2015-08-07T15:49:52Z</time>
      </trkpt>
      <trkpt lat="45.36904" lon="0.66887">
        <ele>169.14195015505</ele>
        <time>2015-08-07T15:49:57Z</time>
      </trkpt>
      <trkpt lat="45.36904" lon="0.66888">
        <ele>169.14195015505</ele>
        <time>2015-08-07T15:50:02Z</time>
      </trkpt>
      <trkpt lat="45.36904" lon="0.66888">
        <ele>169.14195015505</ele>
        <time>2015-08-07T15:50:07Z</time>
      </trkpt>
      <trkpt lat="45.36904" lon="0.66887">
        <ele>169.14195015505</ele>
        <time>2015-08-07T15:50:12Z</time>
      </trkpt>
      <trkpt lat="45.369" lon="0.66878">
        <ele>169.276579356</ele>
        <time>2015-08-07T15:50:17Z</time>
      </trkpt>
      <trkpt lat="45.369" lon="0.66869">
        <ele>169.276579356</ele>
        <time>2015-08-07T15:50:22Z</time>
      </trkpt>
      <trkpt lat="45.36897" lon="0.66861">
        <ele>168.77977060926</ele>
        <time>2015-08-07T15:50:27Z</time>
      </trkpt>
      <trkpt lat="45.36899" lon="0.66854">
        <ele>168.77977060926</ele>
        <time>2015-08-07T15:50:32Z</time>
      </trkpt>
      <trkpt lat="45.369" lon="0.66847">
        <ele>167.32510492925</ele>
        <time>2015-08-07T15:50:37Z</time>
      </trkpt>
      <trkpt lat="45.36901" lon="0.66835">
        <ele>167.32510492925</ele>
        <time>2015-08-07T15:50:42Z</time>
      </trkpt>
      <trkpt lat="45.369" lon="0.66825">
        <ele>165.78017342619</ele>
        <time>2015-08-07T15:50:47Z</time>
      </trkpt>
      <trkpt lat="45.36897" lon="0.66813">
        <ele>165.78017342619</ele>
        <time>2015-08-07T15:50:52Z</time>
      </trkpt>
      <trkpt lat="45.36896" lon="0.66803">
        <ele>164.15650663971</ele>
        <time>2015-08-07T15:50:57Z</time>
      </trkpt>
      <trkpt lat="45.36896" lon="0.66794">
        <ele>164.15650663971</ele>
        <time>2015-08-07T15:51:02Z</time>
      </trkpt>
      <trkpt lat="45.36894" lon="0.66787">
        <ele>162.71001282456</ele>
        <time>2015-08-07T15:51:07Z</time>
      </trkpt>
      <trkpt lat="45.36894" lon="0.66778">
        <ele>162.71001282456</ele>
        <time>2015-08-07T15:51:12Z</time>
      </trkpt>
      <trkpt lat="45.36897" lon="0.66768">
        <ele>161.77818219414</ele>
        <time>2015-08-07T15:51:17Z</time>
      </trkpt>
      <trkpt lat="45.36892" lon="0.66756">
        <ele>161.1246344918</ele>
        <time>2015-08-07T15:51:22Z</time>
      </trkpt>
      <trkpt lat="45.36892" lon="0.66751">
        <ele>161.1246344918</ele>
        <time>2015-08-07T15:51:27Z</time>
      </trkpt>
      <trkpt lat="45.3688" lon="0.66729">
        <ele>159.56400454319</ele>
        <time>2015-08-07T15:51:43Z</time>
      </trkpt>
      <trkpt lat="45.36879" lon="0.6671">
        <ele>157.58573654326</ele>
        <time>2015-08-07T15:51:53Z</time>
      </trkpt>
      <trkpt lat="45.36878" lon="0.66706">
        <ele>157.58573654326</ele>
        <time>2015-08-07T15:51:57Z</time>
      </trkpt>
      <trkpt lat="45.36874" lon="0.66693">
        <ele>155.44269095888</ele>
        <time>2015-08-07T15:52:02Z</time>
      </trkpt>
      <trkpt lat="45.36868" lon="0.66682">
        <ele>153.67219159965</ele>
        <time>2015-08-07T15:52:07Z</time>
      </trkpt>
      <trkpt lat="45.36862" lon="0.66672">
        <ele>152.00718652411</ele>
        <time>2015-08-07T15:52:12Z</time>
      </trkpt>
      <trkpt lat="45.36859" lon="0.66662">
        <ele>152.00718652411</ele>
        <time>2015-08-07T15:52:17Z</time>
      </trkpt>
      <trkpt lat="45.36852" lon="0.66651">
        <ele>150.44485309799</ele>
        <time>2015-08-07T15:52:22Z</time>
      </trkpt>
      <trkpt lat="45.36851" lon="0.66642">
        <ele>150.44485309799</ele>
        <time>2015-08-07T15:52:27Z</time>
      </trkpt>
      <trkpt lat="45.36852" lon="0.66642">
        <ele>150.44485309799</ele>
        <time>2015-08-07T15:52:32Z</time>
      </trkpt>
      <trkpt lat="45.36852" lon="0.66643">
        <ele>148.33369633593</ele>
        <time>2015-08-07T15:52:37Z</time>
      </trkpt>
      <trkpt lat="45.36847" lon="0.6664">
        <ele>148.33369633593</ele>
        <time>2015-08-07T15:52:42Z</time>
      </trkpt>
      <trkpt lat="45.36839" lon="0.66637">
        <ele>146.10911910983</ele>
        <time>2015-08-07T15:52:47Z</time>
      </trkpt>
      <trkpt lat="45.36833" lon="0.66635">
        <ele>146.10911910983</ele>
        <time>2015-08-07T15:52:52Z</time>
      </trkpt>
      <trkpt lat="45.36827" lon="0.66634">
        <ele>143.71359231376</ele>
        <time>2015-08-07T15:52:57Z</time>
      </trkpt>
      <trkpt lat="45.36818" lon="0.66633">
        <ele>143.71359231376</ele>
        <time>2015-08-07T15:53:02Z</time>
      </trkpt>
      <trkpt lat="45.3681" lon="0.6663">
        <ele>141.62738456961</ele>
        <time>2015-08-07T15:53:07Z</time>
      </trkpt>
      <trkpt lat="45.36808" lon="0.66623">
        <ele>141.62738456961</ele>
        <time>2015-08-07T15:53:12Z</time>
      </trkpt>
      <trkpt lat="45.36808" lon="0.66615">
        <ele>139.2136539257</ele>
        <time>2015-08-07T15:53:17Z</time>
      </trkpt>
      <trkpt lat="45.36808" lon="0.66606">
        <ele>139.2136539257</ele>
        <time>2015-08-07T15:53:22Z</time>
      </trkpt>
      <trkpt lat="45.36805" lon="0.66597">
        <ele>136.67573281144</ele>
        <time>2015-08-07T15:53:27Z</time>
      </trkpt>
      <trkpt lat="45.36803" lon="0.66592">
        <ele>136.67573281144</ele>
        <time>2015-08-07T15:53:32Z</time>
      </trkpt>
      <trkpt lat="45.36801" lon="0.66588">
        <ele>136.67573281144</ele>
        <time>2015-08-07T15:53:37Z</time>
      </trkpt>
      <trkpt lat="45.36801" lon="0.66583">
        <ele>133.42401758158</ele>
        <time>2015-08-07T15:53:42Z</time>
      </trkpt>
      <trkpt lat="45.36802" lon="0.66575">
        <ele>133.42401758158</ele>
        <time>2015-08-07T15:53:47Z</time>
      </trkpt>
      <trkpt lat="45.36801" lon="0.66567">
        <ele>130.32635126179</ele>
        <time>2015-08-07T15:53:52Z</time>
      </trkpt>
      <trkpt lat="45.36797" lon="0.66557">
        <ele>130.32635126179</ele>
        <time>2015-08-07T15:53:57Z</time>
      </trkpt>
      <trkpt lat="45.36796" lon="0.6655">
        <ele>127.07656977766</ele>
        <time>2015-08-07T15:54:02Z</time>
      </trkpt>
      <trkpt lat="45.36795" lon="0.66543">
        <ele>127.07656977766</ele>
        <time>2015-08-07T15:54:07Z</time>
      </trkpt>
      <trkpt lat="45.36794" lon="0.66536">
        <ele>124.21268222243</ele>
        <time>2015-08-07T15:54:12Z</time>
      </trkpt>
      <trkpt lat="45.36791" lon="0.66534">
        <ele>124.21268222243</ele>
        <time>2015-08-07T15:54:17Z</time>
      </trkpt>
      <trkpt lat="45.36789" lon="0.66532">
        <ele>124.21268222243</ele>
        <time>2015-08-07T15:54:22Z</time>
      </trkpt>
      <trkpt lat="45.36787" lon="0.66524">
        <ele>121.98691833157</ele>
        <time>2015-08-07T15:54:27Z</time>
      </trkpt>
      <trkpt lat="45.36783" lon="0.66517">
        <ele>121.98691833157</ele>
        <time>2015-08-07T15:54:32Z</time>
      </trkpt>
      <trkpt lat="45.3678" lon="0.66508">
        <ele>119.57898582487</ele>
        <time>2015-08-07T15:54:37Z</time>
      </trkpt>
      <trkpt lat="45.36779" lon="0.66504">
        <ele>119.57898582487</ele>
        <time>2015-08-07T15:54:42Z</time>
      </trkpt>
      <trkpt lat="45.3678" lon="0.66504">
        <ele>119.57898582487</ele>
        <time>2015-08-07T15:54:47Z</time>
      </trkpt>
      <trkpt lat="45.3678" lon="0.66502">
        <ele>119.57898582487</ele>
        <time>2015-08-07T15:54:52Z</time>
      </trkpt>
      <trkpt lat="45.3678" lon="0.66503">
        <ele>119.57898582487</ele>
        <time>2015-08-07T15:54:57Z</time>
      </trkpt>
      <trkpt lat="45.36779" lon="0.66502">
        <ele>119.57898582487</ele>
        <time>2015-08-07T15:55:02Z</time>
      </trkpt>
      <trkpt lat="45.36779" lon="0.66502">
        <ele>119.57898582487</ele>
        <time>2015-08-07T15:55:07Z</time>
      </trkpt>
      <trkpt lat="45.36779" lon="0.66502">
        <ele>119.57898582487</ele>
        <time>2015-08-07T15:55:12Z</time>
      </trkpt>
      <trkpt lat="45.36779" lon="0.66502">
        <ele>119.57898582487</ele>
        <time>2015-08-07T15:55:17Z</time>
      </trkpt>
      <trkpt lat="45.36779" lon="0.66502">
        <ele>119.57898582487</ele>
        <time>2015-08-07T15:55:22Z</time>
      </trkpt>
      <trkpt lat="45.36779" lon="0.66502">
        <ele>119.57898582487</ele>
        <time>2015-08-07T15:55:27Z</time>
      </trkpt>
      <trkpt lat="45.3678" lon="0.665">
        <ele>119.57898582487</ele>
        <time>2015-08-07T15:55:32Z</time>
      </trkpt>
      <trkpt lat="45.3678" lon="0.66499">
        <ele>119.57898582487</ele>
        <time>2015-08-07T15:55:37Z</time>
      </trkpt>
      <trkpt lat="45.3678" lon="0.66499">
        <ele>119.57898582487</ele>
        <time>2015-08-07T15:55:42Z</time>
      </trkpt>
      <trkpt lat="45.3678" lon="0.66499">
        <ele>119.57898582487</ele>
        <time>2015-08-07T15:55:47Z</time>
      </trkpt>
      <trkpt lat="45.36773" lon="0.66484">
        <ele>116.73355516043</ele>
        <time>2015-08-07T15:56:03Z</time>
      </trkpt>
      <trkpt lat="45.36775" lon="0.66492">
        <ele>116.73355516043</ele>
        <time>2015-08-07T15:56:18Z</time>
      </trkpt>
      <trkpt lat="45.36775" lon="0.66492">
        <ele>116.73355516043</ele>
        <time>2015-08-07T15:56:23Z</time>
      </trkpt>
      <trkpt lat="45.36773" lon="0.66484">
        <ele>113.37360416103</ele>
        <time>2015-08-07T15:56:34Z</time>
      </trkpt>
      <trkpt lat="45.36773" lon="0.66483">
        <ele>113.37360416103</ele>
        <time>2015-08-07T15:56:38Z</time>
      </trkpt>
      <trkpt lat="45.36777" lon="0.66482">
        <ele>113.37360416103</ele>
        <time>2015-08-07T15:56:48Z</time>
      </trkpt>
      <trkpt lat="45.36776" lon="0.66471">
        <ele>110.0342771083</ele>
        <time>2015-08-07T15:56:53Z</time>
      </trkpt>
      <trkpt lat="45.36776" lon="0.66455">
        <ele>107.28319929309</ele>
        <time>2015-08-07T15:57:02Z</time>
      </trkpt>
      <trkpt lat="45.36775" lon="0.66446">
        <ele>107.28319929309</ele>
        <time>2015-08-07T15:57:07Z</time>
      </trkpt>
      <trkpt lat="45.36772" lon="0.66435">
        <ele>104.8374176312</ele>
        <time>2015-08-07T15:57:12Z</time>
      </trkpt>
      <trkpt lat="45.3677" lon="0.66424">
        <ele>104.8374176312</ele>
        <time>2015-08-07T15:57:17Z</time>
      </trkpt>
      <trkpt lat="45.3677" lon="0.66415">
        <ele>102.47693238337</ele>
        <time>2015-08-07T15:57:22Z</time>
      </trkpt>
      <trkpt lat="45.36769" lon="0.66409">
        <ele>102.47693238337</ele>
        <time>2015-08-07T15:57:27Z</time>
      </trkpt>
      <trkpt lat="45.36769" lon="0.66399">
        <ele>100.24244738516</ele>
        <time>2015-08-07T15:57:32Z</time>
      </trkpt>
      <trkpt lat="45.3677" lon="0.66388">
        <ele>100.24244738516</ele>
        <time>2015-08-07T15:57:37Z</time>
      </trkpt>
      <trkpt lat="45.36769" lon="0.6638">
        <ele>98.127886783637</ele>
        <time>2015-08-07T15:57:42Z</time>
      </trkpt>
      <trkpt lat="45.3677" lon="0.66368">
        <ele>98.127886783637</ele>
        <time>2015-08-07T15:57:47Z</time>
      </trkpt>
      <trkpt lat="45.36769" lon="0.6636">
        <ele>96.746766802917</ele>
        <time>2015-08-07T15:57:52Z</time>
      </trkpt>
      <trkpt lat="45.36767" lon="0.66353">
        <ele>96.746766802917</ele>
        <time>2015-08-07T15:57:57Z</time>
      </trkpt>
      <trkpt lat="45.36763" lon="0.66352">
        <ele>95.397112161052</ele>
        <time>2015-08-07T15:58:02Z</time>
      </trkpt>
      <trkpt lat="45.36762" lon="0.66347">
        <ele>95.397112161052</ele>
        <time>2015-08-07T15:58:07Z</time>
      </trkpt>
      <trkpt lat="45.36759" lon="0.66338">
        <ele>93.846171377932</ele>
        <time>2015-08-07T15:58:12Z</time>
      </trkpt>
      <trkpt lat="45.36755" lon="0.66329">
        <ele>93.846171377932</ele>
        <time>2015-08-07T15:58:17Z</time>
      </trkpt>
      <trkpt lat="45.36748" lon="0.66318">
        <ele>93.290980945743</ele>
        <time>2015-08-07T15:58:22Z</time>
      </trkpt>
      <trkpt lat="45.36741" lon="0.6631">
        <ele>93.209245682687</ele>
        <time>2015-08-07T15:58:27Z</time>
      </trkpt>
      <trkpt lat="45.36735" lon="0.66302">
        <ele>93.209245682687</ele>
        <time>2015-08-07T15:58:32Z</time>
      </trkpt>
      <trkpt lat="45.3673" lon="0.66298">
        <ele>92.985877897091</ele>
        <time>2015-08-07T15:58:37Z</time>
      </trkpt>
      <trkpt lat="45.36726" lon="0.6629">
        <ele>92.985877897091</ele>
        <time>2015-08-07T15:58:42Z</time>
      </trkpt>
      <trkpt lat="45.36725" lon="0.6628">
        <ele>93.132092177933</ele>
        <time>2015-08-07T15:58:47Z</time>
      </trkpt>
      <trkpt lat="45.36723" lon="0.66276">
        <ele>93.132092177933</ele>
        <time>2015-08-07T15:58:52Z</time>
      </trkpt>
      <trkpt lat="45.36711" lon="0.66265">
        <ele>93.745732213636</ele>
        <time>2015-08-07T15:58:57Z</time>
      </trkpt>
      <trkpt lat="45.36692" lon="0.66251">
        <ele>94.109049979789</ele>
        <time>2015-08-07T15:59:02Z</time>
      </trkpt>
      <trkpt lat="45.36674" lon="0.66243">
        <ele>94.350286809894</ele>
        <time>2015-08-07T15:59:07Z</time>
      </trkpt>
      <trkpt lat="45.36658" lon="0.66214">
        <ele>94.285942426386</ele>
        <time>2015-08-07T15:59:12Z</time>
      </trkpt>
      <trkpt lat="45.36648" lon="0.66201">
        <ele>94.611508803934</ele>
        <time>2015-08-07T15:59:17Z</time>
      </trkpt>
      <trkpt lat="45.36639" lon="0.66187">
        <ele>95.667665915726</ele>
        <time>2015-08-07T15:59:22Z</time>
      </trkpt>
      <trkpt lat="45.36626" lon="0.66171">
        <ele>97.537464468893</ele>
        <time>2015-08-07T15:59:27Z</time>
      </trkpt>
      <trkpt lat="45.36621" lon="0.66167">
        <ele>97.537464468893</ele>
        <time>2015-08-07T15:59:32Z</time>
      </trkpt>
      <trkpt lat="45.36614" lon="0.66163">
        <ele>99.632705155163</ele>
        <time>2015-08-07T15:59:37Z</time>
      </trkpt>
      <trkpt lat="45.36603" lon="0.66155">
        <ele>101.98427753874</ele>
        <time>2015-08-07T15:59:42Z</time>
      </trkpt>
      <trkpt lat="45.36595" lon="0.66153">
        <ele>101.98427753874</ele>
        <time>2015-08-07T15:59:47Z</time>
      </trkpt>
      <trkpt lat="45.36588" lon="0.66147">
        <ele>104.89398762109</ele>
        <time>2015-08-07T15:59:52Z</time>
      </trkpt>
      <trkpt lat="45.36584" lon="0.66147">
        <ele>104.89398762109</ele>
        <time>2015-08-07T15:59:57Z</time>
      </trkpt>
      <trkpt lat="45.36577" lon="0.66143">
        <ele>107.60242403008</ele>
        <time>2015-08-07T16:00:02Z</time>
      </trkpt>
      <trkpt lat="45.3657" lon="0.66141">
        <ele>107.60242403008</ele>
        <time>2015-08-07T16:00:07Z</time>
      </trkpt>
      <trkpt lat="45.36564" lon="0.66141">
        <ele>109.73812507029</ele>
        <time>2015-08-07T16:00:12Z</time>
      </trkpt>
      <trkpt lat="45.36556" lon="0.66132">
        <ele>111.59277737929</ele>
        <time>2015-08-07T16:00:17Z</time>
      </trkpt>
      <trkpt lat="45.36548" lon="0.66126">
        <ele>113.16380068068</ele>
        <time>2015-08-07T16:00:22Z</time>
      </trkpt>
      <trkpt lat="45.36543" lon="0.66121">
        <ele>113.16380068068</ele>
        <time>2015-08-07T16:00:27Z</time>
      </trkpt>
      <trkpt lat="45.36538" lon="0.66115">
        <ele>114.83889681075</ele>
        <time>2015-08-07T16:00:32Z</time>
      </trkpt>
      <trkpt lat="45.3653" lon="0.66108">
        <ele>114.83889681075</ele>
        <time>2015-08-07T16:00:37Z</time>
      </trkpt>
      <trkpt lat="45.36521" lon="0.66102">
        <ele>116.89073633324</ele>
        <time>2015-08-07T16:00:42Z</time>
      </trkpt>
      <trkpt lat="45.36513" lon="0.66097">
        <ele>116.89073633324</ele>
        <time>2015-08-07T16:00:47Z</time>
      </trkpt>
      <trkpt lat="45.3651" lon="0.66093">
        <ele>119.19643113958</ele>
        <time>2015-08-07T16:00:52Z</time>
      </trkpt>
      <trkpt lat="45.36505" lon="0.66088">
        <ele>119.19643113958</ele>
        <time>2015-08-07T16:00:57Z</time>
      </trkpt>
      <trkpt lat="45.36502" lon="0.66084">
        <ele>120.73373330494</ele>
        <time>2015-08-07T16:01:02Z</time>
      </trkpt>
      <trkpt lat="45.36498" lon="0.66076">
        <ele>120.73373330494</ele>
        <time>2015-08-07T16:01:07Z</time>
      </trkpt>
      <trkpt lat="45.36496" lon="0.6607">
        <ele>121.76840953676</ele>
        <time>2015-08-07T16:01:12Z</time>
      </trkpt>
      <trkpt lat="45.36487" lon="0.66051">
        <ele>122.447470333</ele>
        <time>2015-08-07T16:01:17Z</time>
      </trkpt>
      <trkpt lat="45.36479" lon="0.66012">
        <ele>123.35510364452</ele>
        <time>2015-08-07T16:01:22Z</time>
      </trkpt>
      <trkpt lat="45.36472" lon="0.65976">
        <ele>124.34043988178</ele>
        <time>2015-08-07T16:01:27Z</time>
      </trkpt>
      <trkpt lat="45.36464" lon="0.65948">
        <ele>126.09954731763</ele>
        <time>2015-08-07T16:01:32Z</time>
      </trkpt>
      <trkpt lat="45.36459" lon="0.6593">
        <ele>127.96400527972</ele>
        <time>2015-08-07T16:01:37Z</time>
      </trkpt>
      <trkpt lat="45.36461" lon="0.65921">
        <ele>127.96400527972</ele>
        <time>2015-08-07T16:01:42Z</time>
      </trkpt>
      <trkpt lat="45.36461" lon="0.65912">
        <ele>129.3864797429</ele>
        <time>2015-08-07T16:01:47Z</time>
      </trkpt>
      <trkpt lat="45.36461" lon="0.65902">
        <ele>129.3864797429</ele>
        <time>2015-08-07T16:01:52Z</time>
      </trkpt>
      <trkpt lat="45.36461" lon="0.65894">
        <ele>130.380107089</ele>
        <time>2015-08-07T16:01:57Z</time>
      </trkpt>
      <trkpt lat="45.36459" lon="0.65883">
        <ele>130.380107089</ele>
        <time>2015-08-07T16:02:02Z</time>
      </trkpt>
      <trkpt lat="45.36459" lon="0.65872">
        <ele>131.04494922386</ele>
        <time>2015-08-07T16:02:07Z</time>
      </trkpt>
      <trkpt lat="45.36463" lon="0.65867">
        <ele>131.04494922386</ele>
        <time>2015-08-07T16:02:12Z</time>
      </trkpt>
      <trkpt lat="45.36463" lon="0.6586">
        <ele>131.60455531476</ele>
        <time>2015-08-07T16:02:17Z</time>
      </trkpt>
      <trkpt lat="45.36464" lon="0.65853">
        <ele>131.60455531476</ele>
        <time>2015-08-07T16:02:22Z</time>
      </trkpt>
      <trkpt lat="45.36465" lon="0.65844">
        <ele>131.48835391995</ele>
        <time>2015-08-07T16:02:27Z</time>
      </trkpt>
      <trkpt lat="45.36466" lon="0.65835">
        <ele>131.48835391995</ele>
        <time>2015-08-07T16:02:32Z</time>
      </trkpt>
      <trkpt lat="45.3647" lon="0.65831">
        <ele>130.87592200536</ele>
        <time>2015-08-07T16:02:37Z</time>
      </trkpt>
      <trkpt lat="45.36469" lon="0.65819">
        <ele>130.87592200536</ele>
        <time>2015-08-07T16:02:42Z</time>
      </trkpt>
      <trkpt lat="45.3647" lon="0.65812">
        <ele>130.00727152108</ele>
        <time>2015-08-07T16:02:47Z</time>
      </trkpt>
      <trkpt lat="45.36473" lon="0.65811">
        <ele>130.00727152108</ele>
        <time>2015-08-07T16:02:52Z</time>
      </trkpt>
      <trkpt lat="45.36475" lon="0.65806">
        <ele>130.00727152108</ele>
        <time>2015-08-07T16:02:57Z</time>
      </trkpt>
      <trkpt lat="45.36476" lon="0.65789">
        <ele>128.61568480898</ele>
        <time>2015-08-07T16:03:02Z</time>
      </trkpt>
      <trkpt lat="45.3648" lon="0.6578">
        <ele>128.61568480898</ele>
        <time>2015-08-07T16:03:07Z</time>
      </trkpt>
      <trkpt lat="45.36479" lon="0.65766">
        <ele>127.24825585432</ele>
        <time>2015-08-07T16:03:12Z</time>
      </trkpt>
      <trkpt lat="45.36473" lon="0.65752">
        <ele>126.51281939284</ele>
        <time>2015-08-07T16:03:17Z</time>
      </trkpt>
      <trkpt lat="45.36466" lon="0.65746">
        <ele>126.51281939284</ele>
        <time>2015-08-07T16:03:22Z</time>
      </trkpt>
      <trkpt lat="45.3646" lon="0.65742">
        <ele>125.67388557186</ele>
        <time>2015-08-07T16:03:27Z</time>
      </trkpt>
      <trkpt lat="45.36455" lon="0.65738">
        <ele>125.67388557186</ele>
        <time>2015-08-07T16:03:32Z</time>
      </trkpt>
      <trkpt lat="45.36448" lon="0.6573">
        <ele>124.35299798593</ele>
        <time>2015-08-07T16:03:37Z</time>
      </trkpt>
      <trkpt lat="45.36442" lon="0.65724">
        <ele>124.35299798593</ele>
        <time>2015-08-07T16:03:42Z</time>
      </trkpt>
      <trkpt lat="45.36437" lon="0.65718">
        <ele>122.93588384846</ele>
        <time>2015-08-07T16:03:47Z</time>
      </trkpt>
      <trkpt lat="45.36431" lon="0.6571">
        <ele>122.93588384846</ele>
        <time>2015-08-07T16:03:52Z</time>
      </trkpt>
      <trkpt lat="45.36426" lon="0.65704">
        <ele>121.44879581441</ele>
        <time>2015-08-07T16:03:57Z</time>
      </trkpt>
      <trkpt lat="45.36421" lon="0.65697">
        <ele>121.44879581441</ele>
        <time>2015-08-07T16:04:02Z</time>
      </trkpt>
      <trkpt lat="45.36414" lon="0.65692">
        <ele>119.64247180951</ele>
        <time>2015-08-07T16:04:07Z</time>
      </trkpt>
      <trkpt lat="45.36407" lon="0.65686">
        <ele>119.64247180951</ele>
        <time>2015-08-07T16:04:12Z</time>
      </trkpt>
      <trkpt lat="45.36406" lon="0.65685">
        <ele>117.92095600015</ele>
        <time>2015-08-07T16:04:17Z</time>
      </trkpt>
      <trkpt lat="45.36405" lon="0.65685">
        <ele>117.92095600015</ele>
        <time>2015-08-07T16:04:22Z</time>
      </trkpt>
      <trkpt lat="45.36399" lon="0.65681">
        <ele>117.92095600015</ele>
        <time>2015-08-07T16:04:27Z</time>
      </trkpt>
      <trkpt lat="45.36392" lon="0.65679">
        <ele>116.00986685321</ele>
        <time>2015-08-07T16:04:32Z</time>
      </trkpt>
      <trkpt lat="45.36385" lon="0.65676">
        <ele>116.00986685321</ele>
        <time>2015-08-07T16:04:37Z</time>
      </trkpt>
      <trkpt lat="45.36379" lon="0.65672">
        <ele>114.11664257205</ele>
        <time>2015-08-07T16:04:42Z</time>
      </trkpt>
      <trkpt lat="45.36372" lon="0.65668">
        <ele>114.11664257205</ele>
        <time>2015-08-07T16:04:47Z</time>
      </trkpt>
      <trkpt lat="45.3637" lon="0.65666">
        <ele>112.34692647715</ele>
        <time>2015-08-07T16:04:52Z</time>
      </trkpt>
      <trkpt lat="45.36364" lon="0.65662">
        <ele>112.34692647715</ele>
        <time>2015-08-07T16:04:57Z</time>
      </trkpt>
      <trkpt lat="45.36357" lon="0.6566">
        <ele>110.63967818169</ele>
        <time>2015-08-07T16:05:02Z</time>
      </trkpt>
      <trkpt lat="45.3635" lon="0.65655">
        <ele>110.63967818169</ele>
        <time>2015-08-07T16:05:07Z</time>
      </trkpt>
      <trkpt lat="45.36344" lon="0.65651">
        <ele>109.05338746854</ele>
        <time>2015-08-07T16:05:12Z</time>
      </trkpt>
      <trkpt lat="45.36337" lon="0.65645">
        <ele>109.05338746854</ele>
        <time>2015-08-07T16:05:17Z</time>
      </trkpt>
      <trkpt lat="45.36331" lon="0.65642">
        <ele>107.26713997818</ele>
        <time>2015-08-07T16:05:22Z</time>
      </trkpt>
      <trkpt lat="45.36329" lon="0.65635">
        <ele>107.26713997818</ele>
        <time>2015-08-07T16:05:27Z</time>
      </trkpt>
      <trkpt lat="45.36329" lon="0.65623">
        <ele>105.80550127171</ele>
        <time>2015-08-07T16:05:32Z</time>
      </trkpt>
      <trkpt lat="45.36331" lon="0.65612">
        <ele>105.80550127171</ele>
        <time>2015-08-07T16:05:37Z</time>
      </trkpt>
      <trkpt lat="45.36335" lon="0.65604">
        <ele>104.1447163245</ele>
        <time>2015-08-07T16:05:42Z</time>
      </trkpt>
      <trkpt lat="45.36337" lon="0.65595">
        <ele>104.1447163245</ele>
        <time>2015-08-07T16:05:47Z</time>
      </trkpt>
      <trkpt lat="45.3634" lon="0.65588">
        <ele>102.59257004793</ele>
        <time>2015-08-07T16:05:52Z</time>
      </trkpt>
      <trkpt lat="45.36344" lon="0.65579">
        <ele>102.59257004793</ele>
        <time>2015-08-07T16:05:57Z</time>
      </trkpt>
      <trkpt lat="45.36347" lon="0.65571">
        <ele>101.13118834865</ele>
        <time>2015-08-07T16:06:02Z</time>
      </trkpt>
      <trkpt lat="45.36349" lon="0.65562">
        <ele>101.13118834865</ele>
        <time>2015-08-07T16:06:07Z</time>
      </trkpt>
      <trkpt lat="45.36355" lon="0.65553">
        <ele>99.916573254483</ele>
        <time>2015-08-07T16:06:12Z</time>
      </trkpt>
      <trkpt lat="45.36357" lon="0.65545">
        <ele>99.916573254483</ele>
        <time>2015-08-07T16:06:17Z</time>
      </trkpt>
      <trkpt lat="45.36361" lon="0.65531">
        <ele>99.078045161335</ele>
        <time>2015-08-07T16:06:22Z</time>
      </trkpt>
      <trkpt lat="45.36364" lon="0.65521">
        <ele>99.078045161335</ele>
        <time>2015-08-07T16:06:27Z</time>
      </trkpt>
      <trkpt lat="45.36367" lon="0.65512">
        <ele>98.345150361926</ele>
        <time>2015-08-07T16:06:32Z</time>
      </trkpt>
      <trkpt lat="45.36372" lon="0.65502">
        <ele>98.345150361926</ele>
        <time>2015-08-07T16:06:37Z</time>
      </trkpt>
      <trkpt lat="45.36376" lon="0.65492">
        <ele>98.072156036377</ele>
        <time>2015-08-07T16:06:42Z</time>
      </trkpt>
      <trkpt lat="45.36379" lon="0.65486">
        <ele>98.072156036377</ele>
        <time>2015-08-07T16:06:47Z</time>
      </trkpt>
      <trkpt lat="45.3638" lon="0.65477">
        <ele>97.663590382687</ele>
        <time>2015-08-07T16:06:52Z</time>
      </trkpt>
      <trkpt lat="45.36383" lon="0.65468">
        <ele>97.663590382687</ele>
        <time>2015-08-07T16:06:57Z</time>
      </trkpt>
      <trkpt lat="45.36387" lon="0.65461">
        <ele>97.158852914719</ele>
        <time>2015-08-07T16:07:02Z</time>
      </trkpt>
      <trkpt lat="45.36391" lon="0.65452">
        <ele>97.158852914719</ele>
        <time>2015-08-07T16:07:07Z</time>
      </trkpt>
      <trkpt lat="45.36393" lon="0.65446">
        <ele>96.493738665185</ele>
        <time>2015-08-07T16:07:12Z</time>
      </trkpt>
      <trkpt lat="45.36397" lon="0.65435">
        <ele>96.493738665185</ele>
        <time>2015-08-07T16:07:17Z</time>
      </trkpt>
      <trkpt lat="45.36402" lon="0.65426">
        <ele>96.127912986761</ele>
        <time>2015-08-07T16:07:22Z</time>
      </trkpt>
      <trkpt lat="45.36406" lon="0.65415">
        <ele>96.127912986761</ele>
        <time>2015-08-07T16:07:27Z</time>
      </trkpt>
      <trkpt lat="45.3641" lon="0.65405">
        <ele>96.12606684702</ele>
        <time>2015-08-07T16:07:32Z</time>
      </trkpt>
      <trkpt lat="45.36414" lon="0.65396">
        <ele>96.12606684702</ele>
        <time>2015-08-07T16:07:37Z</time>
      </trkpt>
      <trkpt lat="45.36415" lon="0.65391">
        <ele>96.201167761353</ele>
        <time>2015-08-07T16:07:42Z</time>
      </trkpt>
      <trkpt lat="45.36425" lon="0.65361">
        <ele>96.187854543403</ele>
        <time>2015-08-07T16:07:58Z</time>
      </trkpt>
      <trkpt lat="45.36429" lon="0.6535">
        <ele>96.187854543403</ele>
        <time>2015-08-07T16:08:03Z</time>
      </trkpt>
      <trkpt lat="45.36433" lon="0.65338">
        <ele>96.077204823686</ele>
        <time>2015-08-07T16:08:13Z</time>
      </trkpt>
      <trkpt lat="45.36442" lon="0.65319">
        <ele>95.861164926207</ele>
        <time>2015-08-07T16:08:22Z</time>
      </trkpt>
      <trkpt lat="45.36446" lon="0.6531">
        <ele>95.861164926207</ele>
        <time>2015-08-07T16:08:27Z</time>
      </trkpt>
      <trkpt lat="45.36447" lon="0.65303">
        <ele>95.402815257193</ele>
        <time>2015-08-07T16:08:32Z</time>
      </trkpt>
      <trkpt lat="45.36448" lon="0.653">
        <ele>95.402815257193</ele>
        <time>2015-08-07T16:08:37Z</time>
      </trkpt>
      <trkpt lat="45.36451" lon="0.65292">
        <ele>95.402815257193</ele>
        <time>2015-08-07T16:08:42Z</time>
      </trkpt>
      <trkpt lat="45.36455" lon="0.65278">
        <ele>95.03708221959</ele>
        <time>2015-08-07T16:08:47Z</time>
      </trkpt>
      <trkpt lat="45.36461" lon="0.65261">
        <ele>94.843408432352</ele>
        <time>2015-08-07T16:08:52Z</time>
      </trkpt>
      <trkpt lat="45.36465" lon="0.65244">
        <ele>94.664302049121</ele>
        <time>2015-08-07T16:08:57Z</time>
      </trkpt>
      <trkpt lat="45.36473" lon="0.65223">
        <ele>94.699633166756</ele>
        <time>2015-08-07T16:09:02Z</time>
      </trkpt>
      <trkpt lat="45.36483" lon="0.65205">
        <ele>94.744859981438</ele>
        <time>2015-08-07T16:09:07Z</time>
      </trkpt>
      <trkpt lat="45.36494" lon="0.6519">
        <ele>94.797760916654</ele>
        <time>2015-08-07T16:09:12Z</time>
      </trkpt>
      <trkpt lat="45.36506" lon="0.65175">
        <ele>94.928295635789</ele>
        <time>2015-08-07T16:09:17Z</time>
      </trkpt>
      <trkpt lat="45.36519" lon="0.65161">
        <ele>95.186645973042</ele>
        <time>2015-08-07T16:09:22Z</time>
      </trkpt>
      <trkpt lat="45.36534" lon="0.65145">
        <ele>95.662179060783</ele>
        <time>2015-08-07T16:09:27Z</time>
      </trkpt>
      <trkpt lat="45.36547" lon="0.65127">
        <ele>96.220924940528</ele>
        <time>2015-08-07T16:09:32Z</time>
      </trkpt>
      <trkpt lat="45.36562" lon="0.65112">
        <ele>97.11322228106</ele>
        <time>2015-08-07T16:09:37Z</time>
      </trkpt>
      <trkpt lat="45.36571" lon="0.65097">
        <ele>97.921604076987</ele>
        <time>2015-08-07T16:09:42Z</time>
      </trkpt>
      <trkpt lat="45.36574" lon="0.65086">
        <ele>97.921604076987</ele>
        <time>2015-08-07T16:09:47Z</time>
      </trkpt>
      <trkpt lat="45.36576" lon="0.65068">
        <ele>98.67745659836</ele>
        <time>2015-08-07T16:09:52Z</time>
      </trkpt>
      <trkpt lat="45.3658" lon="0.65052">
        <ele>99.165055393338</ele>
        <time>2015-08-07T16:09:57Z</time>
      </trkpt>
      <trkpt lat="45.36583" lon="0.6504">
        <ele>99.165055393338</ele>
        <time>2015-08-07T16:10:02Z</time>
      </trkpt>
      <trkpt lat="45.36583" lon="0.65032">
        <ele>99.804997349231</ele>
        <time>2015-08-07T16:10:07Z</time>
      </trkpt>
      <trkpt lat="45.36578" lon="0.65025">
        <ele>99.804997349231</ele>
        <time>2015-08-07T16:10:12Z</time>
      </trkpt>
      <trkpt lat="45.36572" lon="0.65022">
        <ele>100.45339371405</ele>
        <time>2015-08-07T16:10:17Z</time>
      </trkpt>
      <trkpt lat="45.36567" lon="0.65018">
        <ele>100.45339371405</ele>
        <time>2015-08-07T16:10:22Z</time>
      </trkpt>
      <trkpt lat="45.36566" lon="0.65011">
        <ele>101.00577906305</ele>
        <time>2015-08-07T16:10:27Z</time>
      </trkpt>
      <trkpt lat="45.36569" lon="0.65006">
        <ele>101.00577906305</ele>
        <time>2015-08-07T16:10:32Z</time>
      </trkpt>
      <trkpt lat="45.36572" lon="0.64996">
        <ele>100.76042208645</ele>
        <time>2015-08-07T16:10:37Z</time>
      </trkpt>
      <trkpt lat="45.36574" lon="0.64987">
        <ele>100.76042208645</ele>
        <time>2015-08-07T16:10:42Z</time>
      </trkpt>
      <trkpt lat="45.36573" lon="0.64975">
        <ele>100.26555954148</ele>
        <time>2015-08-07T16:10:47Z</time>
      </trkpt>
      <trkpt lat="45.36571" lon="0.64965">
        <ele>100.26555954148</ele>
        <time>2015-08-07T16:10:52Z</time>
      </trkpt>
      <trkpt lat="45.3657" lon="0.64953">
        <ele>99.986679306978</ele>
        <time>2015-08-07T16:10:57Z</time>
      </trkpt>
      <trkpt lat="45.3657" lon="0.64943">
        <ele>99.986679306978</ele>
        <time>2015-08-07T16:11:02Z</time>
      </trkpt>
      <trkpt lat="45.36568" lon="0.64933">
        <ele>99.605145273676</ele>
        <time>2015-08-07T16:11:07Z</time>
      </trkpt>
      <trkpt lat="45.36567" lon="0.64922">
        <ele>99.605145273676</ele>
        <time>2015-08-07T16:11:12Z</time>
      </trkpt>
      <trkpt lat="45.36563" lon="0.64912">
        <ele>99.287221970427</ele>
        <time>2015-08-07T16:11:17Z</time>
      </trkpt>
      <trkpt lat="45.36563" lon="0.64903">
        <ele>99.287221970427</ele>
        <time>2015-08-07T16:11:22Z</time>
      </trkpt>
      <trkpt lat="45.36561" lon="0.64891">
        <ele>98.913016396505</ele>
        <time>2015-08-07T16:11:27Z</time>
      </trkpt>
      <trkpt lat="45.36559" lon="0.64885">
        <ele>98.913016396505</ele>
        <time>2015-08-07T16:11:32Z</time>
      </trkpt>
      <trkpt lat="45.36557" lon="0.64877">
        <ele>98.876032256508</ele>
        <time>2015-08-07T16:11:37Z</time>
      </trkpt>
      <trkpt lat="45.36555" lon="0.6487">
        <ele>98.876032256508</ele>
        <time>2015-08-07T16:11:42Z</time>
      </trkpt>
      <trkpt lat="45.36552" lon="0.64865">
        <ele>99.107627219423</ele>
        <time>2015-08-07T16:11:47Z</time>
      </trkpt>
      <trkpt lat="45.36548" lon="0.64857">
        <ele>99.107627219423</ele>
        <time>2015-08-07T16:11:52Z</time>
      </trkpt>
      <trkpt lat="45.36544" lon="0.64848">
        <ele>99.111152709294</ele>
        <time>2015-08-07T16:11:57Z</time>
      </trkpt>
      <trkpt lat="45.36539" lon="0.6484">
        <ele>99.111152709294</ele>
        <time>2015-08-07T16:12:02Z</time>
      </trkpt>
      <trkpt lat="45.36533" lon="0.64829">
        <ele>99.680888983112</ele>
        <time>2015-08-07T16:12:07Z</time>
      </trkpt>
      <trkpt lat="45.36528" lon="0.64822">
        <ele>99.680888983112</ele>
        <time>2015-08-07T16:12:12Z</time>
      </trkpt>
      <trkpt lat="45.36522" lon="0.64815">
        <ele>100.08128598288</ele>
        <time>2015-08-07T16:12:17Z</time>
      </trkpt>
      <trkpt lat="45.36517" lon="0.64807">
        <ele>100.08128598288</ele>
        <time>2015-08-07T16:12:22Z</time>
      </trkpt>
      <trkpt lat="45.36512" lon="0.648">
        <ele>100.03485321208</ele>
        <time>2015-08-07T16:12:27Z</time>
      </trkpt>
      <trkpt lat="45.36506" lon="0.64793">
        <ele>100.03485321208</ele>
        <time>2015-08-07T16:12:32Z</time>
      </trkpt>
      <trkpt lat="45.36501" lon="0.64786">
        <ele>100.020745658</ele>
        <time>2015-08-07T16:12:37Z</time>
      </trkpt>
      <trkpt lat="45.36494" lon="0.64779">
        <ele>100.020745658</ele>
        <time>2015-08-07T16:12:42Z</time>
      </trkpt>
      <trkpt lat="45.36489" lon="0.64772">
        <ele>100.0505364865</ele>
        <time>2015-08-07T16:12:47Z</time>
      </trkpt>
      <trkpt lat="45.36481" lon="0.64766">
        <ele>100.0505364865</ele>
        <time>2015-08-07T16:12:52Z</time>
      </trkpt>
      <trkpt lat="45.36474" lon="0.64761">
        <ele>100.49514392332</ele>
        <time>2015-08-07T16:12:57Z</time>
      </trkpt>
      <trkpt lat="45.36474" lon="0.64761">
        <ele>100.49514392332</ele>
        <time>2015-08-07T16:13:02Z</time>
      </trkpt>
      <trkpt lat="45.36474" lon="0.6476">
        <ele>100.49514392332</ele>
        <time>2015-08-07T16:13:08Z</time>
      </trkpt>
      <trkpt lat="45.36474" lon="0.6476">
        <ele>100.49514392332</ele>
        <time>2015-08-07T16:13:18Z</time>
      </trkpt>
      <trkpt lat="45.36474" lon="0.6476">
        <ele>100.49514392332</ele>
        <time>2015-08-07T16:13:24Z</time>
      </trkpt>
      <trkpt lat="45.36474" lon="0.64761">
        <ele>100.49514392332</ele>
        <time>2015-08-07T16:13:32Z</time>
      </trkpt>
      <trkpt lat="45.36474" lon="0.64761">
        <ele>100.49514392332</ele>
        <time>2015-08-07T16:13:37Z</time>
      </trkpt>
      <trkpt lat="45.36469" lon="0.64755">
        <ele>100.60186972766</ele>
        <time>2015-08-07T16:13:47Z</time>
      </trkpt>
      <trkpt lat="45.36461" lon="0.64746">
        <ele>100.23632808198</ele>
        <time>2015-08-07T16:13:52Z</time>
      </trkpt>
      <trkpt lat="45.36451" lon="0.64736">
        <ele>99.520354809329</ele>
        <time>2015-08-07T16:14:03Z</time>
      </trkpt>
      <trkpt lat="45.36444" lon="0.64729">
        <ele>98.394916778943</ele>
        <time>2015-08-07T16:14:08Z</time>
      </trkpt>
      <trkpt lat="45.36436" lon="0.64717">
        <ele>97.772036173148</ele>
        <time>2015-08-07T16:14:18Z</time>
      </trkpt>
      <trkpt lat="45.36428" lon="0.64713">
        <ele>97.772036173148</ele>
        <time>2015-08-07T16:14:24Z</time>
      </trkpt>
      <trkpt lat="45.36409" lon="0.64698">
        <ele>96.737189878286</ele>
        <time>2015-08-07T16:14:38Z</time>
      </trkpt>
      <trkpt lat="45.36405" lon="0.64693">
        <ele>96.737189878286</ele>
        <time>2015-08-07T16:14:43Z</time>
      </trkpt>
      <trkpt lat="45.36393" lon="0.64683">
        <ele>96.27441279824</ele>
        <time>2015-08-07T16:14:53Z</time>
      </trkpt>
      <trkpt lat="45.36386" lon="0.64679">
        <ele>96.27441279824</ele>
        <time>2015-08-07T16:14:58Z</time>
      </trkpt>
      <trkpt lat="45.36376" lon="0.64668">
        <ele>96.674175758392</ele>
        <time>2015-08-07T16:15:07Z</time>
      </trkpt>
      <trkpt lat="45.36371" lon="0.6466">
        <ele>96.674175758392</ele>
        <time>2015-08-07T16:15:12Z</time>
      </trkpt>
      <trkpt lat="45.36365" lon="0.64654">
        <ele>96.747671869819</ele>
        <time>2015-08-07T16:15:17Z</time>
      </trkpt>
      <trkpt lat="45.36359" lon="0.64653">
        <ele>96.747671869819</ele>
        <time>2015-08-07T16:15:22Z</time>
      </trkpt>
      <trkpt lat="45.36354" lon="0.64648">
        <ele>96.936330120111</ele>
        <time>2015-08-07T16:15:27Z</time>
      </trkpt>
      <trkpt lat="45.36347" lon="0.64643">
        <ele>96.936330120111</ele>
        <time>2015-08-07T16:15:32Z</time>
      </trkpt>
      <trkpt lat="45.36341" lon="0.64637">
        <ele>96.971510148119</ele>
        <time>2015-08-07T16:15:37Z</time>
      </trkpt>
      <trkpt lat="45.36337" lon="0.64632">
        <ele>96.971510148119</ele>
        <time>2015-08-07T16:15:42Z</time>
      </trkpt>
      <trkpt lat="45.36333" lon="0.64627">
        <ele>96.936196873288</ele>
        <time>2015-08-07T16:15:47Z</time>
      </trkpt>
      <trkpt lat="45.36333" lon="0.64626">
        <ele>96.936196873288</ele>
        <time>2015-08-07T16:15:52Z</time>
      </trkpt>
      <trkpt lat="45.3633" lon="0.64625">
        <ele>96.936196873288</ele>
        <time>2015-08-07T16:15:57Z</time>
      </trkpt>
      <trkpt lat="45.36331" lon="0.64617">
        <ele>97.310994621179</ele>
        <time>2015-08-07T16:16:02Z</time>
      </trkpt>
      <trkpt lat="45.36333" lon="0.64617">
        <ele>97.310994621179</ele>
        <time>2015-08-07T16:16:07Z</time>
      </trkpt>
      <trkpt lat="45.36334" lon="0.64617">
        <ele>97.310994621179</ele>
        <time>2015-08-07T16:16:12Z</time>
      </trkpt>
      <trkpt lat="45.36334" lon="0.6462">
        <ele>97.310994621179</ele>
        <time>2015-08-07T16:16:17Z</time>
      </trkpt>
      <trkpt lat="45.36331" lon="0.64611">
        <ele>96.76749143354</ele>
        <time>2015-08-07T16:16:22Z</time>
      </trkpt>
      <trkpt lat="45.36331" lon="0.64613">
        <ele>96.76749143354</ele>
        <time>2015-08-07T16:16:27Z</time>
      </trkpt>
      <trkpt lat="45.36332" lon="0.64612">
        <ele>96.76749143354</ele>
        <time>2015-08-07T16:16:32Z</time>
      </trkpt>
      <trkpt lat="45.36332" lon="0.64613">
        <ele>96.76749143354</ele>
        <time>2015-08-07T16:16:37Z</time>
      </trkpt>
      <trkpt lat="45.36332" lon="0.64613">
        <ele>96.76749143354</ele>
        <time>2015-08-07T16:16:42Z</time>
      </trkpt>
      <trkpt lat="45.36332" lon="0.64613">
        <ele>96.76749143354</ele>
        <time>2015-08-07T16:16:47Z</time>
      </trkpt>
      <trkpt lat="45.36332" lon="0.64613">
        <ele>96.76749143354</ele>
        <time>2015-08-07T16:16:52Z</time>
      </trkpt>
      <trkpt lat="45.3633" lon="0.64618">
        <ele>96.76749143354</ele>
        <time>2015-08-07T16:16:57Z</time>
      </trkpt>
      <trkpt lat="45.36332" lon="0.64617">
        <ele>96.76749143354</ele>
        <time>2015-08-07T16:17:02Z</time>
      </trkpt>
      <trkpt lat="45.36332" lon="0.64617">
        <ele>96.76749143354</ele>
        <time>2015-08-07T16:17:07Z</time>
      </trkpt>
      <trkpt lat="45.36333" lon="0.64633">
        <ele>96.671443340343</ele>
        <time>2015-08-07T16:17:18Z</time>
      </trkpt>
      <trkpt lat="45.36331" lon="0.64631">
        <ele>96.671443340343</ele>
        <time>2015-08-07T16:17:22Z</time>
      </trkpt>
      <trkpt lat="45.36334" lon="0.64634">
        <ele>96.671443340343</ele>
        <time>2015-08-07T16:17:27Z</time>
      </trkpt>
      <trkpt lat="45.36336" lon="0.64636">
        <ele>96.672984596737</ele>
        <time>2015-08-07T16:17:32Z</time>
      </trkpt>
      <trkpt lat="45.36338" lon="0.64648">
        <ele>96.672984596737</ele>
        <time>2015-08-07T16:17:37Z</time>
      </trkpt>
      <trkpt lat="45.36338" lon="0.6464">
        <ele>96.490915253099</ele>
        <time>2015-08-07T16:17:42Z</time>
      </trkpt>
      <trkpt lat="45.36337" lon="0.64647">
        <ele>96.490915253099</ele>
        <time>2015-08-07T16:17:47Z</time>
      </trkpt>
      <trkpt lat="45.3634" lon="0.64654">
        <ele>96.110199904889</ele>
        <time>2015-08-07T16:17:52Z</time>
      </trkpt>
      <trkpt lat="45.36346" lon="0.64658">
        <ele>96.110199904889</ele>
        <time>2015-08-07T16:17:57Z</time>
      </trkpt>
      <trkpt lat="45.36347" lon="0.64659">
        <ele>96.110199904889</ele>
        <time>2015-08-07T16:18:02Z</time>
      </trkpt>
      <trkpt lat="45.36341" lon="0.64658">
        <ele>96.108323723207</ele>
        <time>2015-08-07T16:18:07Z</time>
      </trkpt>
      <trkpt lat="45.36337" lon="0.64653">
        <ele>96.108323723207</ele>
        <time>2015-08-07T16:18:12Z</time>
      </trkpt>
      <trkpt lat="45.36333" lon="0.64654">
        <ele>96.108323723207</ele>
        <time>2015-08-07T16:18:17Z</time>
      </trkpt>
      <trkpt lat="45.3633" lon="0.64664">
        <ele>95.880811085142</ele>
        <time>2015-08-07T16:18:22Z</time>
      </trkpt>
      <trkpt lat="45.36327" lon="0.64675">
        <ele>95.880811085142</ele>
        <time>2015-08-07T16:18:27Z</time>
      </trkpt>
      <trkpt lat="45.36323" lon="0.64682">
        <ele>95.949058700349</ele>
        <time>2015-08-07T16:18:32Z</time>
      </trkpt>
      <trkpt lat="45.3632" lon="0.64689">
        <ele>95.949058700349</ele>
        <time>2015-08-07T16:18:37Z</time>
      </trkpt>
      <trkpt lat="45.36316" lon="0.64697">
        <ele>95.527153907062</ele>
        <time>2015-08-07T16:18:42Z</time>
      </trkpt>
      <trkpt lat="45.36312" lon="0.64702">
        <ele>95.527153907062</ele>
        <time>2015-08-07T16:18:47Z</time>
      </trkpt>
      <trkpt lat="45.36316" lon="0.64692">
        <ele>95.473514304732</ele>
        <time>2015-08-07T16:18:52Z</time>
      </trkpt>
      <trkpt lat="45.3632" lon="0.64681">
        <ele>95.473514304732</ele>
        <time>2015-08-07T16:18:57Z</time>
      </trkpt>
      <trkpt lat="45.36324" lon="0.64674">
        <ele>95.285463979051</ele>
        <time>2015-08-07T16:19:02Z</time>
      </trkpt>
      <trkpt lat="45.36328" lon="0.64668">
        <ele>95.285463979051</ele>
        <time>2015-08-07T16:19:07Z</time>
      </trkpt>
      <trkpt lat="45.3633" lon="0.64665">
        <ele>95.285463979051</ele>
        <time>2015-08-07T16:19:12Z</time>
      </trkpt>
      <trkpt lat="45.36332" lon="0.64654">
        <ele>95.736985698309</ele>
        <time>2015-08-07T16:19:17Z</time>
      </trkpt>
      <trkpt lat="45.36334" lon="0.64647">
        <ele>95.736985698309</ele>
        <time>2015-08-07T16:19:22Z</time>
      </trkpt>
      <trkpt lat="45.36337" lon="0.6464">
        <ele>95.958188807887</ele>
        <time>2015-08-07T16:19:27Z</time>
      </trkpt>
      <trkpt lat="45.36328" lon="0.64619">
        <ele>97.089234464599</ele>
        <time>2015-08-07T16:19:43Z</time>
      </trkpt>
      <trkpt lat="45.36328" lon="0.64618">
        <ele>97.089234464599</ele>
        <time>2015-08-07T16:19:48Z</time>
      </trkpt>
      <trkpt lat="45.36325" lon="0.64611">
        <ele>97.089234464599</ele>
        <time>2015-08-07T16:20:03Z</time>
      </trkpt>
      <trkpt lat="45.36326" lon="0.64609">
        <ele>97.089234464599</ele>
        <time>2015-08-07T16:20:08Z</time>
      </trkpt>
      <trkpt lat="45.36328" lon="0.64611">
        <ele>97.388226050036</ele>
        <time>2015-08-07T16:20:17Z</time>
      </trkpt>
      <trkpt lat="45.36329" lon="0.64615">
        <ele>97.388226050036</ele>
        <time>2015-08-07T16:20:24Z</time>
      </trkpt>
      <trkpt lat="45.3633" lon="0.64615">
        <ele>97.388226050036</ele>
        <time>2015-08-07T16:20:38Z</time>
      </trkpt>
      <trkpt lat="45.36337" lon="0.6463">
        <ele>97.549349410942</ele>
        <time>2015-08-07T16:20:53Z</time>
      </trkpt>
      <trkpt lat="45.36342" lon="0.64632">
        <ele>97.549349410942</ele>
        <time>2015-08-07T16:20:58Z</time>
      </trkpt>
      <trkpt lat="45.36353" lon="0.64642">
        <ele>97.62534107961</ele>
        <time>2015-08-07T16:21:08Z</time>
      </trkpt>
      <trkpt lat="45.36361" lon="0.64647">
        <ele>97.62534107961</ele>
        <time>2015-08-07T16:21:13Z</time>
      </trkpt>
      <trkpt lat="45.36361" lon="0.64664">
        <ele>97.881485805548</ele>
        <time>2015-08-07T16:21:22Z</time>
      </trkpt>
      <trkpt lat="45.36356" lon="0.64665">
        <ele>97.881485805548</ele>
        <time>2015-08-07T16:21:29Z</time>
      </trkpt>
      <trkpt lat="45.3635" lon="0.64657">
        <ele>97.294913081483</ele>
        <time>2015-08-07T16:21:38Z</time>
      </trkpt>
      <trkpt lat="45.36344" lon="0.64647">
        <ele>97.294913081483</ele>
        <time>2015-08-07T16:21:43Z</time>
      </trkpt>
      <trkpt lat="45.36336" lon="0.64653">
        <ele>96.4478481918</ele>
        <time>2015-08-07T16:21:53Z</time>
      </trkpt>
      <trkpt lat="45.36332" lon="0.64661">
        <ele>96.4478481918</ele>
        <time>2015-08-07T16:21:58Z</time>
      </trkpt>
      <trkpt lat="45.3632" lon="0.64688">
        <ele>96.312821998016</ele>
        <time>2015-08-07T16:22:13Z</time>
      </trkpt>
      <trkpt lat="45.36306" lon="0.64703">
        <ele>96.074011032691</ele>
        <time>2015-08-07T16:22:27Z</time>
      </trkpt>
      <trkpt lat="45.363" lon="0.64698">
        <ele>96.074011032691</ele>
        <time>2015-08-07T16:22:32Z</time>
      </trkpt>
      <trkpt lat="45.36296" lon="0.64693">
        <ele>96.013417420597</ele>
        <time>2015-08-07T16:22:37Z</time>
      </trkpt>
      <trkpt lat="45.36295" lon="0.64696">
        <ele>96.013417420597</ele>
        <time>2015-08-07T16:22:42Z</time>
      </trkpt>
      <trkpt lat="45.36293" lon="0.64706">
        <ele>96.146841011009</ele>
        <time>2015-08-07T16:22:47Z</time>
      </trkpt>
      <trkpt lat="45.36292" lon="0.64719">
        <ele>96.146841011009</ele>
        <time>2015-08-07T16:22:52Z</time>
      </trkpt>
      <trkpt lat="45.36291" lon="0.64728">
        <ele>96.430734645865</ele>
        <time>2015-08-07T16:22:57Z</time>
      </trkpt>
      <trkpt lat="45.3629" lon="0.64738">
        <ele>96.430734645865</ele>
        <time>2015-08-07T16:23:02Z</time>
      </trkpt>
      <trkpt lat="45.36287" lon="0.64748">
        <ele>96.896387103959</ele>
        <time>2015-08-07T16:23:07Z</time>
      </trkpt>
      <trkpt lat="45.36284" lon="0.64757">
        <ele>96.896387103959</ele>
        <time>2015-08-07T16:23:12Z</time>
      </trkpt>
      <trkpt lat="45.36282" lon="0.64765">
        <ele>97.154361815986</ele>
        <time>2015-08-07T16:23:17Z</time>
      </trkpt>
      <trkpt lat="45.36279" lon="0.64772">
        <ele>97.154361815986</ele>
        <time>2015-08-07T16:23:22Z</time>
      </trkpt>
      <trkpt lat="45.36276" lon="0.64781">
        <ele>97.219109025701</ele>
        <time>2015-08-07T16:23:27Z</time>
      </trkpt>
      <trkpt lat="45.36273" lon="0.64789">
        <ele>97.219109025701</ele>
        <time>2015-08-07T16:23:32Z</time>
      </trkpt>
      <trkpt lat="45.36269" lon="0.64792">
        <ele>96.758700946858</ele>
        <time>2015-08-07T16:23:37Z</time>
      </trkpt>
      <trkpt lat="45.36267" lon="0.64802">
        <ele>96.758700946858</ele>
        <time>2015-08-07T16:23:42Z</time>
      </trkpt>
      <trkpt lat="45.36264" lon="0.64813">
        <ele>96.245274110057</ele>
        <time>2015-08-07T16:23:47Z</time>
      </trkpt>
      <trkpt lat="45.3626" lon="0.64823">
        <ele>96.245274110057</ele>
        <time>2015-08-07T16:23:52Z</time>
      </trkpt>
      <trkpt lat="45.36257" lon="0.64831">
        <ele>96.289370431295</ele>
        <time>2015-08-07T16:23:57Z</time>
      </trkpt>
      <trkpt lat="45.36254" lon="0.64839">
        <ele>96.289370431295</ele>
        <time>2015-08-07T16:24:02Z</time>
      </trkpt>
      <trkpt lat="45.3625" lon="0.64847">
        <ele>96.388699311959</ele>
        <time>2015-08-07T16:24:07Z</time>
      </trkpt>
      <trkpt lat="45.3625" lon="0.64845">
        <ele>96.388699311959</ele>
        <time>2015-08-07T16:24:12Z</time>
      </trkpt>
      <trkpt lat="45.3625" lon="0.64845">
        <ele>96.388699311959</ele>
        <time>2015-08-07T16:24:17Z</time>
      </trkpt>
      <trkpt lat="45.3625" lon="0.64848">
        <ele>96.388699311959</ele>
        <time>2015-08-07T16:24:22Z</time>
      </trkpt>
      <trkpt lat="45.36246" lon="0.64855">
        <ele>96.279471234841</ele>
        <time>2015-08-07T16:24:27Z</time>
      </trkpt>
      <trkpt lat="45.36241" lon="0.64859">
        <ele>96.279471234841</ele>
        <time>2015-08-07T16:24:32Z</time>
      </trkpt>
      <trkpt lat="45.36237" lon="0.64861">
        <ele>96.323128389856</ele>
        <time>2015-08-07T16:24:37Z</time>
      </trkpt>
      <trkpt lat="45.36234" lon="0.64863">
        <ele>96.323128389856</ele>
        <time>2015-08-07T16:24:42Z</time>
      </trkpt>
      <trkpt lat="45.36229" lon="0.64865">
        <ele>96.323128389856</ele>
        <time>2015-08-07T16:24:47Z</time>
      </trkpt>
      <trkpt lat="45.36226" lon="0.64867">
        <ele>96.594735142708</ele>
        <time>2015-08-07T16:24:52Z</time>
      </trkpt>
      <trkpt lat="45.36226" lon="0.64869">
        <ele>96.594735142708</ele>
        <time>2015-08-07T16:24:57Z</time>
      </trkpt>
      <trkpt lat="45.36206" lon="0.64857">
        <ele>97.00468346262</ele>
        <time>2015-08-07T16:25:13Z</time>
      </trkpt>
      <trkpt lat="45.36189" lon="0.64845">
        <ele>97.267809059593</ele>
        <time>2015-08-07T16:25:28Z</time>
      </trkpt>
      <trkpt lat="45.36182" lon="0.64839">
        <ele>97.267809059593</ele>
        <time>2015-08-07T16:25:33Z</time>
      </trkpt>
      <trkpt lat="45.36169" lon="0.6483">
        <ele>97.653525967519</ele>
        <time>2015-08-07T16:25:42Z</time>
      </trkpt>
      <trkpt lat="45.36165" lon="0.64832">
        <ele>97.653525967519</ele>
        <time>2015-08-07T16:25:47Z</time>
      </trkpt>
      <trkpt lat="45.36158" lon="0.64831">
        <ele>97.733799904304</ele>
        <time>2015-08-07T16:25:52Z</time>
      </trkpt>
      <trkpt lat="45.36152" lon="0.64825">
        <ele>97.733799904304</ele>
        <time>2015-08-07T16:25:57Z</time>
      </trkpt>
      <trkpt lat="45.36146" lon="0.64827">
        <ele>97.775818464068</ele>
        <time>2015-08-07T16:26:02Z</time>
      </trkpt>
      <trkpt lat="45.36141" lon="0.6483">
        <ele>97.775818464068</ele>
        <time>2015-08-07T16:26:07Z</time>
      </trkpt>
      <trkpt lat="45.36134" lon="0.6483">
        <ele>97.609337537146</ele>
        <time>2015-08-07T16:26:12Z</time>
      </trkpt>
      <trkpt lat="45.36128" lon="0.64829">
        <ele>97.609337537146</ele>
        <time>2015-08-07T16:26:17Z</time>
      </trkpt>
      <trkpt lat="45.36122" lon="0.64828">
        <ele>97.451903245305</ele>
        <time>2015-08-07T16:26:22Z</time>
      </trkpt>
      <trkpt lat="45.36119" lon="0.64827">
        <ele>97.451903245305</ele>
        <time>2015-08-07T16:26:27Z</time>
      </trkpt>
      <trkpt lat="45.36118" lon="0.64828">
        <ele>97.451903245305</ele>
        <time>2015-08-07T16:26:32Z</time>
      </trkpt>
      <trkpt lat="45.36117" lon="0.64826">
        <ele>97.451903245305</ele>
        <time>2015-08-07T16:26:37Z</time>
      </trkpt>
      <trkpt lat="45.36119" lon="0.64824">
        <ele>97.451903245305</ele>
        <time>2015-08-07T16:26:42Z</time>
      </trkpt>
      <trkpt lat="45.36119" lon="0.64824">
        <ele>97.764465263133</ele>
        <time>2015-08-07T16:26:47Z</time>
      </trkpt>
      <trkpt lat="45.36119" lon="0.64824">
        <ele>97.764465263133</ele>
        <time>2015-08-07T16:26:52Z</time>
      </trkpt>
      <trkpt lat="45.36119" lon="0.64823">
        <ele>97.764465263133</ele>
        <time>2015-08-07T16:26:57Z</time>
      </trkpt>
      <trkpt lat="45.36117" lon="0.64823">
        <ele>97.764465263133</ele>
        <time>2015-08-07T16:27:02Z</time>
      </trkpt>
      <trkpt lat="45.36112" lon="0.64821">
        <ele>97.764465263133</ele>
        <time>2015-08-07T16:27:07Z</time>
      </trkpt>
      <trkpt lat="45.36107" lon="0.64818">
        <ele>97.329934317293</ele>
        <time>2015-08-07T16:27:12Z</time>
      </trkpt>
      <trkpt lat="45.36107" lon="0.64821">
        <ele>97.329934317293</ele>
        <time>2015-08-07T16:27:17Z</time>
      </trkpt>
      <trkpt lat="45.36106" lon="0.6482">
        <ele>97.329934317293</ele>
        <time>2015-08-07T16:27:22Z</time>
      </trkpt>
      <trkpt lat="45.36104" lon="0.64819">
        <ele>97.329934317293</ele>
        <time>2015-08-07T16:27:27Z</time>
      </trkpt>
      <trkpt lat="45.36103" lon="0.6482">
        <ele>97.329934317293</ele>
        <time>2015-08-07T16:27:32Z</time>
      </trkpt>
      <trkpt lat="45.36102" lon="0.6482">
        <ele>97.329934317293</ele>
        <time>2015-08-07T16:27:37Z</time>
      </trkpt>
      <trkpt lat="45.36102" lon="0.64819">
        <ele>97.329934317293</ele>
        <time>2015-08-07T16:27:42Z</time>
      </trkpt>
      <trkpt lat="45.36097" lon="0.64826">
        <ele>97.443798170364</ele>
        <time>2015-08-07T16:27:58Z</time>
      </trkpt>
      <trkpt lat="45.36086" lon="0.64836">
        <ele>97.402578937744</ele>
        <time>2015-08-07T16:28:03Z</time>
      </trkpt>
      <trkpt lat="45.36072" lon="0.64841">
        <ele>97.318704997831</ele>
        <time>2015-08-07T16:28:13Z</time>
      </trkpt>
      <trkpt lat="45.36064" lon="0.64846">
        <ele>97.318704997831</ele>
        <time>2015-08-07T16:28:18Z</time>
      </trkpt>
      <trkpt lat="45.36053" lon="0.6485">
        <ele>97.454991873021</ele>
        <time>2015-08-07T16:28:28Z</time>
      </trkpt>
      <trkpt lat="45.36045" lon="0.64852">
        <ele>97.454991873021</ele>
        <time>2015-08-07T16:28:32Z</time>
      </trkpt>
      <trkpt lat="45.36039" lon="0.64857">
        <ele>97.607590596269</ele>
        <time>2015-08-07T16:28:37Z</time>
      </trkpt>
      <trkpt lat="45.36033" lon="0.64863">
        <ele>97.607590596269</ele>
        <time>2015-08-07T16:28:42Z</time>
      </trkpt>
      <trkpt lat="45.36028" lon="0.64869">
        <ele>97.731696267154</ele>
        <time>2015-08-07T16:28:47Z</time>
      </trkpt>
      <trkpt lat="45.36023" lon="0.64875">
        <ele>97.731696267154</ele>
        <time>2015-08-07T16:28:52Z</time>
      </trkpt>
      <trkpt lat="45.36016" lon="0.64881">
        <ele>97.901168685291</ele>
        <time>2015-08-07T16:28:57Z</time>
      </trkpt>
      <trkpt lat="45.3601" lon="0.64884">
        <ele>97.901168685291</ele>
        <time>2015-08-07T16:29:02Z</time>
      </trkpt>
      <trkpt lat="45.36007" lon="0.64887">
        <ele>98.112264413187</ele>
        <time>2015-08-07T16:29:07Z</time>
      </trkpt>
      <trkpt lat="45.36003" lon="0.64891">
        <ele>98.112264413187</ele>
        <time>2015-08-07T16:29:12Z</time>
      </trkpt>
      <trkpt lat="45.35998" lon="0.64896">
        <ele>98.015537067405</ele>
        <time>2015-08-07T16:29:17Z</time>
      </trkpt>
      <trkpt lat="45.35991" lon="0.64901">
        <ele>98.015537067405</ele>
        <time>2015-08-07T16:29:22Z</time>
      </trkpt>
      <trkpt lat="45.35984" lon="0.64906">
        <ele>98.138335818693</ele>
        <time>2015-08-07T16:29:27Z</time>
      </trkpt>
      <trkpt lat="45.35978" lon="0.64911">
        <ele>98.138335818693</ele>
        <time>2015-08-07T16:29:32Z</time>
      </trkpt>
      <trkpt lat="45.35971" lon="0.64916">
        <ele>98.233694397853</ele>
        <time>2015-08-07T16:29:37Z</time>
      </trkpt>
      <trkpt lat="45.35964" lon="0.64922">
        <ele>98.233694397853</ele>
        <time>2015-08-07T16:29:42Z</time>
      </trkpt>
      <trkpt lat="45.35964" lon="0.64923">
        <ele>98.233694397853</ele>
        <time>2015-08-07T16:29:47Z</time>
      </trkpt>
      <trkpt lat="45.35957" lon="0.64928">
        <ele>98.015226528569</ele>
        <time>2015-08-07T16:29:52Z</time>
      </trkpt>
      <trkpt lat="45.35952" lon="0.64935">
        <ele>98.015226528569</ele>
        <time>2015-08-07T16:29:57Z</time>
      </trkpt>
      <trkpt lat="45.35946" lon="0.64941">
        <ele>97.348167785054</ele>
        <time>2015-08-07T16:30:02Z</time>
      </trkpt>
      <trkpt lat="45.35941" lon="0.64948">
        <ele>97.348167785054</ele>
        <time>2015-08-07T16:30:07Z</time>
      </trkpt>
      <trkpt lat="45.35938" lon="0.64955">
        <ele>97.002402632136</ele>
        <time>2015-08-07T16:30:12Z</time>
      </trkpt>
      <trkpt lat="45.35933" lon="0.64963">
        <ele>97.002402632136</ele>
        <time>2015-08-07T16:30:17Z</time>
      </trkpt>
      <trkpt lat="45.3593" lon="0.64973">
        <ele>96.926568610825</ele>
        <time>2015-08-07T16:30:22Z</time>
      </trkpt>
      <trkpt lat="45.35929" lon="0.64978">
        <ele>96.926568610825</ele>
        <time>2015-08-07T16:30:27Z</time>
      </trkpt>
      <trkpt lat="45.35928" lon="0.64982">
        <ele>96.926568610825</ele>
        <time>2015-08-07T16:30:32Z</time>
      </trkpt>
      <trkpt lat="45.35925" lon="0.64993">
        <ele>96.971437556207</ele>
        <time>2015-08-07T16:30:37Z</time>
      </trkpt>
      <trkpt lat="45.35923" lon="0.65001">
        <ele>96.971437556207</ele>
        <time>2015-08-07T16:30:42Z</time>
      </trkpt>
      <trkpt lat="45.35921" lon="0.65009">
        <ele>97.041632997185</ele>
        <time>2015-08-07T16:30:47Z</time>
      </trkpt>
      <trkpt lat="45.3592" lon="0.65019">
        <ele>97.041632997185</ele>
        <time>2015-08-07T16:30:52Z</time>
      </trkpt>
      <trkpt lat="45.35917" lon="0.65028">
        <ele>97.063119322005</ele>
        <time>2015-08-07T16:30:57Z</time>
      </trkpt>
      <trkpt lat="45.35914" lon="0.65037">
        <ele>97.063119322005</ele>
        <time>2015-08-07T16:31:02Z</time>
      </trkpt>
      <trkpt lat="45.35912" lon="0.65046">
        <ele>97.140364546077</ele>
        <time>2015-08-07T16:31:07Z</time>
      </trkpt>
      <trkpt lat="45.3591" lon="0.65055">
        <ele>97.140364546077</ele>
        <time>2015-08-07T16:31:12Z</time>
      </trkpt>
      <trkpt lat="45.35907" lon="0.65064">
        <ele>97.37000198959</ele>
        <time>2015-08-07T16:31:17Z</time>
      </trkpt>
      <trkpt lat="45.35904" lon="0.65072">
        <ele>97.37000198959</ele>
        <time>2015-08-07T16:31:22Z</time>
      </trkpt>
      <trkpt lat="45.35899" lon="0.65079">
        <ele>97.653791414213</ele>
        <time>2015-08-07T16:31:27Z</time>
      </trkpt>
      <trkpt lat="45.35895" lon="0.65088">
        <ele>97.653791414213</ele>
        <time>2015-08-07T16:31:32Z</time>
      </trkpt>
      <trkpt lat="45.3589" lon="0.65096">
        <ele>98.10231190302</ele>
        <time>2015-08-07T16:31:37Z</time>
      </trkpt>
      <trkpt lat="45.35886" lon="0.651">
        <ele>98.10231190302</ele>
        <time>2015-08-07T16:31:42Z</time>
      </trkpt>
      <trkpt lat="45.3588" lon="0.65106">
        <ele>98.241113486537</ele>
        <time>2015-08-07T16:31:47Z</time>
      </trkpt>
      <trkpt lat="45.35875" lon="0.65111">
        <ele>98.241113486537</ele>
        <time>2015-08-07T16:31:52Z</time>
      </trkpt>
      <trkpt lat="45.3587" lon="0.65116">
        <ele>98.524960125298</ele>
        <time>2015-08-07T16:31:57Z</time>
      </trkpt>
      <trkpt lat="45.35864" lon="0.65122">
        <ele>98.524960125298</ele>
        <time>2015-08-07T16:32:02Z</time>
      </trkpt>
      <trkpt lat="45.35858" lon="0.65127">
        <ele>98.827184823059</ele>
        <time>2015-08-07T16:32:07Z</time>
      </trkpt>
      <trkpt lat="45.35853" lon="0.65133">
        <ele>98.827184823059</ele>
        <time>2015-08-07T16:32:12Z</time>
      </trkpt>
      <trkpt lat="45.35847" lon="0.65138">
        <ele>99.015969453658</ele>
        <time>2015-08-07T16:32:17Z</time>
      </trkpt>
      <trkpt lat="45.3584" lon="0.65141">
        <ele>99.015969453658</ele>
        <time>2015-08-07T16:32:22Z</time>
      </trkpt>
      <trkpt lat="45.35833" lon="0.65143">
        <ele>99.156849706884</ele>
        <time>2015-08-07T16:32:27Z</time>
      </trkpt>
      <trkpt lat="45.35827" lon="0.65147">
        <ele>99.156849706884</ele>
        <time>2015-08-07T16:32:32Z</time>
      </trkpt>
      <trkpt lat="45.3582" lon="0.65153">
        <ele>99.786257880389</ele>
        <time>2015-08-07T16:32:37Z</time>
      </trkpt>
      <trkpt lat="45.35815" lon="0.65157">
        <ele>99.786257880389</ele>
        <time>2015-08-07T16:32:42Z</time>
      </trkpt>
      <trkpt lat="45.35809" lon="0.65164">
        <ele>100.41990545692</ele>
        <time>2015-08-07T16:32:47Z</time>
      </trkpt>
      <trkpt lat="45.35803" lon="0.65169">
        <ele>100.41990545692</ele>
        <time>2015-08-07T16:32:52Z</time>
      </trkpt>
      <trkpt lat="45.35797" lon="0.65175">
        <ele>100.98377064295</ele>
        <time>2015-08-07T16:32:57Z</time>
      </trkpt>
      <trkpt lat="45.3579" lon="0.65178">
        <ele>100.98377064295</ele>
        <time>2015-08-07T16:33:02Z</time>
      </trkpt>
      <trkpt lat="45.35784" lon="0.65177">
        <ele>101.53918211633</ele>
        <time>2015-08-07T16:33:07Z</time>
      </trkpt>
      <trkpt lat="45.35778" lon="0.65176">
        <ele>101.53918211633</ele>
        <time>2015-08-07T16:33:12Z</time>
      </trkpt>
      <trkpt lat="45.35772" lon="0.65174">
        <ele>101.99889609696</ele>
        <time>2015-08-07T16:33:17Z</time>
      </trkpt>
      <trkpt lat="45.35765" lon="0.65173">
        <ele>101.99889609696</ele>
        <time>2015-08-07T16:33:22Z</time>
      </trkpt>
      <trkpt lat="45.35759" lon="0.65172">
        <ele>102.21031281012</ele>
        <time>2015-08-07T16:33:27Z</time>
      </trkpt>
      <trkpt lat="45.35756" lon="0.65172">
        <ele>102.21031281012</ele>
        <time>2015-08-07T16:33:32Z</time>
      </trkpt>
      <trkpt lat="45.35749" lon="0.65171">
        <ele>102.30657340789</ele>
        <time>2015-08-07T16:33:37Z</time>
      </trkpt>
      <trkpt lat="45.35742" lon="0.65171">
        <ele>102.30657340789</ele>
        <time>2015-08-07T16:33:42Z</time>
      </trkpt>
      <trkpt lat="45.35735" lon="0.65172">
        <ele>102.2816846372</ele>
        <time>2015-08-07T16:33:47Z</time>
      </trkpt>
      <trkpt lat="45.35729" lon="0.65173">
        <ele>102.2816846372</ele>
        <time>2015-08-07T16:33:52Z</time>
      </trkpt>
      <trkpt lat="45.35725" lon="0.65174">
        <ele>102.3466220565</ele>
        <time>2015-08-07T16:33:57Z</time>
      </trkpt>
      <trkpt lat="45.35717" lon="0.65175">
        <ele>102.3466220565</ele>
        <time>2015-08-07T16:34:02Z</time>
      </trkpt>
      <trkpt lat="45.3571" lon="0.65177">
        <ele>102.40840889411</ele>
        <time>2015-08-07T16:34:07Z</time>
      </trkpt>
      <trkpt lat="45.35699" lon="0.65179">
        <ele>102.28004727155</ele>
        <time>2015-08-07T16:34:12Z</time>
      </trkpt>
      <trkpt lat="45.35677" lon="0.65192">
        <ele>102.35085882822</ele>
        <time>2015-08-07T16:34:28Z</time>
      </trkpt>
      <trkpt lat="45.35669" lon="0.65197">
        <ele>102.3469316946</ele>
        <time>2015-08-07T16:34:33Z</time>
      </trkpt>
      <trkpt lat="45.35662" lon="0.652">
        <ele>102.3469316946</ele>
        <time>2015-08-07T16:34:37Z</time>
      </trkpt>
      <trkpt lat="45.35655" lon="0.65204">
        <ele>102.07234072269</ele>
        <time>2015-08-07T16:34:42Z</time>
      </trkpt>
      <trkpt lat="45.35648" lon="0.65208">
        <ele>102.07234072269</ele>
        <time>2015-08-07T16:34:47Z</time>
      </trkpt>
      <trkpt lat="45.35642" lon="0.65213">
        <ele>101.93717707723</ele>
        <time>2015-08-07T16:34:52Z</time>
      </trkpt>
      <trkpt lat="45.35635" lon="0.65218">
        <ele>101.93717707723</ele>
        <time>2015-08-07T16:34:57Z</time>
      </trkpt>
      <trkpt lat="45.35629" lon="0.65223">
        <ele>101.93192192236</ele>
        <time>2015-08-07T16:35:02Z</time>
      </trkpt>
      <trkpt lat="45.35622" lon="0.65226">
        <ele>101.93192192236</ele>
        <time>2015-08-07T16:35:07Z</time>
      </trkpt>
      <trkpt lat="45.35616" lon="0.65227">
        <ele>102.03298427435</ele>
        <time>2015-08-07T16:35:12Z</time>
      </trkpt>
      <trkpt lat="45.3561" lon="0.65226">
        <ele>102.03298427435</ele>
        <time>2015-08-07T16:35:17Z</time>
      </trkpt>
      <trkpt lat="45.35604" lon="0.65222">
        <ele>101.58412022799</ele>
        <time>2015-08-07T16:35:22Z</time>
      </trkpt>
      <trkpt lat="45.35599" lon="0.65214">
        <ele>101.58412022799</ele>
        <time>2015-08-07T16:35:27Z</time>
      </trkpt>
      <trkpt lat="45.35595" lon="0.65205">
        <ele>101.00202386857</ele>
        <time>2015-08-07T16:35:32Z</time>
      </trkpt>
      <trkpt lat="45.35591" lon="0.65195">
        <ele>101.00202386857</ele>
        <time>2015-08-07T16:35:37Z</time>
      </trkpt>
      <trkpt lat="45.35588" lon="0.65186">
        <ele>100.3705146314</ele>
        <time>2015-08-07T16:35:42Z</time>
      </trkpt>
      <trkpt lat="45.35582" lon="0.6518">
        <ele>100.3705146314</ele>
        <time>2015-08-07T16:35:47Z</time>
      </trkpt>
      <trkpt lat="45.35576" lon="0.6518">
        <ele>99.666505876446</ele>
        <time>2015-08-07T16:35:52Z</time>
      </trkpt>
      <trkpt lat="45.35569" lon="0.65181">
        <ele>99.666505876446</ele>
        <time>2015-08-07T16:35:57Z</time>
      </trkpt>
      <trkpt lat="45.35562" lon="0.65184">
        <ele>98.85438390165</ele>
        <time>2015-08-07T16:36:02Z</time>
      </trkpt>
      <trkpt lat="45.35554" lon="0.65186">
        <ele>98.85438390165</ele>
        <time>2015-08-07T16:36:07Z</time>
      </trkpt>
      <trkpt lat="45.35546" lon="0.65189">
        <ele>97.987900001474</ele>
        <time>2015-08-07T16:36:12Z</time>
      </trkpt>
      <trkpt lat="45.35539" lon="0.6519">
        <ele>97.987900001474</ele>
        <time>2015-08-07T16:36:17Z</time>
      </trkpt>
      <trkpt lat="45.35533" lon="0.65189">
        <ele>97.578138916617</ele>
        <time>2015-08-07T16:36:22Z</time>
      </trkpt>
      <trkpt lat="45.35525" lon="0.65189">
        <ele>97.578138916617</ele>
        <time>2015-08-07T16:36:27Z</time>
      </trkpt>
      <trkpt lat="45.35517" lon="0.65189">
        <ele>97.203840300855</ele>
        <time>2015-08-07T16:36:32Z</time>
      </trkpt>
      <trkpt lat="45.3551" lon="0.65187">
        <ele>97.203840300855</ele>
        <time>2015-08-07T16:36:37Z</time>
      </trkpt>
      <trkpt lat="45.35504" lon="0.65187">
        <ele>96.820422798864</ele>
        <time>2015-08-07T16:36:42Z</time>
      </trkpt>
      <trkpt lat="45.35497" lon="0.65187">
        <ele>96.820422798864</ele>
        <time>2015-08-07T16:36:47Z</time>
      </trkpt>
      <trkpt lat="45.3549" lon="0.65185">
        <ele>96.429803041431</ele>
        <time>2015-08-07T16:36:52Z</time>
      </trkpt>
      <trkpt lat="45.35484" lon="0.65183">
        <ele>96.429803041431</ele>
        <time>2015-08-07T16:36:57Z</time>
      </trkpt>
      <trkpt lat="45.35477" lon="0.65181">
        <ele>96.120206966972</ele>
        <time>2015-08-07T16:37:02Z</time>
      </trkpt>
      <trkpt lat="45.35469" lon="0.6518">
        <ele>96.120206966972</ele>
        <time>2015-08-07T16:37:07Z</time>
      </trkpt>
      <trkpt lat="45.35462" lon="0.6518">
        <ele>95.785770200878</ele>
        <time>2015-08-07T16:37:12Z</time>
      </trkpt>
      <trkpt lat="45.35455" lon="0.65181">
        <ele>95.785770200878</ele>
        <time>2015-08-07T16:37:17Z</time>
      </trkpt>
      <trkpt lat="45.35453" lon="0.65182">
        <ele>95.429314689242</ele>
        <time>2015-08-07T16:37:22Z</time>
      </trkpt>
      <trkpt lat="45.35453" lon="0.65182">
        <ele>95.429314689242</ele>
        <time>2015-08-07T16:37:27Z</time>
      </trkpt>
      <trkpt lat="45.35451" lon="0.65182">
        <ele>95.429314689242</ele>
        <time>2015-08-07T16:37:32Z</time>
      </trkpt>
      <trkpt lat="45.35451" lon="0.65181">
        <ele>95.429314689242</ele>
        <time>2015-08-07T16:37:37Z</time>
      </trkpt>
      <trkpt lat="45.35452" lon="0.65181">
        <ele>95.429314689242</ele>
        <time>2015-08-07T16:37:42Z</time>
      </trkpt>
      <trkpt lat="45.35451" lon="0.65182">
        <ele>95.429314689242</ele>
        <time>2015-08-07T16:37:47Z</time>
      </trkpt>
      <trkpt lat="45.35449" lon="0.65182">
        <ele>95.429314689242</ele>
        <time>2015-08-07T16:37:52Z</time>
      </trkpt>
      <trkpt lat="45.35449" lon="0.65182">
        <ele>95.429314689242</ele>
        <time>2015-08-07T16:37:57Z</time>
      </trkpt>
      <trkpt lat="45.35449" lon="0.65181">
        <ele>95.429314689242</ele>
        <time>2015-08-07T16:38:02Z</time>
      </trkpt>
      <trkpt lat="45.3545" lon="0.65181">
        <ele>95.082300961417</ele>
        <time>2015-08-07T16:38:07Z</time>
      </trkpt>
      <trkpt lat="45.35449" lon="0.65181">
        <ele>95.082300961417</ele>
        <time>2015-08-07T16:38:12Z</time>
      </trkpt>
      <trkpt lat="45.3545" lon="0.65181">
        <ele>95.082300961417</ele>
        <time>2015-08-07T16:38:17Z</time>
      </trkpt>
      <trkpt lat="45.35448" lon="0.65179">
        <ele>95.082300961417</ele>
        <time>2015-08-07T16:38:22Z</time>
      </trkpt>
      <trkpt lat="45.35441" lon="0.65182">
        <ele>94.687347038194</ele>
        <time>2015-08-07T16:38:38Z</time>
      </trkpt>
      <trkpt lat="45.35434" lon="0.65181">
        <ele>94.687347038194</ele>
        <time>2015-08-07T16:38:43Z</time>
      </trkpt>
      <trkpt lat="45.35422" lon="0.65176">
        <ele>93.600525311906</ele>
        <time>2015-08-07T16:38:52Z</time>
      </trkpt>
      <trkpt lat="45.35416" lon="0.65174">
        <ele>93.600525311906</ele>
        <time>2015-08-07T16:38:57Z</time>
      </trkpt>
      <trkpt lat="45.35411" lon="0.6517">
        <ele>92.812333238187</ele>
        <time>2015-08-07T16:39:02Z</time>
      </trkpt>
      <trkpt lat="45.35409" lon="0.65162">
        <ele>92.812333238187</ele>
        <time>2015-08-07T16:39:07Z</time>
      </trkpt>
      <trkpt lat="45.35405" lon="0.65152">
        <ele>92.187614247888</ele>
        <time>2015-08-07T16:39:12Z</time>
      </trkpt>
      <trkpt lat="45.35402" lon="0.65143">
        <ele>92.187614247888</ele>
        <time>2015-08-07T16:39:17Z</time>
      </trkpt>
      <trkpt lat="45.35404" lon="0.65133">
        <ele>91.701513846569</ele>
        <time>2015-08-07T16:39:22Z</time>
      </trkpt>
      <trkpt lat="45.35402" lon="0.65122">
        <ele>91.701513846569</ele>
        <time>2015-08-07T16:39:27Z</time>
      </trkpt>
      <trkpt lat="45.35399" lon="0.65114">
        <ele>91.200866940842</ele>
        <time>2015-08-07T16:39:32Z</time>
      </trkpt>
      <trkpt lat="45.35397" lon="0.65105">
        <ele>91.200866940842</ele>
        <time>2015-08-07T16:39:37Z</time>
      </trkpt>
      <trkpt lat="45.35397" lon="0.65094">
        <ele>90.197884982347</ele>
        <time>2015-08-07T16:39:42Z</time>
      </trkpt>
      <trkpt lat="45.35398" lon="0.65086">
        <ele>90.197884982347</ele>
        <time>2015-08-07T16:39:47Z</time>
      </trkpt>
      <trkpt lat="45.35398" lon="0.65077">
        <ele>89.14987131972</ele>
        <time>2015-08-07T16:39:52Z</time>
      </trkpt>
      <trkpt lat="45.35397" lon="0.65068">
        <ele>89.14987131972</ele>
        <time>2015-08-07T16:39:57Z</time>
      </trkpt>
      <trkpt lat="45.35397" lon="0.65057">
        <ele>88.134743238131</ele>
        <time>2015-08-07T16:40:02Z</time>
      </trkpt>
      <trkpt lat="45.35397" lon="0.65047">
        <ele>88.134743238131</ele>
        <time>2015-08-07T16:40:07Z</time>
      </trkpt>
      <trkpt lat="45.35397" lon="0.65038">
        <ele>87.39748073704</ele>
        <time>2015-08-07T16:40:12Z</time>
      </trkpt>
      <trkpt lat="45.35396" lon="0.65027">
        <ele>87.39748073704</ele>
        <time>2015-08-07T16:40:17Z</time>
      </trkpt>
      <trkpt lat="45.35396" lon="0.65019">
        <ele>87.22187669619</ele>
        <time>2015-08-07T16:40:22Z</time>
      </trkpt>
      <trkpt lat="45.35394" lon="0.65008">
        <ele>87.22187669619</ele>
        <time>2015-08-07T16:40:27Z</time>
      </trkpt>
      <trkpt lat="45.35392" lon="0.64998">
        <ele>87.379267997383</ele>
        <time>2015-08-07T16:40:32Z</time>
      </trkpt>
      <trkpt lat="45.3539" lon="0.64988">
        <ele>87.379267997383</ele>
        <time>2015-08-07T16:40:37Z</time>
      </trkpt>
      <trkpt lat="45.35386" lon="0.6498">
        <ele>87.555925043048</ele>
        <time>2015-08-07T16:40:42Z</time>
      </trkpt>
      <trkpt lat="45.35379" lon="0.64976">
        <ele>87.555925043048</ele>
        <time>2015-08-07T16:40:47Z</time>
      </trkpt>
      <trkpt lat="45.35372" lon="0.64976">
        <ele>88.109564822682</ele>
        <time>2015-08-07T16:40:52Z</time>
      </trkpt>
      <trkpt lat="45.35366" lon="0.64978">
        <ele>88.109564822682</ele>
        <time>2015-08-07T16:40:57Z</time>
      </trkpt>
      <trkpt lat="45.35354" lon="0.6498">
        <ele>88.534685720682</ele>
        <time>2015-08-07T16:41:07Z</time>
      </trkpt>
      <trkpt lat="45.35349" lon="0.64985">
        <ele>88.534685720682</ele>
        <time>2015-08-07T16:41:12Z</time>
      </trkpt>
      <trkpt lat="45.35343" lon="0.64986">
        <ele>88.579416025822</ele>
        <time>2015-08-07T16:41:17Z</time>
      </trkpt>
      <trkpt lat="45.35337" lon="0.6499">
        <ele>88.579416025822</ele>
        <time>2015-08-07T16:41:22Z</time>
      </trkpt>
      <trkpt lat="45.35332" lon="0.64996">
        <ele>88.544640346179</ele>
        <time>2015-08-07T16:41:27Z</time>
      </trkpt>
      <trkpt lat="45.3533" lon="0.65004">
        <ele>88.544640346179</ele>
        <time>2015-08-07T16:41:32Z</time>
      </trkpt>
      <trkpt lat="45.35327" lon="0.65011">
        <ele>89.343435352324</ele>
        <time>2015-08-07T16:41:37Z</time>
      </trkpt>
      <trkpt lat="45.35327" lon="0.65018">
        <ele>89.343435352324</ele>
        <time>2015-08-07T16:41:42Z</time>
      </trkpt>
      <trkpt lat="45.35327" lon="0.65019">
        <ele>89.343435352324</ele>
        <time>2015-08-07T16:41:47Z</time>
      </trkpt>
    </trkseg>
  </trk>
</gpx>